<?xml version="1.0" encoding="UTF-8" standalone="no" ?>
<gpx xmlns="http://www.topografix.com/GPX/1/1" xmlns:xsi="http://www.w3.org/2001/XMLSchema-instance" xsi:schemaLocation="http://www.topografix.com/GPX/1/1 http://www.topografix.com/GPX/1/1/gpx.xsd" version="1.1" creator="VisuGPX - https://www.visugpx.com">
  <metadata>
    <name>Champagnat Cyclisme sur route</name>
  </metadata>
  <trk>
    <name><![CDATA[Champagnat Cyclisme sur route_1]]></name>
    <trkseg>
      <trkpt lat="46.48721" lon="5.38196">
        <ele>301.2</ele>
        <time>2022-03-05T11:58:24Z</time>
      </trkpt>
      <trkpt lat="46.48731" lon="5.38206">
        <ele>299.2</ele>
        <time>2022-03-05T11:58:25Z</time>
      </trkpt>
      <trkpt lat="46.4875" lon="5.38228">
        <ele>296.8</ele>
        <time>2022-03-05T11:58:27Z</time>
      </trkpt>
      <trkpt lat="46.48759" lon="5.3824">
        <ele>296.2</ele>
        <time>2022-03-05T11:58:28Z</time>
      </trkpt>
      <trkpt lat="46.48768" lon="5.38251">
        <ele>294.8</ele>
        <time>2022-03-05T11:58:29Z</time>
      </trkpt>
      <trkpt lat="46.48787" lon="5.38271">
        <ele>293.2</ele>
        <time>2022-03-05T11:58:31Z</time>
      </trkpt>
      <trkpt lat="46.48797" lon="5.38279">
        <ele>292.2</ele>
        <time>2022-03-05T11:58:32Z</time>
      </trkpt>
      <trkpt lat="46.48818" lon="5.38295">
        <ele>290.8</ele>
        <time>2022-03-05T11:58:34Z</time>
      </trkpt>
      <trkpt lat="46.48839" lon="5.38311">
        <ele>289.2</ele>
        <time>2022-03-05T11:58:36Z</time>
      </trkpt>
      <trkpt lat="46.4886" lon="5.38328">
        <ele>288</ele>
        <time>2022-03-05T11:58:38Z</time>
      </trkpt>
      <trkpt lat="46.4887" lon="5.38336">
        <ele>286.6</ele>
        <time>2022-03-05T11:58:39Z</time>
      </trkpt>
      <trkpt lat="46.48892" lon="5.38349">
        <ele>284.8</ele>
        <time>2022-03-05T11:58:41Z</time>
      </trkpt>
      <trkpt lat="46.48902" lon="5.38355">
        <ele>284.2</ele>
        <time>2022-03-05T11:58:42Z</time>
      </trkpt>
      <trkpt lat="46.48913" lon="5.38362">
        <ele>283.2</ele>
        <time>2022-03-05T11:58:43Z</time>
      </trkpt>
      <trkpt lat="46.48923" lon="5.38369">
        <ele>282.4</ele>
        <time>2022-03-05T11:58:44Z</time>
      </trkpt>
      <trkpt lat="46.48933" lon="5.38379">
        <ele>281.6</ele>
        <time>2022-03-05T11:58:45Z</time>
      </trkpt>
      <trkpt lat="46.4894" lon="5.38392">
        <ele>280.8</ele>
        <time>2022-03-05T11:58:46Z</time>
      </trkpt>
      <trkpt lat="46.48946" lon="5.38406">
        <ele>280.4</ele>
        <time>2022-03-05T11:58:47Z</time>
      </trkpt>
      <trkpt lat="46.4895" lon="5.3842">
        <ele>279.2</ele>
        <time>2022-03-05T11:58:48Z</time>
      </trkpt>
      <trkpt lat="46.48956" lon="5.38448">
        <ele>278</ele>
        <time>2022-03-05T11:58:50Z</time>
      </trkpt>
      <trkpt lat="46.48966" lon="5.38471">
        <ele>277.4</ele>
        <time>2022-03-05T11:58:52Z</time>
      </trkpt>
      <trkpt lat="46.48981" lon="5.38487">
        <ele>276.8</ele>
        <time>2022-03-05T11:58:54Z</time>
      </trkpt>
      <trkpt lat="46.4899" lon="5.38493">
        <ele>276.8</ele>
        <time>2022-03-05T11:58:55Z</time>
      </trkpt>
      <trkpt lat="46.49032" lon="5.38511">
        <ele>276.6</ele>
        <time>2022-03-05T11:59:00Z</time>
      </trkpt>
      <trkpt lat="46.49058" lon="5.38519">
        <ele>275.8</ele>
        <time>2022-03-05T11:59:03Z</time>
      </trkpt>
      <trkpt lat="46.49076" lon="5.38521">
        <ele>275.4</ele>
        <time>2022-03-05T11:59:05Z</time>
      </trkpt>
      <trkpt lat="46.49084" lon="5.38522">
        <ele>275.2</ele>
        <time>2022-03-05T11:59:06Z</time>
      </trkpt>
      <trkpt lat="46.49131" lon="5.38528">
        <ele>274.8</ele>
        <time>2022-03-05T11:59:12Z</time>
      </trkpt>
      <trkpt lat="46.49138" lon="5.3853">
        <ele>275</ele>
        <time>2022-03-05T11:59:13Z</time>
      </trkpt>
      <trkpt lat="46.4915" lon="5.38537">
        <ele>275</ele>
        <time>2022-03-05T11:59:15Z</time>
      </trkpt>
      <trkpt lat="46.4916" lon="5.38541">
        <ele>275.2</ele>
        <time>2022-03-05T11:59:17Z</time>
      </trkpt>
      <trkpt lat="46.49169" lon="5.38541">
        <ele>275.4</ele>
        <time>2022-03-05T11:59:19Z</time>
      </trkpt>
      <trkpt lat="46.49177" lon="5.38547">
        <ele>275.6</ele>
        <time>2022-03-05T11:59:21Z</time>
      </trkpt>
      <trkpt lat="46.49185" lon="5.38575">
        <ele>276.6</ele>
        <time>2022-03-05T11:59:26Z</time>
      </trkpt>
      <trkpt lat="46.49187" lon="5.3858">
        <ele>276.8</ele>
        <time>2022-03-05T11:59:27Z</time>
      </trkpt>
      <trkpt lat="46.49194" lon="5.386">
        <ele>278.4</ele>
        <time>2022-03-05T11:59:31Z</time>
      </trkpt>
      <trkpt lat="46.49198" lon="5.38608">
        <ele>278.8</ele>
        <time>2022-03-05T11:59:33Z</time>
      </trkpt>
      <trkpt lat="46.49201" lon="5.38611">
        <ele>279</ele>
        <time>2022-03-05T11:59:34Z</time>
      </trkpt>
      <trkpt lat="46.49204" lon="5.38612">
        <ele>279.2</ele>
        <time>2022-03-05T11:59:35Z</time>
      </trkpt>
      <trkpt lat="46.49207" lon="5.38612">
        <ele>279.6</ele>
        <time>2022-03-05T11:59:36Z</time>
      </trkpt>
      <trkpt lat="46.4921" lon="5.38608">
        <ele>279.8</ele>
        <time>2022-03-05T11:59:37Z</time>
      </trkpt>
      <trkpt lat="46.49214" lon="5.38597">
        <ele>280</ele>
        <time>2022-03-05T11:59:39Z</time>
      </trkpt>
      <trkpt lat="46.49216" lon="5.3859">
        <ele>280</ele>
        <time>2022-03-05T11:59:40Z</time>
      </trkpt>
      <trkpt lat="46.49218" lon="5.38572">
        <ele>280</ele>
        <time>2022-03-05T11:59:42Z</time>
      </trkpt>
      <trkpt lat="46.49219" lon="5.38563">
        <ele>280</ele>
        <time>2022-03-05T11:59:43Z</time>
      </trkpt>
      <trkpt lat="46.49228" lon="5.38504">
        <ele>278.4</ele>
        <time>2022-03-05T11:59:49Z</time>
      </trkpt>
      <trkpt lat="46.49233" lon="5.38473">
        <ele>277</ele>
        <time>2022-03-05T11:59:52Z</time>
      </trkpt>
      <trkpt lat="46.49234" lon="5.38462">
        <ele>276.8</ele>
        <time>2022-03-05T11:59:53Z</time>
      </trkpt>
      <trkpt lat="46.49238" lon="5.38441">
        <ele>275.8</ele>
        <time>2022-03-05T11:59:55Z</time>
      </trkpt>
      <trkpt lat="46.49245" lon="5.38398">
        <ele>274.4</ele>
        <time>2022-03-05T11:59:59Z</time>
      </trkpt>
      <trkpt lat="46.49248" lon="5.38383">
        <ele>273.6</ele>
        <time>2022-03-05T12:00:01Z</time>
      </trkpt>
      <trkpt lat="46.4925" lon="5.38376">
        <ele>273.2</ele>
        <time>2022-03-05T12:00:03Z</time>
      </trkpt>
      <trkpt lat="46.49251" lon="5.38373">
        <ele>273.2</ele>
        <time>2022-03-05T12:00:04Z</time>
      </trkpt>
      <trkpt lat="46.49256" lon="5.38354">
        <ele>272.6</ele>
        <time>2022-03-05T12:00:08Z</time>
      </trkpt>
      <trkpt lat="46.49262" lon="5.38321">
        <ele>272.6</ele>
        <time>2022-03-05T12:00:12Z</time>
      </trkpt>
      <trkpt lat="46.49264" lon="5.38312">
        <ele>272.2</ele>
        <time>2022-03-05T12:00:13Z</time>
      </trkpt>
      <trkpt lat="46.49272" lon="5.38272">
        <ele>271</ele>
        <time>2022-03-05T12:00:17Z</time>
      </trkpt>
      <trkpt lat="46.49274" lon="5.38261">
        <ele>270.8</ele>
        <time>2022-03-05T12:00:18Z</time>
      </trkpt>
      <trkpt lat="46.4928" lon="5.3823">
        <ele>270</ele>
        <time>2022-03-05T12:00:21Z</time>
      </trkpt>
      <trkpt lat="46.49283" lon="5.38219">
        <ele>269.2</ele>
        <time>2022-03-05T12:00:22Z</time>
      </trkpt>
      <trkpt lat="46.49284" lon="5.38208">
        <ele>268.8</ele>
        <time>2022-03-05T12:00:23Z</time>
      </trkpt>
      <trkpt lat="46.49289" lon="5.38187">
        <ele>268</ele>
        <time>2022-03-05T12:00:25Z</time>
      </trkpt>
      <trkpt lat="46.49291" lon="5.38176">
        <ele>267.6</ele>
        <time>2022-03-05T12:00:26Z</time>
      </trkpt>
      <trkpt lat="46.49298" lon="5.38133">
        <ele>266.4</ele>
        <time>2022-03-05T12:00:30Z</time>
      </trkpt>
      <trkpt lat="46.49309" lon="5.38078">
        <ele>265.8</ele>
        <time>2022-03-05T12:00:35Z</time>
      </trkpt>
      <trkpt lat="46.49318" lon="5.38033">
        <ele>265.4</ele>
        <time>2022-03-05T12:00:39Z</time>
      </trkpt>
      <trkpt lat="46.49328" lon="5.37975">
        <ele>264.8</ele>
        <time>2022-03-05T12:00:44Z</time>
      </trkpt>
      <trkpt lat="46.49334" lon="5.37942">
        <ele>264</ele>
        <time>2022-03-05T12:00:47Z</time>
      </trkpt>
      <trkpt lat="46.49346" lon="5.37882">
        <ele>263.8</ele>
        <time>2022-03-05T12:00:53Z</time>
      </trkpt>
      <trkpt lat="46.49362" lon="5.37831">
        <ele>265</ele>
        <time>2022-03-05T12:00:59Z</time>
      </trkpt>
      <trkpt lat="46.49367" lon="5.37815">
        <ele>265.4</ele>
        <time>2022-03-05T12:01:01Z</time>
      </trkpt>
      <trkpt lat="46.49379" lon="5.37779">
        <ele>265.6</ele>
        <time>2022-03-05T12:01:05Z</time>
      </trkpt>
      <trkpt lat="46.494" lon="5.37722">
        <ele>265.4</ele>
        <time>2022-03-05T12:01:11Z</time>
      </trkpt>
      <trkpt lat="46.49409" lon="5.37701">
        <ele>265</ele>
        <time>2022-03-05T12:01:13Z</time>
      </trkpt>
      <trkpt lat="46.49421" lon="5.37682">
        <ele>264.8</ele>
        <time>2022-03-05T12:01:15Z</time>
      </trkpt>
      <trkpt lat="46.49427" lon="5.37673">
        <ele>264.6</ele>
        <time>2022-03-05T12:01:16Z</time>
      </trkpt>
      <trkpt lat="46.49434" lon="5.37666">
        <ele>264.2</ele>
        <time>2022-03-05T12:01:17Z</time>
      </trkpt>
      <trkpt lat="46.4945" lon="5.37651">
        <ele>263.2</ele>
        <time>2022-03-05T12:01:19Z</time>
      </trkpt>
      <trkpt lat="46.49459" lon="5.37644">
        <ele>262.8</ele>
        <time>2022-03-05T12:01:20Z</time>
      </trkpt>
      <trkpt lat="46.49476" lon="5.3763">
        <ele>261.4</ele>
        <time>2022-03-05T12:01:22Z</time>
      </trkpt>
      <trkpt lat="46.49493" lon="5.37615">
        <ele>260</ele>
        <time>2022-03-05T12:01:24Z</time>
      </trkpt>
      <trkpt lat="46.4952" lon="5.37593">
        <ele>258.6</ele>
        <time>2022-03-05T12:01:27Z</time>
      </trkpt>
      <trkpt lat="46.49537" lon="5.37579">
        <ele>257.4</ele>
        <time>2022-03-05T12:01:29Z</time>
      </trkpt>
      <trkpt lat="46.4957" lon="5.37551">
        <ele>256.2</ele>
        <time>2022-03-05T12:01:33Z</time>
      </trkpt>
      <trkpt lat="46.49603" lon="5.37523">
        <ele>255.4</ele>
        <time>2022-03-05T12:01:37Z</time>
      </trkpt>
      <trkpt lat="46.49612" lon="5.37517">
        <ele>254.8</ele>
        <time>2022-03-05T12:01:38Z</time>
      </trkpt>
      <trkpt lat="46.4963" lon="5.37512">
        <ele>254</ele>
        <time>2022-03-05T12:01:40Z</time>
      </trkpt>
      <trkpt lat="46.49639" lon="5.37515">
        <ele>253.8</ele>
        <time>2022-03-05T12:01:41Z</time>
      </trkpt>
      <trkpt lat="46.49666" lon="5.37529">
        <ele>252.6</ele>
        <time>2022-03-05T12:01:44Z</time>
      </trkpt>
      <trkpt lat="46.49691" lon="5.37542">
        <ele>252.2</ele>
        <time>2022-03-05T12:01:47Z</time>
      </trkpt>
      <trkpt lat="46.49745" lon="5.37573">
        <ele>252.4</ele>
        <time>2022-03-05T12:01:54Z</time>
      </trkpt>
      <trkpt lat="46.49798" lon="5.37608">
        <ele>252.8</ele>
        <time>2022-03-05T12:02:02Z</time>
      </trkpt>
      <trkpt lat="46.49836" lon="5.3763">
        <ele>252.8</ele>
        <time>2022-03-05T12:02:08Z</time>
      </trkpt>
      <trkpt lat="46.49892" lon="5.37652">
        <ele>252.4</ele>
        <time>2022-03-05T12:02:17Z</time>
      </trkpt>
      <trkpt lat="46.49898" lon="5.37654">
        <ele>252.4</ele>
        <time>2022-03-05T12:02:18Z</time>
      </trkpt>
      <trkpt lat="46.49903" lon="5.37656">
        <ele>252.4</ele>
        <time>2022-03-05T12:02:19Z</time>
      </trkpt>
      <trkpt lat="46.49937" lon="5.37667">
        <ele>253.2</ele>
        <time>2022-03-05T12:02:25Z</time>
      </trkpt>
      <trkpt lat="46.49965" lon="5.37678">
        <ele>254</ele>
        <time>2022-03-05T12:02:30Z</time>
      </trkpt>
      <trkpt lat="46.49976" lon="5.37684">
        <ele>254</ele>
        <time>2022-03-05T12:02:32Z</time>
      </trkpt>
      <trkpt lat="46.50023" lon="5.37707">
        <ele>255</ele>
        <time>2022-03-05T12:02:41Z</time>
      </trkpt>
      <trkpt lat="46.50069" lon="5.37728">
        <ele>255.4</ele>
        <time>2022-03-05T12:02:50Z</time>
      </trkpt>
      <trkpt lat="46.50098" lon="5.37739">
        <ele>255.6</ele>
        <time>2022-03-05T12:02:55Z</time>
      </trkpt>
      <trkpt lat="46.50122" lon="5.37747">
        <ele>255.4</ele>
        <time>2022-03-05T12:02:59Z</time>
      </trkpt>
      <trkpt lat="46.50178" lon="5.3776">
        <ele>254.2</ele>
        <time>2022-03-05T12:03:07Z</time>
      </trkpt>
      <trkpt lat="46.50194" lon="5.37765">
        <ele>253.8</ele>
        <time>2022-03-05T12:03:09Z</time>
      </trkpt>
      <trkpt lat="46.50223" lon="5.37781">
        <ele>252.6</ele>
        <time>2022-03-05T12:03:13Z</time>
      </trkpt>
      <trkpt lat="46.50252" lon="5.37804">
        <ele>251.8</ele>
        <time>2022-03-05T12:03:18Z</time>
      </trkpt>
      <trkpt lat="46.50282" lon="5.37831">
        <ele>253.2</ele>
        <time>2022-03-05T12:03:24Z</time>
      </trkpt>
      <trkpt lat="46.5032" lon="5.37871">
        <ele>253.8</ele>
        <time>2022-03-05T12:03:32Z</time>
      </trkpt>
      <trkpt lat="46.5033" lon="5.37881">
        <ele>253.8</ele>
        <time>2022-03-05T12:03:34Z</time>
      </trkpt>
      <trkpt lat="46.50351" lon="5.3791">
        <ele>253.8</ele>
        <time>2022-03-05T12:03:39Z</time>
      </trkpt>
      <trkpt lat="46.50354" lon="5.37917">
        <ele>253.8</ele>
        <time>2022-03-05T12:03:40Z</time>
      </trkpt>
      <trkpt lat="46.50357" lon="5.37924">
        <ele>253.8</ele>
        <time>2022-03-05T12:03:41Z</time>
      </trkpt>
      <trkpt lat="46.50362" lon="5.37947">
        <ele>254.2</ele>
        <time>2022-03-05T12:03:44Z</time>
      </trkpt>
      <trkpt lat="46.50363" lon="5.37954">
        <ele>254.2</ele>
        <time>2022-03-05T12:03:45Z</time>
      </trkpt>
      <trkpt lat="46.50362" lon="5.37977">
        <ele>254.2</ele>
        <time>2022-03-05T12:03:48Z</time>
      </trkpt>
      <trkpt lat="46.50357" lon="5.38017">
        <ele>254.2</ele>
        <time>2022-03-05T12:03:53Z</time>
      </trkpt>
      <trkpt lat="46.5036" lon="5.38033">
        <ele>253.8</ele>
        <time>2022-03-05T12:03:55Z</time>
      </trkpt>
      <trkpt lat="46.50366" lon="5.38043">
        <ele>253.8</ele>
        <time>2022-03-05T12:03:57Z</time>
      </trkpt>
      <trkpt lat="46.50368" lon="5.38046">
        <ele>253.8</ele>
        <time>2022-03-05T12:03:58Z</time>
      </trkpt>
      <trkpt lat="46.50379" lon="5.38048">
        <ele>253.8</ele>
        <time>2022-03-05T12:04:02Z</time>
      </trkpt>
      <trkpt lat="46.50387" lon="5.38042">
        <ele>253.6</ele>
        <time>2022-03-05T12:04:04Z</time>
      </trkpt>
      <trkpt lat="46.50396" lon="5.3803">
        <ele>253.6</ele>
        <time>2022-03-05T12:04:06Z</time>
      </trkpt>
      <trkpt lat="46.50414" lon="5.37997">
        <ele>252.6</ele>
        <time>2022-03-05T12:04:10Z</time>
      </trkpt>
      <trkpt lat="46.50419" lon="5.37988">
        <ele>252</ele>
        <time>2022-03-05T12:04:11Z</time>
      </trkpt>
      <trkpt lat="46.5043" lon="5.37969">
        <ele>251.6</ele>
        <time>2022-03-05T12:04:13Z</time>
      </trkpt>
      <trkpt lat="46.50446" lon="5.37941">
        <ele>250.6</ele>
        <time>2022-03-05T12:04:16Z</time>
      </trkpt>
      <trkpt lat="46.50452" lon="5.37932">
        <ele>249.8</ele>
        <time>2022-03-05T12:04:17Z</time>
      </trkpt>
      <trkpt lat="46.50465" lon="5.37914">
        <ele>248.6</ele>
        <time>2022-03-05T12:04:19Z</time>
      </trkpt>
      <trkpt lat="46.50471" lon="5.37905">
        <ele>247.6</ele>
        <time>2022-03-05T12:04:20Z</time>
      </trkpt>
      <trkpt lat="46.5049" lon="5.37878">
        <ele>246.4</ele>
        <time>2022-03-05T12:04:23Z</time>
      </trkpt>
      <trkpt lat="46.50502" lon="5.37859">
        <ele>246</ele>
        <time>2022-03-05T12:04:25Z</time>
      </trkpt>
      <trkpt lat="46.5052" lon="5.37831">
        <ele>245.4</ele>
        <time>2022-03-05T12:04:28Z</time>
      </trkpt>
      <trkpt lat="46.50539" lon="5.37802">
        <ele>244.4</ele>
        <time>2022-03-05T12:04:31Z</time>
      </trkpt>
      <trkpt lat="46.50552" lon="5.37783">
        <ele>243.4</ele>
        <time>2022-03-05T12:04:33Z</time>
      </trkpt>
      <trkpt lat="46.50565" lon="5.37763">
        <ele>242.6</ele>
        <time>2022-03-05T12:04:35Z</time>
      </trkpt>
      <trkpt lat="46.50571" lon="5.37753">
        <ele>242</ele>
        <time>2022-03-05T12:04:36Z</time>
      </trkpt>
      <trkpt lat="46.50585" lon="5.37733">
        <ele>240.8</ele>
        <time>2022-03-05T12:04:38Z</time>
      </trkpt>
      <trkpt lat="46.50605" lon="5.37702">
        <ele>239.6</ele>
        <time>2022-03-05T12:04:41Z</time>
      </trkpt>
      <trkpt lat="46.50624" lon="5.37672">
        <ele>238.6</ele>
        <time>2022-03-05T12:04:44Z</time>
      </trkpt>
      <trkpt lat="46.50644" lon="5.37642">
        <ele>237.8</ele>
        <time>2022-03-05T12:04:47Z</time>
      </trkpt>
      <trkpt lat="46.50666" lon="5.37606">
        <ele>237</ele>
        <time>2022-03-05T12:04:51Z</time>
      </trkpt>
      <trkpt lat="46.50682" lon="5.37582">
        <ele>236.8</ele>
        <time>2022-03-05T12:04:54Z</time>
      </trkpt>
      <trkpt lat="46.50692" lon="5.37569">
        <ele>236.6</ele>
        <time>2022-03-05T12:04:56Z</time>
      </trkpt>
      <trkpt lat="46.50707" lon="5.37569">
        <ele>236.4</ele>
        <time>2022-03-05T12:04:58Z</time>
      </trkpt>
      <trkpt lat="46.50719" lon="5.37582">
        <ele>236.4</ele>
        <time>2022-03-05T12:05:00Z</time>
      </trkpt>
      <trkpt lat="46.50723" lon="5.37588">
        <ele>235.8</ele>
        <time>2022-03-05T12:05:01Z</time>
      </trkpt>
      <trkpt lat="46.50727" lon="5.37595">
        <ele>235.8</ele>
        <time>2022-03-05T12:05:02Z</time>
      </trkpt>
      <trkpt lat="46.50733" lon="5.37608">
        <ele>235.6</ele>
        <time>2022-03-05T12:05:04Z</time>
      </trkpt>
      <trkpt lat="46.50738" lon="5.37622">
        <ele>235.6</ele>
        <time>2022-03-05T12:05:06Z</time>
      </trkpt>
      <trkpt lat="46.50741" lon="5.3764">
        <ele>236</ele>
        <time>2022-03-05T12:05:09Z</time>
      </trkpt>
      <trkpt lat="46.50741" lon="5.37653">
        <ele>236.6</ele>
        <time>2022-03-05T12:05:11Z</time>
      </trkpt>
      <trkpt lat="46.50741" lon="5.37658">
        <ele>236.8</ele>
        <time>2022-03-05T12:05:12Z</time>
      </trkpt>
      <trkpt lat="46.50742" lon="5.3768">
        <ele>238</ele>
        <time>2022-03-05T12:05:16Z</time>
      </trkpt>
      <trkpt lat="46.50742" lon="5.37691">
        <ele>238.4</ele>
        <time>2022-03-05T12:05:18Z</time>
      </trkpt>
      <trkpt lat="46.50744" lon="5.37707">
        <ele>239</ele>
        <time>2022-03-05T12:05:21Z</time>
      </trkpt>
      <trkpt lat="46.50745" lon="5.3773">
        <ele>240</ele>
        <time>2022-03-05T12:05:25Z</time>
      </trkpt>
      <trkpt lat="46.50746" lon="5.37736">
        <ele>240.2</ele>
        <time>2022-03-05T12:05:26Z</time>
      </trkpt>
      <trkpt lat="46.50752" lon="5.37776">
        <ele>241</ele>
        <time>2022-03-05T12:05:32Z</time>
      </trkpt>
      <trkpt lat="46.50761" lon="5.37811">
        <ele>241</ele>
        <time>2022-03-05T12:05:37Z</time>
      </trkpt>
      <trkpt lat="46.50763" lon="5.37817">
        <ele>241.2</ele>
        <time>2022-03-05T12:05:38Z</time>
      </trkpt>
      <trkpt lat="46.50787" lon="5.3786">
        <ele>242.4</ele>
        <time>2022-03-05T12:05:46Z</time>
      </trkpt>
      <trkpt lat="46.50816" lon="5.37893">
        <ele>243</ele>
        <time>2022-03-05T12:05:54Z</time>
      </trkpt>
      <trkpt lat="46.5084" lon="5.37902">
        <ele>242.8</ele>
        <time>2022-03-05T12:05:59Z</time>
      </trkpt>
      <trkpt lat="46.50886" lon="5.37906">
        <ele>243</ele>
        <time>2022-03-05T12:06:08Z</time>
      </trkpt>
      <trkpt lat="46.5093" lon="5.37901">
        <ele>243</ele>
        <time>2022-03-05T12:06:17Z</time>
      </trkpt>
      <trkpt lat="46.50949" lon="5.37895">
        <ele>243.4</ele>
        <time>2022-03-05T12:06:21Z</time>
      </trkpt>
      <trkpt lat="46.50978" lon="5.37887">
        <ele>243.6</ele>
        <time>2022-03-05T12:06:27Z</time>
      </trkpt>
      <trkpt lat="46.51032" lon="5.37877">
        <ele>242.8</ele>
        <time>2022-03-05T12:06:37Z</time>
      </trkpt>
      <trkpt lat="46.5104" lon="5.37876">
        <ele>242.8</ele>
        <time>2022-03-05T12:06:38Z</time>
      </trkpt>
      <trkpt lat="46.51064" lon="5.37874">
        <ele>242.6</ele>
        <time>2022-03-05T12:06:42Z</time>
      </trkpt>
      <trkpt lat="46.51084" lon="5.37871">
        <ele>242</ele>
        <time>2022-03-05T12:06:45Z</time>
      </trkpt>
      <trkpt lat="46.5109" lon="5.3787">
        <ele>241.2</ele>
        <time>2022-03-05T12:06:46Z</time>
      </trkpt>
      <trkpt lat="46.51116" lon="5.37858">
        <ele>240</ele>
        <time>2022-03-05T12:06:50Z</time>
      </trkpt>
      <trkpt lat="46.51123" lon="5.37855">
        <ele>240</ele>
        <time>2022-03-05T12:06:51Z</time>
      </trkpt>
      <trkpt lat="46.51161" lon="5.37826">
        <ele>239</ele>
        <time>2022-03-05T12:06:57Z</time>
      </trkpt>
      <trkpt lat="46.51174" lon="5.37818">
        <ele>239</ele>
        <time>2022-03-05T12:06:59Z</time>
      </trkpt>
      <trkpt lat="46.51194" lon="5.3781">
        <ele>238.4</ele>
        <time>2022-03-05T12:07:02Z</time>
      </trkpt>
      <trkpt lat="46.51216" lon="5.37807">
        <ele>238</ele>
        <time>2022-03-05T12:07:05Z</time>
      </trkpt>
      <trkpt lat="46.51246" lon="5.37802">
        <ele>236.6</ele>
        <time>2022-03-05T12:07:09Z</time>
      </trkpt>
      <trkpt lat="46.51253" lon="5.378">
        <ele>236.4</ele>
        <time>2022-03-05T12:07:10Z</time>
      </trkpt>
      <trkpt lat="46.51274" lon="5.37791">
        <ele>235.4</ele>
        <time>2022-03-05T12:07:13Z</time>
      </trkpt>
      <trkpt lat="46.51281" lon="5.37787">
        <ele>235.4</ele>
        <time>2022-03-05T12:07:14Z</time>
      </trkpt>
      <trkpt lat="46.51334" lon="5.3776">
        <ele>234.8</ele>
        <time>2022-03-05T12:07:22Z</time>
      </trkpt>
      <trkpt lat="46.51341" lon="5.37756">
        <ele>234.4</ele>
        <time>2022-03-05T12:07:23Z</time>
      </trkpt>
      <trkpt lat="46.51348" lon="5.37753">
        <ele>234.4</ele>
        <time>2022-03-05T12:07:24Z</time>
      </trkpt>
      <trkpt lat="46.51383" lon="5.37735">
        <ele>233.2</ele>
        <time>2022-03-05T12:07:29Z</time>
      </trkpt>
      <trkpt lat="46.51413" lon="5.37723">
        <ele>232.6</ele>
        <time>2022-03-05T12:07:33Z</time>
      </trkpt>
      <trkpt lat="46.51443" lon="5.37714">
        <ele>232.2</ele>
        <time>2022-03-05T12:07:37Z</time>
      </trkpt>
      <trkpt lat="46.51481" lon="5.37705">
        <ele>231.2</ele>
        <time>2022-03-05T12:07:42Z</time>
      </trkpt>
      <trkpt lat="46.51489" lon="5.37704">
        <ele>230.8</ele>
        <time>2022-03-05T12:07:43Z</time>
      </trkpt>
      <trkpt lat="46.51518" lon="5.37697">
        <ele>230</ele>
        <time>2022-03-05T12:07:47Z</time>
      </trkpt>
      <trkpt lat="46.51541" lon="5.37691">
        <ele>229.4</ele>
        <time>2022-03-05T12:07:50Z</time>
      </trkpt>
      <trkpt lat="46.51555" lon="5.37687">
        <ele>229.2</ele>
        <time>2022-03-05T12:07:52Z</time>
      </trkpt>
      <trkpt lat="46.51571" lon="5.37685">
        <ele>229</ele>
        <time>2022-03-05T12:07:54Z</time>
      </trkpt>
      <trkpt lat="46.5161" lon="5.3768">
        <ele>228</ele>
        <time>2022-03-05T12:07:59Z</time>
      </trkpt>
      <trkpt lat="46.51657" lon="5.37663">
        <ele>227.2</ele>
        <time>2022-03-05T12:08:05Z</time>
      </trkpt>
      <trkpt lat="46.51677" lon="5.37651">
        <ele>227.2</ele>
        <time>2022-03-05T12:08:08Z</time>
      </trkpt>
      <trkpt lat="46.51683" lon="5.37646">
        <ele>227</ele>
        <time>2022-03-05T12:08:09Z</time>
      </trkpt>
      <trkpt lat="46.5169" lon="5.37641">
        <ele>226.8</ele>
        <time>2022-03-05T12:08:10Z</time>
      </trkpt>
      <trkpt lat="46.51704" lon="5.37634">
        <ele>226.8</ele>
        <time>2022-03-05T12:08:12Z</time>
      </trkpt>
      <trkpt lat="46.51711" lon="5.37634">
        <ele>226.8</ele>
        <time>2022-03-05T12:08:13Z</time>
      </trkpt>
      <trkpt lat="46.51718" lon="5.37635">
        <ele>226.8</ele>
        <time>2022-03-05T12:08:14Z</time>
      </trkpt>
      <trkpt lat="46.51744" lon="5.37642">
        <ele>227</ele>
        <time>2022-03-05T12:08:18Z</time>
      </trkpt>
      <trkpt lat="46.51773" lon="5.3765">
        <ele>227.8</ele>
        <time>2022-03-05T12:08:23Z</time>
      </trkpt>
      <trkpt lat="46.51796" lon="5.37654">
        <ele>228</ele>
        <time>2022-03-05T12:08:27Z</time>
      </trkpt>
      <trkpt lat="46.51807" lon="5.37654">
        <ele>228.2</ele>
        <time>2022-03-05T12:08:29Z</time>
      </trkpt>
      <trkpt lat="46.51839" lon="5.37651">
        <ele>229.6</ele>
        <time>2022-03-05T12:08:35Z</time>
      </trkpt>
      <trkpt lat="46.5185" lon="5.37651">
        <ele>230</ele>
        <time>2022-03-05T12:08:37Z</time>
      </trkpt>
      <trkpt lat="46.51878" lon="5.37649">
        <ele>230.6</ele>
        <time>2022-03-05T12:08:42Z</time>
      </trkpt>
      <trkpt lat="46.51896" lon="5.37649">
        <ele>230.8</ele>
        <time>2022-03-05T12:08:45Z</time>
      </trkpt>
      <trkpt lat="46.51941" lon="5.37643">
        <ele>230.8</ele>
        <time>2022-03-05T12:08:52Z</time>
      </trkpt>
      <trkpt lat="46.51995" lon="5.37633">
        <ele>230.6</ele>
        <time>2022-03-05T12:09:01Z</time>
      </trkpt>
      <trkpt lat="46.52005" lon="5.37632">
        <ele>230.4</ele>
        <time>2022-03-05T12:09:03Z</time>
      </trkpt>
      <trkpt lat="46.52018" lon="5.37633">
        <ele>230.2</ele>
        <time>2022-03-05T12:09:06Z</time>
      </trkpt>
      <trkpt lat="46.52024" lon="5.37624">
        <ele>230.2</ele>
        <time>2022-03-05T12:09:08Z</time>
      </trkpt>
      <trkpt lat="46.52027" lon="5.37618">
        <ele>230.2</ele>
        <time>2022-03-05T12:09:09Z</time>
      </trkpt>
      <trkpt lat="46.52029" lon="5.37611">
        <ele>230.2</ele>
        <time>2022-03-05T12:09:10Z</time>
      </trkpt>
      <trkpt lat="46.52036" lon="5.37586">
        <ele>230.2</ele>
        <time>2022-03-05T12:09:13Z</time>
      </trkpt>
      <trkpt lat="46.52044" lon="5.37551">
        <ele>229.8</ele>
        <time>2022-03-05T12:09:17Z</time>
      </trkpt>
      <trkpt lat="46.5205" lon="5.37525">
        <ele>229.8</ele>
        <time>2022-03-05T12:09:20Z</time>
      </trkpt>
      <trkpt lat="46.52064" lon="5.37458">
        <ele>229.8</ele>
        <time>2022-03-05T12:09:28Z</time>
      </trkpt>
      <trkpt lat="46.52076" lon="5.37403">
        <ele>229.6</ele>
        <time>2022-03-05T12:09:35Z</time>
      </trkpt>
      <trkpt lat="46.52078" lon="5.37395">
        <ele>229.6</ele>
        <time>2022-03-05T12:09:36Z</time>
      </trkpt>
      <trkpt lat="46.52085" lon="5.37365">
        <ele>229.4</ele>
        <time>2022-03-05T12:09:40Z</time>
      </trkpt>
      <trkpt lat="46.52092" lon="5.37351">
        <ele>229.2</ele>
        <time>2022-03-05T12:09:42Z</time>
      </trkpt>
      <trkpt lat="46.52097" lon="5.37345">
        <ele>229.2</ele>
        <time>2022-03-05T12:09:43Z</time>
      </trkpt>
      <trkpt lat="46.52103" lon="5.3734">
        <ele>228.8</ele>
        <time>2022-03-05T12:09:44Z</time>
      </trkpt>
      <trkpt lat="46.52129" lon="5.37321">
        <ele>227.8</ele>
        <time>2022-03-05T12:09:48Z</time>
      </trkpt>
      <trkpt lat="46.5215" lon="5.37306">
        <ele>226.6</ele>
        <time>2022-03-05T12:09:51Z</time>
      </trkpt>
      <trkpt lat="46.52172" lon="5.37289">
        <ele>225.8</ele>
        <time>2022-03-05T12:09:54Z</time>
      </trkpt>
      <trkpt lat="46.5218" lon="5.37284">
        <ele>225</ele>
        <time>2022-03-05T12:09:55Z</time>
      </trkpt>
      <trkpt lat="46.52195" lon="5.37272">
        <ele>223.8</ele>
        <time>2022-03-05T12:09:57Z</time>
      </trkpt>
      <trkpt lat="46.52219" lon="5.37254">
        <ele>222.4</ele>
        <time>2022-03-05T12:10:00Z</time>
      </trkpt>
      <trkpt lat="46.5224" lon="5.37235">
        <ele>221.2</ele>
        <time>2022-03-05T12:10:03Z</time>
      </trkpt>
      <trkpt lat="46.52254" lon="5.37222">
        <ele>219.6</ele>
        <time>2022-03-05T12:10:05Z</time>
      </trkpt>
      <trkpt lat="46.52268" lon="5.37208">
        <ele>218.6</ele>
        <time>2022-03-05T12:10:07Z</time>
      </trkpt>
      <trkpt lat="46.52295" lon="5.37179">
        <ele>217.4</ele>
        <time>2022-03-05T12:10:11Z</time>
      </trkpt>
      <trkpt lat="46.52321" lon="5.37151">
        <ele>216.4</ele>
        <time>2022-03-05T12:10:15Z</time>
      </trkpt>
      <trkpt lat="46.52328" lon="5.37144">
        <ele>216</ele>
        <time>2022-03-05T12:10:16Z</time>
      </trkpt>
      <trkpt lat="46.52341" lon="5.3713">
        <ele>215.2</ele>
        <time>2022-03-05T12:10:18Z</time>
      </trkpt>
      <trkpt lat="46.52362" lon="5.37109">
        <ele>213.8</ele>
        <time>2022-03-05T12:10:21Z</time>
      </trkpt>
      <trkpt lat="46.52382" lon="5.37088">
        <ele>212.8</ele>
        <time>2022-03-05T12:10:24Z</time>
      </trkpt>
      <trkpt lat="46.52395" lon="5.37074">
        <ele>212.2</ele>
        <time>2022-03-05T12:10:26Z</time>
      </trkpt>
      <trkpt lat="46.524" lon="5.37066">
        <ele>211.8</ele>
        <time>2022-03-05T12:10:27Z</time>
      </trkpt>
      <trkpt lat="46.52405" lon="5.37058">
        <ele>211.6</ele>
        <time>2022-03-05T12:10:28Z</time>
      </trkpt>
      <trkpt lat="46.52414" lon="5.37042">
        <ele>211.2</ele>
        <time>2022-03-05T12:10:30Z</time>
      </trkpt>
      <trkpt lat="46.52418" lon="5.37034">
        <ele>211.2</ele>
        <time>2022-03-05T12:10:31Z</time>
      </trkpt>
      <trkpt lat="46.52425" lon="5.37021">
        <ele>211</ele>
        <time>2022-03-05T12:10:33Z</time>
      </trkpt>
      <trkpt lat="46.5243" lon="5.37019">
        <ele>211</ele>
        <time>2022-03-05T12:10:34Z</time>
      </trkpt>
      <trkpt lat="46.52434" lon="5.37019">
        <ele>211</ele>
        <time>2022-03-05T12:10:35Z</time>
      </trkpt>
      <trkpt lat="46.52441" lon="5.37028">
        <ele>211.2</ele>
        <time>2022-03-05T12:10:37Z</time>
      </trkpt>
      <trkpt lat="46.52451" lon="5.37073">
        <ele>211.6</ele>
        <time>2022-03-05T12:10:43Z</time>
      </trkpt>
      <trkpt lat="46.52466" lon="5.37113">
        <ele>211.6</ele>
        <time>2022-03-05T12:10:48Z</time>
      </trkpt>
      <trkpt lat="46.52491" lon="5.37151">
        <ele>211.4</ele>
        <time>2022-03-05T12:10:54Z</time>
      </trkpt>
      <trkpt lat="46.52531" lon="5.37198">
        <ele>212</ele>
        <time>2022-03-05T12:11:03Z</time>
      </trkpt>
      <trkpt lat="46.52551" lon="5.37236">
        <ele>212.6</ele>
        <time>2022-03-05T12:11:09Z</time>
      </trkpt>
      <trkpt lat="46.5256" lon="5.37264">
        <ele>213</ele>
        <time>2022-03-05T12:11:13Z</time>
      </trkpt>
      <trkpt lat="46.52563" lon="5.37287">
        <ele>213</ele>
        <time>2022-03-05T12:11:16Z</time>
      </trkpt>
      <trkpt lat="46.52565" lon="5.37335">
        <ele>213.2</ele>
        <time>2022-03-05T12:11:22Z</time>
      </trkpt>
      <trkpt lat="46.5256" lon="5.37413">
        <ele>213.4</ele>
        <time>2022-03-05T12:11:32Z</time>
      </trkpt>
      <trkpt lat="46.52556" lon="5.37475">
        <ele>213.8</ele>
        <time>2022-03-05T12:11:40Z</time>
      </trkpt>
      <trkpt lat="46.52555" lon="5.37482">
        <ele>214</ele>
        <time>2022-03-05T12:11:41Z</time>
      </trkpt>
      <trkpt lat="46.52549" lon="5.37536">
        <ele>214.4</ele>
        <time>2022-03-05T12:11:48Z</time>
      </trkpt>
      <trkpt lat="46.52548" lon="5.37551">
        <ele>214.4</ele>
        <time>2022-03-05T12:11:50Z</time>
      </trkpt>
      <trkpt lat="46.5254" lon="5.3763">
        <ele>214.4</ele>
        <time>2022-03-05T12:12:00Z</time>
      </trkpt>
      <trkpt lat="46.52533" lon="5.3771">
        <ele>214.4</ele>
        <time>2022-03-05T12:12:10Z</time>
      </trkpt>
      <trkpt lat="46.52529" lon="5.3779">
        <ele>215</ele>
        <time>2022-03-05T12:12:20Z</time>
      </trkpt>
      <trkpt lat="46.52527" lon="5.37806">
        <ele>215.2</ele>
        <time>2022-03-05T12:12:22Z</time>
      </trkpt>
      <trkpt lat="46.52526" lon="5.37822">
        <ele>215.2</ele>
        <time>2022-03-05T12:12:24Z</time>
      </trkpt>
      <trkpt lat="46.52523" lon="5.37877">
        <ele>215.4</ele>
        <time>2022-03-05T12:12:31Z</time>
      </trkpt>
      <trkpt lat="46.52521" lon="5.37947">
        <ele>215.4</ele>
        <time>2022-03-05T12:12:40Z</time>
      </trkpt>
      <trkpt lat="46.52532" lon="5.37996">
        <ele>216.2</ele>
        <time>2022-03-05T12:12:47Z</time>
      </trkpt>
      <trkpt lat="46.52544" lon="5.38059">
        <ele>216.4</ele>
        <time>2022-03-05T12:12:56Z</time>
      </trkpt>
      <trkpt lat="46.52545" lon="5.38088">
        <ele>216.8</ele>
        <time>2022-03-05T12:13:00Z</time>
      </trkpt>
      <trkpt lat="46.52544" lon="5.38119">
        <ele>217.2</ele>
        <time>2022-03-05T12:13:04Z</time>
      </trkpt>
      <trkpt lat="46.52543" lon="5.38126">
        <ele>217.6</ele>
        <time>2022-03-05T12:13:05Z</time>
      </trkpt>
      <trkpt lat="46.52534" lon="5.38167">
        <ele>218.2</ele>
        <time>2022-03-05T12:13:11Z</time>
      </trkpt>
      <trkpt lat="46.52523" lon="5.38213">
        <ele>218.6</ele>
        <time>2022-03-05T12:13:18Z</time>
      </trkpt>
      <trkpt lat="46.5252" lon="5.38226">
        <ele>218.8</ele>
        <time>2022-03-05T12:13:20Z</time>
      </trkpt>
      <trkpt lat="46.52516" lon="5.38244">
        <ele>219.4</ele>
        <time>2022-03-05T12:13:23Z</time>
      </trkpt>
      <trkpt lat="46.52515" lon="5.38258">
        <ele>219.6</ele>
        <time>2022-03-05T12:13:25Z</time>
      </trkpt>
      <trkpt lat="46.52514" lon="5.38264">
        <ele>220</ele>
        <time>2022-03-05T12:13:26Z</time>
      </trkpt>
      <trkpt lat="46.52514" lon="5.38278">
        <ele>220.2</ele>
        <time>2022-03-05T12:13:28Z</time>
      </trkpt>
      <trkpt lat="46.52515" lon="5.38306">
        <ele>220.8</ele>
        <time>2022-03-05T12:13:32Z</time>
      </trkpt>
      <trkpt lat="46.52516" lon="5.38313">
        <ele>221</ele>
        <time>2022-03-05T12:13:33Z</time>
      </trkpt>
      <trkpt lat="46.5252" lon="5.38333">
        <ele>222</ele>
        <time>2022-03-05T12:13:36Z</time>
      </trkpt>
      <trkpt lat="46.52521" lon="5.3834">
        <ele>222.2</ele>
        <time>2022-03-05T12:13:37Z</time>
      </trkpt>
      <trkpt lat="46.52524" lon="5.38359">
        <ele>222.6</ele>
        <time>2022-03-05T12:13:40Z</time>
      </trkpt>
      <trkpt lat="46.52525" lon="5.38372">
        <ele>223</ele>
        <time>2022-03-05T12:13:42Z</time>
      </trkpt>
      <trkpt lat="46.52525" lon="5.3839">
        <ele>223.4</ele>
        <time>2022-03-05T12:13:45Z</time>
      </trkpt>
      <trkpt lat="46.52524" lon="5.38402">
        <ele>223.6</ele>
        <time>2022-03-05T12:13:47Z</time>
      </trkpt>
      <trkpt lat="46.52524" lon="5.38408">
        <ele>223.8</ele>
        <time>2022-03-05T12:13:48Z</time>
      </trkpt>
      <trkpt lat="46.52524" lon="5.38422">
        <ele>224.2</ele>
        <time>2022-03-05T12:13:50Z</time>
      </trkpt>
      <trkpt lat="46.52525" lon="5.3843">
        <ele>224.2</ele>
        <time>2022-03-05T12:13:51Z</time>
      </trkpt>
      <trkpt lat="46.52527" lon="5.38444">
        <ele>224.4</ele>
        <time>2022-03-05T12:13:53Z</time>
      </trkpt>
      <trkpt lat="46.52533" lon="5.38458">
        <ele>224.6</ele>
        <time>2022-03-05T12:13:55Z</time>
      </trkpt>
      <trkpt lat="46.5254" lon="5.38469">
        <ele>224.6</ele>
        <time>2022-03-05T12:13:57Z</time>
      </trkpt>
      <trkpt lat="46.52544" lon="5.38473">
        <ele>224.6</ele>
        <time>2022-03-05T12:13:58Z</time>
      </trkpt>
      <trkpt lat="46.52562" lon="5.38487">
        <ele>224.6</ele>
        <time>2022-03-05T12:14:02Z</time>
      </trkpt>
      <trkpt lat="46.52583" lon="5.38498">
        <ele>224.4</ele>
        <time>2022-03-05T12:14:06Z</time>
      </trkpt>
      <trkpt lat="46.52599" lon="5.38502">
        <ele>224.2</ele>
        <time>2022-03-05T12:14:09Z</time>
      </trkpt>
      <trkpt lat="46.5264" lon="5.3851">
        <ele>223</ele>
        <time>2022-03-05T12:14:16Z</time>
      </trkpt>
      <trkpt lat="46.52652" lon="5.38512">
        <ele>222.6</ele>
        <time>2022-03-05T12:14:18Z</time>
      </trkpt>
      <trkpt lat="46.52675" lon="5.38516">
        <ele>222</ele>
        <time>2022-03-05T12:14:22Z</time>
      </trkpt>
      <trkpt lat="46.52704" lon="5.38523">
        <ele>222.2</ele>
        <time>2022-03-05T12:14:27Z</time>
      </trkpt>
      <trkpt lat="46.52735" lon="5.38538">
        <ele>222</ele>
        <time>2022-03-05T12:14:33Z</time>
      </trkpt>
      <trkpt lat="46.52751" lon="5.38535">
        <ele>222</ele>
        <time>2022-03-05T12:14:36Z</time>
      </trkpt>
      <trkpt lat="46.52768" lon="5.38532">
        <ele>221.8</ele>
        <time>2022-03-05T12:14:39Z</time>
      </trkpt>
      <trkpt lat="46.5278" lon="5.38536">
        <ele>221.6</ele>
        <time>2022-03-05T12:14:41Z</time>
      </trkpt>
      <trkpt lat="46.52788" lon="5.38547">
        <ele>221.2</ele>
        <time>2022-03-05T12:14:43Z</time>
      </trkpt>
      <trkpt lat="46.5279" lon="5.38554">
        <ele>221.2</ele>
        <time>2022-03-05T12:14:44Z</time>
      </trkpt>
      <trkpt lat="46.52792" lon="5.38562">
        <ele>221</ele>
        <time>2022-03-05T12:14:45Z</time>
      </trkpt>
      <trkpt lat="46.52799" lon="5.38575">
        <ele>220.8</ele>
        <time>2022-03-05T12:14:47Z</time>
      </trkpt>
      <trkpt lat="46.52804" lon="5.38581">
        <ele>220.8</ele>
        <time>2022-03-05T12:14:48Z</time>
      </trkpt>
      <trkpt lat="46.52813" lon="5.38591">
        <ele>220.6</ele>
        <time>2022-03-05T12:14:50Z</time>
      </trkpt>
      <trkpt lat="46.52829" lon="5.386">
        <ele>220.6</ele>
        <time>2022-03-05T12:14:53Z</time>
      </trkpt>
      <trkpt lat="46.52872" lon="5.38612">
        <ele>220.6</ele>
        <time>2022-03-05T12:15:01Z</time>
      </trkpt>
      <trkpt lat="46.52896" lon="5.38616">
        <ele>221.4</ele>
        <time>2022-03-05T12:15:07Z</time>
      </trkpt>
      <trkpt lat="46.52904" lon="5.38619">
        <ele>222.2</ele>
        <time>2022-03-05T12:15:10Z</time>
      </trkpt>
      <trkpt lat="46.5291" lon="5.38619">
        <ele>222.8</ele>
        <time>2022-03-05T12:15:12Z</time>
      </trkpt>
      <trkpt lat="46.52913" lon="5.38618">
        <ele>223</ele>
        <time>2022-03-05T12:15:13Z</time>
      </trkpt>
      <trkpt lat="46.52919" lon="5.38615">
        <ele>223.4</ele>
        <time>2022-03-05T12:15:15Z</time>
      </trkpt>
      <trkpt lat="46.52948" lon="5.38608">
        <ele>224.2</ele>
        <time>2022-03-05T12:15:22Z</time>
      </trkpt>
      <trkpt lat="46.52951" lon="5.38607">
        <ele>224.6</ele>
        <time>2022-03-05T12:15:23Z</time>
      </trkpt>
      <trkpt lat="46.52966" lon="5.3861">
        <ele>225</ele>
        <time>2022-03-05T12:15:27Z</time>
      </trkpt>
      <trkpt lat="46.52985" lon="5.38614">
        <ele>225.6</ele>
        <time>2022-03-05T12:15:32Z</time>
      </trkpt>
      <trkpt lat="46.52996" lon="5.38615">
        <ele>226.2</ele>
        <time>2022-03-05T12:15:35Z</time>
      </trkpt>
      <trkpt lat="46.53" lon="5.38615">
        <ele>226.8</ele>
        <time>2022-03-05T12:15:36Z</time>
      </trkpt>
      <trkpt lat="46.5302" lon="5.38614">
        <ele>227.8</ele>
        <time>2022-03-05T12:15:41Z</time>
      </trkpt>
      <trkpt lat="46.53037" lon="5.3861">
        <ele>228.4</ele>
        <time>2022-03-05T12:15:45Z</time>
      </trkpt>
      <trkpt lat="46.53049" lon="5.38607">
        <ele>229</ele>
        <time>2022-03-05T12:15:48Z</time>
      </trkpt>
      <trkpt lat="46.5307" lon="5.38602">
        <ele>229.4</ele>
        <time>2022-03-05T12:15:53Z</time>
      </trkpt>
      <trkpt lat="46.53085" lon="5.38596">
        <ele>230</ele>
        <time>2022-03-05T12:15:57Z</time>
      </trkpt>
      <trkpt lat="46.53104" lon="5.38591">
        <ele>230.6</ele>
        <time>2022-03-05T12:16:02Z</time>
      </trkpt>
      <trkpt lat="46.53118" lon="5.38595">
        <ele>230.8</ele>
        <time>2022-03-05T12:16:06Z</time>
      </trkpt>
      <trkpt lat="46.5312" lon="5.38611">
        <ele>231</ele>
        <time>2022-03-05T12:16:09Z</time>
      </trkpt>
      <trkpt lat="46.53119" lon="5.38624">
        <ele>231.2</ele>
        <time>2022-03-05T12:16:11Z</time>
      </trkpt>
      <trkpt lat="46.53111" lon="5.38665">
        <ele>231.2</ele>
        <time>2022-03-05T12:16:17Z</time>
      </trkpt>
      <trkpt lat="46.53098" lon="5.38733">
        <ele>231</ele>
        <time>2022-03-05T12:16:27Z</time>
      </trkpt>
      <trkpt lat="46.53085" lon="5.38793">
        <ele>231.4</ele>
        <time>2022-03-05T12:16:36Z</time>
      </trkpt>
      <trkpt lat="46.53078" lon="5.38815">
        <ele>231.4</ele>
        <time>2022-03-05T12:16:40Z</time>
      </trkpt>
      <trkpt lat="46.53074" lon="5.38825">
        <ele>231.6</ele>
        <time>2022-03-05T12:16:42Z</time>
      </trkpt>
      <trkpt lat="46.53071" lon="5.38836">
        <ele>232.2</ele>
        <time>2022-03-05T12:16:44Z</time>
      </trkpt>
      <trkpt lat="46.5307" lon="5.38842">
        <ele>232.6</ele>
        <time>2022-03-05T12:16:45Z</time>
      </trkpt>
      <trkpt lat="46.53066" lon="5.38864">
        <ele>234</ele>
        <time>2022-03-05T12:16:49Z</time>
      </trkpt>
      <trkpt lat="46.53065" lon="5.38888">
        <ele>235.2</ele>
        <time>2022-03-05T12:16:54Z</time>
      </trkpt>
      <trkpt lat="46.53063" lon="5.38902">
        <ele>235.6</ele>
        <time>2022-03-05T12:16:57Z</time>
      </trkpt>
      <trkpt lat="46.53062" lon="5.38912">
        <ele>236.4</ele>
        <time>2022-03-05T12:16:59Z</time>
      </trkpt>
      <trkpt lat="46.5306" lon="5.38933">
        <ele>237.6</ele>
        <time>2022-03-05T12:17:04Z</time>
      </trkpt>
      <trkpt lat="46.53059" lon="5.38937">
        <ele>238</ele>
        <time>2022-03-05T12:17:05Z</time>
      </trkpt>
      <trkpt lat="46.53058" lon="5.38958">
        <ele>238.8</ele>
        <time>2022-03-05T12:17:10Z</time>
      </trkpt>
      <trkpt lat="46.53057" lon="5.38966">
        <ele>239.6</ele>
        <time>2022-03-05T12:17:12Z</time>
      </trkpt>
      <trkpt lat="46.53057" lon="5.38973">
        <ele>240</ele>
        <time>2022-03-05T12:17:14Z</time>
      </trkpt>
      <trkpt lat="46.53058" lon="5.38984">
        <ele>241</ele>
        <time>2022-03-05T12:17:17Z</time>
      </trkpt>
      <trkpt lat="46.53059" lon="5.38991">
        <ele>241.4</ele>
        <time>2022-03-05T12:17:19Z</time>
      </trkpt>
      <trkpt lat="46.5306" lon="5.39003">
        <ele>242.4</ele>
        <time>2022-03-05T12:17:22Z</time>
      </trkpt>
      <trkpt lat="46.53061" lon="5.39013">
        <ele>243</ele>
        <time>2022-03-05T12:17:25Z</time>
      </trkpt>
      <trkpt lat="46.53061" lon="5.39017">
        <ele>243.6</ele>
        <time>2022-03-05T12:17:26Z</time>
      </trkpt>
      <trkpt lat="46.53061" lon="5.39033">
        <ele>244.6</ele>
        <time>2022-03-05T12:17:31Z</time>
      </trkpt>
      <trkpt lat="46.53062" lon="5.39036">
        <ele>245</ele>
        <time>2022-03-05T12:17:32Z</time>
      </trkpt>
      <trkpt lat="46.53063" lon="5.39042">
        <ele>245.4</ele>
        <time>2022-03-05T12:17:34Z</time>
      </trkpt>
      <trkpt lat="46.53062" lon="5.39048">
        <ele>246.4</ele>
        <time>2022-03-05T12:17:36Z</time>
      </trkpt>
      <trkpt lat="46.53061" lon="5.3905">
        <ele>246.6</ele>
        <time>2022-03-05T12:17:37Z</time>
      </trkpt>
      <trkpt lat="46.53057" lon="5.39056">
        <ele>247.6</ele>
        <time>2022-03-05T12:17:40Z</time>
      </trkpt>
      <trkpt lat="46.53054" lon="5.39059">
        <ele>248</ele>
        <time>2022-03-05T12:17:43Z</time>
      </trkpt>
      <trkpt lat="46.53056" lon="5.3907">
        <ele>248.4</ele>
        <time>2022-03-05T12:17:47Z</time>
      </trkpt>
      <trkpt lat="46.53063" lon="5.39075">
        <ele>248.6</ele>
        <time>2022-03-05T12:17:50Z</time>
      </trkpt>
      <trkpt lat="46.5307" lon="5.39079">
        <ele>248.6</ele>
        <time>2022-03-05T12:17:53Z</time>
      </trkpt>
      <trkpt lat="46.53072" lon="5.39082">
        <ele>248.6</ele>
        <time>2022-03-05T12:17:54Z</time>
      </trkpt>
      <trkpt lat="46.5307" lon="5.39088">
        <ele>248.8</ele>
        <time>2022-03-05T12:17:56Z</time>
      </trkpt>
      <trkpt lat="46.53067" lon="5.39092">
        <ele>248.8</ele>
        <time>2022-03-05T12:17:58Z</time>
      </trkpt>
      <trkpt lat="46.53066" lon="5.39092">
        <ele>249</ele>
        <time>2022-03-05T12:18:00Z</time>
      </trkpt>
      <trkpt lat="46.53067" lon="5.39093">
        <ele>249.2</ele>
        <time>2022-03-05T12:18:05Z</time>
      </trkpt>
      <trkpt lat="46.53067" lon="5.39093">
        <ele>249.2</ele>
        <time>2022-03-05T12:18:06Z</time>
      </trkpt>
      <trkpt lat="46.5307" lon="5.39092">
        <ele>244.4</ele>
        <time>2022-03-05T12:31:08Z</time>
      </trkpt>
      <trkpt lat="46.53073" lon="5.39091">
        <ele>250.4</ele>
        <time>2022-03-05T12:31:10Z</time>
      </trkpt>
      <trkpt lat="46.53084" lon="5.39092">
        <ele>250.4</ele>
        <time>2022-03-05T12:31:16Z</time>
      </trkpt>
      <trkpt lat="46.53098" lon="5.39094">
        <ele>250.6</ele>
        <time>2022-03-05T12:31:21Z</time>
      </trkpt>
      <trkpt lat="46.5312" lon="5.39099">
        <ele>251</ele>
        <time>2022-03-05T12:31:28Z</time>
      </trkpt>
      <trkpt lat="46.53127" lon="5.39102">
        <ele>251.4</ele>
        <time>2022-03-05T12:31:30Z</time>
      </trkpt>
      <trkpt lat="46.53145" lon="5.3911">
        <ele>251.8</ele>
        <time>2022-03-05T12:31:35Z</time>
      </trkpt>
      <trkpt lat="46.53165" lon="5.39124">
        <ele>252.4</ele>
        <time>2022-03-05T12:31:42Z</time>
      </trkpt>
      <trkpt lat="46.53183" lon="5.39136">
        <ele>252.6</ele>
        <time>2022-03-05T12:31:48Z</time>
      </trkpt>
      <trkpt lat="46.53214" lon="5.39155">
        <ele>252.8</ele>
        <time>2022-03-05T12:31:55Z</time>
      </trkpt>
      <trkpt lat="46.53218" lon="5.39157">
        <ele>252.6</ele>
        <time>2022-03-05T12:31:56Z</time>
      </trkpt>
      <trkpt lat="46.53236" lon="5.39168">
        <ele>252.6</ele>
        <time>2022-03-05T12:32:00Z</time>
      </trkpt>
      <trkpt lat="46.5324" lon="5.39171">
        <ele>252.6</ele>
        <time>2022-03-05T12:32:01Z</time>
      </trkpt>
      <trkpt lat="46.53248" lon="5.39177">
        <ele>252.6</ele>
        <time>2022-03-05T12:32:03Z</time>
      </trkpt>
      <trkpt lat="46.53253" lon="5.3918">
        <ele>252.6</ele>
        <time>2022-03-05T12:32:04Z</time>
      </trkpt>
      <trkpt lat="46.5329" lon="5.39202">
        <ele>253.4</ele>
        <time>2022-03-05T12:32:12Z</time>
      </trkpt>
      <trkpt lat="46.53298" lon="5.39207">
        <ele>253.6</ele>
        <time>2022-03-05T12:32:14Z</time>
      </trkpt>
      <trkpt lat="46.53317" lon="5.39219">
        <ele>254</ele>
        <time>2022-03-05T12:32:18Z</time>
      </trkpt>
      <trkpt lat="46.53321" lon="5.39223">
        <ele>254.2</ele>
        <time>2022-03-05T12:32:19Z</time>
      </trkpt>
      <trkpt lat="46.53331" lon="5.39229">
        <ele>254.2</ele>
        <time>2022-03-05T12:32:21Z</time>
      </trkpt>
      <trkpt lat="46.53341" lon="5.39233">
        <ele>254.2</ele>
        <time>2022-03-05T12:32:23Z</time>
      </trkpt>
      <trkpt lat="46.53353" lon="5.39234">
        <ele>254.2</ele>
        <time>2022-03-05T12:32:26Z</time>
      </trkpt>
      <trkpt lat="46.5336" lon="5.39225">
        <ele>254.4</ele>
        <time>2022-03-05T12:32:28Z</time>
      </trkpt>
      <trkpt lat="46.53362" lon="5.39219">
        <ele>254.2</ele>
        <time>2022-03-05T12:32:29Z</time>
      </trkpt>
      <trkpt lat="46.53378" lon="5.39167">
        <ele>253.8</ele>
        <time>2022-03-05T12:32:36Z</time>
      </trkpt>
      <trkpt lat="46.53395" lon="5.39114">
        <ele>252.4</ele>
        <time>2022-03-05T12:32:43Z</time>
      </trkpt>
      <trkpt lat="46.53411" lon="5.39062">
        <ele>251.2</ele>
        <time>2022-03-05T12:32:49Z</time>
      </trkpt>
      <trkpt lat="46.53414" lon="5.39052">
        <ele>250.8</ele>
        <time>2022-03-05T12:32:50Z</time>
      </trkpt>
      <trkpt lat="46.53423" lon="5.39023">
        <ele>250.2</ele>
        <time>2022-03-05T12:32:53Z</time>
      </trkpt>
      <trkpt lat="46.53434" lon="5.38984">
        <ele>249</ele>
        <time>2022-03-05T12:32:57Z</time>
      </trkpt>
      <trkpt lat="46.53437" lon="5.38973">
        <ele>248.8</ele>
        <time>2022-03-05T12:32:58Z</time>
      </trkpt>
      <trkpt lat="46.53444" lon="5.38953">
        <ele>248</ele>
        <time>2022-03-05T12:33:00Z</time>
      </trkpt>
      <trkpt lat="46.5346" lon="5.38901">
        <ele>246.6</ele>
        <time>2022-03-05T12:33:05Z</time>
      </trkpt>
      <trkpt lat="46.53463" lon="5.38891">
        <ele>246</ele>
        <time>2022-03-05T12:33:06Z</time>
      </trkpt>
      <trkpt lat="46.53468" lon="5.38875">
        <ele>245.6</ele>
        <time>2022-03-05T12:33:08Z</time>
      </trkpt>
      <trkpt lat="46.53472" lon="5.38862">
        <ele>245</ele>
        <time>2022-03-05T12:33:10Z</time>
      </trkpt>
      <trkpt lat="46.53477" lon="5.38846">
        <ele>244.4</ele>
        <time>2022-03-05T12:33:13Z</time>
      </trkpt>
      <trkpt lat="46.53483" lon="5.38825">
        <ele>243.8</ele>
        <time>2022-03-05T12:33:17Z</time>
      </trkpt>
      <trkpt lat="46.53492" lon="5.38791">
        <ele>243.4</ele>
        <time>2022-03-05T12:33:22Z</time>
      </trkpt>
      <trkpt lat="46.53494" lon="5.38765">
        <ele>242.8</ele>
        <time>2022-03-05T12:33:25Z</time>
      </trkpt>
      <trkpt lat="46.53492" lon="5.38756">
        <ele>242.6</ele>
        <time>2022-03-05T12:33:26Z</time>
      </trkpt>
      <trkpt lat="46.53489" lon="5.38747">
        <ele>242.6</ele>
        <time>2022-03-05T12:33:27Z</time>
      </trkpt>
      <trkpt lat="46.53482" lon="5.3873">
        <ele>242</ele>
        <time>2022-03-05T12:33:29Z</time>
      </trkpt>
      <trkpt lat="46.5348" lon="5.38721">
        <ele>242</ele>
        <time>2022-03-05T12:33:30Z</time>
      </trkpt>
      <trkpt lat="46.53475" lon="5.38692">
        <ele>241</ele>
        <time>2022-03-05T12:33:33Z</time>
      </trkpt>
      <trkpt lat="46.53473" lon="5.38671">
        <ele>240.2</ele>
        <time>2022-03-05T12:33:35Z</time>
      </trkpt>
      <trkpt lat="46.5347" lon="5.38642">
        <ele>239.8</ele>
        <time>2022-03-05T12:33:38Z</time>
      </trkpt>
      <trkpt lat="46.53466" lon="5.38601">
        <ele>239.6</ele>
        <time>2022-03-05T12:33:42Z</time>
      </trkpt>
      <trkpt lat="46.5346" lon="5.38535">
        <ele>238.6</ele>
        <time>2022-03-05T12:33:48Z</time>
      </trkpt>
      <trkpt lat="46.53458" lon="5.38524">
        <ele>238.2</ele>
        <time>2022-03-05T12:33:49Z</time>
      </trkpt>
      <trkpt lat="46.53455" lon="5.38481">
        <ele>237.4</ele>
        <time>2022-03-05T12:33:53Z</time>
      </trkpt>
      <trkpt lat="46.53457" lon="5.3846">
        <ele>237.2</ele>
        <time>2022-03-05T12:33:55Z</time>
      </trkpt>
      <trkpt lat="46.53458" lon="5.3845">
        <ele>237.4</ele>
        <time>2022-03-05T12:33:56Z</time>
      </trkpt>
      <trkpt lat="46.53466" lon="5.38432">
        <ele>237.4</ele>
        <time>2022-03-05T12:33:58Z</time>
      </trkpt>
      <trkpt lat="46.53481" lon="5.38411">
        <ele>237.2</ele>
        <time>2022-03-05T12:34:01Z</time>
      </trkpt>
      <trkpt lat="46.53487" lon="5.38406">
        <ele>237.2</ele>
        <time>2022-03-05T12:34:02Z</time>
      </trkpt>
      <trkpt lat="46.5352" lon="5.38378">
        <ele>237.4</ele>
        <time>2022-03-05T12:34:08Z</time>
      </trkpt>
      <trkpt lat="46.53542" lon="5.3835">
        <ele>238</ele>
        <time>2022-03-05T12:34:13Z</time>
      </trkpt>
      <trkpt lat="46.53573" lon="5.38288">
        <ele>238.6</ele>
        <time>2022-03-05T12:34:21Z</time>
      </trkpt>
      <trkpt lat="46.53589" lon="5.38258">
        <ele>238.2</ele>
        <time>2022-03-05T12:34:25Z</time>
      </trkpt>
      <trkpt lat="46.5361" lon="5.38212">
        <ele>237.8</ele>
        <time>2022-03-05T12:34:31Z</time>
      </trkpt>
      <trkpt lat="46.53638" lon="5.38154">
        <ele>237.8</ele>
        <time>2022-03-05T12:34:38Z</time>
      </trkpt>
      <trkpt lat="46.53654" lon="5.38106">
        <ele>237.4</ele>
        <time>2022-03-05T12:34:43Z</time>
      </trkpt>
      <trkpt lat="46.53662" lon="5.3806">
        <ele>236.4</ele>
        <time>2022-03-05T12:34:47Z</time>
      </trkpt>
      <trkpt lat="46.53665" lon="5.38048">
        <ele>236.2</ele>
        <time>2022-03-05T12:34:48Z</time>
      </trkpt>
      <trkpt lat="46.5367" lon="5.38036">
        <ele>235.8</ele>
        <time>2022-03-05T12:34:49Z</time>
      </trkpt>
      <trkpt lat="46.53682" lon="5.38014">
        <ele>235</ele>
        <time>2022-03-05T12:34:51Z</time>
      </trkpt>
      <trkpt lat="46.53698" lon="5.37996">
        <ele>233.8</ele>
        <time>2022-03-05T12:34:53Z</time>
      </trkpt>
      <trkpt lat="46.53707" lon="5.37989">
        <ele>233.2</ele>
        <time>2022-03-05T12:34:54Z</time>
      </trkpt>
      <trkpt lat="46.53717" lon="5.37983">
        <ele>232.2</ele>
        <time>2022-03-05T12:34:55Z</time>
      </trkpt>
      <trkpt lat="46.53738" lon="5.37971">
        <ele>231</ele>
        <time>2022-03-05T12:34:57Z</time>
      </trkpt>
      <trkpt lat="46.53748" lon="5.37965">
        <ele>229.8</ele>
        <time>2022-03-05T12:34:58Z</time>
      </trkpt>
      <trkpt lat="46.53769" lon="5.37954">
        <ele>227.6</ele>
        <time>2022-03-05T12:35:00Z</time>
      </trkpt>
      <trkpt lat="46.53789" lon="5.37945">
        <ele>225.8</ele>
        <time>2022-03-05T12:35:02Z</time>
      </trkpt>
      <trkpt lat="46.53808" lon="5.37936">
        <ele>224.8</ele>
        <time>2022-03-05T12:35:04Z</time>
      </trkpt>
      <trkpt lat="46.53826" lon="5.37926">
        <ele>224.4</ele>
        <time>2022-03-05T12:35:06Z</time>
      </trkpt>
      <trkpt lat="46.53842" lon="5.37911">
        <ele>224.2</ele>
        <time>2022-03-05T12:35:08Z</time>
      </trkpt>
      <trkpt lat="46.53849" lon="5.37901">
        <ele>224</ele>
        <time>2022-03-05T12:35:09Z</time>
      </trkpt>
      <trkpt lat="46.53856" lon="5.37891">
        <ele>223.8</ele>
        <time>2022-03-05T12:35:10Z</time>
      </trkpt>
      <trkpt lat="46.53862" lon="5.37881">
        <ele>223.6</ele>
        <time>2022-03-05T12:35:11Z</time>
      </trkpt>
      <trkpt lat="46.53875" lon="5.37859">
        <ele>223.2</ele>
        <time>2022-03-05T12:35:13Z</time>
      </trkpt>
      <trkpt lat="46.53887" lon="5.37837">
        <ele>222.4</ele>
        <time>2022-03-05T12:35:15Z</time>
      </trkpt>
      <trkpt lat="46.53902" lon="5.37818">
        <ele>221.4</ele>
        <time>2022-03-05T12:35:17Z</time>
      </trkpt>
      <trkpt lat="46.53909" lon="5.3781">
        <ele>220.8</ele>
        <time>2022-03-05T12:35:18Z</time>
      </trkpt>
      <trkpt lat="46.53917" lon="5.37803">
        <ele>220.2</ele>
        <time>2022-03-05T12:35:19Z</time>
      </trkpt>
      <trkpt lat="46.53942" lon="5.37789">
        <ele>219.2</ele>
        <time>2022-03-05T12:35:22Z</time>
      </trkpt>
      <trkpt lat="46.53997" lon="5.3776">
        <ele>218.2</ele>
        <time>2022-03-05T12:35:29Z</time>
      </trkpt>
      <trkpt lat="46.5401" lon="5.37749">
        <ele>218.2</ele>
        <time>2022-03-05T12:35:31Z</time>
      </trkpt>
      <trkpt lat="46.54029" lon="5.37731">
        <ele>218</ele>
        <time>2022-03-05T12:35:34Z</time>
      </trkpt>
      <trkpt lat="46.54079" lon="5.37687">
        <ele>218</ele>
        <time>2022-03-05T12:35:42Z</time>
      </trkpt>
      <trkpt lat="46.54133" lon="5.37644">
        <ele>217.6</ele>
        <time>2022-03-05T12:35:50Z</time>
      </trkpt>
      <trkpt lat="46.54155" lon="5.37628">
        <ele>217.4</ele>
        <time>2022-03-05T12:35:53Z</time>
      </trkpt>
      <trkpt lat="46.54169" lon="5.37618">
        <ele>217.2</ele>
        <time>2022-03-05T12:35:55Z</time>
      </trkpt>
      <trkpt lat="46.54196" lon="5.37595">
        <ele>216.4</ele>
        <time>2022-03-05T12:35:59Z</time>
      </trkpt>
      <trkpt lat="46.54202" lon="5.37588">
        <ele>216.2</ele>
        <time>2022-03-05T12:36:00Z</time>
      </trkpt>
      <trkpt lat="46.54207" lon="5.37579">
        <ele>216</ele>
        <time>2022-03-05T12:36:01Z</time>
      </trkpt>
      <trkpt lat="46.54213" lon="5.37559">
        <ele>215.6</ele>
        <time>2022-03-05T12:36:03Z</time>
      </trkpt>
      <trkpt lat="46.54217" lon="5.37507">
        <ele>215.8</ele>
        <time>2022-03-05T12:36:08Z</time>
      </trkpt>
      <trkpt lat="46.54218" lon="5.37498">
        <ele>216</ele>
        <time>2022-03-05T12:36:09Z</time>
      </trkpt>
      <trkpt lat="46.54222" lon="5.37482">
        <ele>216</ele>
        <time>2022-03-05T12:36:11Z</time>
      </trkpt>
      <trkpt lat="46.54225" lon="5.37475">
        <ele>216.2</ele>
        <time>2022-03-05T12:36:12Z</time>
      </trkpt>
      <trkpt lat="46.54231" lon="5.37462">
        <ele>216.6</ele>
        <time>2022-03-05T12:36:14Z</time>
      </trkpt>
      <trkpt lat="46.54237" lon="5.37454">
        <ele>217.2</ele>
        <time>2022-03-05T12:36:16Z</time>
      </trkpt>
      <trkpt lat="46.5424" lon="5.3745">
        <ele>217.2</ele>
        <time>2022-03-05T12:36:17Z</time>
      </trkpt>
      <trkpt lat="46.54247" lon="5.3744">
        <ele>218.6</ele>
        <time>2022-03-05T12:36:19Z</time>
      </trkpt>
      <trkpt lat="46.54252" lon="5.37435">
        <ele>218.8</ele>
        <time>2022-03-05T12:36:20Z</time>
      </trkpt>
      <trkpt lat="46.54271" lon="5.37416">
        <ele>219.2</ele>
        <time>2022-03-05T12:36:24Z</time>
      </trkpt>
      <trkpt lat="46.54287" lon="5.37399">
        <ele>219.2</ele>
        <time>2022-03-05T12:36:27Z</time>
      </trkpt>
      <trkpt lat="46.543" lon="5.37388">
        <ele>218.8</ele>
        <time>2022-03-05T12:36:29Z</time>
      </trkpt>
      <trkpt lat="46.54322" lon="5.37374">
        <ele>217.8</ele>
        <time>2022-03-05T12:36:32Z</time>
      </trkpt>
      <trkpt lat="46.54354" lon="5.37356">
        <ele>217.4</ele>
        <time>2022-03-05T12:36:36Z</time>
      </trkpt>
      <trkpt lat="46.54361" lon="5.37351">
        <ele>217</ele>
        <time>2022-03-05T12:36:37Z</time>
      </trkpt>
      <trkpt lat="46.54375" lon="5.3734">
        <ele>216.2</ele>
        <time>2022-03-05T12:36:39Z</time>
      </trkpt>
      <trkpt lat="46.5441" lon="5.37312">
        <ele>215.2</ele>
        <time>2022-03-05T12:36:44Z</time>
      </trkpt>
      <trkpt lat="46.54416" lon="5.37307">
        <ele>215</ele>
        <time>2022-03-05T12:36:45Z</time>
      </trkpt>
      <trkpt lat="46.54428" lon="5.37297">
        <ele>215</ele>
        <time>2022-03-05T12:36:47Z</time>
      </trkpt>
      <trkpt lat="46.5444" lon="5.37288">
        <ele>215</ele>
        <time>2022-03-05T12:36:49Z</time>
      </trkpt>
      <trkpt lat="46.54484" lon="5.37265">
        <ele>214.6</ele>
        <time>2022-03-05T12:36:55Z</time>
      </trkpt>
      <trkpt lat="46.54521" lon="5.37252">
        <ele>214</ele>
        <time>2022-03-05T12:37:00Z</time>
      </trkpt>
      <trkpt lat="46.54535" lon="5.37247">
        <ele>213.8</ele>
        <time>2022-03-05T12:37:02Z</time>
      </trkpt>
      <trkpt lat="46.54592" lon="5.37224">
        <ele>213.4</ele>
        <time>2022-03-05T12:37:10Z</time>
      </trkpt>
      <trkpt lat="46.54632" lon="5.37191">
        <ele>213</ele>
        <time>2022-03-05T12:37:16Z</time>
      </trkpt>
      <trkpt lat="46.54673" lon="5.37153">
        <ele>213.4</ele>
        <time>2022-03-05T12:37:23Z</time>
      </trkpt>
      <trkpt lat="46.54712" lon="5.37119">
        <ele>213.6</ele>
        <time>2022-03-05T12:37:29Z</time>
      </trkpt>
      <trkpt lat="46.54737" lon="5.37096">
        <ele>213</ele>
        <time>2022-03-05T12:37:33Z</time>
      </trkpt>
      <trkpt lat="46.5475" lon="5.37082">
        <ele>212.8</ele>
        <time>2022-03-05T12:37:35Z</time>
      </trkpt>
      <trkpt lat="46.54755" lon="5.37074">
        <ele>212.6</ele>
        <time>2022-03-05T12:37:36Z</time>
      </trkpt>
      <trkpt lat="46.54773" lon="5.37043">
        <ele>212.6</ele>
        <time>2022-03-05T12:37:40Z</time>
      </trkpt>
      <trkpt lat="46.54802" lon="5.37002">
        <ele>213</ele>
        <time>2022-03-05T12:37:46Z</time>
      </trkpt>
      <trkpt lat="46.5484" lon="5.36953">
        <ele>213</ele>
        <time>2022-03-05T12:37:53Z</time>
      </trkpt>
      <trkpt lat="46.54879" lon="5.36905">
        <ele>211.8</ele>
        <time>2022-03-05T12:38:00Z</time>
      </trkpt>
      <trkpt lat="46.54913" lon="5.36863">
        <ele>210.8</ele>
        <time>2022-03-05T12:38:06Z</time>
      </trkpt>
      <trkpt lat="46.54918" lon="5.36857">
        <ele>210.8</ele>
        <time>2022-03-05T12:38:07Z</time>
      </trkpt>
      <trkpt lat="46.54947" lon="5.36825">
        <ele>210.8</ele>
        <time>2022-03-05T12:38:13Z</time>
      </trkpt>
      <trkpt lat="46.54994" lon="5.36776">
        <ele>210.8</ele>
        <time>2022-03-05T12:38:22Z</time>
      </trkpt>
      <trkpt lat="46.55029" lon="5.36726">
        <ele>209.8</ele>
        <time>2022-03-05T12:38:29Z</time>
      </trkpt>
      <trkpt lat="46.55051" lon="5.36684">
        <ele>209.2</ele>
        <time>2022-03-05T12:38:34Z</time>
      </trkpt>
      <trkpt lat="46.55058" lon="5.36666">
        <ele>209.2</ele>
        <time>2022-03-05T12:38:36Z</time>
      </trkpt>
      <trkpt lat="46.55065" lon="5.36648">
        <ele>209.2</ele>
        <time>2022-03-05T12:38:38Z</time>
      </trkpt>
      <trkpt lat="46.55075" lon="5.36621">
        <ele>209.2</ele>
        <time>2022-03-05T12:38:41Z</time>
      </trkpt>
      <trkpt lat="46.551" lon="5.36561">
        <ele>209</ele>
        <time>2022-03-05T12:38:48Z</time>
      </trkpt>
      <trkpt lat="46.55116" lon="5.36528">
        <ele>208.8</ele>
        <time>2022-03-05T12:38:52Z</time>
      </trkpt>
      <trkpt lat="46.55129" lon="5.36505">
        <ele>209</ele>
        <time>2022-03-05T12:38:55Z</time>
      </trkpt>
      <trkpt lat="46.55167" lon="5.36459">
        <ele>209</ele>
        <time>2022-03-05T12:39:02Z</time>
      </trkpt>
      <trkpt lat="46.55184" lon="5.36446">
        <ele>209</ele>
        <time>2022-03-05T12:39:05Z</time>
      </trkpt>
      <trkpt lat="46.55198" lon="5.36442">
        <ele>209</ele>
        <time>2022-03-05T12:39:07Z</time>
      </trkpt>
      <trkpt lat="46.55204" lon="5.36441">
        <ele>209</ele>
        <time>2022-03-05T12:39:08Z</time>
      </trkpt>
      <trkpt lat="46.55222" lon="5.3644">
        <ele>209</ele>
        <time>2022-03-05T12:39:11Z</time>
      </trkpt>
      <trkpt lat="46.55228" lon="5.36438">
        <ele>209.4</ele>
        <time>2022-03-05T12:39:12Z</time>
      </trkpt>
      <trkpt lat="46.55233" lon="5.36434">
        <ele>209.6</ele>
        <time>2022-03-05T12:39:13Z</time>
      </trkpt>
      <trkpt lat="46.55242" lon="5.36423">
        <ele>210</ele>
        <time>2022-03-05T12:39:15Z</time>
      </trkpt>
      <trkpt lat="46.55246" lon="5.36416">
        <ele>210</ele>
        <time>2022-03-05T12:39:16Z</time>
      </trkpt>
      <trkpt lat="46.55258" lon="5.36396">
        <ele>210.2</ele>
        <time>2022-03-05T12:39:19Z</time>
      </trkpt>
      <trkpt lat="46.55269" lon="5.36377">
        <ele>210.4</ele>
        <time>2022-03-05T12:39:22Z</time>
      </trkpt>
      <trkpt lat="46.55279" lon="5.36369">
        <ele>210.4</ele>
        <time>2022-03-05T12:39:24Z</time>
      </trkpt>
      <trkpt lat="46.55286" lon="5.36367">
        <ele>210.4</ele>
        <time>2022-03-05T12:39:25Z</time>
      </trkpt>
      <trkpt lat="46.55292" lon="5.36367">
        <ele>210.6</ele>
        <time>2022-03-05T12:39:26Z</time>
      </trkpt>
      <trkpt lat="46.55316" lon="5.3637">
        <ele>210.6</ele>
        <time>2022-03-05T12:39:30Z</time>
      </trkpt>
      <trkpt lat="46.55327" lon="5.36368">
        <ele>210.6</ele>
        <time>2022-03-05T12:39:32Z</time>
      </trkpt>
      <trkpt lat="46.55338" lon="5.36363">
        <ele>210.6</ele>
        <time>2022-03-05T12:39:34Z</time>
      </trkpt>
      <trkpt lat="46.55374" lon="5.36349">
        <ele>211</ele>
        <time>2022-03-05T12:39:40Z</time>
      </trkpt>
      <trkpt lat="46.55412" lon="5.36352">
        <ele>210.8</ele>
        <time>2022-03-05T12:39:46Z</time>
      </trkpt>
      <trkpt lat="46.55422" lon="5.36352">
        <ele>211</ele>
        <time>2022-03-05T12:39:48Z</time>
      </trkpt>
      <trkpt lat="46.55439" lon="5.3635">
        <ele>211.2</ele>
        <time>2022-03-05T12:39:51Z</time>
      </trkpt>
      <trkpt lat="46.55478" lon="5.36351">
        <ele>212</ele>
        <time>2022-03-05T12:39:58Z</time>
      </trkpt>
      <trkpt lat="46.55485" lon="5.36353">
        <ele>212</ele>
        <time>2022-03-05T12:39:59Z</time>
      </trkpt>
      <trkpt lat="46.5551" lon="5.36361">
        <ele>211.6</ele>
        <time>2022-03-05T12:40:03Z</time>
      </trkpt>
      <trkpt lat="46.55519" lon="5.36361">
        <ele>211.4</ele>
        <time>2022-03-05T12:40:04Z</time>
      </trkpt>
      <trkpt lat="46.55526" lon="5.36358">
        <ele>211.2</ele>
        <time>2022-03-05T12:40:05Z</time>
      </trkpt>
      <trkpt lat="46.55537" lon="5.36347">
        <ele>210.6</ele>
        <time>2022-03-05T12:40:07Z</time>
      </trkpt>
      <trkpt lat="46.55542" lon="5.36339">
        <ele>210.2</ele>
        <time>2022-03-05T12:40:08Z</time>
      </trkpt>
      <trkpt lat="46.55548" lon="5.36329">
        <ele>210</ele>
        <time>2022-03-05T12:40:09Z</time>
      </trkpt>
      <trkpt lat="46.55558" lon="5.36318">
        <ele>209.8</ele>
        <time>2022-03-05T12:40:11Z</time>
      </trkpt>
      <trkpt lat="46.55604" lon="5.36292">
        <ele>209.4</ele>
        <time>2022-03-05T12:40:18Z</time>
      </trkpt>
      <trkpt lat="46.55625" lon="5.36287">
        <ele>208.8</ele>
        <time>2022-03-05T12:40:21Z</time>
      </trkpt>
      <trkpt lat="46.55647" lon="5.36285">
        <ele>208.6</ele>
        <time>2022-03-05T12:40:24Z</time>
      </trkpt>
      <trkpt lat="46.55673" lon="5.36291">
        <ele>208.4</ele>
        <time>2022-03-05T12:40:28Z</time>
      </trkpt>
      <trkpt lat="46.55678" lon="5.36293">
        <ele>208.4</ele>
        <time>2022-03-05T12:40:29Z</time>
      </trkpt>
      <trkpt lat="46.55706" lon="5.36312">
        <ele>210.2</ele>
        <time>2022-03-05T12:40:35Z</time>
      </trkpt>
      <trkpt lat="46.55719" lon="5.36321">
        <ele>211.4</ele>
        <time>2022-03-05T12:40:38Z</time>
      </trkpt>
      <trkpt lat="46.55728" lon="5.36327">
        <ele>212.2</ele>
        <time>2022-03-05T12:40:40Z</time>
      </trkpt>
      <trkpt lat="46.55731" lon="5.36329">
        <ele>212.2</ele>
        <time>2022-03-05T12:40:41Z</time>
      </trkpt>
      <trkpt lat="46.55734" lon="5.36332">
        <ele>212.4</ele>
        <time>2022-03-05T12:40:42Z</time>
      </trkpt>
      <trkpt lat="46.55751" lon="5.36343">
        <ele>213.6</ele>
        <time>2022-03-05T12:40:46Z</time>
      </trkpt>
      <trkpt lat="46.55755" lon="5.36345">
        <ele>214</ele>
        <time>2022-03-05T12:40:47Z</time>
      </trkpt>
      <trkpt lat="46.55765" lon="5.3635">
        <ele>214.6</ele>
        <time>2022-03-05T12:40:49Z</time>
      </trkpt>
      <trkpt lat="46.55772" lon="5.36352">
        <ele>215.4</ele>
        <time>2022-03-05T12:40:51Z</time>
      </trkpt>
      <trkpt lat="46.55781" lon="5.36352">
        <ele>216.2</ele>
        <time>2022-03-05T12:40:53Z</time>
      </trkpt>
      <trkpt lat="46.55785" lon="5.36352">
        <ele>216.4</ele>
        <time>2022-03-05T12:40:54Z</time>
      </trkpt>
      <trkpt lat="46.55796" lon="5.36348">
        <ele>217.4</ele>
        <time>2022-03-05T12:40:57Z</time>
      </trkpt>
      <trkpt lat="46.55801" lon="5.36345">
        <ele>217.4</ele>
        <time>2022-03-05T12:40:58Z</time>
      </trkpt>
      <trkpt lat="46.55808" lon="5.3634">
        <ele>217.8</ele>
        <time>2022-03-05T12:41:00Z</time>
      </trkpt>
      <trkpt lat="46.55817" lon="5.36335">
        <ele>218.2</ele>
        <time>2022-03-05T12:41:02Z</time>
      </trkpt>
      <trkpt lat="46.55822" lon="5.36333">
        <ele>218.4</ele>
        <time>2022-03-05T12:41:03Z</time>
      </trkpt>
      <trkpt lat="46.55827" lon="5.36333">
        <ele>218.4</ele>
        <time>2022-03-05T12:41:04Z</time>
      </trkpt>
      <trkpt lat="46.55831" lon="5.36333">
        <ele>218.6</ele>
        <time>2022-03-05T12:41:05Z</time>
      </trkpt>
      <trkpt lat="46.55836" lon="5.36335">
        <ele>218.8</ele>
        <time>2022-03-05T12:41:06Z</time>
      </trkpt>
      <trkpt lat="46.55846" lon="5.3634">
        <ele>219.2</ele>
        <time>2022-03-05T12:41:08Z</time>
      </trkpt>
      <trkpt lat="46.5585" lon="5.36343">
        <ele>219.4</ele>
        <time>2022-03-05T12:41:09Z</time>
      </trkpt>
      <trkpt lat="46.55853" lon="5.36346">
        <ele>219.6</ele>
        <time>2022-03-05T12:41:10Z</time>
      </trkpt>
      <trkpt lat="46.55866" lon="5.36356">
        <ele>220.6</ele>
        <time>2022-03-05T12:41:13Z</time>
      </trkpt>
      <trkpt lat="46.5589" lon="5.36369">
        <ele>221.6</ele>
        <time>2022-03-05T12:41:18Z</time>
      </trkpt>
      <trkpt lat="46.5592" lon="5.36387">
        <ele>222</ele>
        <time>2022-03-05T12:41:24Z</time>
      </trkpt>
      <trkpt lat="46.55965" lon="5.36422">
        <ele>222.2</ele>
        <time>2022-03-05T12:41:33Z</time>
      </trkpt>
      <trkpt lat="46.5601" lon="5.36453">
        <ele>222.6</ele>
        <time>2022-03-05T12:41:42Z</time>
      </trkpt>
      <trkpt lat="46.5602" lon="5.36459">
        <ele>222.6</ele>
        <time>2022-03-05T12:41:44Z</time>
      </trkpt>
      <trkpt lat="46.56049" lon="5.36475">
        <ele>223</ele>
        <time>2022-03-05T12:41:50Z</time>
      </trkpt>
      <trkpt lat="46.56075" lon="5.36489">
        <ele>223</ele>
        <time>2022-03-05T12:41:55Z</time>
      </trkpt>
      <trkpt lat="46.56086" lon="5.3649">
        <ele>223</ele>
        <time>2022-03-05T12:41:57Z</time>
      </trkpt>
      <trkpt lat="46.56099" lon="5.36484">
        <ele>223.2</ele>
        <time>2022-03-05T12:41:59Z</time>
      </trkpt>
      <trkpt lat="46.56105" lon="5.36479">
        <ele>223.2</ele>
        <time>2022-03-05T12:42:00Z</time>
      </trkpt>
      <trkpt lat="46.56131" lon="5.36445">
        <ele>222.8</ele>
        <time>2022-03-05T12:42:05Z</time>
      </trkpt>
      <trkpt lat="46.56146" lon="5.36412">
        <ele>221.6</ele>
        <time>2022-03-05T12:42:09Z</time>
      </trkpt>
      <trkpt lat="46.56161" lon="5.3638">
        <ele>221.2</ele>
        <time>2022-03-05T12:42:13Z</time>
      </trkpt>
      <trkpt lat="46.56197" lon="5.36319">
        <ele>220.8</ele>
        <time>2022-03-05T12:42:22Z</time>
      </trkpt>
      <trkpt lat="46.56236" lon="5.36253">
        <ele>221.2</ele>
        <time>2022-03-05T12:42:32Z</time>
      </trkpt>
      <trkpt lat="46.5624" lon="5.36246">
        <ele>221.4</ele>
        <time>2022-03-05T12:42:33Z</time>
      </trkpt>
      <trkpt lat="46.56244" lon="5.3624">
        <ele>221.4</ele>
        <time>2022-03-05T12:42:34Z</time>
      </trkpt>
      <trkpt lat="46.56259" lon="5.36227">
        <ele>221.8</ele>
        <time>2022-03-05T12:42:37Z</time>
      </trkpt>
      <trkpt lat="46.5627" lon="5.36223">
        <ele>222.2</ele>
        <time>2022-03-05T12:42:39Z</time>
      </trkpt>
      <trkpt lat="46.56286" lon="5.3622">
        <ele>222.8</ele>
        <time>2022-03-05T12:42:42Z</time>
      </trkpt>
      <trkpt lat="46.56313" lon="5.36221">
        <ele>224</ele>
        <time>2022-03-05T12:42:47Z</time>
      </trkpt>
      <trkpt lat="46.56336" lon="5.36222">
        <ele>224.4</ele>
        <time>2022-03-05T12:42:51Z</time>
      </trkpt>
      <trkpt lat="46.56392" lon="5.36225">
        <ele>224.8</ele>
        <time>2022-03-05T12:43:00Z</time>
      </trkpt>
      <trkpt lat="46.56451" lon="5.36223">
        <ele>224.2</ele>
        <time>2022-03-05T12:43:09Z</time>
      </trkpt>
      <trkpt lat="46.56505" lon="5.36219">
        <ele>223.2</ele>
        <time>2022-03-05T12:43:17Z</time>
      </trkpt>
      <trkpt lat="46.56519" lon="5.36218">
        <ele>222.8</ele>
        <time>2022-03-05T12:43:19Z</time>
      </trkpt>
      <trkpt lat="46.56525" lon="5.36218">
        <ele>222.8</ele>
        <time>2022-03-05T12:43:20Z</time>
      </trkpt>
      <trkpt lat="46.56584" lon="5.36218">
        <ele>222.8</ele>
        <time>2022-03-05T12:43:29Z</time>
      </trkpt>
      <trkpt lat="46.56596" lon="5.36219">
        <ele>222.8</ele>
        <time>2022-03-05T12:43:31Z</time>
      </trkpt>
      <trkpt lat="46.56654" lon="5.36227">
        <ele>223</ele>
        <time>2022-03-05T12:43:40Z</time>
      </trkpt>
      <trkpt lat="46.5671" lon="5.36231">
        <ele>222</ele>
        <time>2022-03-05T12:43:48Z</time>
      </trkpt>
      <trkpt lat="46.56718" lon="5.36231">
        <ele>221.8</ele>
        <time>2022-03-05T12:43:49Z</time>
      </trkpt>
      <trkpt lat="46.56742" lon="5.36227">
        <ele>220.8</ele>
        <time>2022-03-05T12:43:52Z</time>
      </trkpt>
      <trkpt lat="46.56766" lon="5.36224">
        <ele>220</ele>
        <time>2022-03-05T12:43:55Z</time>
      </trkpt>
      <trkpt lat="46.56782" lon="5.36222">
        <ele>219.6</ele>
        <time>2022-03-05T12:43:57Z</time>
      </trkpt>
      <trkpt lat="46.56828" lon="5.36214">
        <ele>218.4</ele>
        <time>2022-03-05T12:44:03Z</time>
      </trkpt>
      <trkpt lat="46.56869" lon="5.36195">
        <ele>218</ele>
        <time>2022-03-05T12:44:09Z</time>
      </trkpt>
      <trkpt lat="46.56876" lon="5.36192">
        <ele>218</ele>
        <time>2022-03-05T12:44:10Z</time>
      </trkpt>
      <trkpt lat="46.5692" lon="5.36164">
        <ele>218</ele>
        <time>2022-03-05T12:44:17Z</time>
      </trkpt>
      <trkpt lat="46.56925" lon="5.36158">
        <ele>218.2</ele>
        <time>2022-03-05T12:44:18Z</time>
      </trkpt>
      <trkpt lat="46.56936" lon="5.36143">
        <ele>218</ele>
        <time>2022-03-05T12:44:20Z</time>
      </trkpt>
      <trkpt lat="46.5694" lon="5.36135">
        <ele>218</ele>
        <time>2022-03-05T12:44:21Z</time>
      </trkpt>
      <trkpt lat="46.5696" lon="5.36089">
        <ele>217.6</ele>
        <time>2022-03-05T12:44:26Z</time>
      </trkpt>
      <trkpt lat="46.56964" lon="5.3608">
        <ele>217.6</ele>
        <time>2022-03-05T12:44:27Z</time>
      </trkpt>
      <trkpt lat="46.56989" lon="5.36043">
        <ele>216.4</ele>
        <time>2022-03-05T12:44:32Z</time>
      </trkpt>
      <trkpt lat="46.56995" lon="5.36037">
        <ele>216.2</ele>
        <time>2022-03-05T12:44:33Z</time>
      </trkpt>
      <trkpt lat="46.57019" lon="5.36016">
        <ele>215.2</ele>
        <time>2022-03-05T12:44:37Z</time>
      </trkpt>
      <trkpt lat="46.57032" lon="5.36007">
        <ele>214.6</ele>
        <time>2022-03-05T12:44:39Z</time>
      </trkpt>
      <trkpt lat="46.57045" lon="5.36002">
        <ele>214.4</ele>
        <time>2022-03-05T12:44:41Z</time>
      </trkpt>
      <trkpt lat="46.57059" lon="5.36">
        <ele>214.2</ele>
        <time>2022-03-05T12:44:43Z</time>
      </trkpt>
      <trkpt lat="46.57066" lon="5.35999">
        <ele>214</ele>
        <time>2022-03-05T12:44:44Z</time>
      </trkpt>
      <trkpt lat="46.57101" lon="5.35994">
        <ele>213.8</ele>
        <time>2022-03-05T12:44:49Z</time>
      </trkpt>
      <trkpt lat="46.57108" lon="5.35991">
        <ele>213.8</ele>
        <time>2022-03-05T12:44:50Z</time>
      </trkpt>
      <trkpt lat="46.57138" lon="5.35969">
        <ele>213.2</ele>
        <time>2022-03-05T12:44:55Z</time>
      </trkpt>
      <trkpt lat="46.57156" lon="5.35952">
        <ele>213</ele>
        <time>2022-03-05T12:44:58Z</time>
      </trkpt>
      <trkpt lat="46.57205" lon="5.35908">
        <ele>212</ele>
        <time>2022-03-05T12:45:06Z</time>
      </trkpt>
      <trkpt lat="46.57211" lon="5.35902">
        <ele>211.8</ele>
        <time>2022-03-05T12:45:07Z</time>
      </trkpt>
      <trkpt lat="46.57218" lon="5.35897">
        <ele>211.6</ele>
        <time>2022-03-05T12:45:08Z</time>
      </trkpt>
      <trkpt lat="46.57258" lon="5.35865">
        <ele>210.4</ele>
        <time>2022-03-05T12:45:14Z</time>
      </trkpt>
      <trkpt lat="46.57284" lon="5.35846">
        <ele>209.8</ele>
        <time>2022-03-05T12:45:18Z</time>
      </trkpt>
      <trkpt lat="46.57294" lon="5.35838">
        <ele>209.4</ele>
        <time>2022-03-05T12:45:20Z</time>
      </trkpt>
      <trkpt lat="46.57301" lon="5.35835">
        <ele>209.4</ele>
        <time>2022-03-05T12:45:21Z</time>
      </trkpt>
      <trkpt lat="46.57308" lon="5.35835">
        <ele>209.2</ele>
        <time>2022-03-05T12:45:22Z</time>
      </trkpt>
      <trkpt lat="46.57326" lon="5.35838">
        <ele>208.8</ele>
        <time>2022-03-05T12:45:25Z</time>
      </trkpt>
      <trkpt lat="46.57339" lon="5.3584">
        <ele>208.8</ele>
        <time>2022-03-05T12:45:27Z</time>
      </trkpt>
      <trkpt lat="46.57349" lon="5.35837">
        <ele>208.8</ele>
        <time>2022-03-05T12:45:29Z</time>
      </trkpt>
      <trkpt lat="46.57361" lon="5.35829">
        <ele>208.8</ele>
        <time>2022-03-05T12:45:31Z</time>
      </trkpt>
      <trkpt lat="46.57384" lon="5.35794">
        <ele>209.2</ele>
        <time>2022-03-05T12:45:37Z</time>
      </trkpt>
      <trkpt lat="46.57406" lon="5.35756">
        <ele>210.4</ele>
        <time>2022-03-05T12:45:43Z</time>
      </trkpt>
      <trkpt lat="46.57435" lon="5.35734">
        <ele>210.4</ele>
        <time>2022-03-05T12:45:48Z</time>
      </trkpt>
      <trkpt lat="46.57484" lon="5.35705">
        <ele>207.4</ele>
        <time>2022-03-05T12:45:54Z</time>
      </trkpt>
      <trkpt lat="46.57498" lon="5.35695">
        <ele>206.2</ele>
        <time>2022-03-05T12:45:56Z</time>
      </trkpt>
      <trkpt lat="46.57523" lon="5.35678">
        <ele>205</ele>
        <time>2022-03-05T12:45:59Z</time>
      </trkpt>
      <trkpt lat="46.57538" lon="5.35664">
        <ele>204.4</ele>
        <time>2022-03-05T12:46:01Z</time>
      </trkpt>
      <trkpt lat="46.57551" lon="5.35647">
        <ele>203.8</ele>
        <time>2022-03-05T12:46:03Z</time>
      </trkpt>
      <trkpt lat="46.57568" lon="5.3562">
        <ele>202.8</ele>
        <time>2022-03-05T12:46:06Z</time>
      </trkpt>
      <trkpt lat="46.57576" lon="5.3561">
        <ele>202.6</ele>
        <time>2022-03-05T12:46:07Z</time>
      </trkpt>
      <trkpt lat="46.57583" lon="5.35602">
        <ele>201.6</ele>
        <time>2022-03-05T12:46:08Z</time>
      </trkpt>
      <trkpt lat="46.57589" lon="5.35596">
        <ele>201.2</ele>
        <time>2022-03-05T12:46:09Z</time>
      </trkpt>
      <trkpt lat="46.57598" lon="5.35589">
        <ele>201</ele>
        <time>2022-03-05T12:46:10Z</time>
      </trkpt>
      <trkpt lat="46.57632" lon="5.35557">
        <ele>200.4</ele>
        <time>2022-03-05T12:46:15Z</time>
      </trkpt>
      <trkpt lat="46.57656" lon="5.35533">
        <ele>200.6</ele>
        <time>2022-03-05T12:46:19Z</time>
      </trkpt>
      <trkpt lat="46.57663" lon="5.35528">
        <ele>200.8</ele>
        <time>2022-03-05T12:46:20Z</time>
      </trkpt>
      <trkpt lat="46.57699" lon="5.35504">
        <ele>201.4</ele>
        <time>2022-03-05T12:46:26Z</time>
      </trkpt>
      <trkpt lat="46.57732" lon="5.35482">
        <ele>202.2</ele>
        <time>2022-03-05T12:46:33Z</time>
      </trkpt>
      <trkpt lat="46.57736" lon="5.35479">
        <ele>202.4</ele>
        <time>2022-03-05T12:46:34Z</time>
      </trkpt>
      <trkpt lat="46.57745" lon="5.35473">
        <ele>203.6</ele>
        <time>2022-03-05T12:46:36Z</time>
      </trkpt>
      <trkpt lat="46.5776" lon="5.35462">
        <ele>204.8</ele>
        <time>2022-03-05T12:46:40Z</time>
      </trkpt>
      <trkpt lat="46.57776" lon="5.35449">
        <ele>206</ele>
        <time>2022-03-05T12:46:44Z</time>
      </trkpt>
      <trkpt lat="46.57788" lon="5.3544">
        <ele>207.6</ele>
        <time>2022-03-05T12:46:47Z</time>
      </trkpt>
      <trkpt lat="46.57802" lon="5.3543">
        <ele>208.8</ele>
        <time>2022-03-05T12:46:51Z</time>
      </trkpt>
      <trkpt lat="46.57807" lon="5.35427">
        <ele>209.4</ele>
        <time>2022-03-05T12:46:52Z</time>
      </trkpt>
      <trkpt lat="46.57814" lon="5.35427">
        <ele>210</ele>
        <time>2022-03-05T12:46:54Z</time>
      </trkpt>
      <trkpt lat="46.57822" lon="5.35435">
        <ele>210.2</ele>
        <time>2022-03-05T12:46:56Z</time>
      </trkpt>
      <trkpt lat="46.57824" lon="5.35441">
        <ele>210.4</ele>
        <time>2022-03-05T12:46:57Z</time>
      </trkpt>
      <trkpt lat="46.57825" lon="5.35446">
        <ele>210.8</ele>
        <time>2022-03-05T12:46:58Z</time>
      </trkpt>
      <trkpt lat="46.57826" lon="5.3546">
        <ele>211</ele>
        <time>2022-03-05T12:47:00Z</time>
      </trkpt>
      <trkpt lat="46.57831" lon="5.35491">
        <ele>211.6</ele>
        <time>2022-03-05T12:47:04Z</time>
      </trkpt>
      <trkpt lat="46.57844" lon="5.35531">
        <ele>211.6</ele>
        <time>2022-03-05T12:47:09Z</time>
      </trkpt>
      <trkpt lat="46.57865" lon="5.3558">
        <ele>209.8</ele>
        <time>2022-03-05T12:47:14Z</time>
      </trkpt>
      <trkpt lat="46.5787" lon="5.35591">
        <ele>209.6</ele>
        <time>2022-03-05T12:47:15Z</time>
      </trkpt>
      <trkpt lat="46.57876" lon="5.3561">
        <ele>208.8</ele>
        <time>2022-03-05T12:47:17Z</time>
      </trkpt>
      <trkpt lat="46.57879" lon="5.35623">
        <ele>208.6</ele>
        <time>2022-03-05T12:47:18Z</time>
      </trkpt>
      <trkpt lat="46.5788" lon="5.35633">
        <ele>208.4</ele>
        <time>2022-03-05T12:47:19Z</time>
      </trkpt>
      <trkpt lat="46.57889" lon="5.35686">
        <ele>208.4</ele>
        <time>2022-03-05T12:47:25Z</time>
      </trkpt>
      <trkpt lat="46.57904" lon="5.35725">
        <ele>209.6</ele>
        <time>2022-03-05T12:47:30Z</time>
      </trkpt>
      <trkpt lat="46.57908" lon="5.35734">
        <ele>209.8</ele>
        <time>2022-03-05T12:47:31Z</time>
      </trkpt>
      <trkpt lat="46.57934" lon="5.3579">
        <ele>210.2</ele>
        <time>2022-03-05T12:47:38Z</time>
      </trkpt>
      <trkpt lat="46.5794" lon="5.3581">
        <ele>210.2</ele>
        <time>2022-03-05T12:47:40Z</time>
      </trkpt>
      <trkpt lat="46.57941" lon="5.35821">
        <ele>210</ele>
        <time>2022-03-05T12:47:41Z</time>
      </trkpt>
      <trkpt lat="46.5794" lon="5.3583">
        <ele>209.8</ele>
        <time>2022-03-05T12:47:42Z</time>
      </trkpt>
      <trkpt lat="46.57932" lon="5.35865">
        <ele>209</ele>
        <time>2022-03-05T12:47:45Z</time>
      </trkpt>
      <trkpt lat="46.57928" lon="5.35876">
        <ele>208.8</ele>
        <time>2022-03-05T12:47:46Z</time>
      </trkpt>
      <trkpt lat="46.5792" lon="5.35903">
        <ele>207.8</ele>
        <time>2022-03-05T12:47:49Z</time>
      </trkpt>
      <trkpt lat="46.57917" lon="5.35915">
        <ele>207.8</ele>
        <time>2022-03-05T12:47:50Z</time>
      </trkpt>
      <trkpt lat="46.57915" lon="5.35924">
        <ele>207.6</ele>
        <time>2022-03-05T12:47:51Z</time>
      </trkpt>
      <trkpt lat="46.5791" lon="5.35949">
        <ele>207.4</ele>
        <time>2022-03-05T12:47:53Z</time>
      </trkpt>
      <trkpt lat="46.57909" lon="5.35962">
        <ele>207.4</ele>
        <time>2022-03-05T12:47:54Z</time>
      </trkpt>
      <trkpt lat="46.5791" lon="5.35977">
        <ele>207.2</ele>
        <time>2022-03-05T12:47:55Z</time>
      </trkpt>
      <trkpt lat="46.57913" lon="5.35988">
        <ele>207</ele>
        <time>2022-03-05T12:47:56Z</time>
      </trkpt>
      <trkpt lat="46.57918" lon="5.35995">
        <ele>206.6</ele>
        <time>2022-03-05T12:47:57Z</time>
      </trkpt>
      <trkpt lat="46.57925" lon="5.36004">
        <ele>206.2</ele>
        <time>2022-03-05T12:47:58Z</time>
      </trkpt>
      <trkpt lat="46.57931" lon="5.3601">
        <ele>206</ele>
        <time>2022-03-05T12:47:59Z</time>
      </trkpt>
      <trkpt lat="46.57952" lon="5.3603">
        <ele>205</ele>
        <time>2022-03-05T12:48:02Z</time>
      </trkpt>
      <trkpt lat="46.5796" lon="5.36038">
        <ele>205</ele>
        <time>2022-03-05T12:48:03Z</time>
      </trkpt>
      <trkpt lat="46.57965" lon="5.36046">
        <ele>204.8</ele>
        <time>2022-03-05T12:48:04Z</time>
      </trkpt>
      <trkpt lat="46.57974" lon="5.36061">
        <ele>204.8</ele>
        <time>2022-03-05T12:48:06Z</time>
      </trkpt>
      <trkpt lat="46.57982" lon="5.36079">
        <ele>204.6</ele>
        <time>2022-03-05T12:48:08Z</time>
      </trkpt>
      <trkpt lat="46.57998" lon="5.36112">
        <ele>204.8</ele>
        <time>2022-03-05T12:48:12Z</time>
      </trkpt>
      <trkpt lat="46.58002" lon="5.36124">
        <ele>205.8</ele>
        <time>2022-03-05T12:48:14Z</time>
      </trkpt>
      <trkpt lat="46.58003" lon="5.36128">
        <ele>206</ele>
        <time>2022-03-05T12:48:15Z</time>
      </trkpt>
      <trkpt lat="46.58003" lon="5.36133">
        <ele>206.4</ele>
        <time>2022-03-05T12:48:16Z</time>
      </trkpt>
      <trkpt lat="46.58004" lon="5.36141">
        <ele>206.8</ele>
        <time>2022-03-05T12:48:19Z</time>
      </trkpt>
      <trkpt lat="46.58004" lon="5.36148">
        <ele>207.4</ele>
        <time>2022-03-05T12:48:24Z</time>
      </trkpt>
      <trkpt lat="46.58004" lon="5.36146">
        <ele>207.6</ele>
        <time>2022-03-05T12:48:26Z</time>
      </trkpt>
      <trkpt lat="46.58002" lon="5.3614">
        <ele>207.6</ele>
        <time>2022-03-05T12:48:29Z</time>
      </trkpt>
      <trkpt lat="46.57995" lon="5.36123">
        <ele>207.6</ele>
        <time>2022-03-05T12:48:33Z</time>
      </trkpt>
      <trkpt lat="46.57993" lon="5.36115">
        <ele>207.4</ele>
        <time>2022-03-05T12:48:34Z</time>
      </trkpt>
      <trkpt lat="46.57989" lon="5.36105">
        <ele>207.2</ele>
        <time>2022-03-05T12:48:36Z</time>
      </trkpt>
      <trkpt lat="46.57981" lon="5.36088">
        <ele>206.6</ele>
        <time>2022-03-05T12:48:40Z</time>
      </trkpt>
      <trkpt lat="46.57979" lon="5.36085">
        <ele>206.4</ele>
        <time>2022-03-05T12:48:43Z</time>
      </trkpt>
      <trkpt lat="46.57979" lon="5.36084">
        <ele>206.4</ele>
        <time>2022-03-05T12:48:45Z</time>
      </trkpt>
      <trkpt lat="46.5798" lon="5.36087">
        <ele>206.2</ele>
        <time>2022-03-05T12:49:08Z</time>
      </trkpt>
      <trkpt lat="46.57981" lon="5.36088">
        <ele>206.2</ele>
        <time>2022-03-05T12:49:09Z</time>
      </trkpt>
      <trkpt lat="46.57987" lon="5.36104">
        <ele>206.4</ele>
        <time>2022-03-05T12:49:14Z</time>
      </trkpt>
      <trkpt lat="46.57996" lon="5.36126">
        <ele>206.6</ele>
        <time>2022-03-05T12:49:19Z</time>
      </trkpt>
      <trkpt lat="46.58005" lon="5.36139">
        <ele>206.8</ele>
        <time>2022-03-05T12:49:22Z</time>
      </trkpt>
      <trkpt lat="46.58009" lon="5.36145">
        <ele>206.8</ele>
        <time>2022-03-05T12:49:23Z</time>
      </trkpt>
      <trkpt lat="46.58011" lon="5.36152">
        <ele>207</ele>
        <time>2022-03-05T12:49:24Z</time>
      </trkpt>
      <trkpt lat="46.58012" lon="5.36168">
        <ele>207.2</ele>
        <time>2022-03-05T12:49:26Z</time>
      </trkpt>
      <trkpt lat="46.5801" lon="5.36174">
        <ele>207.4</ele>
        <time>2022-03-05T12:49:27Z</time>
      </trkpt>
      <trkpt lat="46.58007" lon="5.36191">
        <ele>207.8</ele>
        <time>2022-03-05T12:49:29Z</time>
      </trkpt>
      <trkpt lat="46.5801" lon="5.36201">
        <ele>207.8</ele>
        <time>2022-03-05T12:49:30Z</time>
      </trkpt>
      <trkpt lat="46.5801" lon="5.36215">
        <ele>208</ele>
        <time>2022-03-05T12:49:32Z</time>
      </trkpt>
      <trkpt lat="46.5801" lon="5.36232">
        <ele>208</ele>
        <time>2022-03-05T12:49:34Z</time>
      </trkpt>
      <trkpt lat="46.58011" lon="5.36238">
        <ele>208</ele>
        <time>2022-03-05T12:49:35Z</time>
      </trkpt>
      <trkpt lat="46.58012" lon="5.36256">
        <ele>208.2</ele>
        <time>2022-03-05T12:49:38Z</time>
      </trkpt>
      <trkpt lat="46.58014" lon="5.36269">
        <ele>208.2</ele>
        <time>2022-03-05T12:49:40Z</time>
      </trkpt>
      <trkpt lat="46.58015" lon="5.36276">
        <ele>208.2</ele>
        <time>2022-03-05T12:49:42Z</time>
      </trkpt>
      <trkpt lat="46.58015" lon="5.36279">
        <ele>208.2</ele>
        <time>2022-03-05T12:49:43Z</time>
      </trkpt>
      <trkpt lat="46.58018" lon="5.36307">
        <ele>208.2</ele>
        <time>2022-03-05T12:49:46Z</time>
      </trkpt>
      <trkpt lat="46.5802" lon="5.36333">
        <ele>208.2</ele>
        <time>2022-03-05T12:49:49Z</time>
      </trkpt>
      <trkpt lat="46.58023" lon="5.36343">
        <ele>208.2</ele>
        <time>2022-03-05T12:49:50Z</time>
      </trkpt>
      <trkpt lat="46.58026" lon="5.36357">
        <ele>208</ele>
        <time>2022-03-05T12:49:52Z</time>
      </trkpt>
      <trkpt lat="46.58033" lon="5.3637">
        <ele>208</ele>
        <time>2022-03-05T12:49:54Z</time>
      </trkpt>
      <trkpt lat="46.58036" lon="5.36377">
        <ele>208</ele>
        <time>2022-03-05T12:49:55Z</time>
      </trkpt>
      <trkpt lat="46.58046" lon="5.36398">
        <ele>208.4</ele>
        <time>2022-03-05T12:49:58Z</time>
      </trkpt>
      <trkpt lat="46.5805" lon="5.36411">
        <ele>208.6</ele>
        <time>2022-03-05T12:50:00Z</time>
      </trkpt>
      <trkpt lat="46.5805" lon="5.36416">
        <ele>208.6</ele>
        <time>2022-03-05T12:50:01Z</time>
      </trkpt>
      <trkpt lat="46.58055" lon="5.36436">
        <ele>209</ele>
        <time>2022-03-05T12:50:04Z</time>
      </trkpt>
      <trkpt lat="46.58065" lon="5.36466">
        <ele>209.2</ele>
        <time>2022-03-05T12:50:08Z</time>
      </trkpt>
      <trkpt lat="46.58071" lon="5.36484">
        <ele>209.4</ele>
        <time>2022-03-05T12:50:10Z</time>
      </trkpt>
      <trkpt lat="46.58073" lon="5.36491">
        <ele>209.4</ele>
        <time>2022-03-05T12:50:11Z</time>
      </trkpt>
      <trkpt lat="46.58077" lon="5.36507">
        <ele>209.6</ele>
        <time>2022-03-05T12:50:13Z</time>
      </trkpt>
      <trkpt lat="46.58078" lon="5.36517">
        <ele>209.6</ele>
        <time>2022-03-05T12:50:14Z</time>
      </trkpt>
      <trkpt lat="46.58083" lon="5.36543">
        <ele>209.8</ele>
        <time>2022-03-05T12:50:17Z</time>
      </trkpt>
      <trkpt lat="46.58084" lon="5.36551">
        <ele>210</ele>
        <time>2022-03-05T12:50:18Z</time>
      </trkpt>
      <trkpt lat="46.58084" lon="5.36565">
        <ele>210.2</ele>
        <time>2022-03-05T12:50:20Z</time>
      </trkpt>
      <trkpt lat="46.58085" lon="5.36582">
        <ele>210.2</ele>
        <time>2022-03-05T12:50:22Z</time>
      </trkpt>
      <trkpt lat="46.58085" lon="5.36592">
        <ele>210.2</ele>
        <time>2022-03-05T12:50:23Z</time>
      </trkpt>
      <trkpt lat="46.58086" lon="5.36598">
        <ele>210.4</ele>
        <time>2022-03-05T12:50:24Z</time>
      </trkpt>
      <trkpt lat="46.58091" lon="5.36617">
        <ele>210.2</ele>
        <time>2022-03-05T12:50:26Z</time>
      </trkpt>
      <trkpt lat="46.58092" lon="5.36623">
        <ele>210.2</ele>
        <time>2022-03-05T12:50:27Z</time>
      </trkpt>
      <trkpt lat="46.58112" lon="5.36675">
        <ele>210.4</ele>
        <time>2022-03-05T12:50:34Z</time>
      </trkpt>
      <trkpt lat="46.58127" lon="5.36703">
        <ele>210.4</ele>
        <time>2022-03-05T12:50:38Z</time>
      </trkpt>
      <trkpt lat="46.58148" lon="5.36742">
        <ele>210.4</ele>
        <time>2022-03-05T12:50:43Z</time>
      </trkpt>
      <trkpt lat="46.58182" lon="5.36806">
        <ele>210.4</ele>
        <time>2022-03-05T12:50:51Z</time>
      </trkpt>
      <trkpt lat="46.58189" lon="5.36821">
        <ele>210.6</ele>
        <time>2022-03-05T12:50:53Z</time>
      </trkpt>
      <trkpt lat="46.58219" lon="5.36882">
        <ele>211.4</ele>
        <time>2022-03-05T12:51:01Z</time>
      </trkpt>
      <trkpt lat="46.5824" lon="5.36931">
        <ele>211.6</ele>
        <time>2022-03-05T12:51:08Z</time>
      </trkpt>
      <trkpt lat="46.58264" lon="5.36976">
        <ele>212</ele>
        <time>2022-03-05T12:51:15Z</time>
      </trkpt>
      <trkpt lat="46.58273" lon="5.36988">
        <ele>212.2</ele>
        <time>2022-03-05T12:51:17Z</time>
      </trkpt>
      <trkpt lat="46.58283" lon="5.36996">
        <ele>212.4</ele>
        <time>2022-03-05T12:51:19Z</time>
      </trkpt>
      <trkpt lat="46.58288" lon="5.36998">
        <ele>212.8</ele>
        <time>2022-03-05T12:51:20Z</time>
      </trkpt>
      <trkpt lat="46.58329" lon="5.37017">
        <ele>214</ele>
        <time>2022-03-05T12:51:28Z</time>
      </trkpt>
      <trkpt lat="46.58361" lon="5.37031">
        <ele>215</ele>
        <time>2022-03-05T12:51:34Z</time>
      </trkpt>
      <trkpt lat="46.58371" lon="5.37035">
        <ele>215.2</ele>
        <time>2022-03-05T12:51:36Z</time>
      </trkpt>
      <trkpt lat="46.58386" lon="5.37041">
        <ele>216.2</ele>
        <time>2022-03-05T12:51:39Z</time>
      </trkpt>
      <trkpt lat="46.58416" lon="5.37054">
        <ele>217.2</ele>
        <time>2022-03-05T12:51:46Z</time>
      </trkpt>
      <trkpt lat="46.58443" lon="5.37066">
        <ele>218.6</ele>
        <time>2022-03-05T12:51:52Z</time>
      </trkpt>
      <trkpt lat="46.58453" lon="5.3707">
        <ele>219.2</ele>
        <time>2022-03-05T12:51:54Z</time>
      </trkpt>
      <trkpt lat="46.58466" lon="5.37077">
        <ele>220.2</ele>
        <time>2022-03-05T12:51:57Z</time>
      </trkpt>
      <trkpt lat="46.58485" lon="5.37091">
        <ele>221.4</ele>
        <time>2022-03-05T12:52:02Z</time>
      </trkpt>
      <trkpt lat="46.58489" lon="5.37094">
        <ele>221.4</ele>
        <time>2022-03-05T12:52:03Z</time>
      </trkpt>
      <trkpt lat="46.58522" lon="5.37128">
        <ele>222.4</ele>
        <time>2022-03-05T12:52:11Z</time>
      </trkpt>
      <trkpt lat="46.58526" lon="5.37133">
        <ele>222.4</ele>
        <time>2022-03-05T12:52:12Z</time>
      </trkpt>
      <trkpt lat="46.5854" lon="5.37153">
        <ele>222.4</ele>
        <time>2022-03-05T12:52:15Z</time>
      </trkpt>
      <trkpt lat="46.58547" lon="5.37168">
        <ele>222.2</ele>
        <time>2022-03-05T12:52:17Z</time>
      </trkpt>
      <trkpt lat="46.58551" lon="5.37176">
        <ele>221.4</ele>
        <time>2022-03-05T12:52:18Z</time>
      </trkpt>
      <trkpt lat="46.58567" lon="5.37217">
        <ele>220.4</ele>
        <time>2022-03-05T12:52:23Z</time>
      </trkpt>
      <trkpt lat="46.58569" lon="5.37225">
        <ele>220.2</ele>
        <time>2022-03-05T12:52:24Z</time>
      </trkpt>
      <trkpt lat="46.58587" lon="5.3728">
        <ele>219.8</ele>
        <time>2022-03-05T12:52:31Z</time>
      </trkpt>
      <trkpt lat="46.58598" lon="5.37326">
        <ele>219.8</ele>
        <time>2022-03-05T12:52:37Z</time>
      </trkpt>
      <trkpt lat="46.58616" lon="5.37399">
        <ele>220.4</ele>
        <time>2022-03-05T12:52:46Z</time>
      </trkpt>
      <trkpt lat="46.58637" lon="5.37465">
        <ele>220.2</ele>
        <time>2022-03-05T12:52:54Z</time>
      </trkpt>
      <trkpt lat="46.58665" lon="5.37514">
        <ele>219.6</ele>
        <time>2022-03-05T12:53:01Z</time>
      </trkpt>
      <trkpt lat="46.58703" lon="5.37564">
        <ele>220.2</ele>
        <time>2022-03-05T12:53:10Z</time>
      </trkpt>
      <trkpt lat="46.58737" lon="5.37607">
        <ele>221.4</ele>
        <time>2022-03-05T12:53:19Z</time>
      </trkpt>
      <trkpt lat="46.58741" lon="5.37613">
        <ele>221.6</ele>
        <time>2022-03-05T12:53:20Z</time>
      </trkpt>
      <trkpt lat="46.58766" lon="5.37646">
        <ele>222.6</ele>
        <time>2022-03-05T12:53:26Z</time>
      </trkpt>
      <trkpt lat="46.58777" lon="5.37662">
        <ele>223.4</ele>
        <time>2022-03-05T12:53:29Z</time>
      </trkpt>
      <trkpt lat="46.58784" lon="5.37674">
        <ele>223.6</ele>
        <time>2022-03-05T12:53:31Z</time>
      </trkpt>
      <trkpt lat="46.58803" lon="5.37712">
        <ele>224.6</ele>
        <time>2022-03-05T12:53:37Z</time>
      </trkpt>
      <trkpt lat="46.58809" lon="5.37725">
        <ele>224.8</ele>
        <time>2022-03-05T12:53:39Z</time>
      </trkpt>
      <trkpt lat="46.58843" lon="5.37795">
        <ele>225.2</ele>
        <time>2022-03-05T12:53:49Z</time>
      </trkpt>
      <trkpt lat="46.5887" lon="5.37841">
        <ele>224.8</ele>
        <time>2022-03-05T12:53:56Z</time>
      </trkpt>
      <trkpt lat="46.58874" lon="5.37847">
        <ele>224.8</ele>
        <time>2022-03-05T12:53:57Z</time>
      </trkpt>
      <trkpt lat="46.58887" lon="5.37865">
        <ele>224.8</ele>
        <time>2022-03-05T12:54:00Z</time>
      </trkpt>
      <trkpt lat="46.58903" lon="5.37877">
        <ele>224.8</ele>
        <time>2022-03-05T12:54:03Z</time>
      </trkpt>
      <trkpt lat="46.5894" lon="5.37904">
        <ele>224.4</ele>
        <time>2022-03-05T12:54:10Z</time>
      </trkpt>
      <trkpt lat="46.58945" lon="5.37909">
        <ele>224.2</ele>
        <time>2022-03-05T12:54:11Z</time>
      </trkpt>
      <trkpt lat="46.58955" lon="5.37921">
        <ele>224</ele>
        <time>2022-03-05T12:54:13Z</time>
      </trkpt>
      <trkpt lat="46.58959" lon="5.37928">
        <ele>224</ele>
        <time>2022-03-05T12:54:14Z</time>
      </trkpt>
      <trkpt lat="46.5898" lon="5.37983">
        <ele>224.2</ele>
        <time>2022-03-05T12:54:21Z</time>
      </trkpt>
      <trkpt lat="46.59008" lon="5.3806">
        <ele>224.2</ele>
        <time>2022-03-05T12:54:30Z</time>
      </trkpt>
      <trkpt lat="46.5901" lon="5.38067">
        <ele>224.2</ele>
        <time>2022-03-05T12:54:31Z</time>
      </trkpt>
      <trkpt lat="46.59028" lon="5.38117">
        <ele>224</ele>
        <time>2022-03-05T12:54:37Z</time>
      </trkpt>
      <trkpt lat="46.5904" lon="5.38149">
        <ele>224</ele>
        <time>2022-03-05T12:54:41Z</time>
      </trkpt>
      <trkpt lat="46.59058" lon="5.38198">
        <ele>223.8</ele>
        <time>2022-03-05T12:54:47Z</time>
      </trkpt>
      <trkpt lat="46.59073" lon="5.3824">
        <ele>223.8</ele>
        <time>2022-03-05T12:54:52Z</time>
      </trkpt>
      <trkpt lat="46.59099" lon="5.38316">
        <ele>223.8</ele>
        <time>2022-03-05T12:55:01Z</time>
      </trkpt>
      <trkpt lat="46.59121" lon="5.38388">
        <ele>222.8</ele>
        <time>2022-03-05T12:55:09Z</time>
      </trkpt>
      <trkpt lat="46.59127" lon="5.38406">
        <ele>222.8</ele>
        <time>2022-03-05T12:55:11Z</time>
      </trkpt>
      <trkpt lat="46.59141" lon="5.38446">
        <ele>222.4</ele>
        <time>2022-03-05T12:55:16Z</time>
      </trkpt>
      <trkpt lat="46.5916" lon="5.38481">
        <ele>222.4</ele>
        <time>2022-03-05T12:55:21Z</time>
      </trkpt>
      <trkpt lat="46.59191" lon="5.38526">
        <ele>223.4</ele>
        <time>2022-03-05T12:55:29Z</time>
      </trkpt>
      <trkpt lat="46.59208" lon="5.38545">
        <ele>224</ele>
        <time>2022-03-05T12:55:33Z</time>
      </trkpt>
      <trkpt lat="46.59227" lon="5.38564">
        <ele>224.8</ele>
        <time>2022-03-05T12:55:37Z</time>
      </trkpt>
      <trkpt lat="46.59232" lon="5.38569">
        <ele>225</ele>
        <time>2022-03-05T12:55:38Z</time>
      </trkpt>
      <trkpt lat="46.59274" lon="5.38615">
        <ele>225</ele>
        <time>2022-03-05T12:55:46Z</time>
      </trkpt>
      <trkpt lat="46.59321" lon="5.38664">
        <ele>224.6</ele>
        <time>2022-03-05T12:55:55Z</time>
      </trkpt>
      <trkpt lat="46.59326" lon="5.38669">
        <ele>224.8</ele>
        <time>2022-03-05T12:55:56Z</time>
      </trkpt>
      <trkpt lat="46.5937" lon="5.38718">
        <ele>224.8</ele>
        <time>2022-03-05T12:56:05Z</time>
      </trkpt>
      <trkpt lat="46.59375" lon="5.38723">
        <ele>224.8</ele>
        <time>2022-03-05T12:56:06Z</time>
      </trkpt>
      <trkpt lat="46.59421" lon="5.38772">
        <ele>225.8</ele>
        <time>2022-03-05T12:56:15Z</time>
      </trkpt>
      <trkpt lat="46.59431" lon="5.38784">
        <ele>225.8</ele>
        <time>2022-03-05T12:56:17Z</time>
      </trkpt>
      <trkpt lat="46.59435" lon="5.38791">
        <ele>225.8</ele>
        <time>2022-03-05T12:56:18Z</time>
      </trkpt>
      <trkpt lat="46.59442" lon="5.38806">
        <ele>226</ele>
        <time>2022-03-05T12:56:20Z</time>
      </trkpt>
      <trkpt lat="46.59444" lon="5.38815">
        <ele>226</ele>
        <time>2022-03-05T12:56:21Z</time>
      </trkpt>
      <trkpt lat="46.5945" lon="5.3886">
        <ele>226.2</ele>
        <time>2022-03-05T12:56:26Z</time>
      </trkpt>
      <trkpt lat="46.59451" lon="5.3887">
        <ele>226.2</ele>
        <time>2022-03-05T12:56:27Z</time>
      </trkpt>
      <trkpt lat="46.59454" lon="5.38898">
        <ele>226.2</ele>
        <time>2022-03-05T12:56:30Z</time>
      </trkpt>
      <trkpt lat="46.59458" lon="5.38916">
        <ele>226.2</ele>
        <time>2022-03-05T12:56:32Z</time>
      </trkpt>
      <trkpt lat="46.59475" lon="5.38961">
        <ele>225.8</ele>
        <time>2022-03-05T12:56:37Z</time>
      </trkpt>
      <trkpt lat="46.59477" lon="5.38971">
        <ele>225.6</ele>
        <time>2022-03-05T12:56:38Z</time>
      </trkpt>
      <trkpt lat="46.59479" lon="5.38982">
        <ele>225.6</ele>
        <time>2022-03-05T12:56:39Z</time>
      </trkpt>
      <trkpt lat="46.59483" lon="5.39021">
        <ele>225.4</ele>
        <time>2022-03-05T12:56:43Z</time>
      </trkpt>
      <trkpt lat="46.59487" lon="5.39051">
        <ele>225.2</ele>
        <time>2022-03-05T12:56:46Z</time>
      </trkpt>
      <trkpt lat="46.59495" lon="5.3912">
        <ele>225</ele>
        <time>2022-03-05T12:56:53Z</time>
      </trkpt>
      <trkpt lat="46.59506" lon="5.39183">
        <ele>225.6</ele>
        <time>2022-03-05T12:57:00Z</time>
      </trkpt>
      <trkpt lat="46.59513" lon="5.39197">
        <ele>225.8</ele>
        <time>2022-03-05T12:57:02Z</time>
      </trkpt>
      <trkpt lat="46.59522" lon="5.39209">
        <ele>225.8</ele>
        <time>2022-03-05T12:57:04Z</time>
      </trkpt>
      <trkpt lat="46.59533" lon="5.39213">
        <ele>225.8</ele>
        <time>2022-03-05T12:57:06Z</time>
      </trkpt>
      <trkpt lat="46.59539" lon="5.39214">
        <ele>225.8</ele>
        <time>2022-03-05T12:57:07Z</time>
      </trkpt>
      <trkpt lat="46.59582" lon="5.39205">
        <ele>226</ele>
        <time>2022-03-05T12:57:14Z</time>
      </trkpt>
      <trkpt lat="46.59606" lon="5.39193">
        <ele>226.2</ele>
        <time>2022-03-05T12:57:18Z</time>
      </trkpt>
      <trkpt lat="46.59612" lon="5.39191">
        <ele>226.2</ele>
        <time>2022-03-05T12:57:19Z</time>
      </trkpt>
      <trkpt lat="46.59626" lon="5.39189">
        <ele>226.4</ele>
        <time>2022-03-05T12:57:21Z</time>
      </trkpt>
      <trkpt lat="46.59673" lon="5.39195">
        <ele>226.6</ele>
        <time>2022-03-05T12:57:29Z</time>
      </trkpt>
      <trkpt lat="46.59696" lon="5.392">
        <ele>227.4</ele>
        <time>2022-03-05T12:57:33Z</time>
      </trkpt>
      <trkpt lat="46.59713" lon="5.39204">
        <ele>227.6</ele>
        <time>2022-03-05T12:57:36Z</time>
      </trkpt>
      <trkpt lat="46.59718" lon="5.39207">
        <ele>227.8</ele>
        <time>2022-03-05T12:57:37Z</time>
      </trkpt>
      <trkpt lat="46.59723" lon="5.39211">
        <ele>227.8</ele>
        <time>2022-03-05T12:57:38Z</time>
      </trkpt>
      <trkpt lat="46.59735" lon="5.39224">
        <ele>228.2</ele>
        <time>2022-03-05T12:57:41Z</time>
      </trkpt>
      <trkpt lat="46.59747" lon="5.39221">
        <ele>228</ele>
        <time>2022-03-05T12:57:44Z</time>
      </trkpt>
      <trkpt lat="46.59772" lon="5.39203">
        <ele>227.8</ele>
        <time>2022-03-05T12:57:49Z</time>
      </trkpt>
      <trkpt lat="46.59814" lon="5.39193">
        <ele>226.8</ele>
        <time>2022-03-05T12:57:56Z</time>
      </trkpt>
      <trkpt lat="46.59826" lon="5.39195">
        <ele>226.4</ele>
        <time>2022-03-05T12:57:58Z</time>
      </trkpt>
      <trkpt lat="46.59857" lon="5.392">
        <ele>226</ele>
        <time>2022-03-05T12:58:03Z</time>
      </trkpt>
      <trkpt lat="46.59895" lon="5.39193">
        <ele>226</ele>
        <time>2022-03-05T12:58:09Z</time>
      </trkpt>
      <trkpt lat="46.59944" lon="5.39186">
        <ele>225.8</ele>
        <time>2022-03-05T12:58:16Z</time>
      </trkpt>
      <trkpt lat="46.59959" lon="5.39186">
        <ele>225.2</ele>
        <time>2022-03-05T12:58:18Z</time>
      </trkpt>
      <trkpt lat="46.59982" lon="5.39188">
        <ele>224.4</ele>
        <time>2022-03-05T12:58:21Z</time>
      </trkpt>
      <trkpt lat="46.59988" lon="5.3919">
        <ele>224</ele>
        <time>2022-03-05T12:58:22Z</time>
      </trkpt>
      <trkpt lat="46.60008" lon="5.39202">
        <ele>223</ele>
        <time>2022-03-05T12:58:25Z</time>
      </trkpt>
      <trkpt lat="46.60015" lon="5.39208">
        <ele>223</ele>
        <time>2022-03-05T12:58:26Z</time>
      </trkpt>
      <trkpt lat="46.6002" lon="5.39213">
        <ele>222.8</ele>
        <time>2022-03-05T12:58:27Z</time>
      </trkpt>
      <trkpt lat="46.60026" lon="5.3922">
        <ele>222.6</ele>
        <time>2022-03-05T12:58:28Z</time>
      </trkpt>
      <trkpt lat="46.60038" lon="5.3924">
        <ele>222.4</ele>
        <time>2022-03-05T12:58:30Z</time>
      </trkpt>
      <trkpt lat="46.60042" lon="5.39249">
        <ele>222.4</ele>
        <time>2022-03-05T12:58:31Z</time>
      </trkpt>
      <trkpt lat="46.60045" lon="5.39261">
        <ele>222.4</ele>
        <time>2022-03-05T12:58:32Z</time>
      </trkpt>
      <trkpt lat="46.60051" lon="5.39288">
        <ele>222.2</ele>
        <time>2022-03-05T12:58:34Z</time>
      </trkpt>
      <trkpt lat="46.60052" lon="5.39302">
        <ele>222</ele>
        <time>2022-03-05T12:58:35Z</time>
      </trkpt>
      <trkpt lat="46.60051" lon="5.39331">
        <ele>220.8</ele>
        <time>2022-03-05T12:58:37Z</time>
      </trkpt>
      <trkpt lat="46.60049" lon="5.39345">
        <ele>220.4</ele>
        <time>2022-03-05T12:58:38Z</time>
      </trkpt>
      <trkpt lat="46.60048" lon="5.39359">
        <ele>219</ele>
        <time>2022-03-05T12:58:39Z</time>
      </trkpt>
      <trkpt lat="46.60043" lon="5.39385">
        <ele>217.6</ele>
        <time>2022-03-05T12:58:41Z</time>
      </trkpt>
      <trkpt lat="46.60039" lon="5.3941">
        <ele>216.8</ele>
        <time>2022-03-05T12:58:43Z</time>
      </trkpt>
      <trkpt lat="46.60035" lon="5.39434">
        <ele>216.8</ele>
        <time>2022-03-05T12:58:45Z</time>
      </trkpt>
      <trkpt lat="46.60034" lon="5.39469">
        <ele>216.8</ele>
        <time>2022-03-05T12:58:48Z</time>
      </trkpt>
      <trkpt lat="46.60037" lon="5.39491">
        <ele>217</ele>
        <time>2022-03-05T12:58:50Z</time>
      </trkpt>
      <trkpt lat="46.60045" lon="5.39514">
        <ele>217.2</ele>
        <time>2022-03-05T12:58:52Z</time>
      </trkpt>
      <trkpt lat="46.60075" lon="5.3958">
        <ele>216.6</ele>
        <time>2022-03-05T12:58:58Z</time>
      </trkpt>
      <trkpt lat="46.60079" lon="5.39592">
        <ele>215.6</ele>
        <time>2022-03-05T12:58:59Z</time>
      </trkpt>
      <trkpt lat="46.60083" lon="5.39604">
        <ele>215</ele>
        <time>2022-03-05T12:59:00Z</time>
      </trkpt>
      <trkpt lat="46.60088" lon="5.3963">
        <ele>214.4</ele>
        <time>2022-03-05T12:59:02Z</time>
      </trkpt>
      <trkpt lat="46.60088" lon="5.39644">
        <ele>214.2</ele>
        <time>2022-03-05T12:59:03Z</time>
      </trkpt>
      <trkpt lat="46.60083" lon="5.39671">
        <ele>213.6</ele>
        <time>2022-03-05T12:59:05Z</time>
      </trkpt>
      <trkpt lat="46.60079" lon="5.39684">
        <ele>213.2</ele>
        <time>2022-03-05T12:59:06Z</time>
      </trkpt>
      <trkpt lat="46.60074" lon="5.39696">
        <ele>213</ele>
        <time>2022-03-05T12:59:07Z</time>
      </trkpt>
      <trkpt lat="46.60068" lon="5.39708">
        <ele>212.6</ele>
        <time>2022-03-05T12:59:08Z</time>
      </trkpt>
      <trkpt lat="46.60064" lon="5.39721">
        <ele>211.8</ele>
        <time>2022-03-05T12:59:09Z</time>
      </trkpt>
      <trkpt lat="46.60063" lon="5.39748">
        <ele>210.8</ele>
        <time>2022-03-05T12:59:11Z</time>
      </trkpt>
      <trkpt lat="46.6007" lon="5.39772">
        <ele>210</ele>
        <time>2022-03-05T12:59:13Z</time>
      </trkpt>
      <trkpt lat="46.60074" lon="5.39783">
        <ele>209.6</ele>
        <time>2022-03-05T12:59:14Z</time>
      </trkpt>
      <trkpt lat="46.60078" lon="5.39794">
        <ele>209</ele>
        <time>2022-03-05T12:59:15Z</time>
      </trkpt>
      <trkpt lat="46.60094" lon="5.39824">
        <ele>208.4</ele>
        <time>2022-03-05T12:59:18Z</time>
      </trkpt>
      <trkpt lat="46.601" lon="5.39831">
        <ele>208.2</ele>
        <time>2022-03-05T12:59:19Z</time>
      </trkpt>
      <trkpt lat="46.6012" lon="5.39851">
        <ele>207.4</ele>
        <time>2022-03-05T12:59:22Z</time>
      </trkpt>
      <trkpt lat="46.60133" lon="5.39862">
        <ele>207.2</ele>
        <time>2022-03-05T12:59:24Z</time>
      </trkpt>
      <trkpt lat="46.60164" lon="5.39891">
        <ele>207.6</ele>
        <time>2022-03-05T12:59:29Z</time>
      </trkpt>
      <trkpt lat="46.60169" lon="5.39898">
        <ele>207.6</ele>
        <time>2022-03-05T12:59:30Z</time>
      </trkpt>
      <trkpt lat="46.60178" lon="5.39914">
        <ele>207.8</ele>
        <time>2022-03-05T12:59:32Z</time>
      </trkpt>
      <trkpt lat="46.60183" lon="5.39932">
        <ele>208</ele>
        <time>2022-03-05T12:59:34Z</time>
      </trkpt>
      <trkpt lat="46.60185" lon="5.39951">
        <ele>208</ele>
        <time>2022-03-05T12:59:36Z</time>
      </trkpt>
      <trkpt lat="46.60186" lon="5.3997">
        <ele>208.4</ele>
        <time>2022-03-05T12:59:38Z</time>
      </trkpt>
      <trkpt lat="46.60188" lon="5.40015">
        <ele>209.6</ele>
        <time>2022-03-05T12:59:43Z</time>
      </trkpt>
      <trkpt lat="46.60188" lon="5.40024">
        <ele>210</ele>
        <time>2022-03-05T12:59:44Z</time>
      </trkpt>
      <trkpt lat="46.60189" lon="5.40033">
        <ele>210.6</ele>
        <time>2022-03-05T12:59:45Z</time>
      </trkpt>
      <trkpt lat="46.60189" lon="5.40069">
        <ele>211.8</ele>
        <time>2022-03-05T12:59:49Z</time>
      </trkpt>
      <trkpt lat="46.6019" lon="5.40087">
        <ele>212</ele>
        <time>2022-03-05T12:59:51Z</time>
      </trkpt>
      <trkpt lat="46.60187" lon="5.40141">
        <ele>212.8</ele>
        <time>2022-03-05T12:59:57Z</time>
      </trkpt>
      <trkpt lat="46.60186" lon="5.40148">
        <ele>213</ele>
        <time>2022-03-05T12:59:58Z</time>
      </trkpt>
      <trkpt lat="46.60175" lon="5.40205">
        <ele>213.6</ele>
        <time>2022-03-05T13:00:04Z</time>
      </trkpt>
      <trkpt lat="46.60174" lon="5.40215">
        <ele>213.6</ele>
        <time>2022-03-05T13:00:05Z</time>
      </trkpt>
      <trkpt lat="46.60175" lon="5.40225">
        <ele>213.4</ele>
        <time>2022-03-05T13:00:06Z</time>
      </trkpt>
      <trkpt lat="46.60179" lon="5.40245">
        <ele>213.2</ele>
        <time>2022-03-05T13:00:08Z</time>
      </trkpt>
      <trkpt lat="46.60182" lon="5.40254">
        <ele>213.2</ele>
        <time>2022-03-05T13:00:09Z</time>
      </trkpt>
      <trkpt lat="46.60209" lon="5.40324">
        <ele>213.4</ele>
        <time>2022-03-05T13:00:17Z</time>
      </trkpt>
      <trkpt lat="46.60218" lon="5.40378">
        <ele>213.6</ele>
        <time>2022-03-05T13:00:23Z</time>
      </trkpt>
      <trkpt lat="46.60218" lon="5.40399">
        <ele>213.6</ele>
        <time>2022-03-05T13:00:25Z</time>
      </trkpt>
      <trkpt lat="46.60217" lon="5.40422">
        <ele>213.4</ele>
        <time>2022-03-05T13:00:27Z</time>
      </trkpt>
      <trkpt lat="46.60216" lon="5.40487">
        <ele>212.2</ele>
        <time>2022-03-05T13:00:32Z</time>
      </trkpt>
      <trkpt lat="46.60218" lon="5.405">
        <ele>211.4</ele>
        <time>2022-03-05T13:00:33Z</time>
      </trkpt>
      <trkpt lat="46.60224" lon="5.40525">
        <ele>210.2</ele>
        <time>2022-03-05T13:00:35Z</time>
      </trkpt>
      <trkpt lat="46.60229" lon="5.40549">
        <ele>209.6</ele>
        <time>2022-03-05T13:00:37Z</time>
      </trkpt>
      <trkpt lat="46.60232" lon="5.40574">
        <ele>209</ele>
        <time>2022-03-05T13:00:39Z</time>
      </trkpt>
      <trkpt lat="46.60232" lon="5.40598">
        <ele>208.6</ele>
        <time>2022-03-05T13:00:41Z</time>
      </trkpt>
      <trkpt lat="46.60227" lon="5.40621">
        <ele>208.2</ele>
        <time>2022-03-05T13:00:43Z</time>
      </trkpt>
      <trkpt lat="46.60222" lon="5.40631">
        <ele>208</ele>
        <time>2022-03-05T13:00:44Z</time>
      </trkpt>
      <trkpt lat="46.60218" lon="5.4064">
        <ele>208</ele>
        <time>2022-03-05T13:00:45Z</time>
      </trkpt>
      <trkpt lat="46.60197" lon="5.40676">
        <ele>207.8</ele>
        <time>2022-03-05T13:00:49Z</time>
      </trkpt>
      <trkpt lat="46.60178" lon="5.40714">
        <ele>207.4</ele>
        <time>2022-03-05T13:00:53Z</time>
      </trkpt>
      <trkpt lat="46.60175" lon="5.40725">
        <ele>207.4</ele>
        <time>2022-03-05T13:00:54Z</time>
      </trkpt>
      <trkpt lat="46.60172" lon="5.40736">
        <ele>207.4</ele>
        <time>2022-03-05T13:00:55Z</time>
      </trkpt>
      <trkpt lat="46.6017" lon="5.40758">
        <ele>207.2</ele>
        <time>2022-03-05T13:00:57Z</time>
      </trkpt>
      <trkpt lat="46.60171" lon="5.40769">
        <ele>207</ele>
        <time>2022-03-05T13:00:58Z</time>
      </trkpt>
      <trkpt lat="46.60172" lon="5.4078">
        <ele>207.2</ele>
        <time>2022-03-05T13:00:59Z</time>
      </trkpt>
      <trkpt lat="46.60177" lon="5.40801">
        <ele>207</ele>
        <time>2022-03-05T13:01:01Z</time>
      </trkpt>
      <trkpt lat="46.60182" lon="5.40812">
        <ele>207</ele>
        <time>2022-03-05T13:01:02Z</time>
      </trkpt>
      <trkpt lat="46.60191" lon="5.40825">
        <ele>207</ele>
        <time>2022-03-05T13:01:04Z</time>
      </trkpt>
      <trkpt lat="46.60203" lon="5.40838">
        <ele>207</ele>
        <time>2022-03-05T13:01:06Z</time>
      </trkpt>
      <trkpt lat="46.60238" lon="5.40865">
        <ele>207.4</ele>
        <time>2022-03-05T13:01:12Z</time>
      </trkpt>
      <trkpt lat="46.60269" lon="5.40888">
        <ele>208.2</ele>
        <time>2022-03-05T13:01:18Z</time>
      </trkpt>
      <trkpt lat="46.60291" lon="5.40911">
        <ele>209.4</ele>
        <time>2022-03-05T13:01:23Z</time>
      </trkpt>
      <trkpt lat="46.60295" lon="5.40916">
        <ele>209.4</ele>
        <time>2022-03-05T13:01:24Z</time>
      </trkpt>
      <trkpt lat="46.60298" lon="5.40921">
        <ele>209.8</ele>
        <time>2022-03-05T13:01:25Z</time>
      </trkpt>
      <trkpt lat="46.60305" lon="5.40932">
        <ele>210.6</ele>
        <time>2022-03-05T13:01:27Z</time>
      </trkpt>
      <trkpt lat="46.60307" lon="5.40937">
        <ele>211</ele>
        <time>2022-03-05T13:01:28Z</time>
      </trkpt>
      <trkpt lat="46.60315" lon="5.40954">
        <ele>211.8</ele>
        <time>2022-03-05T13:01:31Z</time>
      </trkpt>
      <trkpt lat="46.60318" lon="5.40959">
        <ele>212</ele>
        <time>2022-03-05T13:01:32Z</time>
      </trkpt>
      <trkpt lat="46.60324" lon="5.40969">
        <ele>212.4</ele>
        <time>2022-03-05T13:01:34Z</time>
      </trkpt>
      <trkpt lat="46.60331" lon="5.40983">
        <ele>213</ele>
        <time>2022-03-05T13:01:37Z</time>
      </trkpt>
      <trkpt lat="46.60337" lon="5.40991">
        <ele>214.2</ele>
        <time>2022-03-05T13:01:39Z</time>
      </trkpt>
      <trkpt lat="46.60348" lon="5.41004">
        <ele>215.4</ele>
        <time>2022-03-05T13:01:43Z</time>
      </trkpt>
      <trkpt lat="46.60356" lon="5.41009">
        <ele>216</ele>
        <time>2022-03-05T13:01:45Z</time>
      </trkpt>
      <trkpt lat="46.60365" lon="5.41014">
        <ele>216.4</ele>
        <time>2022-03-05T13:01:47Z</time>
      </trkpt>
      <trkpt lat="46.60384" lon="5.41027">
        <ele>217.6</ele>
        <time>2022-03-05T13:01:52Z</time>
      </trkpt>
      <trkpt lat="46.60388" lon="5.41031">
        <ele>218.4</ele>
        <time>2022-03-05T13:01:53Z</time>
      </trkpt>
      <trkpt lat="46.60395" lon="5.41039">
        <ele>219.2</ele>
        <time>2022-03-05T13:01:55Z</time>
      </trkpt>
      <trkpt lat="46.60405" lon="5.41054">
        <ele>219.8</ele>
        <time>2022-03-05T13:01:58Z</time>
      </trkpt>
      <trkpt lat="46.60408" lon="5.41061">
        <ele>220</ele>
        <time>2022-03-05T13:01:59Z</time>
      </trkpt>
      <trkpt lat="46.6041" lon="5.41067">
        <ele>220.2</ele>
        <time>2022-03-05T13:02:00Z</time>
      </trkpt>
      <trkpt lat="46.60423" lon="5.41101">
        <ele>221</ele>
        <time>2022-03-05T13:02:05Z</time>
      </trkpt>
      <trkpt lat="46.60427" lon="5.41108">
        <ele>221.2</ele>
        <time>2022-03-05T13:02:06Z</time>
      </trkpt>
      <trkpt lat="46.6043" lon="5.41115">
        <ele>221.2</ele>
        <time>2022-03-05T13:02:07Z</time>
      </trkpt>
      <trkpt lat="46.60435" lon="5.41121">
        <ele>221.2</ele>
        <time>2022-03-05T13:02:08Z</time>
      </trkpt>
      <trkpt lat="46.60447" lon="5.4113">
        <ele>221</ele>
        <time>2022-03-05T13:02:10Z</time>
      </trkpt>
      <trkpt lat="46.60473" lon="5.4114">
        <ele>220.4</ele>
        <time>2022-03-05T13:02:14Z</time>
      </trkpt>
      <trkpt lat="46.6048" lon="5.41141">
        <ele>220.2</ele>
        <time>2022-03-05T13:02:15Z</time>
      </trkpt>
      <trkpt lat="46.60487" lon="5.41141">
        <ele>220</ele>
        <time>2022-03-05T13:02:16Z</time>
      </trkpt>
      <trkpt lat="46.60517" lon="5.41143">
        <ele>219</ele>
        <time>2022-03-05T13:02:20Z</time>
      </trkpt>
      <trkpt lat="46.6054" lon="5.41144">
        <ele>218.2</ele>
        <time>2022-03-05T13:02:23Z</time>
      </trkpt>
      <trkpt lat="46.60549" lon="5.41145">
        <ele>217.8</ele>
        <time>2022-03-05T13:02:24Z</time>
      </trkpt>
      <trkpt lat="46.60555" lon="5.41146">
        <ele>217.2</ele>
        <time>2022-03-05T13:02:25Z</time>
      </trkpt>
      <trkpt lat="46.60563" lon="5.41147">
        <ele>216.6</ele>
        <time>2022-03-05T13:02:26Z</time>
      </trkpt>
      <trkpt lat="46.60579" lon="5.4115">
        <ele>216</ele>
        <time>2022-03-05T13:02:28Z</time>
      </trkpt>
      <trkpt lat="46.60602" lon="5.41157">
        <ele>215.4</ele>
        <time>2022-03-05T13:02:31Z</time>
      </trkpt>
      <trkpt lat="46.60626" lon="5.41165">
        <ele>214.4</ele>
        <time>2022-03-05T13:02:34Z</time>
      </trkpt>
      <trkpt lat="46.60634" lon="5.41168">
        <ele>214.4</ele>
        <time>2022-03-05T13:02:35Z</time>
      </trkpt>
      <trkpt lat="46.60675" lon="5.41183">
        <ele>213.4</ele>
        <time>2022-03-05T13:02:40Z</time>
      </trkpt>
      <trkpt lat="46.60683" lon="5.41187">
        <ele>213.6</ele>
        <time>2022-03-05T13:02:41Z</time>
      </trkpt>
      <trkpt lat="46.60696" lon="5.41198">
        <ele>213.6</ele>
        <time>2022-03-05T13:02:43Z</time>
      </trkpt>
      <trkpt lat="46.60709" lon="5.41212">
        <ele>213.4</ele>
        <time>2022-03-05T13:02:45Z</time>
      </trkpt>
      <trkpt lat="46.60747" lon="5.4126">
        <ele>213.4</ele>
        <time>2022-03-05T13:02:52Z</time>
      </trkpt>
      <trkpt lat="46.60793" lon="5.41309">
        <ele>213.6</ele>
        <time>2022-03-05T13:03:00Z</time>
      </trkpt>
      <trkpt lat="46.60821" lon="5.41333">
        <ele>213</ele>
        <time>2022-03-05T13:03:04Z</time>
      </trkpt>
      <trkpt lat="46.60828" lon="5.41336">
        <ele>212.4</ele>
        <time>2022-03-05T13:03:05Z</time>
      </trkpt>
      <trkpt lat="46.60844" lon="5.41339">
        <ele>211</ele>
        <time>2022-03-05T13:03:08Z</time>
      </trkpt>
      <trkpt lat="46.60853" lon="5.41335">
        <ele>210.6</ele>
        <time>2022-03-05T13:03:10Z</time>
      </trkpt>
      <trkpt lat="46.60857" lon="5.41331">
        <ele>210.6</ele>
        <time>2022-03-05T13:03:11Z</time>
      </trkpt>
      <trkpt lat="46.60865" lon="5.41322">
        <ele>210.4</ele>
        <time>2022-03-05T13:03:13Z</time>
      </trkpt>
      <trkpt lat="46.60873" lon="5.41311">
        <ele>209.8</ele>
        <time>2022-03-05T13:03:15Z</time>
      </trkpt>
      <trkpt lat="46.60882" lon="5.41299">
        <ele>209.4</ele>
        <time>2022-03-05T13:03:17Z</time>
      </trkpt>
      <trkpt lat="46.60891" lon="5.41286">
        <ele>208.8</ele>
        <time>2022-03-05T13:03:19Z</time>
      </trkpt>
      <trkpt lat="46.60917" lon="5.41254">
        <ele>207.6</ele>
        <time>2022-03-05T13:03:24Z</time>
      </trkpt>
      <trkpt lat="46.60956" lon="5.41212">
        <ele>206.6</ele>
        <time>2022-03-05T13:03:31Z</time>
      </trkpt>
      <trkpt lat="46.60961" lon="5.41207">
        <ele>206.4</ele>
        <time>2022-03-05T13:03:32Z</time>
      </trkpt>
      <trkpt lat="46.61003" lon="5.4117">
        <ele>205.2</ele>
        <time>2022-03-05T13:03:39Z</time>
      </trkpt>
      <trkpt lat="46.61021" lon="5.41158">
        <ele>205</ele>
        <time>2022-03-05T13:03:42Z</time>
      </trkpt>
      <trkpt lat="46.6104" lon="5.41153">
        <ele>205.4</ele>
        <time>2022-03-05T13:03:45Z</time>
      </trkpt>
      <trkpt lat="46.61045" lon="5.41154">
        <ele>205.6</ele>
        <time>2022-03-05T13:03:46Z</time>
      </trkpt>
      <trkpt lat="46.61049" lon="5.41158">
        <ele>205.6</ele>
        <time>2022-03-05T13:03:47Z</time>
      </trkpt>
      <trkpt lat="46.61055" lon="5.41174">
        <ele>206</ele>
        <time>2022-03-05T13:03:49Z</time>
      </trkpt>
      <trkpt lat="46.61059" lon="5.41192">
        <ele>206.4</ele>
        <time>2022-03-05T13:03:51Z</time>
      </trkpt>
      <trkpt lat="46.61069" lon="5.41227">
        <ele>206.6</ele>
        <time>2022-03-05T13:03:55Z</time>
      </trkpt>
      <trkpt lat="46.61075" lon="5.41244">
        <ele>206.6</ele>
        <time>2022-03-05T13:03:57Z</time>
      </trkpt>
      <trkpt lat="46.61079" lon="5.41252">
        <ele>206.8</ele>
        <time>2022-03-05T13:03:58Z</time>
      </trkpt>
      <trkpt lat="46.61095" lon="5.41282">
        <ele>206.8</ele>
        <time>2022-03-05T13:04:02Z</time>
      </trkpt>
      <trkpt lat="46.61107" lon="5.41308">
        <ele>206.8</ele>
        <time>2022-03-05T13:04:05Z</time>
      </trkpt>
      <trkpt lat="46.61112" lon="5.41323">
        <ele>206.6</ele>
        <time>2022-03-05T13:04:07Z</time>
      </trkpt>
      <trkpt lat="46.61117" lon="5.41369">
        <ele>206.6</ele>
        <time>2022-03-05T13:04:12Z</time>
      </trkpt>
      <trkpt lat="46.61128" lon="5.41445">
        <ele>207</ele>
        <time>2022-03-05T13:04:20Z</time>
      </trkpt>
      <trkpt lat="46.6113" lon="5.41454">
        <ele>207</ele>
        <time>2022-03-05T13:04:21Z</time>
      </trkpt>
      <trkpt lat="46.61145" lon="5.41497">
        <ele>207</ele>
        <time>2022-03-05T13:04:26Z</time>
      </trkpt>
      <trkpt lat="46.6118" lon="5.41556">
        <ele>207</ele>
        <time>2022-03-05T13:04:34Z</time>
      </trkpt>
      <trkpt lat="46.6121" lon="5.41608">
        <ele>207</ele>
        <time>2022-03-05T13:04:41Z</time>
      </trkpt>
      <trkpt lat="46.61241" lon="5.41673">
        <ele>207</ele>
        <time>2022-03-05T13:04:49Z</time>
      </trkpt>
      <trkpt lat="46.61249" lon="5.41689">
        <ele>207.2</ele>
        <time>2022-03-05T13:04:51Z</time>
      </trkpt>
      <trkpt lat="46.61286" lon="5.41749">
        <ele>207.2</ele>
        <time>2022-03-05T13:04:59Z</time>
      </trkpt>
      <trkpt lat="46.61291" lon="5.41756">
        <ele>207.2</ele>
        <time>2022-03-05T13:05:00Z</time>
      </trkpt>
      <trkpt lat="46.61332" lon="5.4181">
        <ele>207.6</ele>
        <time>2022-03-05T13:05:08Z</time>
      </trkpt>
      <trkpt lat="46.61337" lon="5.41817">
        <ele>207.6</ele>
        <time>2022-03-05T13:05:09Z</time>
      </trkpt>
      <trkpt lat="46.61352" lon="5.41838">
        <ele>207.8</ele>
        <time>2022-03-05T13:05:12Z</time>
      </trkpt>
      <trkpt lat="46.61395" lon="5.41886">
        <ele>208</ele>
        <time>2022-03-05T13:05:20Z</time>
      </trkpt>
      <trkpt lat="46.6142" lon="5.41933">
        <ele>208</ele>
        <time>2022-03-05T13:05:26Z</time>
      </trkpt>
      <trkpt lat="46.61449" lon="5.41999">
        <ele>208.2</ele>
        <time>2022-03-05T13:05:34Z</time>
      </trkpt>
      <trkpt lat="46.6146" lon="5.42024">
        <ele>208.6</ele>
        <time>2022-03-05T13:05:37Z</time>
      </trkpt>
      <trkpt lat="46.61483" lon="5.4206">
        <ele>208.6</ele>
        <time>2022-03-05T13:05:42Z</time>
      </trkpt>
      <trkpt lat="46.61509" lon="5.42103">
        <ele>208.6</ele>
        <time>2022-03-05T13:05:48Z</time>
      </trkpt>
      <trkpt lat="46.61532" lon="5.4217">
        <ele>208.6</ele>
        <time>2022-03-05T13:05:56Z</time>
      </trkpt>
      <trkpt lat="46.61553" lon="5.42248">
        <ele>208.6</ele>
        <time>2022-03-05T13:06:05Z</time>
      </trkpt>
      <trkpt lat="46.61561" lon="5.42293">
        <ele>209</ele>
        <time>2022-03-05T13:06:10Z</time>
      </trkpt>
      <trkpt lat="46.61567" lon="5.42337">
        <ele>209.2</ele>
        <time>2022-03-05T13:06:15Z</time>
      </trkpt>
      <trkpt lat="46.61577" lon="5.42417">
        <ele>209</ele>
        <time>2022-03-05T13:06:24Z</time>
      </trkpt>
      <trkpt lat="46.61593" lon="5.42465">
        <ele>209.2</ele>
        <time>2022-03-05T13:06:30Z</time>
      </trkpt>
      <trkpt lat="46.61609" lon="5.42504">
        <ele>209.8</ele>
        <time>2022-03-05T13:06:36Z</time>
      </trkpt>
      <trkpt lat="46.61616" lon="5.42514">
        <ele>210.2</ele>
        <time>2022-03-05T13:06:38Z</time>
      </trkpt>
      <trkpt lat="46.61621" lon="5.42518">
        <ele>210.2</ele>
        <time>2022-03-05T13:06:39Z</time>
      </trkpt>
      <trkpt lat="46.61626" lon="5.42521">
        <ele>210.4</ele>
        <time>2022-03-05T13:06:40Z</time>
      </trkpt>
      <trkpt lat="46.6165" lon="5.42538">
        <ele>211.2</ele>
        <time>2022-03-05T13:06:45Z</time>
      </trkpt>
      <trkpt lat="46.61663" lon="5.42548">
        <ele>211.6</ele>
        <time>2022-03-05T13:06:48Z</time>
      </trkpt>
      <trkpt lat="46.61679" lon="5.42561">
        <ele>212.4</ele>
        <time>2022-03-05T13:06:52Z</time>
      </trkpt>
      <trkpt lat="46.61698" lon="5.4258">
        <ele>213.2</ele>
        <time>2022-03-05T13:06:57Z</time>
      </trkpt>
      <trkpt lat="46.61706" lon="5.42589">
        <ele>213.6</ele>
        <time>2022-03-05T13:06:59Z</time>
      </trkpt>
      <trkpt lat="46.61717" lon="5.42601">
        <ele>214.4</ele>
        <time>2022-03-05T13:07:02Z</time>
      </trkpt>
      <trkpt lat="46.61724" lon="5.42611">
        <ele>214.8</ele>
        <time>2022-03-05T13:07:04Z</time>
      </trkpt>
      <trkpt lat="46.61731" lon="5.42628">
        <ele>215.6</ele>
        <time>2022-03-05T13:07:07Z</time>
      </trkpt>
      <trkpt lat="46.61734" lon="5.42639">
        <ele>215.8</ele>
        <time>2022-03-05T13:07:09Z</time>
      </trkpt>
      <trkpt lat="46.61737" lon="5.42656">
        <ele>216.2</ele>
        <time>2022-03-05T13:07:12Z</time>
      </trkpt>
      <trkpt lat="46.61743" lon="5.42666">
        <ele>216.4</ele>
        <time>2022-03-05T13:07:14Z</time>
      </trkpt>
      <trkpt lat="46.6175" lon="5.42674">
        <ele>217</ele>
        <time>2022-03-05T13:07:16Z</time>
      </trkpt>
      <trkpt lat="46.61773" lon="5.42696">
        <ele>217.6</ele>
        <time>2022-03-05T13:07:22Z</time>
      </trkpt>
      <trkpt lat="46.61785" lon="5.42709">
        <ele>218.4</ele>
        <time>2022-03-05T13:07:26Z</time>
      </trkpt>
      <trkpt lat="46.61789" lon="5.42712">
        <ele>218.4</ele>
        <time>2022-03-05T13:07:27Z</time>
      </trkpt>
      <trkpt lat="46.61796" lon="5.42717">
        <ele>218.8</ele>
        <time>2022-03-05T13:07:29Z</time>
      </trkpt>
      <trkpt lat="46.61804" lon="5.42722">
        <ele>219.4</ele>
        <time>2022-03-05T13:07:31Z</time>
      </trkpt>
      <trkpt lat="46.61827" lon="5.42735">
        <ele>220.2</ele>
        <time>2022-03-05T13:07:36Z</time>
      </trkpt>
      <trkpt lat="46.61836" lon="5.4274">
        <ele>220.6</ele>
        <time>2022-03-05T13:07:38Z</time>
      </trkpt>
      <trkpt lat="46.61861" lon="5.42752">
        <ele>221.6</ele>
        <time>2022-03-05T13:07:43Z</time>
      </trkpt>
      <trkpt lat="46.61899" lon="5.42784">
        <ele>222.4</ele>
        <time>2022-03-05T13:07:51Z</time>
      </trkpt>
      <trkpt lat="46.61926" lon="5.42821">
        <ele>222.6</ele>
        <time>2022-03-05T13:07:58Z</time>
      </trkpt>
      <trkpt lat="46.61931" lon="5.42828">
        <ele>222.8</ele>
        <time>2022-03-05T13:07:59Z</time>
      </trkpt>
      <trkpt lat="46.61954" lon="5.42866">
        <ele>223.2</ele>
        <time>2022-03-05T13:08:06Z</time>
      </trkpt>
      <trkpt lat="46.61971" lon="5.42893">
        <ele>223.8</ele>
        <time>2022-03-05T13:08:11Z</time>
      </trkpt>
      <trkpt lat="46.61987" lon="5.42914">
        <ele>224.4</ele>
        <time>2022-03-05T13:08:15Z</time>
      </trkpt>
      <trkpt lat="46.62026" lon="5.42954">
        <ele>224.6</ele>
        <time>2022-03-05T13:08:23Z</time>
      </trkpt>
      <trkpt lat="46.62057" lon="5.42981">
        <ele>224</ele>
        <time>2022-03-05T13:08:28Z</time>
      </trkpt>
      <trkpt lat="46.62096" lon="5.43011">
        <ele>222.6</ele>
        <time>2022-03-05T13:08:34Z</time>
      </trkpt>
      <trkpt lat="46.62103" lon="5.43017">
        <ele>222.6</ele>
        <time>2022-03-05T13:08:35Z</time>
      </trkpt>
      <trkpt lat="46.62126" lon="5.43039">
        <ele>222</ele>
        <time>2022-03-05T13:08:39Z</time>
      </trkpt>
      <trkpt lat="46.62136" lon="5.43052">
        <ele>221.6</ele>
        <time>2022-03-05T13:08:41Z</time>
      </trkpt>
      <trkpt lat="46.62155" lon="5.43089">
        <ele>221.6</ele>
        <time>2022-03-05T13:08:46Z</time>
      </trkpt>
      <trkpt lat="46.62172" lon="5.4313">
        <ele>222.6</ele>
        <time>2022-03-05T13:08:52Z</time>
      </trkpt>
      <trkpt lat="46.62178" lon="5.43144">
        <ele>223</ele>
        <time>2022-03-05T13:08:54Z</time>
      </trkpt>
      <trkpt lat="46.62191" lon="5.43178">
        <ele>224</ele>
        <time>2022-03-05T13:08:59Z</time>
      </trkpt>
      <trkpt lat="46.62198" lon="5.43199">
        <ele>224.2</ele>
        <time>2022-03-05T13:09:02Z</time>
      </trkpt>
      <trkpt lat="46.6221" lon="5.43228">
        <ele>225</ele>
        <time>2022-03-05T13:09:06Z</time>
      </trkpt>
      <trkpt lat="46.62214" lon="5.43236">
        <ele>225.2</ele>
        <time>2022-03-05T13:09:07Z</time>
      </trkpt>
      <trkpt lat="46.62222" lon="5.43248">
        <ele>225.4</ele>
        <time>2022-03-05T13:09:09Z</time>
      </trkpt>
      <trkpt lat="46.6224" lon="5.43275">
        <ele>225.6</ele>
        <time>2022-03-05T13:09:13Z</time>
      </trkpt>
      <trkpt lat="46.62251" lon="5.43287">
        <ele>225.6</ele>
        <time>2022-03-05T13:09:15Z</time>
      </trkpt>
      <trkpt lat="46.62294" lon="5.43332">
        <ele>224.6</ele>
        <time>2022-03-05T13:09:22Z</time>
      </trkpt>
      <trkpt lat="46.6232" lon="5.4336">
        <ele>223.8</ele>
        <time>2022-03-05T13:09:26Z</time>
      </trkpt>
      <trkpt lat="46.62347" lon="5.43387">
        <ele>223</ele>
        <time>2022-03-05T13:09:30Z</time>
      </trkpt>
      <trkpt lat="46.62354" lon="5.43396">
        <ele>222.8</ele>
        <time>2022-03-05T13:09:31Z</time>
      </trkpt>
      <trkpt lat="46.62403" lon="5.43449">
        <ele>222</ele>
        <time>2022-03-05T13:09:39Z</time>
      </trkpt>
      <trkpt lat="46.62409" lon="5.43456">
        <ele>221.6</ele>
        <time>2022-03-05T13:09:40Z</time>
      </trkpt>
      <trkpt lat="46.62458" lon="5.43509">
        <ele>221.4</ele>
        <time>2022-03-05T13:09:48Z</time>
      </trkpt>
      <trkpt lat="46.62481" lon="5.43535">
        <ele>221.2</ele>
        <time>2022-03-05T13:09:52Z</time>
      </trkpt>
      <trkpt lat="46.62519" lon="5.43577">
        <ele>220.8</ele>
        <time>2022-03-05T13:09:58Z</time>
      </trkpt>
      <trkpt lat="46.62549" lon="5.43609">
        <ele>220</ele>
        <time>2022-03-05T13:10:03Z</time>
      </trkpt>
      <trkpt lat="46.62569" lon="5.43629">
        <ele>219.6</ele>
        <time>2022-03-05T13:10:06Z</time>
      </trkpt>
      <trkpt lat="46.62601" lon="5.43666">
        <ele>219.2</ele>
        <time>2022-03-05T13:10:11Z</time>
      </trkpt>
      <trkpt lat="46.62607" lon="5.43675">
        <ele>219</ele>
        <time>2022-03-05T13:10:12Z</time>
      </trkpt>
      <trkpt lat="46.62617" lon="5.43695">
        <ele>218.6</ele>
        <time>2022-03-05T13:10:14Z</time>
      </trkpt>
      <trkpt lat="46.62621" lon="5.43706">
        <ele>218.4</ele>
        <time>2022-03-05T13:10:15Z</time>
      </trkpt>
      <trkpt lat="46.62623" lon="5.43717">
        <ele>218.4</ele>
        <time>2022-03-05T13:10:16Z</time>
      </trkpt>
      <trkpt lat="46.62627" lon="5.43753">
        <ele>217.8</ele>
        <time>2022-03-05T13:10:19Z</time>
      </trkpt>
      <trkpt lat="46.62628" lon="5.43776">
        <ele>217.4</ele>
        <time>2022-03-05T13:10:21Z</time>
      </trkpt>
      <trkpt lat="46.62631" lon="5.43855">
        <ele>216.6</ele>
        <time>2022-03-05T13:10:28Z</time>
      </trkpt>
      <trkpt lat="46.62632" lon="5.43876">
        <ele>216.6</ele>
        <time>2022-03-05T13:10:30Z</time>
      </trkpt>
      <trkpt lat="46.62636" lon="5.43895">
        <ele>216.8</ele>
        <time>2022-03-05T13:10:32Z</time>
      </trkpt>
      <trkpt lat="46.6264" lon="5.43903">
        <ele>217</ele>
        <time>2022-03-05T13:10:33Z</time>
      </trkpt>
      <trkpt lat="46.62644" lon="5.4391">
        <ele>217</ele>
        <time>2022-03-05T13:10:34Z</time>
      </trkpt>
      <trkpt lat="46.62659" lon="5.43928">
        <ele>217.4</ele>
        <time>2022-03-05T13:10:37Z</time>
      </trkpt>
      <trkpt lat="46.62692" lon="5.4397">
        <ele>218.6</ele>
        <time>2022-03-05T13:10:44Z</time>
      </trkpt>
      <trkpt lat="46.62724" lon="5.44026">
        <ele>219.8</ele>
        <time>2022-03-05T13:10:52Z</time>
      </trkpt>
      <trkpt lat="46.62735" lon="5.44058">
        <ele>220.2</ele>
        <time>2022-03-05T13:10:56Z</time>
      </trkpt>
      <trkpt lat="46.62743" lon="5.44083">
        <ele>220.4</ele>
        <time>2022-03-05T13:10:59Z</time>
      </trkpt>
      <trkpt lat="46.62754" lon="5.44113">
        <ele>220.8</ele>
        <time>2022-03-05T13:11:03Z</time>
      </trkpt>
      <trkpt lat="46.62764" lon="5.44136">
        <ele>221.4</ele>
        <time>2022-03-05T13:11:06Z</time>
      </trkpt>
      <trkpt lat="46.62793" lon="5.44178">
        <ele>221.8</ele>
        <time>2022-03-05T13:11:12Z</time>
      </trkpt>
      <trkpt lat="46.62819" lon="5.44224">
        <ele>221.2</ele>
        <time>2022-03-05T13:11:17Z</time>
      </trkpt>
      <trkpt lat="46.62835" lon="5.44269">
        <ele>219</ele>
        <time>2022-03-05T13:11:21Z</time>
      </trkpt>
      <trkpt lat="46.62841" lon="5.44294">
        <ele>218</ele>
        <time>2022-03-05T13:11:23Z</time>
      </trkpt>
      <trkpt lat="46.62844" lon="5.44342">
        <ele>217</ele>
        <time>2022-03-05T13:11:27Z</time>
      </trkpt>
      <trkpt lat="46.62844" lon="5.44354">
        <ele>216.8</ele>
        <time>2022-03-05T13:11:28Z</time>
      </trkpt>
      <trkpt lat="46.62845" lon="5.44422">
        <ele>217</ele>
        <time>2022-03-05T13:11:34Z</time>
      </trkpt>
      <trkpt lat="46.62846" lon="5.44477">
        <ele>217.2</ele>
        <time>2022-03-05T13:11:39Z</time>
      </trkpt>
      <trkpt lat="46.62842" lon="5.44497">
        <ele>217</ele>
        <time>2022-03-05T13:11:41Z</time>
      </trkpt>
      <trkpt lat="46.62835" lon="5.44516">
        <ele>217</ele>
        <time>2022-03-05T13:11:43Z</time>
      </trkpt>
      <trkpt lat="46.62831" lon="5.44524">
        <ele>217</ele>
        <time>2022-03-05T13:11:44Z</time>
      </trkpt>
      <trkpt lat="46.62827" lon="5.44532">
        <ele>217</ele>
        <time>2022-03-05T13:11:45Z</time>
      </trkpt>
      <trkpt lat="46.62823" lon="5.44551">
        <ele>217</ele>
        <time>2022-03-05T13:11:47Z</time>
      </trkpt>
      <trkpt lat="46.62826" lon="5.44571">
        <ele>216.6</ele>
        <time>2022-03-05T13:11:49Z</time>
      </trkpt>
      <trkpt lat="46.62831" lon="5.44579">
        <ele>216.4</ele>
        <time>2022-03-05T13:11:50Z</time>
      </trkpt>
      <trkpt lat="46.62836" lon="5.44585">
        <ele>216</ele>
        <time>2022-03-05T13:11:51Z</time>
      </trkpt>
      <trkpt lat="46.62843" lon="5.4459">
        <ele>216</ele>
        <time>2022-03-05T13:11:52Z</time>
      </trkpt>
      <trkpt lat="46.62849" lon="5.44593">
        <ele>215.8</ele>
        <time>2022-03-05T13:11:53Z</time>
      </trkpt>
      <trkpt lat="46.62878" lon="5.44596">
        <ele>215.2</ele>
        <time>2022-03-05T13:11:57Z</time>
      </trkpt>
      <trkpt lat="46.6289" lon="5.44604">
        <ele>215</ele>
        <time>2022-03-05T13:11:59Z</time>
      </trkpt>
      <trkpt lat="46.62895" lon="5.4461">
        <ele>215</ele>
        <time>2022-03-05T13:12:00Z</time>
      </trkpt>
      <trkpt lat="46.629" lon="5.44618">
        <ele>215</ele>
        <time>2022-03-05T13:12:01Z</time>
      </trkpt>
      <trkpt lat="46.6292" lon="5.44645">
        <ele>214.8</ele>
        <time>2022-03-05T13:12:05Z</time>
      </trkpt>
      <trkpt lat="46.62966" lon="5.4469">
        <ele>214.8</ele>
        <time>2022-03-05T13:12:13Z</time>
      </trkpt>
      <trkpt lat="46.62972" lon="5.44695">
        <ele>214.8</ele>
        <time>2022-03-05T13:12:14Z</time>
      </trkpt>
      <trkpt lat="46.62991" lon="5.44708">
        <ele>214.6</ele>
        <time>2022-03-05T13:12:17Z</time>
      </trkpt>
      <trkpt lat="46.63005" lon="5.44712">
        <ele>214.4</ele>
        <time>2022-03-05T13:12:19Z</time>
      </trkpt>
      <trkpt lat="46.63041" lon="5.44713">
        <ele>214.6</ele>
        <time>2022-03-05T13:12:24Z</time>
      </trkpt>
      <trkpt lat="46.63048" lon="5.44715">
        <ele>214.4</ele>
        <time>2022-03-05T13:12:25Z</time>
      </trkpt>
      <trkpt lat="46.63089" lon="5.44733">
        <ele>214.4</ele>
        <time>2022-03-05T13:12:31Z</time>
      </trkpt>
      <trkpt lat="46.63127" lon="5.44756">
        <ele>214.4</ele>
        <time>2022-03-05T13:12:37Z</time>
      </trkpt>
      <trkpt lat="46.63138" lon="5.44766">
        <ele>214.6</ele>
        <time>2022-03-05T13:12:39Z</time>
      </trkpt>
      <trkpt lat="46.63143" lon="5.44773">
        <ele>214.6</ele>
        <time>2022-03-05T13:12:40Z</time>
      </trkpt>
      <trkpt lat="46.63156" lon="5.44797">
        <ele>214.6</ele>
        <time>2022-03-05T13:12:43Z</time>
      </trkpt>
      <trkpt lat="46.63163" lon="5.44813">
        <ele>214.8</ele>
        <time>2022-03-05T13:12:45Z</time>
      </trkpt>
      <trkpt lat="46.63179" lon="5.44833">
        <ele>214.8</ele>
        <time>2022-03-05T13:12:48Z</time>
      </trkpt>
      <trkpt lat="46.6321" lon="5.44855">
        <ele>215</ele>
        <time>2022-03-05T13:12:53Z</time>
      </trkpt>
      <trkpt lat="46.63242" lon="5.44887">
        <ele>215</ele>
        <time>2022-03-05T13:12:59Z</time>
      </trkpt>
      <trkpt lat="46.63277" lon="5.44927">
        <ele>215.8</ele>
        <time>2022-03-05T13:13:06Z</time>
      </trkpt>
      <trkpt lat="46.63288" lon="5.44936">
        <ele>216.2</ele>
        <time>2022-03-05T13:13:08Z</time>
      </trkpt>
      <trkpt lat="46.63308" lon="5.44948">
        <ele>216.8</ele>
        <time>2022-03-05T13:13:12Z</time>
      </trkpt>
      <trkpt lat="46.63321" lon="5.44956">
        <ele>217.4</ele>
        <time>2022-03-05T13:13:15Z</time>
      </trkpt>
      <trkpt lat="46.6334" lon="5.44968">
        <ele>218.8</ele>
        <time>2022-03-05T13:13:19Z</time>
      </trkpt>
      <trkpt lat="46.63361" lon="5.44978">
        <ele>219.8</ele>
        <time>2022-03-05T13:13:23Z</time>
      </trkpt>
      <trkpt lat="46.63375" lon="5.4498">
        <ele>220.6</ele>
        <time>2022-03-05T13:13:26Z</time>
      </trkpt>
      <trkpt lat="46.63387" lon="5.44979">
        <ele>220.8</ele>
        <time>2022-03-05T13:13:28Z</time>
      </trkpt>
      <trkpt lat="46.6341" lon="5.44977">
        <ele>221.8</ele>
        <time>2022-03-05T13:13:33Z</time>
      </trkpt>
      <trkpt lat="46.63416" lon="5.44978">
        <ele>222</ele>
        <time>2022-03-05T13:13:34Z</time>
      </trkpt>
      <trkpt lat="46.63441" lon="5.44985">
        <ele>223</ele>
        <time>2022-03-05T13:13:39Z</time>
      </trkpt>
      <trkpt lat="46.63465" lon="5.44998">
        <ele>224.2</ele>
        <time>2022-03-05T13:13:44Z</time>
      </trkpt>
      <trkpt lat="46.63479" lon="5.45007">
        <ele>225.2</ele>
        <time>2022-03-05T13:13:47Z</time>
      </trkpt>
      <trkpt lat="46.63484" lon="5.45011">
        <ele>225.4</ele>
        <time>2022-03-05T13:13:48Z</time>
      </trkpt>
      <trkpt lat="46.63501" lon="5.45027">
        <ele>226.4</ele>
        <time>2022-03-05T13:13:52Z</time>
      </trkpt>
      <trkpt lat="46.63509" lon="5.45035">
        <ele>226.8</ele>
        <time>2022-03-05T13:13:54Z</time>
      </trkpt>
      <trkpt lat="46.63525" lon="5.45056">
        <ele>227.4</ele>
        <time>2022-03-05T13:13:58Z</time>
      </trkpt>
      <trkpt lat="46.6355" lon="5.4509">
        <ele>228</ele>
        <time>2022-03-05T13:14:04Z</time>
      </trkpt>
      <trkpt lat="46.63578" lon="5.45131">
        <ele>228</ele>
        <time>2022-03-05T13:14:10Z</time>
      </trkpt>
      <trkpt lat="46.63601" lon="5.45175">
        <ele>226.8</ele>
        <time>2022-03-05T13:14:15Z</time>
      </trkpt>
      <trkpt lat="46.63608" lon="5.45196">
        <ele>226.4</ele>
        <time>2022-03-05T13:14:17Z</time>
      </trkpt>
      <trkpt lat="46.63623" lon="5.4524">
        <ele>225.2</ele>
        <time>2022-03-05T13:14:21Z</time>
      </trkpt>
      <trkpt lat="46.63628" lon="5.45251">
        <ele>224.8</ele>
        <time>2022-03-05T13:14:22Z</time>
      </trkpt>
      <trkpt lat="46.63632" lon="5.45262">
        <ele>224</ele>
        <time>2022-03-05T13:14:23Z</time>
      </trkpt>
      <trkpt lat="46.63643" lon="5.45284">
        <ele>222.8</ele>
        <time>2022-03-05T13:14:25Z</time>
      </trkpt>
      <trkpt lat="46.6365" lon="5.45294">
        <ele>222.4</ele>
        <time>2022-03-05T13:14:26Z</time>
      </trkpt>
      <trkpt lat="46.63664" lon="5.45313">
        <ele>221.4</ele>
        <time>2022-03-05T13:14:28Z</time>
      </trkpt>
      <trkpt lat="46.6367" lon="5.45323">
        <ele>221</ele>
        <time>2022-03-05T13:14:29Z</time>
      </trkpt>
      <trkpt lat="46.63675" lon="5.45335">
        <ele>219.8</ele>
        <time>2022-03-05T13:14:30Z</time>
      </trkpt>
      <trkpt lat="46.63684" lon="5.4536">
        <ele>219</ele>
        <time>2022-03-05T13:14:32Z</time>
      </trkpt>
      <trkpt lat="46.63692" lon="5.45385">
        <ele>218.6</ele>
        <time>2022-03-05T13:14:34Z</time>
      </trkpt>
      <trkpt lat="46.63701" lon="5.45424">
        <ele>217.8</ele>
        <time>2022-03-05T13:14:37Z</time>
      </trkpt>
      <trkpt lat="46.63712" lon="5.45472">
        <ele>216.4</ele>
        <time>2022-03-05T13:14:41Z</time>
      </trkpt>
      <trkpt lat="46.63725" lon="5.45529">
        <ele>215.2</ele>
        <time>2022-03-05T13:14:46Z</time>
      </trkpt>
      <trkpt lat="46.63743" lon="5.45602">
        <ele>215.4</ele>
        <time>2022-03-05T13:14:53Z</time>
      </trkpt>
      <trkpt lat="46.63763" lon="5.45647">
        <ele>216.2</ele>
        <time>2022-03-05T13:14:58Z</time>
      </trkpt>
      <trkpt lat="46.63768" lon="5.45655">
        <ele>216.2</ele>
        <time>2022-03-05T13:14:59Z</time>
      </trkpt>
      <trkpt lat="46.638" lon="5.45713">
        <ele>216.2</ele>
        <time>2022-03-05T13:15:06Z</time>
      </trkpt>
      <trkpt lat="46.63836" lon="5.45781">
        <ele>215.8</ele>
        <time>2022-03-05T13:15:14Z</time>
      </trkpt>
      <trkpt lat="46.63849" lon="5.45806">
        <ele>215.8</ele>
        <time>2022-03-05T13:15:17Z</time>
      </trkpt>
      <trkpt lat="46.63856" lon="5.45824">
        <ele>216</ele>
        <time>2022-03-05T13:15:19Z</time>
      </trkpt>
      <trkpt lat="46.63859" lon="5.45833">
        <ele>216</ele>
        <time>2022-03-05T13:15:20Z</time>
      </trkpt>
      <trkpt lat="46.63861" lon="5.45843">
        <ele>216</ele>
        <time>2022-03-05T13:15:21Z</time>
      </trkpt>
      <trkpt lat="46.63862" lon="5.45863">
        <ele>216</ele>
        <time>2022-03-05T13:15:23Z</time>
      </trkpt>
      <trkpt lat="46.63862" lon="5.45874">
        <ele>216.2</ele>
        <time>2022-03-05T13:15:24Z</time>
      </trkpt>
      <trkpt lat="46.63866" lon="5.45934">
        <ele>216.2</ele>
        <time>2022-03-05T13:15:30Z</time>
      </trkpt>
      <trkpt lat="46.63878" lon="5.46011">
        <ele>217</ele>
        <time>2022-03-05T13:15:38Z</time>
      </trkpt>
      <trkpt lat="46.63882" lon="5.4603">
        <ele>217.4</ele>
        <time>2022-03-05T13:15:40Z</time>
      </trkpt>
      <trkpt lat="46.63884" lon="5.4604">
        <ele>217.4</ele>
        <time>2022-03-05T13:15:41Z</time>
      </trkpt>
      <trkpt lat="46.63899" lon="5.46103">
        <ele>217.8</ele>
        <time>2022-03-05T13:15:48Z</time>
      </trkpt>
      <trkpt lat="46.63908" lon="5.46156">
        <ele>218.4</ele>
        <time>2022-03-05T13:15:54Z</time>
      </trkpt>
      <trkpt lat="46.63918" lon="5.46224">
        <ele>219.6</ele>
        <time>2022-03-05T13:16:02Z</time>
      </trkpt>
      <trkpt lat="46.63923" lon="5.46285">
        <ele>220.6</ele>
        <time>2022-03-05T13:16:09Z</time>
      </trkpt>
      <trkpt lat="46.63928" lon="5.46326">
        <ele>221.4</ele>
        <time>2022-03-05T13:16:14Z</time>
      </trkpt>
      <trkpt lat="46.63931" lon="5.46334">
        <ele>221.6</ele>
        <time>2022-03-05T13:16:15Z</time>
      </trkpt>
      <trkpt lat="46.63934" lon="5.46341">
        <ele>221.8</ele>
        <time>2022-03-05T13:16:16Z</time>
      </trkpt>
      <trkpt lat="46.63946" lon="5.46361">
        <ele>221.8</ele>
        <time>2022-03-05T13:16:19Z</time>
      </trkpt>
      <trkpt lat="46.63951" lon="5.46366">
        <ele>222</ele>
        <time>2022-03-05T13:16:20Z</time>
      </trkpt>
      <trkpt lat="46.63989" lon="5.46411">
        <ele>222.2</ele>
        <time>2022-03-05T13:16:28Z</time>
      </trkpt>
      <trkpt lat="46.6402" lon="5.46428">
        <ele>222.2</ele>
        <time>2022-03-05T13:16:33Z</time>
      </trkpt>
      <trkpt lat="46.64077" lon="5.46454">
        <ele>221.4</ele>
        <time>2022-03-05T13:16:42Z</time>
      </trkpt>
      <trkpt lat="46.64096" lon="5.46462">
        <ele>221.4</ele>
        <time>2022-03-05T13:16:45Z</time>
      </trkpt>
      <trkpt lat="46.64128" lon="5.46475">
        <ele>221.4</ele>
        <time>2022-03-05T13:16:50Z</time>
      </trkpt>
      <trkpt lat="46.64139" lon="5.46484">
        <ele>221.4</ele>
        <time>2022-03-05T13:16:52Z</time>
      </trkpt>
      <trkpt lat="46.64147" lon="5.46497">
        <ele>221.4</ele>
        <time>2022-03-05T13:16:54Z</time>
      </trkpt>
      <trkpt lat="46.64154" lon="5.46513">
        <ele>221.4</ele>
        <time>2022-03-05T13:16:56Z</time>
      </trkpt>
      <trkpt lat="46.64171" lon="5.46552">
        <ele>221.4</ele>
        <time>2022-03-05T13:17:01Z</time>
      </trkpt>
      <trkpt lat="46.64175" lon="5.4656">
        <ele>221.2</ele>
        <time>2022-03-05T13:17:02Z</time>
      </trkpt>
      <trkpt lat="46.64189" lon="5.4658">
        <ele>221.2</ele>
        <time>2022-03-05T13:17:05Z</time>
      </trkpt>
      <trkpt lat="46.64199" lon="5.4659">
        <ele>221.6</ele>
        <time>2022-03-05T13:17:07Z</time>
      </trkpt>
      <trkpt lat="46.64211" lon="5.46595">
        <ele>221.6</ele>
        <time>2022-03-05T13:17:09Z</time>
      </trkpt>
      <trkpt lat="46.64224" lon="5.46597">
        <ele>221.8</ele>
        <time>2022-03-05T13:17:11Z</time>
      </trkpt>
      <trkpt lat="46.64274" lon="5.46604">
        <ele>222</ele>
        <time>2022-03-05T13:17:19Z</time>
      </trkpt>
      <trkpt lat="46.64307" lon="5.46614">
        <ele>222.4</ele>
        <time>2022-03-05T13:17:25Z</time>
      </trkpt>
      <trkpt lat="46.64328" lon="5.4662">
        <ele>223.2</ele>
        <time>2022-03-05T13:17:29Z</time>
      </trkpt>
      <trkpt lat="46.64334" lon="5.46622">
        <ele>223.2</ele>
        <time>2022-03-05T13:17:30Z</time>
      </trkpt>
      <trkpt lat="46.64345" lon="5.46624">
        <ele>223.4</ele>
        <time>2022-03-05T13:17:32Z</time>
      </trkpt>
      <trkpt lat="46.64351" lon="5.46624">
        <ele>223.6</ele>
        <time>2022-03-05T13:17:33Z</time>
      </trkpt>
      <trkpt lat="46.64368" lon="5.46623">
        <ele>224.2</ele>
        <time>2022-03-05T13:17:36Z</time>
      </trkpt>
      <trkpt lat="46.64374" lon="5.46622">
        <ele>224.2</ele>
        <time>2022-03-05T13:17:37Z</time>
      </trkpt>
      <trkpt lat="46.6438" lon="5.46621">
        <ele>224.2</ele>
        <time>2022-03-05T13:17:38Z</time>
      </trkpt>
      <trkpt lat="46.64392" lon="5.46621">
        <ele>224.2</ele>
        <time>2022-03-05T13:17:40Z</time>
      </trkpt>
      <trkpt lat="46.64398" lon="5.4662">
        <ele>224.2</ele>
        <time>2022-03-05T13:17:41Z</time>
      </trkpt>
      <trkpt lat="46.64413" lon="5.46618">
        <ele>224</ele>
        <time>2022-03-05T13:17:44Z</time>
      </trkpt>
      <trkpt lat="46.64422" lon="5.46619">
        <ele>223.8</ele>
        <time>2022-03-05T13:17:46Z</time>
      </trkpt>
      <trkpt lat="46.64429" lon="5.46626">
        <ele>223.6</ele>
        <time>2022-03-05T13:17:49Z</time>
      </trkpt>
      <trkpt lat="46.6443" lon="5.46634">
        <ele>223.6</ele>
        <time>2022-03-05T13:17:51Z</time>
      </trkpt>
      <trkpt lat="46.6443" lon="5.46639">
        <ele>223.6</ele>
        <time>2022-03-05T13:17:52Z</time>
      </trkpt>
      <trkpt lat="46.64428" lon="5.46683">
        <ele>224.4</ele>
        <time>2022-03-05T13:18:00Z</time>
      </trkpt>
      <trkpt lat="46.64427" lon="5.46713">
        <ele>225.2</ele>
        <time>2022-03-05T13:18:05Z</time>
      </trkpt>
      <trkpt lat="46.64426" lon="5.4672">
        <ele>225.6</ele>
        <time>2022-03-05T13:18:06Z</time>
      </trkpt>
      <trkpt lat="46.64425" lon="5.46732">
        <ele>226.2</ele>
        <time>2022-03-05T13:18:08Z</time>
      </trkpt>
      <trkpt lat="46.64425" lon="5.46764">
        <ele>227</ele>
        <time>2022-03-05T13:18:13Z</time>
      </trkpt>
      <trkpt lat="46.64425" lon="5.4677">
        <ele>227.2</ele>
        <time>2022-03-05T13:18:14Z</time>
      </trkpt>
      <trkpt lat="46.64426" lon="5.46796">
        <ele>228.2</ele>
        <time>2022-03-05T13:18:18Z</time>
      </trkpt>
      <trkpt lat="46.64426" lon="5.46814">
        <ele>228.8</ele>
        <time>2022-03-05T13:18:21Z</time>
      </trkpt>
      <trkpt lat="46.64425" lon="5.46828">
        <ele>229.2</ele>
        <time>2022-03-05T13:18:23Z</time>
      </trkpt>
      <trkpt lat="46.64424" lon="5.46852">
        <ele>230.4</ele>
        <time>2022-03-05T13:18:27Z</time>
      </trkpt>
      <trkpt lat="46.64423" lon="5.46865">
        <ele>231</ele>
        <time>2022-03-05T13:18:29Z</time>
      </trkpt>
      <trkpt lat="46.64422" lon="5.46876">
        <ele>231.2</ele>
        <time>2022-03-05T13:18:31Z</time>
      </trkpt>
      <trkpt lat="46.64418" lon="5.46889">
        <ele>231.8</ele>
        <time>2022-03-05T13:18:33Z</time>
      </trkpt>
      <trkpt lat="46.64413" lon="5.46899">
        <ele>232.4</ele>
        <time>2022-03-05T13:18:35Z</time>
      </trkpt>
      <trkpt lat="46.6441" lon="5.46904">
        <ele>232.4</ele>
        <time>2022-03-05T13:18:36Z</time>
      </trkpt>
      <trkpt lat="46.64405" lon="5.46912">
        <ele>232.8</ele>
        <time>2022-03-05T13:18:38Z</time>
      </trkpt>
      <trkpt lat="46.64393" lon="5.46929">
        <ele>234</ele>
        <time>2022-03-05T13:18:42Z</time>
      </trkpt>
      <trkpt lat="46.6438" lon="5.46947">
        <ele>235.2</ele>
        <time>2022-03-05T13:18:46Z</time>
      </trkpt>
      <trkpt lat="46.64373" lon="5.46958">
        <ele>235.6</ele>
        <time>2022-03-05T13:18:48Z</time>
      </trkpt>
      <trkpt lat="46.64371" lon="5.46962">
        <ele>235.8</ele>
        <time>2022-03-05T13:18:49Z</time>
      </trkpt>
      <trkpt lat="46.64369" lon="5.46967">
        <ele>236</ele>
        <time>2022-03-05T13:18:50Z</time>
      </trkpt>
      <trkpt lat="46.64366" lon="5.46973">
        <ele>236.2</ele>
        <time>2022-03-05T13:18:51Z</time>
      </trkpt>
      <trkpt lat="46.6436" lon="5.46992">
        <ele>237.2</ele>
        <time>2022-03-05T13:18:54Z</time>
      </trkpt>
      <trkpt lat="46.64359" lon="5.46997">
        <ele>237.4</ele>
        <time>2022-03-05T13:18:55Z</time>
      </trkpt>
      <trkpt lat="46.64354" lon="5.4703">
        <ele>238.2</ele>
        <time>2022-03-05T13:19:00Z</time>
      </trkpt>
      <trkpt lat="46.64353" lon="5.47038">
        <ele>238.4</ele>
        <time>2022-03-05T13:19:01Z</time>
      </trkpt>
      <trkpt lat="46.64353" lon="5.47045">
        <ele>238.6</ele>
        <time>2022-03-05T13:19:02Z</time>
      </trkpt>
      <trkpt lat="46.64352" lon="5.4705">
        <ele>238.6</ele>
        <time>2022-03-05T13:19:03Z</time>
      </trkpt>
      <trkpt lat="46.64349" lon="5.47062">
        <ele>239</ele>
        <time>2022-03-05T13:19:05Z</time>
      </trkpt>
      <trkpt lat="46.64348" lon="5.4707">
        <ele>239</ele>
        <time>2022-03-05T13:19:06Z</time>
      </trkpt>
      <trkpt lat="46.64348" lon="5.47076">
        <ele>239</ele>
        <time>2022-03-05T13:19:07Z</time>
      </trkpt>
      <trkpt lat="46.64352" lon="5.47085">
        <ele>239.4</ele>
        <time>2022-03-05T13:19:09Z</time>
      </trkpt>
      <trkpt lat="46.64359" lon="5.47095">
        <ele>239.6</ele>
        <time>2022-03-05T13:19:11Z</time>
      </trkpt>
      <trkpt lat="46.64367" lon="5.47117">
        <ele>240</ele>
        <time>2022-03-05T13:19:14Z</time>
      </trkpt>
      <trkpt lat="46.64382" lon="5.4717">
        <ele>240.4</ele>
        <time>2022-03-05T13:19:21Z</time>
      </trkpt>
      <trkpt lat="46.64386" lon="5.47184">
        <ele>240.6</ele>
        <time>2022-03-05T13:19:23Z</time>
      </trkpt>
      <trkpt lat="46.64407" lon="5.47249">
        <ele>241.6</ele>
        <time>2022-03-05T13:19:31Z</time>
      </trkpt>
      <trkpt lat="46.64432" lon="5.47321">
        <ele>241.4</ele>
        <time>2022-03-05T13:19:40Z</time>
      </trkpt>
      <trkpt lat="46.64458" lon="5.47396">
        <ele>241</ele>
        <time>2022-03-05T13:19:49Z</time>
      </trkpt>
      <trkpt lat="46.64461" lon="5.47405">
        <ele>241</ele>
        <time>2022-03-05T13:19:50Z</time>
      </trkpt>
      <trkpt lat="46.6448" lon="5.47462">
        <ele>241.2</ele>
        <time>2022-03-05T13:19:57Z</time>
      </trkpt>
      <trkpt lat="46.64489" lon="5.47485">
        <ele>241.6</ele>
        <time>2022-03-05T13:20:00Z</time>
      </trkpt>
      <trkpt lat="46.64502" lon="5.47524">
        <ele>242.6</ele>
        <time>2022-03-05T13:20:05Z</time>
      </trkpt>
      <trkpt lat="46.64525" lon="5.47589">
        <ele>243.8</ele>
        <time>2022-03-05T13:20:14Z</time>
      </trkpt>
      <trkpt lat="46.64528" lon="5.47596">
        <ele>243.8</ele>
        <time>2022-03-05T13:20:15Z</time>
      </trkpt>
      <trkpt lat="46.64543" lon="5.47639">
        <ele>244.8</ele>
        <time>2022-03-05T13:20:21Z</time>
      </trkpt>
      <trkpt lat="46.64556" lon="5.47676">
        <ele>245.6</ele>
        <time>2022-03-05T13:20:26Z</time>
      </trkpt>
      <trkpt lat="46.64578" lon="5.47738">
        <ele>246</ele>
        <time>2022-03-05T13:20:34Z</time>
      </trkpt>
      <trkpt lat="46.64581" lon="5.47747">
        <ele>246.2</ele>
        <time>2022-03-05T13:20:35Z</time>
      </trkpt>
      <trkpt lat="46.64607" lon="5.47819">
        <ele>246.2</ele>
        <time>2022-03-05T13:20:44Z</time>
      </trkpt>
      <trkpt lat="46.64615" lon="5.47844">
        <ele>246.2</ele>
        <time>2022-03-05T13:20:47Z</time>
      </trkpt>
      <trkpt lat="46.64633" lon="5.4792">
        <ele>246.6</ele>
        <time>2022-03-05T13:20:56Z</time>
      </trkpt>
      <trkpt lat="46.64646" lon="5.48005">
        <ele>247.2</ele>
        <time>2022-03-05T13:21:06Z</time>
      </trkpt>
      <trkpt lat="46.64659" lon="5.48089">
        <ele>248</ele>
        <time>2022-03-05T13:21:16Z</time>
      </trkpt>
      <trkpt lat="46.6466" lon="5.48097">
        <ele>248</ele>
        <time>2022-03-05T13:21:17Z</time>
      </trkpt>
      <trkpt lat="46.64668" lon="5.48151">
        <ele>248.4</ele>
        <time>2022-03-05T13:21:24Z</time>
      </trkpt>
      <trkpt lat="46.64672" lon="5.48187">
        <ele>249.4</ele>
        <time>2022-03-05T13:21:29Z</time>
      </trkpt>
      <trkpt lat="46.64676" lon="5.48207">
        <ele>249.8</ele>
        <time>2022-03-05T13:21:32Z</time>
      </trkpt>
      <trkpt lat="46.64678" lon="5.48228">
        <ele>250.2</ele>
        <time>2022-03-05T13:21:36Z</time>
      </trkpt>
      <trkpt lat="46.64675" lon="5.48233">
        <ele>250.6</ele>
        <time>2022-03-05T13:21:38Z</time>
      </trkpt>
      <trkpt lat="46.64671" lon="5.48236">
        <ele>250.6</ele>
        <time>2022-03-05T13:21:40Z</time>
      </trkpt>
      <trkpt lat="46.6467" lon="5.48236">
        <ele>250.6</ele>
        <time>2022-03-05T13:21:43Z</time>
      </trkpt>
      <trkpt lat="46.64679" lon="5.48237">
        <ele>250.6</ele>
        <time>2022-03-05T13:23:39Z</time>
      </trkpt>
      <trkpt lat="46.64684" lon="5.48251">
        <ele>250.8</ele>
        <time>2022-03-05T13:23:45Z</time>
      </trkpt>
      <trkpt lat="46.64686" lon="5.48253">
        <ele>250.8</ele>
        <time>2022-03-05T13:23:46Z</time>
      </trkpt>
      <trkpt lat="46.64694" lon="5.48253">
        <ele>250.8</ele>
        <time>2022-03-05T13:23:49Z</time>
      </trkpt>
      <trkpt lat="46.64716" lon="5.48254">
        <ele>250.8</ele>
        <time>2022-03-05T13:23:56Z</time>
      </trkpt>
      <trkpt lat="46.64737" lon="5.48269">
        <ele>251.4</ele>
        <time>2022-03-05T13:24:02Z</time>
      </trkpt>
      <trkpt lat="46.64757" lon="5.48285">
        <ele>251.8</ele>
        <time>2022-03-05T13:24:07Z</time>
      </trkpt>
      <trkpt lat="46.64762" lon="5.48288">
        <ele>252</ele>
        <time>2022-03-05T13:24:08Z</time>
      </trkpt>
      <trkpt lat="46.64793" lon="5.48311">
        <ele>252.4</ele>
        <time>2022-03-05T13:24:15Z</time>
      </trkpt>
      <trkpt lat="46.64812" lon="5.48324">
        <ele>252.6</ele>
        <time>2022-03-05T13:24:19Z</time>
      </trkpt>
      <trkpt lat="46.64826" lon="5.48334">
        <ele>252.6</ele>
        <time>2022-03-05T13:24:22Z</time>
      </trkpt>
      <trkpt lat="46.64863" lon="5.48362">
        <ele>251.8</ele>
        <time>2022-03-05T13:24:29Z</time>
      </trkpt>
      <trkpt lat="46.64894" lon="5.48389">
        <ele>251.6</ele>
        <time>2022-03-05T13:24:35Z</time>
      </trkpt>
      <trkpt lat="46.64941" lon="5.48433">
        <ele>252</ele>
        <time>2022-03-05T13:24:44Z</time>
      </trkpt>
      <trkpt lat="46.64991" lon="5.48474">
        <ele>252.6</ele>
        <time>2022-03-05T13:24:53Z</time>
      </trkpt>
      <trkpt lat="46.65032" lon="5.48504">
        <ele>251</ele>
        <time>2022-03-05T13:25:00Z</time>
      </trkpt>
      <trkpt lat="46.65056" lon="5.48519">
        <ele>250.6</ele>
        <time>2022-03-05T13:25:04Z</time>
      </trkpt>
      <trkpt lat="46.65111" lon="5.4855">
        <ele>250.2</ele>
        <time>2022-03-05T13:25:13Z</time>
      </trkpt>
      <trkpt lat="46.65117" lon="5.48554">
        <ele>250.2</ele>
        <time>2022-03-05T13:25:14Z</time>
      </trkpt>
      <trkpt lat="46.6517" lon="5.48581">
        <ele>250.4</ele>
        <time>2022-03-05T13:25:23Z</time>
      </trkpt>
      <trkpt lat="46.65177" lon="5.48584">
        <ele>250.4</ele>
        <time>2022-03-05T13:25:24Z</time>
      </trkpt>
      <trkpt lat="46.65219" lon="5.486">
        <ele>250.4</ele>
        <time>2022-03-05T13:25:31Z</time>
      </trkpt>
      <trkpt lat="46.65256" lon="5.48625">
        <ele>250.4</ele>
        <time>2022-03-05T13:25:37Z</time>
      </trkpt>
      <trkpt lat="46.65289" lon="5.48645">
        <ele>250</ele>
        <time>2022-03-05T13:25:42Z</time>
      </trkpt>
      <trkpt lat="46.65296" lon="5.48648">
        <ele>249.8</ele>
        <time>2022-03-05T13:25:43Z</time>
      </trkpt>
      <trkpt lat="46.65316" lon="5.48652">
        <ele>248.8</ele>
        <time>2022-03-05T13:25:46Z</time>
      </trkpt>
      <trkpt lat="46.65331" lon="5.48654">
        <ele>248.6</ele>
        <time>2022-03-05T13:25:48Z</time>
      </trkpt>
      <trkpt lat="46.65362" lon="5.48662">
        <ele>247.6</ele>
        <time>2022-03-05T13:25:52Z</time>
      </trkpt>
      <trkpt lat="46.65371" lon="5.48666">
        <ele>247.2</ele>
        <time>2022-03-05T13:25:53Z</time>
      </trkpt>
      <trkpt lat="46.65379" lon="5.48669">
        <ele>246.8</ele>
        <time>2022-03-05T13:25:54Z</time>
      </trkpt>
      <trkpt lat="46.65388" lon="5.48675">
        <ele>246.2</ele>
        <time>2022-03-05T13:25:55Z</time>
      </trkpt>
      <trkpt lat="46.65404" lon="5.48687">
        <ele>245</ele>
        <time>2022-03-05T13:25:57Z</time>
      </trkpt>
      <trkpt lat="46.65421" lon="5.48699">
        <ele>243.6</ele>
        <time>2022-03-05T13:25:59Z</time>
      </trkpt>
      <trkpt lat="46.6544" lon="5.48707">
        <ele>242</ele>
        <time>2022-03-05T13:26:01Z</time>
      </trkpt>
      <trkpt lat="46.65449" lon="5.48709">
        <ele>241.2</ele>
        <time>2022-03-05T13:26:02Z</time>
      </trkpt>
      <trkpt lat="46.65459" lon="5.4871">
        <ele>240.8</ele>
        <time>2022-03-05T13:26:03Z</time>
      </trkpt>
      <trkpt lat="46.65468" lon="5.48709">
        <ele>240</ele>
        <time>2022-03-05T13:26:04Z</time>
      </trkpt>
      <trkpt lat="46.65487" lon="5.48706">
        <ele>239</ele>
        <time>2022-03-05T13:26:06Z</time>
      </trkpt>
      <trkpt lat="46.65495" lon="5.48705">
        <ele>238.6</ele>
        <time>2022-03-05T13:26:07Z</time>
      </trkpt>
      <trkpt lat="46.65513" lon="5.48703">
        <ele>238</ele>
        <time>2022-03-05T13:26:09Z</time>
      </trkpt>
      <trkpt lat="46.6554" lon="5.487">
        <ele>237</ele>
        <time>2022-03-05T13:26:12Z</time>
      </trkpt>
      <trkpt lat="46.65556" lon="5.48702">
        <ele>236.4</ele>
        <time>2022-03-05T13:26:14Z</time>
      </trkpt>
      <trkpt lat="46.65573" lon="5.48707">
        <ele>236.2</ele>
        <time>2022-03-05T13:26:16Z</time>
      </trkpt>
      <trkpt lat="46.65587" lon="5.48717">
        <ele>236</ele>
        <time>2022-03-05T13:26:18Z</time>
      </trkpt>
      <trkpt lat="46.65603" lon="5.48737">
        <ele>236</ele>
        <time>2022-03-05T13:26:21Z</time>
      </trkpt>
      <trkpt lat="46.65608" lon="5.48743">
        <ele>236</ele>
        <time>2022-03-05T13:26:22Z</time>
      </trkpt>
      <trkpt lat="46.65613" lon="5.48749">
        <ele>236.2</ele>
        <time>2022-03-05T13:26:23Z</time>
      </trkpt>
      <trkpt lat="46.65626" lon="5.48766">
        <ele>237</ele>
        <time>2022-03-05T13:26:26Z</time>
      </trkpt>
      <trkpt lat="46.65643" lon="5.4879">
        <ele>238</ele>
        <time>2022-03-05T13:26:30Z</time>
      </trkpt>
      <trkpt lat="46.65649" lon="5.48802">
        <ele>238.4</ele>
        <time>2022-03-05T13:26:32Z</time>
      </trkpt>
      <trkpt lat="46.65659" lon="5.48825">
        <ele>239.4</ele>
        <time>2022-03-05T13:26:36Z</time>
      </trkpt>
      <trkpt lat="46.65661" lon="5.48831">
        <ele>239.6</ele>
        <time>2022-03-05T13:26:37Z</time>
      </trkpt>
      <trkpt lat="46.65665" lon="5.48844">
        <ele>240.2</ele>
        <time>2022-03-05T13:26:39Z</time>
      </trkpt>
      <trkpt lat="46.65667" lon="5.4885">
        <ele>240.6</ele>
        <time>2022-03-05T13:26:40Z</time>
      </trkpt>
      <trkpt lat="46.6567" lon="5.48856">
        <ele>240.8</ele>
        <time>2022-03-05T13:26:41Z</time>
      </trkpt>
      <trkpt lat="46.65673" lon="5.48863">
        <ele>241.2</ele>
        <time>2022-03-05T13:26:42Z</time>
      </trkpt>
      <trkpt lat="46.65675" lon="5.48869">
        <ele>241.6</ele>
        <time>2022-03-05T13:26:43Z</time>
      </trkpt>
      <trkpt lat="46.65676" lon="5.48882">
        <ele>242.2</ele>
        <time>2022-03-05T13:26:45Z</time>
      </trkpt>
      <trkpt lat="46.65677" lon="5.48889">
        <ele>242.4</ele>
        <time>2022-03-05T13:26:46Z</time>
      </trkpt>
      <trkpt lat="46.65677" lon="5.48896">
        <ele>243</ele>
        <time>2022-03-05T13:26:47Z</time>
      </trkpt>
      <trkpt lat="46.65679" lon="5.48923">
        <ele>244.4</ele>
        <time>2022-03-05T13:26:51Z</time>
      </trkpt>
      <trkpt lat="46.6568" lon="5.48945">
        <ele>245.4</ele>
        <time>2022-03-05T13:26:54Z</time>
      </trkpt>
      <trkpt lat="46.65682" lon="5.48955">
        <ele>246</ele>
        <time>2022-03-05T13:26:56Z</time>
      </trkpt>
      <trkpt lat="46.65681" lon="5.48979">
        <ele>246.6</ele>
        <time>2022-03-05T13:26:59Z</time>
      </trkpt>
      <trkpt lat="46.65682" lon="5.48991">
        <ele>247.2</ele>
        <time>2022-03-05T13:27:01Z</time>
      </trkpt>
      <trkpt lat="46.65683" lon="5.49004">
        <ele>247.8</ele>
        <time>2022-03-05T13:27:03Z</time>
      </trkpt>
      <trkpt lat="46.65683" lon="5.4901">
        <ele>248</ele>
        <time>2022-03-05T13:27:04Z</time>
      </trkpt>
      <trkpt lat="46.65686" lon="5.49036">
        <ele>249</ele>
        <time>2022-03-05T13:27:08Z</time>
      </trkpt>
      <trkpt lat="46.65695" lon="5.49082">
        <ele>250</ele>
        <time>2022-03-05T13:27:15Z</time>
      </trkpt>
      <trkpt lat="46.65697" lon="5.4909">
        <ele>250.2</ele>
        <time>2022-03-05T13:27:16Z</time>
      </trkpt>
      <trkpt lat="46.65708" lon="5.4914">
        <ele>251.2</ele>
        <time>2022-03-05T13:27:23Z</time>
      </trkpt>
      <trkpt lat="46.65713" lon="5.49157">
        <ele>251.4</ele>
        <time>2022-03-05T13:27:25Z</time>
      </trkpt>
      <trkpt lat="46.65735" lon="5.49234">
        <ele>252</ele>
        <time>2022-03-05T13:27:35Z</time>
      </trkpt>
      <trkpt lat="46.65737" lon="5.49242">
        <ele>252</ele>
        <time>2022-03-05T13:27:36Z</time>
      </trkpt>
      <trkpt lat="46.65759" lon="5.49317">
        <ele>252.2</ele>
        <time>2022-03-05T13:27:45Z</time>
      </trkpt>
      <trkpt lat="46.65762" lon="5.49324">
        <ele>252.2</ele>
        <time>2022-03-05T13:27:46Z</time>
      </trkpt>
      <trkpt lat="46.65764" lon="5.49331">
        <ele>252.2</ele>
        <time>2022-03-05T13:27:47Z</time>
      </trkpt>
      <trkpt lat="46.65785" lon="5.49405">
        <ele>252.8</ele>
        <time>2022-03-05T13:27:56Z</time>
      </trkpt>
      <trkpt lat="46.65792" lon="5.49429">
        <ele>253</ele>
        <time>2022-03-05T13:27:59Z</time>
      </trkpt>
      <trkpt lat="46.65812" lon="5.49486">
        <ele>253</ele>
        <time>2022-03-05T13:28:06Z</time>
      </trkpt>
      <trkpt lat="46.65819" lon="5.49509">
        <ele>253.2</ele>
        <time>2022-03-05T13:28:09Z</time>
      </trkpt>
      <trkpt lat="46.65833" lon="5.49562">
        <ele>253.8</ele>
        <time>2022-03-05T13:28:15Z</time>
      </trkpt>
      <trkpt lat="46.65848" lon="5.4964">
        <ele>254.2</ele>
        <time>2022-03-05T13:28:24Z</time>
      </trkpt>
      <trkpt lat="46.65852" lon="5.49659">
        <ele>254.4</ele>
        <time>2022-03-05T13:28:26Z</time>
      </trkpt>
      <trkpt lat="46.65867" lon="5.49739">
        <ele>254.8</ele>
        <time>2022-03-05T13:28:35Z</time>
      </trkpt>
      <trkpt lat="46.65883" lon="5.49815">
        <ele>255</ele>
        <time>2022-03-05T13:28:44Z</time>
      </trkpt>
      <trkpt lat="46.65887" lon="5.49832">
        <ele>255</ele>
        <time>2022-03-05T13:28:46Z</time>
      </trkpt>
      <trkpt lat="46.65895" lon="5.49866">
        <ele>255.4</ele>
        <time>2022-03-05T13:28:50Z</time>
      </trkpt>
      <trkpt lat="46.65901" lon="5.49896">
        <ele>255.6</ele>
        <time>2022-03-05T13:28:54Z</time>
      </trkpt>
      <trkpt lat="46.65897" lon="5.49905">
        <ele>256</ele>
        <time>2022-03-05T13:28:56Z</time>
      </trkpt>
      <trkpt lat="46.65892" lon="5.49908">
        <ele>256</ele>
        <time>2022-03-05T13:28:57Z</time>
      </trkpt>
      <trkpt lat="46.6587" lon="5.49919">
        <ele>256.4</ele>
        <time>2022-03-05T13:29:01Z</time>
      </trkpt>
      <trkpt lat="46.65864" lon="5.49922">
        <ele>256.4</ele>
        <time>2022-03-05T13:29:02Z</time>
      </trkpt>
      <trkpt lat="46.6583" lon="5.49942">
        <ele>256.6</ele>
        <time>2022-03-05T13:29:08Z</time>
      </trkpt>
      <trkpt lat="46.65778" lon="5.49973">
        <ele>256.6</ele>
        <time>2022-03-05T13:29:17Z</time>
      </trkpt>
      <trkpt lat="46.65767" lon="5.49979">
        <ele>256.4</ele>
        <time>2022-03-05T13:29:19Z</time>
      </trkpt>
      <trkpt lat="46.65732" lon="5.49999">
        <ele>255.8</ele>
        <time>2022-03-05T13:29:24Z</time>
      </trkpt>
      <trkpt lat="46.65725" lon="5.50004">
        <ele>255.6</ele>
        <time>2022-03-05T13:29:25Z</time>
      </trkpt>
      <trkpt lat="46.65701" lon="5.50026">
        <ele>255.2</ele>
        <time>2022-03-05T13:29:28Z</time>
      </trkpt>
      <trkpt lat="46.65693" lon="5.50035">
        <ele>254.6</ele>
        <time>2022-03-05T13:29:29Z</time>
      </trkpt>
      <trkpt lat="46.65681" lon="5.50058">
        <ele>253.4</ele>
        <time>2022-03-05T13:29:31Z</time>
      </trkpt>
      <trkpt lat="46.65676" lon="5.50071">
        <ele>252.8</ele>
        <time>2022-03-05T13:29:32Z</time>
      </trkpt>
      <trkpt lat="46.65672" lon="5.50084">
        <ele>252.4</ele>
        <time>2022-03-05T13:29:33Z</time>
      </trkpt>
      <trkpt lat="46.65667" lon="5.50097">
        <ele>251.2</ele>
        <time>2022-03-05T13:29:34Z</time>
      </trkpt>
      <trkpt lat="46.6566" lon="5.5012">
        <ele>249.4</ele>
        <time>2022-03-05T13:29:36Z</time>
      </trkpt>
      <trkpt lat="46.65658" lon="5.50132">
        <ele>249</ele>
        <time>2022-03-05T13:29:37Z</time>
      </trkpt>
      <trkpt lat="46.65659" lon="5.50143">
        <ele>248.6</ele>
        <time>2022-03-05T13:29:38Z</time>
      </trkpt>
      <trkpt lat="46.65662" lon="5.50154">
        <ele>248.2</ele>
        <time>2022-03-05T13:29:39Z</time>
      </trkpt>
      <trkpt lat="46.65664" lon="5.50162">
        <ele>248.2</ele>
        <time>2022-03-05T13:29:40Z</time>
      </trkpt>
      <trkpt lat="46.65677" lon="5.50213">
        <ele>247.4</ele>
        <time>2022-03-05T13:29:45Z</time>
      </trkpt>
      <trkpt lat="46.65679" lon="5.50223">
        <ele>247.2</ele>
        <time>2022-03-05T13:29:46Z</time>
      </trkpt>
      <trkpt lat="46.6569" lon="5.50286">
        <ele>246.8</ele>
        <time>2022-03-05T13:29:52Z</time>
      </trkpt>
      <trkpt lat="46.65696" lon="5.50355">
        <ele>246.4</ele>
        <time>2022-03-05T13:29:59Z</time>
      </trkpt>
      <trkpt lat="46.65699" lon="5.50441">
        <ele>247</ele>
        <time>2022-03-05T13:30:08Z</time>
      </trkpt>
      <trkpt lat="46.65703" lon="5.50513">
        <ele>247.6</ele>
        <time>2022-03-05T13:30:16Z</time>
      </trkpt>
      <trkpt lat="46.65704" lon="5.50524">
        <ele>247.8</ele>
        <time>2022-03-05T13:30:17Z</time>
      </trkpt>
      <trkpt lat="46.65714" lon="5.50558">
        <ele>247.8</ele>
        <time>2022-03-05T13:30:21Z</time>
      </trkpt>
      <trkpt lat="46.6572" lon="5.50582">
        <ele>248</ele>
        <time>2022-03-05T13:30:24Z</time>
      </trkpt>
      <trkpt lat="46.65722" lon="5.50602">
        <ele>248.2</ele>
        <time>2022-03-05T13:30:26Z</time>
      </trkpt>
      <trkpt lat="46.65721" lon="5.50621">
        <ele>248.2</ele>
        <time>2022-03-05T13:30:28Z</time>
      </trkpt>
      <trkpt lat="46.65719" lon="5.50636">
        <ele>248.4</ele>
        <time>2022-03-05T13:30:30Z</time>
      </trkpt>
      <trkpt lat="46.65716" lon="5.50645">
        <ele>248.6</ele>
        <time>2022-03-05T13:30:31Z</time>
      </trkpt>
      <trkpt lat="46.65695" lon="5.50718">
        <ele>249.2</ele>
        <time>2022-03-05T13:30:40Z</time>
      </trkpt>
      <trkpt lat="46.65692" lon="5.50745">
        <ele>249.4</ele>
        <time>2022-03-05T13:30:43Z</time>
      </trkpt>
      <trkpt lat="46.65692" lon="5.50762">
        <ele>249.4</ele>
        <time>2022-03-05T13:30:45Z</time>
      </trkpt>
      <trkpt lat="46.65692" lon="5.50773">
        <ele>249.4</ele>
        <time>2022-03-05T13:30:46Z</time>
      </trkpt>
      <trkpt lat="46.65692" lon="5.50789">
        <ele>249.6</ele>
        <time>2022-03-05T13:30:48Z</time>
      </trkpt>
      <trkpt lat="46.65692" lon="5.50797">
        <ele>249.6</ele>
        <time>2022-03-05T13:30:49Z</time>
      </trkpt>
      <trkpt lat="46.65692" lon="5.50804">
        <ele>249.8</ele>
        <time>2022-03-05T13:30:50Z</time>
      </trkpt>
      <trkpt lat="46.65698" lon="5.50827">
        <ele>250.8</ele>
        <time>2022-03-05T13:30:54Z</time>
      </trkpt>
      <trkpt lat="46.65701" lon="5.50834">
        <ele>251</ele>
        <time>2022-03-05T13:30:55Z</time>
      </trkpt>
      <trkpt lat="46.65706" lon="5.50844">
        <ele>251.4</ele>
        <time>2022-03-05T13:30:57Z</time>
      </trkpt>
      <trkpt lat="46.6571" lon="5.50848">
        <ele>252</ele>
        <time>2022-03-05T13:30:58Z</time>
      </trkpt>
      <trkpt lat="46.65713" lon="5.50851">
        <ele>252.2</ele>
        <time>2022-03-05T13:30:59Z</time>
      </trkpt>
      <trkpt lat="46.65717" lon="5.50855">
        <ele>252.4</ele>
        <time>2022-03-05T13:31:00Z</time>
      </trkpt>
      <trkpt lat="46.65727" lon="5.50862">
        <ele>253</ele>
        <time>2022-03-05T13:31:03Z</time>
      </trkpt>
      <trkpt lat="46.65738" lon="5.50869">
        <ele>254.2</ele>
        <time>2022-03-05T13:31:06Z</time>
      </trkpt>
      <trkpt lat="46.65752" lon="5.50881">
        <ele>255.4</ele>
        <time>2022-03-05T13:31:10Z</time>
      </trkpt>
      <trkpt lat="46.65761" lon="5.50892">
        <ele>256.4</ele>
        <time>2022-03-05T13:31:13Z</time>
      </trkpt>
      <trkpt lat="46.65771" lon="5.50911">
        <ele>257.6</ele>
        <time>2022-03-05T13:31:17Z</time>
      </trkpt>
      <trkpt lat="46.65774" lon="5.50922">
        <ele>258.2</ele>
        <time>2022-03-05T13:31:19Z</time>
      </trkpt>
      <trkpt lat="46.65775" lon="5.50934">
        <ele>258.8</ele>
        <time>2022-03-05T13:31:21Z</time>
      </trkpt>
      <trkpt lat="46.65775" lon="5.5094">
        <ele>259.4</ele>
        <time>2022-03-05T13:31:22Z</time>
      </trkpt>
      <trkpt lat="46.65773" lon="5.50951">
        <ele>260.2</ele>
        <time>2022-03-05T13:31:24Z</time>
      </trkpt>
      <trkpt lat="46.65773" lon="5.50957">
        <ele>260.6</ele>
        <time>2022-03-05T13:31:25Z</time>
      </trkpt>
      <trkpt lat="46.65772" lon="5.50975">
        <ele>261.8</ele>
        <time>2022-03-05T13:31:28Z</time>
      </trkpt>
      <trkpt lat="46.65771" lon="5.51003">
        <ele>263</ele>
        <time>2022-03-05T13:31:33Z</time>
      </trkpt>
      <trkpt lat="46.65771" lon="5.51015">
        <ele>263.6</ele>
        <time>2022-03-05T13:31:35Z</time>
      </trkpt>
      <trkpt lat="46.65771" lon="5.51033">
        <ele>264.2</ele>
        <time>2022-03-05T13:31:38Z</time>
      </trkpt>
      <trkpt lat="46.65772" lon="5.51064">
        <ele>265</ele>
        <time>2022-03-05T13:31:43Z</time>
      </trkpt>
      <trkpt lat="46.65773" lon="5.5107">
        <ele>265.4</ele>
        <time>2022-03-05T13:31:44Z</time>
      </trkpt>
      <trkpt lat="46.65775" lon="5.51117">
        <ele>266.6</ele>
        <time>2022-03-05T13:31:51Z</time>
      </trkpt>
      <trkpt lat="46.65776" lon="5.51138">
        <ele>267</ele>
        <time>2022-03-05T13:31:54Z</time>
      </trkpt>
      <trkpt lat="46.65777" lon="5.51189">
        <ele>267.6</ele>
        <time>2022-03-05T13:32:01Z</time>
      </trkpt>
      <trkpt lat="46.65778" lon="5.51212">
        <ele>267.8</ele>
        <time>2022-03-05T13:32:04Z</time>
      </trkpt>
      <trkpt lat="46.6578" lon="5.51292">
        <ele>268.6</ele>
        <time>2022-03-05T13:32:14Z</time>
      </trkpt>
      <trkpt lat="46.6578" lon="5.513">
        <ele>268.6</ele>
        <time>2022-03-05T13:32:15Z</time>
      </trkpt>
      <trkpt lat="46.65782" lon="5.51357">
        <ele>269.4</ele>
        <time>2022-03-05T13:32:22Z</time>
      </trkpt>
      <trkpt lat="46.65785" lon="5.51439">
        <ele>269.8</ele>
        <time>2022-03-05T13:32:32Z</time>
      </trkpt>
      <trkpt lat="46.65785" lon="5.51447">
        <ele>270</ele>
        <time>2022-03-05T13:32:33Z</time>
      </trkpt>
      <trkpt lat="46.65785" lon="5.51455">
        <ele>270.2</ele>
        <time>2022-03-05T13:32:34Z</time>
      </trkpt>
      <trkpt lat="46.65783" lon="5.51469">
        <ele>270.2</ele>
        <time>2022-03-05T13:32:36Z</time>
      </trkpt>
      <trkpt lat="46.6578" lon="5.51476">
        <ele>270.4</ele>
        <time>2022-03-05T13:32:37Z</time>
      </trkpt>
      <trkpt lat="46.65777" lon="5.51482">
        <ele>270.6</ele>
        <time>2022-03-05T13:32:38Z</time>
      </trkpt>
      <trkpt lat="46.65772" lon="5.51493">
        <ele>270.6</ele>
        <time>2022-03-05T13:32:40Z</time>
      </trkpt>
      <trkpt lat="46.6577" lon="5.515">
        <ele>270.6</ele>
        <time>2022-03-05T13:32:41Z</time>
      </trkpt>
      <trkpt lat="46.6577" lon="5.51509">
        <ele>270.8</ele>
        <time>2022-03-05T13:32:42Z</time>
      </trkpt>
      <trkpt lat="46.65776" lon="5.51521">
        <ele>270.8</ele>
        <time>2022-03-05T13:32:44Z</time>
      </trkpt>
      <trkpt lat="46.65783" lon="5.51534">
        <ele>270.8</ele>
        <time>2022-03-05T13:32:46Z</time>
      </trkpt>
      <trkpt lat="46.65786" lon="5.5155">
        <ele>271</ele>
        <time>2022-03-05T13:32:48Z</time>
      </trkpt>
      <trkpt lat="46.65797" lon="5.51607">
        <ele>270.8</ele>
        <time>2022-03-05T13:32:55Z</time>
      </trkpt>
      <trkpt lat="46.65803" lon="5.51629">
        <ele>270.4</ele>
        <time>2022-03-05T13:32:58Z</time>
      </trkpt>
      <trkpt lat="46.65809" lon="5.51672">
        <ele>270.6</ele>
        <time>2022-03-05T13:33:03Z</time>
      </trkpt>
      <trkpt lat="46.6582" lon="5.51739">
        <ele>271.2</ele>
        <time>2022-03-05T13:33:11Z</time>
      </trkpt>
      <trkpt lat="46.65826" lon="5.51781">
        <ele>272.2</ele>
        <time>2022-03-05T13:33:16Z</time>
      </trkpt>
      <trkpt lat="46.6583" lon="5.51814">
        <ele>272.6</ele>
        <time>2022-03-05T13:33:20Z</time>
      </trkpt>
      <trkpt lat="46.6584" lon="5.5188">
        <ele>273.4</ele>
        <time>2022-03-05T13:33:28Z</time>
      </trkpt>
      <trkpt lat="46.65842" lon="5.51889">
        <ele>273.4</ele>
        <time>2022-03-05T13:33:29Z</time>
      </trkpt>
      <trkpt lat="46.65855" lon="5.51966">
        <ele>273.8</ele>
        <time>2022-03-05T13:33:38Z</time>
      </trkpt>
      <trkpt lat="46.6586" lon="5.51989">
        <ele>274</ele>
        <time>2022-03-05T13:33:41Z</time>
      </trkpt>
      <trkpt lat="46.65867" lon="5.5204">
        <ele>274.4</ele>
        <time>2022-03-05T13:33:47Z</time>
      </trkpt>
      <trkpt lat="46.65867" lon="5.52049">
        <ele>274.4</ele>
        <time>2022-03-05T13:33:48Z</time>
      </trkpt>
      <trkpt lat="46.65865" lon="5.52058">
        <ele>274.4</ele>
        <time>2022-03-05T13:33:49Z</time>
      </trkpt>
      <trkpt lat="46.65856" lon="5.52073">
        <ele>274</ele>
        <time>2022-03-05T13:33:51Z</time>
      </trkpt>
      <trkpt lat="46.6583" lon="5.52101">
        <ele>273.2</ele>
        <time>2022-03-05T13:33:56Z</time>
      </trkpt>
      <trkpt lat="46.65791" lon="5.52152">
        <ele>272.8</ele>
        <time>2022-03-05T13:34:04Z</time>
      </trkpt>
      <trkpt lat="46.65767" lon="5.52196">
        <ele>272.8</ele>
        <time>2022-03-05T13:34:10Z</time>
      </trkpt>
      <trkpt lat="46.65748" lon="5.52233">
        <ele>272.2</ele>
        <time>2022-03-05T13:34:14Z</time>
      </trkpt>
      <trkpt lat="46.65742" lon="5.52241">
        <ele>272</ele>
        <time>2022-03-05T13:34:15Z</time>
      </trkpt>
      <trkpt lat="46.65719" lon="5.52266">
        <ele>270.6</ele>
        <time>2022-03-05T13:34:18Z</time>
      </trkpt>
      <trkpt lat="46.65711" lon="5.52274">
        <ele>270.4</ele>
        <time>2022-03-05T13:34:19Z</time>
      </trkpt>
      <trkpt lat="46.65683" lon="5.52295">
        <ele>269</ele>
        <time>2022-03-05T13:34:22Z</time>
      </trkpt>
      <trkpt lat="46.65665" lon="5.52307">
        <ele>268.4</ele>
        <time>2022-03-05T13:34:24Z</time>
      </trkpt>
      <trkpt lat="46.65656" lon="5.52313">
        <ele>267.8</ele>
        <time>2022-03-05T13:34:25Z</time>
      </trkpt>
      <trkpt lat="46.65638" lon="5.52324">
        <ele>266.8</ele>
        <time>2022-03-05T13:34:27Z</time>
      </trkpt>
      <trkpt lat="46.65605" lon="5.52345">
        <ele>265.6</ele>
        <time>2022-03-05T13:34:31Z</time>
      </trkpt>
      <trkpt lat="46.65597" lon="5.5235">
        <ele>265.6</ele>
        <time>2022-03-05T13:34:32Z</time>
      </trkpt>
      <trkpt lat="46.65552" lon="5.52382">
        <ele>265.2</ele>
        <time>2022-03-05T13:34:38Z</time>
      </trkpt>
      <trkpt lat="46.65501" lon="5.52424">
        <ele>265.2</ele>
        <time>2022-03-05T13:34:45Z</time>
      </trkpt>
      <trkpt lat="46.65452" lon="5.52468">
        <ele>265.4</ele>
        <time>2022-03-05T13:34:52Z</time>
      </trkpt>
      <trkpt lat="46.65432" lon="5.52487">
        <ele>265.8</ele>
        <time>2022-03-05T13:34:55Z</time>
      </trkpt>
      <trkpt lat="46.65409" lon="5.52515">
        <ele>266.2</ele>
        <time>2022-03-05T13:34:59Z</time>
      </trkpt>
      <trkpt lat="46.65404" lon="5.52523">
        <ele>266.2</ele>
        <time>2022-03-05T13:35:00Z</time>
      </trkpt>
      <trkpt lat="46.6539" lon="5.52561">
        <ele>266.8</ele>
        <time>2022-03-05T13:35:04Z</time>
      </trkpt>
      <trkpt lat="46.65388" lon="5.52571">
        <ele>267</ele>
        <time>2022-03-05T13:35:05Z</time>
      </trkpt>
      <trkpt lat="46.65369" lon="5.52635">
        <ele>267.4</ele>
        <time>2022-03-05T13:35:12Z</time>
      </trkpt>
      <trkpt lat="46.65337" lon="5.5269">
        <ele>267.8</ele>
        <time>2022-03-05T13:35:19Z</time>
      </trkpt>
      <trkpt lat="46.65331" lon="5.52697">
        <ele>268</ele>
        <time>2022-03-05T13:35:20Z</time>
      </trkpt>
      <trkpt lat="46.65306" lon="5.52723">
        <ele>268.4</ele>
        <time>2022-03-05T13:35:25Z</time>
      </trkpt>
      <trkpt lat="46.65301" lon="5.52729">
        <ele>268.6</ele>
        <time>2022-03-05T13:35:26Z</time>
      </trkpt>
      <trkpt lat="46.65286" lon="5.52743">
        <ele>269</ele>
        <time>2022-03-05T13:35:29Z</time>
      </trkpt>
      <trkpt lat="46.65281" lon="5.52747">
        <ele>269.2</ele>
        <time>2022-03-05T13:35:30Z</time>
      </trkpt>
      <trkpt lat="46.65271" lon="5.52756">
        <ele>269.6</ele>
        <time>2022-03-05T13:35:32Z</time>
      </trkpt>
      <trkpt lat="46.65261" lon="5.52764">
        <ele>270.2</ele>
        <time>2022-03-05T13:35:34Z</time>
      </trkpt>
      <trkpt lat="46.65254" lon="5.52769">
        <ele>270.8</ele>
        <time>2022-03-05T13:35:36Z</time>
      </trkpt>
      <trkpt lat="46.65237" lon="5.52783">
        <ele>271.4</ele>
        <time>2022-03-05T13:35:41Z</time>
      </trkpt>
      <trkpt lat="46.65233" lon="5.52783">
        <ele>271.8</ele>
        <time>2022-03-05T13:35:42Z</time>
      </trkpt>
      <trkpt lat="46.65227" lon="5.52783">
        <ele>272</ele>
        <time>2022-03-05T13:35:44Z</time>
      </trkpt>
      <trkpt lat="46.65216" lon="5.52784">
        <ele>272.4</ele>
        <time>2022-03-05T13:35:47Z</time>
      </trkpt>
      <trkpt lat="46.65209" lon="5.52786">
        <ele>272.8</ele>
        <time>2022-03-05T13:35:49Z</time>
      </trkpt>
      <trkpt lat="46.65203" lon="5.5279">
        <ele>273</ele>
        <time>2022-03-05T13:35:51Z</time>
      </trkpt>
      <trkpt lat="46.65198" lon="5.52802">
        <ele>273</ele>
        <time>2022-03-05T13:35:53Z</time>
      </trkpt>
      <trkpt lat="46.65193" lon="5.52839">
        <ele>273.4</ele>
        <time>2022-03-05T13:35:58Z</time>
      </trkpt>
      <trkpt lat="46.6519" lon="5.52856">
        <ele>273.4</ele>
        <time>2022-03-05T13:36:00Z</time>
      </trkpt>
      <trkpt lat="46.65188" lon="5.52863">
        <ele>273.4</ele>
        <time>2022-03-05T13:36:01Z</time>
      </trkpt>
      <trkpt lat="46.65185" lon="5.5287">
        <ele>273.4</ele>
        <time>2022-03-05T13:36:02Z</time>
      </trkpt>
      <trkpt lat="46.65179" lon="5.52883">
        <ele>273.4</ele>
        <time>2022-03-05T13:36:04Z</time>
      </trkpt>
      <trkpt lat="46.65158" lon="5.52925">
        <ele>273.2</ele>
        <time>2022-03-05T13:36:09Z</time>
      </trkpt>
      <trkpt lat="46.6513" lon="5.52976">
        <ele>272.8</ele>
        <time>2022-03-05T13:36:16Z</time>
      </trkpt>
      <trkpt lat="46.65116" lon="5.53008">
        <ele>272.8</ele>
        <time>2022-03-05T13:36:21Z</time>
      </trkpt>
      <trkpt lat="46.65113" lon="5.53015">
        <ele>273</ele>
        <time>2022-03-05T13:36:22Z</time>
      </trkpt>
      <trkpt lat="46.65101" lon="5.53043">
        <ele>273.6</ele>
        <time>2022-03-05T13:36:26Z</time>
      </trkpt>
      <trkpt lat="46.65074" lon="5.53101">
        <ele>274.4</ele>
        <time>2022-03-05T13:36:34Z</time>
      </trkpt>
      <trkpt lat="46.6507" lon="5.53108">
        <ele>274.8</ele>
        <time>2022-03-05T13:36:35Z</time>
      </trkpt>
      <trkpt lat="46.65047" lon="5.53148">
        <ele>275</ele>
        <time>2022-03-05T13:36:41Z</time>
      </trkpt>
      <trkpt lat="46.65039" lon="5.53163">
        <ele>275</ele>
        <time>2022-03-05T13:36:43Z</time>
      </trkpt>
      <trkpt lat="46.65028" lon="5.53192">
        <ele>275.2</ele>
        <time>2022-03-05T13:36:47Z</time>
      </trkpt>
      <trkpt lat="46.65012" lon="5.53237">
        <ele>275.8</ele>
        <time>2022-03-05T13:36:53Z</time>
      </trkpt>
      <trkpt lat="46.65009" lon="5.53244">
        <ele>275.8</ele>
        <time>2022-03-05T13:36:54Z</time>
      </trkpt>
      <trkpt lat="46.64975" lon="5.53311">
        <ele>276.6</ele>
        <time>2022-03-05T13:37:04Z</time>
      </trkpt>
      <trkpt lat="46.64971" lon="5.53317">
        <ele>276.8</ele>
        <time>2022-03-05T13:37:05Z</time>
      </trkpt>
      <trkpt lat="46.64947" lon="5.53372">
        <ele>277.6</ele>
        <time>2022-03-05T13:37:13Z</time>
      </trkpt>
      <trkpt lat="46.64938" lon="5.53394">
        <ele>277.8</ele>
        <time>2022-03-05T13:37:16Z</time>
      </trkpt>
      <trkpt lat="46.64919" lon="5.53435">
        <ele>278.2</ele>
        <time>2022-03-05T13:37:22Z</time>
      </trkpt>
      <trkpt lat="46.64894" lon="5.53493">
        <ele>278.8</ele>
        <time>2022-03-05T13:37:30Z</time>
      </trkpt>
      <trkpt lat="46.64891" lon="5.535">
        <ele>279</ele>
        <time>2022-03-05T13:37:31Z</time>
      </trkpt>
      <trkpt lat="46.64862" lon="5.53572">
        <ele>280</ele>
        <time>2022-03-05T13:37:41Z</time>
      </trkpt>
      <trkpt lat="46.64833" lon="5.53644">
        <ele>280.8</ele>
        <time>2022-03-05T13:37:51Z</time>
      </trkpt>
      <trkpt lat="46.64831" lon="5.53651">
        <ele>280.8</ele>
        <time>2022-03-05T13:37:52Z</time>
      </trkpt>
      <trkpt lat="46.64821" lon="5.53675">
        <ele>281.2</ele>
        <time>2022-03-05T13:37:55Z</time>
      </trkpt>
      <trkpt lat="46.64801" lon="5.53735">
        <ele>281.8</ele>
        <time>2022-03-05T13:38:03Z</time>
      </trkpt>
      <trkpt lat="46.6478" lon="5.53791">
        <ele>282.2</ele>
        <time>2022-03-05T13:38:10Z</time>
      </trkpt>
      <trkpt lat="46.6477" lon="5.53814">
        <ele>282.4</ele>
        <time>2022-03-05T13:38:13Z</time>
      </trkpt>
      <trkpt lat="46.64745" lon="5.53854">
        <ele>283</ele>
        <time>2022-03-05T13:38:19Z</time>
      </trkpt>
      <trkpt lat="46.64713" lon="5.53876">
        <ele>283.2</ele>
        <time>2022-03-05T13:38:25Z</time>
      </trkpt>
      <trkpt lat="46.64702" lon="5.5388">
        <ele>283.6</ele>
        <time>2022-03-05T13:38:27Z</time>
      </trkpt>
      <trkpt lat="46.64687" lon="5.53883">
        <ele>283.8</ele>
        <time>2022-03-05T13:38:30Z</time>
      </trkpt>
      <trkpt lat="46.64679" lon="5.53883">
        <ele>284.2</ele>
        <time>2022-03-05T13:38:32Z</time>
      </trkpt>
      <trkpt lat="46.64673" lon="5.53881">
        <ele>284.8</ele>
        <time>2022-03-05T13:38:34Z</time>
      </trkpt>
      <trkpt lat="46.6467" lon="5.53879">
        <ele>285</ele>
        <time>2022-03-05T13:38:35Z</time>
      </trkpt>
      <trkpt lat="46.64668" lon="5.53879">
        <ele>285</ele>
        <time>2022-03-05T13:38:36Z</time>
      </trkpt>
      <trkpt lat="46.64663" lon="5.53883">
        <ele>285.2</ele>
        <time>2022-03-05T13:38:38Z</time>
      </trkpt>
      <trkpt lat="46.6466" lon="5.53898">
        <ele>285.4</ele>
        <time>2022-03-05T13:38:42Z</time>
      </trkpt>
      <trkpt lat="46.64661" lon="5.53902">
        <ele>285.4</ele>
        <time>2022-03-05T13:38:43Z</time>
      </trkpt>
      <trkpt lat="46.64672" lon="5.53919">
        <ele>285.6</ele>
        <time>2022-03-05T13:38:48Z</time>
      </trkpt>
      <trkpt lat="46.64686" lon="5.53959">
        <ele>285.6</ele>
        <time>2022-03-05T13:38:56Z</time>
      </trkpt>
      <trkpt lat="46.64693" lon="5.53985">
        <ele>285.8</ele>
        <time>2022-03-05T13:39:01Z</time>
      </trkpt>
      <trkpt lat="46.64696" lon="5.53993">
        <ele>286</ele>
        <time>2022-03-05T13:39:03Z</time>
      </trkpt>
      <trkpt lat="46.647" lon="5.54025">
        <ele>286.4</ele>
        <time>2022-03-05T13:39:10Z</time>
      </trkpt>
      <trkpt lat="46.64693" lon="5.54041">
        <ele>286.8</ele>
        <time>2022-03-05T13:39:14Z</time>
      </trkpt>
      <trkpt lat="46.64684" lon="5.54045">
        <ele>287</ele>
        <time>2022-03-05T13:39:16Z</time>
      </trkpt>
      <trkpt lat="46.6468" lon="5.54046">
        <ele>287</ele>
        <time>2022-03-05T13:39:17Z</time>
      </trkpt>
      <trkpt lat="46.64676" lon="5.54046">
        <ele>287</ele>
        <time>2022-03-05T13:39:18Z</time>
      </trkpt>
      <trkpt lat="46.6466" lon="5.54048">
        <ele>287.4</ele>
        <time>2022-03-05T13:39:21Z</time>
      </trkpt>
      <trkpt lat="46.64645" lon="5.54054">
        <ele>287.6</ele>
        <time>2022-03-05T13:39:24Z</time>
      </trkpt>
      <trkpt lat="46.64613" lon="5.54075">
        <ele>287.6</ele>
        <time>2022-03-05T13:39:30Z</time>
      </trkpt>
      <trkpt lat="46.64562" lon="5.54118">
        <ele>287.8</ele>
        <time>2022-03-05T13:39:40Z</time>
      </trkpt>
      <trkpt lat="46.64558" lon="5.54122">
        <ele>287.8</ele>
        <time>2022-03-05T13:39:41Z</time>
      </trkpt>
      <trkpt lat="46.64555" lon="5.54126">
        <ele>288</ele>
        <time>2022-03-05T13:39:42Z</time>
      </trkpt>
      <trkpt lat="46.64552" lon="5.54133">
        <ele>288.2</ele>
        <time>2022-03-05T13:39:43Z</time>
      </trkpt>
      <trkpt lat="46.64552" lon="5.5414">
        <ele>288.2</ele>
        <time>2022-03-05T13:39:44Z</time>
      </trkpt>
      <trkpt lat="46.64554" lon="5.54147">
        <ele>288.4</ele>
        <time>2022-03-05T13:39:45Z</time>
      </trkpt>
      <trkpt lat="46.64558" lon="5.54157">
        <ele>288.8</ele>
        <time>2022-03-05T13:39:47Z</time>
      </trkpt>
      <trkpt lat="46.64564" lon="5.54169">
        <ele>289</ele>
        <time>2022-03-05T13:39:49Z</time>
      </trkpt>
      <trkpt lat="46.64571" lon="5.54186">
        <ele>289.8</ele>
        <time>2022-03-05T13:39:52Z</time>
      </trkpt>
      <trkpt lat="46.64573" lon="5.54192">
        <ele>289.8</ele>
        <time>2022-03-05T13:39:53Z</time>
      </trkpt>
      <trkpt lat="46.64575" lon="5.54198">
        <ele>290</ele>
        <time>2022-03-05T13:39:54Z</time>
      </trkpt>
      <trkpt lat="46.64579" lon="5.54209">
        <ele>290.2</ele>
        <time>2022-03-05T13:39:56Z</time>
      </trkpt>
      <trkpt lat="46.64582" lon="5.54216">
        <ele>290.4</ele>
        <time>2022-03-05T13:39:57Z</time>
      </trkpt>
      <trkpt lat="46.64592" lon="5.5424">
        <ele>291.4</ele>
        <time>2022-03-05T13:40:01Z</time>
      </trkpt>
      <trkpt lat="46.64601" lon="5.54264">
        <ele>292.2</ele>
        <time>2022-03-05T13:40:05Z</time>
      </trkpt>
      <trkpt lat="46.64608" lon="5.54283">
        <ele>292.6</ele>
        <time>2022-03-05T13:40:08Z</time>
      </trkpt>
      <trkpt lat="46.64623" lon="5.54327">
        <ele>293.6</ele>
        <time>2022-03-05T13:40:15Z</time>
      </trkpt>
      <trkpt lat="46.64625" lon="5.54335">
        <ele>293.8</ele>
        <time>2022-03-05T13:40:16Z</time>
      </trkpt>
      <trkpt lat="46.64634" lon="5.54361">
        <ele>294.8</ele>
        <time>2022-03-05T13:40:20Z</time>
      </trkpt>
      <trkpt lat="46.64641" lon="5.54379">
        <ele>295.2</ele>
        <time>2022-03-05T13:40:23Z</time>
      </trkpt>
      <trkpt lat="46.64649" lon="5.54412">
        <ele>296</ele>
        <time>2022-03-05T13:40:28Z</time>
      </trkpt>
      <trkpt lat="46.64651" lon="5.5442">
        <ele>296.4</ele>
        <time>2022-03-05T13:40:29Z</time>
      </trkpt>
      <trkpt lat="46.64659" lon="5.54457">
        <ele>297.2</ele>
        <time>2022-03-05T13:40:35Z</time>
      </trkpt>
      <trkpt lat="46.64661" lon="5.54465">
        <ele>297.4</ele>
        <time>2022-03-05T13:40:36Z</time>
      </trkpt>
      <trkpt lat="46.64662" lon="5.5447">
        <ele>297.6</ele>
        <time>2022-03-05T13:40:37Z</time>
      </trkpt>
      <trkpt lat="46.64669" lon="5.54495">
        <ele>297.8</ele>
        <time>2022-03-05T13:40:41Z</time>
      </trkpt>
      <trkpt lat="46.64672" lon="5.54502">
        <ele>298</ele>
        <time>2022-03-05T13:40:42Z</time>
      </trkpt>
      <trkpt lat="46.64692" lon="5.54538">
        <ele>298.2</ele>
        <time>2022-03-05T13:40:47Z</time>
      </trkpt>
      <trkpt lat="46.64717" lon="5.54588">
        <ele>297.2</ele>
        <time>2022-03-05T13:40:53Z</time>
      </trkpt>
      <trkpt lat="46.6473" lon="5.54629">
        <ele>296.2</ele>
        <time>2022-03-05T13:40:57Z</time>
      </trkpt>
      <trkpt lat="46.64731" lon="5.54639">
        <ele>295.8</ele>
        <time>2022-03-05T13:40:58Z</time>
      </trkpt>
      <trkpt lat="46.64734" lon="5.5466">
        <ele>295.4</ele>
        <time>2022-03-05T13:41:00Z</time>
      </trkpt>
      <trkpt lat="46.64733" lon="5.5468">
        <ele>294.6</ele>
        <time>2022-03-05T13:41:02Z</time>
      </trkpt>
      <trkpt lat="46.64734" lon="5.54689">
        <ele>294.4</ele>
        <time>2022-03-05T13:41:03Z</time>
      </trkpt>
      <trkpt lat="46.64738" lon="5.54701">
        <ele>294.4</ele>
        <time>2022-03-05T13:41:05Z</time>
      </trkpt>
      <trkpt lat="46.64753" lon="5.547">
        <ele>294.2</ele>
        <time>2022-03-05T13:41:08Z</time>
      </trkpt>
      <trkpt lat="46.64761" lon="5.54711">
        <ele>294</ele>
        <time>2022-03-05T13:41:10Z</time>
      </trkpt>
      <trkpt lat="46.64764" lon="5.54721">
        <ele>294</ele>
        <time>2022-03-05T13:41:11Z</time>
      </trkpt>
      <trkpt lat="46.64766" lon="5.5473">
        <ele>294</ele>
        <time>2022-03-05T13:41:12Z</time>
      </trkpt>
      <trkpt lat="46.64771" lon="5.54746">
        <ele>293.6</ele>
        <time>2022-03-05T13:41:14Z</time>
      </trkpt>
      <trkpt lat="46.64775" lon="5.54754">
        <ele>293.4</ele>
        <time>2022-03-05T13:41:15Z</time>
      </trkpt>
      <trkpt lat="46.648" lon="5.54793">
        <ele>292.6</ele>
        <time>2022-03-05T13:41:21Z</time>
      </trkpt>
      <trkpt lat="46.64803" lon="5.54801">
        <ele>292.6</ele>
        <time>2022-03-05T13:41:22Z</time>
      </trkpt>
      <trkpt lat="46.64807" lon="5.54816">
        <ele>292.6</ele>
        <time>2022-03-05T13:41:24Z</time>
      </trkpt>
      <trkpt lat="46.64808" lon="5.54823">
        <ele>292.4</ele>
        <time>2022-03-05T13:41:25Z</time>
      </trkpt>
      <trkpt lat="46.6481" lon="5.54833">
        <ele>292.4</ele>
        <time>2022-03-05T13:41:26Z</time>
      </trkpt>
      <trkpt lat="46.6481" lon="5.5485">
        <ele>292.2</ele>
        <time>2022-03-05T13:41:28Z</time>
      </trkpt>
      <trkpt lat="46.64809" lon="5.54856">
        <ele>292.2</ele>
        <time>2022-03-05T13:41:29Z</time>
      </trkpt>
      <trkpt lat="46.64803" lon="5.54928">
        <ele>292.6</ele>
        <time>2022-03-05T13:41:38Z</time>
      </trkpt>
      <trkpt lat="46.64803" lon="5.54936">
        <ele>292.6</ele>
        <time>2022-03-05T13:41:39Z</time>
      </trkpt>
      <trkpt lat="46.648" lon="5.54981">
        <ele>292.8</ele>
        <time>2022-03-05T13:41:45Z</time>
      </trkpt>
      <trkpt lat="46.64796" lon="5.5502">
        <ele>293.8</ele>
        <time>2022-03-05T13:41:51Z</time>
      </trkpt>
      <trkpt lat="46.64794" lon="5.55035">
        <ele>294</ele>
        <time>2022-03-05T13:41:53Z</time>
      </trkpt>
      <trkpt lat="46.64789" lon="5.55057">
        <ele>294.2</ele>
        <time>2022-03-05T13:41:56Z</time>
      </trkpt>
      <trkpt lat="46.64782" lon="5.55078">
        <ele>294.4</ele>
        <time>2022-03-05T13:41:59Z</time>
      </trkpt>
      <trkpt lat="46.64775" lon="5.55108">
        <ele>295</ele>
        <time>2022-03-05T13:42:03Z</time>
      </trkpt>
      <trkpt lat="46.6477" lon="5.5513">
        <ele>295.2</ele>
        <time>2022-03-05T13:42:06Z</time>
      </trkpt>
      <trkpt lat="46.64754" lon="5.55208">
        <ele>296</ele>
        <time>2022-03-05T13:42:16Z</time>
      </trkpt>
      <trkpt lat="46.64753" lon="5.55215">
        <ele>296</ele>
        <time>2022-03-05T13:42:17Z</time>
      </trkpt>
      <trkpt lat="46.6475" lon="5.5523">
        <ele>296</ele>
        <time>2022-03-05T13:42:19Z</time>
      </trkpt>
      <trkpt lat="46.64747" lon="5.55246">
        <ele>296.2</ele>
        <time>2022-03-05T13:42:21Z</time>
      </trkpt>
      <trkpt lat="46.64744" lon="5.55282">
        <ele>296.6</ele>
        <time>2022-03-05T13:42:26Z</time>
      </trkpt>
      <trkpt lat="46.64744" lon="5.55303">
        <ele>297.2</ele>
        <time>2022-03-05T13:42:29Z</time>
      </trkpt>
      <trkpt lat="46.64745" lon="5.55316">
        <ele>298</ele>
        <time>2022-03-05T13:42:31Z</time>
      </trkpt>
      <trkpt lat="46.64746" lon="5.55322">
        <ele>298.2</ele>
        <time>2022-03-05T13:42:32Z</time>
      </trkpt>
      <trkpt lat="46.64753" lon="5.55358">
        <ele>299.2</ele>
        <time>2022-03-05T13:42:38Z</time>
      </trkpt>
      <trkpt lat="46.64754" lon="5.55364">
        <ele>299.6</ele>
        <time>2022-03-05T13:42:39Z</time>
      </trkpt>
      <trkpt lat="46.64758" lon="5.55382">
        <ele>300.2</ele>
        <time>2022-03-05T13:42:42Z</time>
      </trkpt>
      <trkpt lat="46.6476" lon="5.55395">
        <ele>300.4</ele>
        <time>2022-03-05T13:42:44Z</time>
      </trkpt>
      <trkpt lat="46.64762" lon="5.55407">
        <ele>300.8</ele>
        <time>2022-03-05T13:42:46Z</time>
      </trkpt>
      <trkpt lat="46.64765" lon="5.55425">
        <ele>301.6</ele>
        <time>2022-03-05T13:42:49Z</time>
      </trkpt>
      <trkpt lat="46.64769" lon="5.55448">
        <ele>302.8</ele>
        <time>2022-03-05T13:42:53Z</time>
      </trkpt>
      <trkpt lat="46.64773" lon="5.55465">
        <ele>303.4</ele>
        <time>2022-03-05T13:42:56Z</time>
      </trkpt>
      <trkpt lat="46.64776" lon="5.55483">
        <ele>303.8</ele>
        <time>2022-03-05T13:42:59Z</time>
      </trkpt>
      <trkpt lat="46.64785" lon="5.55515">
        <ele>305</ele>
        <time>2022-03-05T13:43:05Z</time>
      </trkpt>
      <trkpt lat="46.64796" lon="5.55553">
        <ele>306</ele>
        <time>2022-03-05T13:43:12Z</time>
      </trkpt>
      <trkpt lat="46.64798" lon="5.55557">
        <ele>306</ele>
        <time>2022-03-05T13:43:13Z</time>
      </trkpt>
      <trkpt lat="46.64808" lon="5.55587">
        <ele>307.2</ele>
        <time>2022-03-05T13:43:19Z</time>
      </trkpt>
      <trkpt lat="46.64815" lon="5.55601">
        <ele>307.8</ele>
        <time>2022-03-05T13:43:22Z</time>
      </trkpt>
      <trkpt lat="46.64818" lon="5.5561">
        <ele>308.2</ele>
        <time>2022-03-05T13:43:24Z</time>
      </trkpt>
      <trkpt lat="46.64822" lon="5.5562">
        <ele>308.6</ele>
        <time>2022-03-05T13:43:26Z</time>
      </trkpt>
      <trkpt lat="46.6483" lon="5.55638">
        <ele>309.4</ele>
        <time>2022-03-05T13:43:30Z</time>
      </trkpt>
      <trkpt lat="46.64832" lon="5.55643">
        <ele>309.6</ele>
        <time>2022-03-05T13:43:31Z</time>
      </trkpt>
      <trkpt lat="46.64843" lon="5.5566">
        <ele>310.6</ele>
        <time>2022-03-05T13:43:36Z</time>
      </trkpt>
      <trkpt lat="46.64849" lon="5.55666">
        <ele>311</ele>
        <time>2022-03-05T13:43:38Z</time>
      </trkpt>
      <trkpt lat="46.64854" lon="5.55671">
        <ele>311.6</ele>
        <time>2022-03-05T13:43:40Z</time>
      </trkpt>
      <trkpt lat="46.64865" lon="5.5568">
        <ele>312.8</ele>
        <time>2022-03-05T13:43:44Z</time>
      </trkpt>
      <trkpt lat="46.64875" lon="5.55687">
        <ele>313.6</ele>
        <time>2022-03-05T13:43:48Z</time>
      </trkpt>
      <trkpt lat="46.64881" lon="5.55691">
        <ele>314.2</ele>
        <time>2022-03-05T13:43:50Z</time>
      </trkpt>
      <trkpt lat="46.64889" lon="5.55697">
        <ele>315.4</ele>
        <time>2022-03-05T13:43:53Z</time>
      </trkpt>
      <trkpt lat="46.64898" lon="5.55702">
        <ele>316.6</ele>
        <time>2022-03-05T13:43:56Z</time>
      </trkpt>
      <trkpt lat="46.64904" lon="5.55705">
        <ele>317.4</ele>
        <time>2022-03-05T13:43:58Z</time>
      </trkpt>
      <trkpt lat="46.6491" lon="5.55708">
        <ele>318.2</ele>
        <time>2022-03-05T13:44:00Z</time>
      </trkpt>
      <trkpt lat="46.64928" lon="5.55714">
        <ele>319.4</ele>
        <time>2022-03-05T13:44:06Z</time>
      </trkpt>
      <trkpt lat="46.64936" lon="5.55717">
        <ele>320.2</ele>
        <time>2022-03-05T13:44:09Z</time>
      </trkpt>
      <trkpt lat="46.64942" lon="5.55719">
        <ele>320.6</ele>
        <time>2022-03-05T13:44:11Z</time>
      </trkpt>
      <trkpt lat="46.64957" lon="5.55725">
        <ele>321.8</ele>
        <time>2022-03-05T13:44:16Z</time>
      </trkpt>
      <trkpt lat="46.64963" lon="5.55729">
        <ele>322.2</ele>
        <time>2022-03-05T13:44:18Z</time>
      </trkpt>
      <trkpt lat="46.64969" lon="5.55732">
        <ele>322.8</ele>
        <time>2022-03-05T13:44:20Z</time>
      </trkpt>
      <trkpt lat="46.64989" lon="5.55746">
        <ele>324</ele>
        <time>2022-03-05T13:44:27Z</time>
      </trkpt>
      <trkpt lat="46.64991" lon="5.55749">
        <ele>324.2</ele>
        <time>2022-03-05T13:44:28Z</time>
      </trkpt>
      <trkpt lat="46.65003" lon="5.55762">
        <ele>325</ele>
        <time>2022-03-05T13:44:33Z</time>
      </trkpt>
      <trkpt lat="46.6501" lon="5.55772">
        <ele>326.2</ele>
        <time>2022-03-05T13:44:36Z</time>
      </trkpt>
      <trkpt lat="46.65014" lon="5.55778">
        <ele>326.6</ele>
        <time>2022-03-05T13:44:38Z</time>
      </trkpt>
      <trkpt lat="46.65021" lon="5.55787">
        <ele>327.4</ele>
        <time>2022-03-05T13:44:41Z</time>
      </trkpt>
      <trkpt lat="46.65033" lon="5.55803">
        <ele>328.4</ele>
        <time>2022-03-05T13:44:46Z</time>
      </trkpt>
      <trkpt lat="46.65035" lon="5.55806">
        <ele>328.6</ele>
        <time>2022-03-05T13:44:47Z</time>
      </trkpt>
      <trkpt lat="46.65043" lon="5.55814">
        <ele>329.6</ele>
        <time>2022-03-05T13:44:50Z</time>
      </trkpt>
      <trkpt lat="46.65055" lon="5.55824">
        <ele>330.8</ele>
        <time>2022-03-05T13:44:54Z</time>
      </trkpt>
      <trkpt lat="46.65061" lon="5.55828">
        <ele>331</ele>
        <time>2022-03-05T13:44:56Z</time>
      </trkpt>
      <trkpt lat="46.65084" lon="5.55843">
        <ele>331.8</ele>
        <time>2022-03-05T13:45:03Z</time>
      </trkpt>
      <trkpt lat="46.65094" lon="5.55849">
        <ele>332.2</ele>
        <time>2022-03-05T13:45:06Z</time>
      </trkpt>
      <trkpt lat="46.651" lon="5.55854">
        <ele>333</ele>
        <time>2022-03-05T13:45:08Z</time>
      </trkpt>
      <trkpt lat="46.65114" lon="5.55865">
        <ele>334.2</ele>
        <time>2022-03-05T13:45:13Z</time>
      </trkpt>
      <trkpt lat="46.65123" lon="5.55871">
        <ele>335</ele>
        <time>2022-03-05T13:45:16Z</time>
      </trkpt>
      <trkpt lat="46.65125" lon="5.55873">
        <ele>335.4</ele>
        <time>2022-03-05T13:45:17Z</time>
      </trkpt>
      <trkpt lat="46.65134" lon="5.55879">
        <ele>336.4</ele>
        <time>2022-03-05T13:45:20Z</time>
      </trkpt>
      <trkpt lat="46.65145" lon="5.55886">
        <ele>338</ele>
        <time>2022-03-05T13:45:24Z</time>
      </trkpt>
      <trkpt lat="46.65151" lon="5.55891">
        <ele>338.8</ele>
        <time>2022-03-05T13:45:26Z</time>
      </trkpt>
      <trkpt lat="46.65155" lon="5.55896">
        <ele>339.4</ele>
        <time>2022-03-05T13:45:28Z</time>
      </trkpt>
      <trkpt lat="46.65167" lon="5.55904">
        <ele>340.6</ele>
        <time>2022-03-05T13:45:32Z</time>
      </trkpt>
      <trkpt lat="46.65176" lon="5.5591">
        <ele>341.6</ele>
        <time>2022-03-05T13:45:35Z</time>
      </trkpt>
      <trkpt lat="46.65185" lon="5.55918">
        <ele>342.8</ele>
        <time>2022-03-05T13:45:38Z</time>
      </trkpt>
      <trkpt lat="46.65187" lon="5.5592">
        <ele>343</ele>
        <time>2022-03-05T13:45:39Z</time>
      </trkpt>
      <trkpt lat="46.65195" lon="5.55929">
        <ele>343.8</ele>
        <time>2022-03-05T13:45:42Z</time>
      </trkpt>
      <trkpt lat="46.65203" lon="5.55938">
        <ele>345</ele>
        <time>2022-03-05T13:45:45Z</time>
      </trkpt>
      <trkpt lat="46.65212" lon="5.5595">
        <ele>345.8</ele>
        <time>2022-03-05T13:45:49Z</time>
      </trkpt>
      <trkpt lat="46.65218" lon="5.55956">
        <ele>346.2</ele>
        <time>2022-03-05T13:45:51Z</time>
      </trkpt>
      <trkpt lat="46.65229" lon="5.5597">
        <ele>347.2</ele>
        <time>2022-03-05T13:45:55Z</time>
      </trkpt>
      <trkpt lat="46.6524" lon="5.55982">
        <ele>348.2</ele>
        <time>2022-03-05T13:45:59Z</time>
      </trkpt>
      <trkpt lat="46.65242" lon="5.55985">
        <ele>348.4</ele>
        <time>2022-03-05T13:46:00Z</time>
      </trkpt>
      <trkpt lat="46.65252" lon="5.55999">
        <ele>349.6</ele>
        <time>2022-03-05T13:46:04Z</time>
      </trkpt>
      <trkpt lat="46.65262" lon="5.56013">
        <ele>350.4</ele>
        <time>2022-03-05T13:46:08Z</time>
      </trkpt>
      <trkpt lat="46.65266" lon="5.56022">
        <ele>350.8</ele>
        <time>2022-03-05T13:46:10Z</time>
      </trkpt>
      <trkpt lat="46.65284" lon="5.56054">
        <ele>351.4</ele>
        <time>2022-03-05T13:46:17Z</time>
      </trkpt>
      <trkpt lat="46.65292" lon="5.56073">
        <ele>351.8</ele>
        <time>2022-03-05T13:46:21Z</time>
      </trkpt>
      <trkpt lat="46.65299" lon="5.56086">
        <ele>352.2</ele>
        <time>2022-03-05T13:46:24Z</time>
      </trkpt>
      <trkpt lat="46.65314" lon="5.56108">
        <ele>353.2</ele>
        <time>2022-03-05T13:46:30Z</time>
      </trkpt>
      <trkpt lat="46.65321" lon="5.56112">
        <ele>354</ele>
        <time>2022-03-05T13:46:32Z</time>
      </trkpt>
      <trkpt lat="46.65324" lon="5.56114">
        <ele>354.6</ele>
        <time>2022-03-05T13:46:33Z</time>
      </trkpt>
      <trkpt lat="46.65335" lon="5.56122">
        <ele>355.8</ele>
        <time>2022-03-05T13:46:37Z</time>
      </trkpt>
      <trkpt lat="46.65343" lon="5.56128">
        <ele>356.4</ele>
        <time>2022-03-05T13:46:40Z</time>
      </trkpt>
      <trkpt lat="46.65347" lon="5.56133">
        <ele>357.4</ele>
        <time>2022-03-05T13:46:42Z</time>
      </trkpt>
      <trkpt lat="46.65354" lon="5.56141">
        <ele>358.4</ele>
        <time>2022-03-05T13:46:45Z</time>
      </trkpt>
      <trkpt lat="46.65361" lon="5.5615">
        <ele>359.6</ele>
        <time>2022-03-05T13:46:48Z</time>
      </trkpt>
      <trkpt lat="46.65372" lon="5.56165">
        <ele>360.8</ele>
        <time>2022-03-05T13:46:53Z</time>
      </trkpt>
      <trkpt lat="46.65374" lon="5.56168">
        <ele>361.2</ele>
        <time>2022-03-05T13:46:54Z</time>
      </trkpt>
      <trkpt lat="46.65381" lon="5.56176">
        <ele>362.2</ele>
        <time>2022-03-05T13:46:57Z</time>
      </trkpt>
      <trkpt lat="46.65389" lon="5.56186">
        <ele>363.4</ele>
        <time>2022-03-05T13:47:01Z</time>
      </trkpt>
      <trkpt lat="46.65391" lon="5.56188">
        <ele>363.6</ele>
        <time>2022-03-05T13:47:02Z</time>
      </trkpt>
      <trkpt lat="46.65398" lon="5.56196">
        <ele>364.4</ele>
        <time>2022-03-05T13:47:05Z</time>
      </trkpt>
      <trkpt lat="46.65408" lon="5.56206">
        <ele>365.6</ele>
        <time>2022-03-05T13:47:09Z</time>
      </trkpt>
      <trkpt lat="46.65411" lon="5.56209">
        <ele>365.8</ele>
        <time>2022-03-05T13:47:10Z</time>
      </trkpt>
      <trkpt lat="46.6542" lon="5.56216">
        <ele>367</ele>
        <time>2022-03-05T13:47:14Z</time>
      </trkpt>
      <trkpt lat="46.65428" lon="5.56223">
        <ele>367.4</ele>
        <time>2022-03-05T13:47:17Z</time>
      </trkpt>
      <trkpt lat="46.65436" lon="5.56231">
        <ele>368</ele>
        <time>2022-03-05T13:47:20Z</time>
      </trkpt>
      <trkpt lat="46.65449" lon="5.5624">
        <ele>368.6</ele>
        <time>2022-03-05T13:47:24Z</time>
      </trkpt>
      <trkpt lat="46.65457" lon="5.56247">
        <ele>369</ele>
        <time>2022-03-05T13:47:27Z</time>
      </trkpt>
      <trkpt lat="46.65466" lon="5.56253">
        <ele>369.4</ele>
        <time>2022-03-05T13:47:30Z</time>
      </trkpt>
      <trkpt lat="46.65473" lon="5.56258">
        <ele>369.8</ele>
        <time>2022-03-05T13:47:32Z</time>
      </trkpt>
      <trkpt lat="46.65481" lon="5.56263">
        <ele>370.2</ele>
        <time>2022-03-05T13:47:34Z</time>
      </trkpt>
      <trkpt lat="46.65501" lon="5.56274">
        <ele>370.8</ele>
        <time>2022-03-05T13:47:40Z</time>
      </trkpt>
      <trkpt lat="46.65514" lon="5.5628">
        <ele>371.4</ele>
        <time>2022-03-05T13:47:43Z</time>
      </trkpt>
      <trkpt lat="46.65528" lon="5.56286">
        <ele>372</ele>
        <time>2022-03-05T13:47:47Z</time>
      </trkpt>
      <trkpt lat="46.65534" lon="5.56288">
        <ele>372.4</ele>
        <time>2022-03-05T13:47:49Z</time>
      </trkpt>
      <trkpt lat="46.65547" lon="5.56292">
        <ele>373.4</ele>
        <time>2022-03-05T13:47:53Z</time>
      </trkpt>
      <trkpt lat="46.65549" lon="5.56293">
        <ele>373.6</ele>
        <time>2022-03-05T13:47:54Z</time>
      </trkpt>
      <trkpt lat="46.65568" lon="5.56302">
        <ele>374.6</ele>
        <time>2022-03-05T13:48:00Z</time>
      </trkpt>
      <trkpt lat="46.65579" lon="5.56306">
        <ele>375.4</ele>
        <time>2022-03-05T13:48:03Z</time>
      </trkpt>
      <trkpt lat="46.65589" lon="5.56312">
        <ele>376</ele>
        <time>2022-03-05T13:48:06Z</time>
      </trkpt>
      <trkpt lat="46.65605" lon="5.56321">
        <ele>377</ele>
        <time>2022-03-05T13:48:11Z</time>
      </trkpt>
      <trkpt lat="46.65608" lon="5.56323">
        <ele>377</ele>
        <time>2022-03-05T13:48:12Z</time>
      </trkpt>
      <trkpt lat="46.65625" lon="5.56331">
        <ele>378.2</ele>
        <time>2022-03-05T13:48:17Z</time>
      </trkpt>
      <trkpt lat="46.65636" lon="5.56337">
        <ele>379</ele>
        <time>2022-03-05T13:48:20Z</time>
      </trkpt>
      <trkpt lat="46.65642" lon="5.56341">
        <ele>379.4</ele>
        <time>2022-03-05T13:48:22Z</time>
      </trkpt>
      <trkpt lat="46.65658" lon="5.56352">
        <ele>380.4</ele>
        <time>2022-03-05T13:48:27Z</time>
      </trkpt>
      <trkpt lat="46.65664" lon="5.56358">
        <ele>380.8</ele>
        <time>2022-03-05T13:48:29Z</time>
      </trkpt>
      <trkpt lat="46.65672" lon="5.56372">
        <ele>381.8</ele>
        <time>2022-03-05T13:48:33Z</time>
      </trkpt>
      <trkpt lat="46.65675" lon="5.5638">
        <ele>382.2</ele>
        <time>2022-03-05T13:48:35Z</time>
      </trkpt>
      <trkpt lat="46.6568" lon="5.56404">
        <ele>383</ele>
        <time>2022-03-05T13:48:40Z</time>
      </trkpt>
      <trkpt lat="46.65683" lon="5.56421">
        <ele>383.8</ele>
        <time>2022-03-05T13:48:44Z</time>
      </trkpt>
      <trkpt lat="46.65685" lon="5.56425">
        <ele>384.2</ele>
        <time>2022-03-05T13:48:45Z</time>
      </trkpt>
      <trkpt lat="46.65694" lon="5.56432">
        <ele>384.6</ele>
        <time>2022-03-05T13:48:48Z</time>
      </trkpt>
      <trkpt lat="46.65703" lon="5.56431">
        <ele>385.4</ele>
        <time>2022-03-05T13:48:51Z</time>
      </trkpt>
      <trkpt lat="46.6571" lon="5.56427">
        <ele>385.6</ele>
        <time>2022-03-05T13:48:53Z</time>
      </trkpt>
      <trkpt lat="46.65722" lon="5.56418">
        <ele>386.4</ele>
        <time>2022-03-05T13:48:57Z</time>
      </trkpt>
      <trkpt lat="46.65736" lon="5.56408">
        <ele>387.2</ele>
        <time>2022-03-05T13:49:01Z</time>
      </trkpt>
      <trkpt lat="46.65745" lon="5.56401">
        <ele>387.4</ele>
        <time>2022-03-05T13:49:04Z</time>
      </trkpt>
      <trkpt lat="46.65761" lon="5.56392">
        <ele>388.4</ele>
        <time>2022-03-05T13:49:09Z</time>
      </trkpt>
      <trkpt lat="46.65765" lon="5.56389">
        <ele>388.6</ele>
        <time>2022-03-05T13:49:10Z</time>
      </trkpt>
      <trkpt lat="46.65784" lon="5.56377">
        <ele>389.6</ele>
        <time>2022-03-05T13:49:16Z</time>
      </trkpt>
      <trkpt lat="46.65788" lon="5.56375">
        <ele>390.4</ele>
        <time>2022-03-05T13:49:17Z</time>
      </trkpt>
      <trkpt lat="46.6581" lon="5.56363">
        <ele>391.2</ele>
        <time>2022-03-05T13:49:23Z</time>
      </trkpt>
      <trkpt lat="46.65817" lon="5.56359">
        <ele>391.6</ele>
        <time>2022-03-05T13:49:25Z</time>
      </trkpt>
      <trkpt lat="46.6582" lon="5.56357">
        <ele>392.2</ele>
        <time>2022-03-05T13:49:26Z</time>
      </trkpt>
      <trkpt lat="46.65837" lon="5.56345">
        <ele>393.2</ele>
        <time>2022-03-05T13:49:31Z</time>
      </trkpt>
      <trkpt lat="46.6584" lon="5.56342">
        <ele>393.6</ele>
        <time>2022-03-05T13:49:32Z</time>
      </trkpt>
      <trkpt lat="46.6585" lon="5.56336">
        <ele>394.4</ele>
        <time>2022-03-05T13:49:35Z</time>
      </trkpt>
      <trkpt lat="46.65864" lon="5.56327">
        <ele>395.6</ele>
        <time>2022-03-05T13:49:39Z</time>
      </trkpt>
      <trkpt lat="46.65874" lon="5.56321">
        <ele>396.2</ele>
        <time>2022-03-05T13:49:42Z</time>
      </trkpt>
      <trkpt lat="46.6588" lon="5.56315">
        <ele>396.8</ele>
        <time>2022-03-05T13:49:44Z</time>
      </trkpt>
      <trkpt lat="46.65892" lon="5.56299">
        <ele>397.8</ele>
        <time>2022-03-05T13:49:49Z</time>
      </trkpt>
      <trkpt lat="46.659" lon="5.5628">
        <ele>399</ele>
        <time>2022-03-05T13:49:54Z</time>
      </trkpt>
      <trkpt lat="46.65905" lon="5.56268">
        <ele>399.6</ele>
        <time>2022-03-05T13:49:57Z</time>
      </trkpt>
      <trkpt lat="46.65909" lon="5.56255">
        <ele>400.2</ele>
        <time>2022-03-05T13:50:00Z</time>
      </trkpt>
      <trkpt lat="46.65916" lon="5.56231">
        <ele>401.4</ele>
        <time>2022-03-05T13:50:06Z</time>
      </trkpt>
      <trkpt lat="46.65921" lon="5.56207">
        <ele>402.6</ele>
        <time>2022-03-05T13:50:12Z</time>
      </trkpt>
      <trkpt lat="46.65923" lon="5.56198">
        <ele>403.2</ele>
        <time>2022-03-05T13:50:14Z</time>
      </trkpt>
      <trkpt lat="46.65923" lon="5.56189">
        <ele>403.6</ele>
        <time>2022-03-05T13:50:16Z</time>
      </trkpt>
      <trkpt lat="46.65926" lon="5.56163">
        <ele>404.8</ele>
        <time>2022-03-05T13:50:22Z</time>
      </trkpt>
      <trkpt lat="46.6593" lon="5.5614">
        <ele>406</ele>
        <time>2022-03-05T13:50:27Z</time>
      </trkpt>
      <trkpt lat="46.65935" lon="5.56119">
        <ele>407</ele>
        <time>2022-03-05T13:50:32Z</time>
      </trkpt>
      <trkpt lat="46.65938" lon="5.56101">
        <ele>408.4</ele>
        <time>2022-03-05T13:50:36Z</time>
      </trkpt>
      <trkpt lat="46.65939" lon="5.56092">
        <ele>409</ele>
        <time>2022-03-05T13:50:38Z</time>
      </trkpt>
      <trkpt lat="46.65942" lon="5.56072">
        <ele>409.8</ele>
        <time>2022-03-05T13:50:42Z</time>
      </trkpt>
      <trkpt lat="46.65945" lon="5.56058">
        <ele>410.2</ele>
        <time>2022-03-05T13:50:45Z</time>
      </trkpt>
      <trkpt lat="46.65954" lon="5.56047">
        <ele>410.6</ele>
        <time>2022-03-05T13:50:49Z</time>
      </trkpt>
      <trkpt lat="46.65957" lon="5.56046">
        <ele>411</ele>
        <time>2022-03-05T13:50:50Z</time>
      </trkpt>
      <trkpt lat="46.65963" lon="5.56047">
        <ele>411.6</ele>
        <time>2022-03-05T13:50:52Z</time>
      </trkpt>
      <trkpt lat="46.65966" lon="5.5605">
        <ele>411.6</ele>
        <time>2022-03-05T13:50:53Z</time>
      </trkpt>
      <trkpt lat="46.65968" lon="5.56053">
        <ele>412</ele>
        <time>2022-03-05T13:50:54Z</time>
      </trkpt>
      <trkpt lat="46.65972" lon="5.56066">
        <ele>413.2</ele>
        <time>2022-03-05T13:50:57Z</time>
      </trkpt>
      <trkpt lat="46.65971" lon="5.56085">
        <ele>414.4</ele>
        <time>2022-03-05T13:51:01Z</time>
      </trkpt>
      <trkpt lat="46.6597" lon="5.5609">
        <ele>414.6</ele>
        <time>2022-03-05T13:51:02Z</time>
      </trkpt>
      <trkpt lat="46.65967" lon="5.56107">
        <ele>415.6</ele>
        <time>2022-03-05T13:51:06Z</time>
      </trkpt>
      <trkpt lat="46.65967" lon="5.56121">
        <ele>415.8</ele>
        <time>2022-03-05T13:51:09Z</time>
      </trkpt>
      <trkpt lat="46.65969" lon="5.56141">
        <ele>416.6</ele>
        <time>2022-03-05T13:51:13Z</time>
      </trkpt>
      <trkpt lat="46.65975" lon="5.56164">
        <ele>417.4</ele>
        <time>2022-03-05T13:51:18Z</time>
      </trkpt>
      <trkpt lat="46.65977" lon="5.56168">
        <ele>417.6</ele>
        <time>2022-03-05T13:51:19Z</time>
      </trkpt>
      <trkpt lat="46.65983" lon="5.5618">
        <ele>418.2</ele>
        <time>2022-03-05T13:51:22Z</time>
      </trkpt>
      <trkpt lat="46.65987" lon="5.56188">
        <ele>418.4</ele>
        <time>2022-03-05T13:51:24Z</time>
      </trkpt>
      <trkpt lat="46.65992" lon="5.56195">
        <ele>418.8</ele>
        <time>2022-03-05T13:51:26Z</time>
      </trkpt>
      <trkpt lat="46.66006" lon="5.56209">
        <ele>420.2</ele>
        <time>2022-03-05T13:51:31Z</time>
      </trkpt>
      <trkpt lat="46.6603" lon="5.56221">
        <ele>421.4</ele>
        <time>2022-03-05T13:51:38Z</time>
      </trkpt>
      <trkpt lat="46.66036" lon="5.56224">
        <ele>422</ele>
        <time>2022-03-05T13:51:40Z</time>
      </trkpt>
      <trkpt lat="46.66046" lon="5.56231">
        <ele>422.6</ele>
        <time>2022-03-05T13:51:43Z</time>
      </trkpt>
      <trkpt lat="46.66056" lon="5.5624">
        <ele>423.4</ele>
        <time>2022-03-05T13:51:47Z</time>
      </trkpt>
      <trkpt lat="46.66058" lon="5.56246">
        <ele>423.8</ele>
        <time>2022-03-05T13:51:49Z</time>
      </trkpt>
      <trkpt lat="46.66059" lon="5.56251">
        <ele>424.2</ele>
        <time>2022-03-05T13:51:51Z</time>
      </trkpt>
      <trkpt lat="46.66056" lon="5.5626">
        <ele>425</ele>
        <time>2022-03-05T13:51:54Z</time>
      </trkpt>
      <trkpt lat="46.66051" lon="5.5627">
        <ele>425.4</ele>
        <time>2022-03-05T13:51:57Z</time>
      </trkpt>
      <trkpt lat="46.66048" lon="5.56277">
        <ele>426.2</ele>
        <time>2022-03-05T13:51:59Z</time>
      </trkpt>
      <trkpt lat="46.66045" lon="5.56288">
        <ele>427</ele>
        <time>2022-03-05T13:52:02Z</time>
      </trkpt>
      <trkpt lat="46.66043" lon="5.56296">
        <ele>427.4</ele>
        <time>2022-03-05T13:52:04Z</time>
      </trkpt>
      <trkpt lat="46.66037" lon="5.56311">
        <ele>428.4</ele>
        <time>2022-03-05T13:52:08Z</time>
      </trkpt>
      <trkpt lat="46.66032" lon="5.56328">
        <ele>429.6</ele>
        <time>2022-03-05T13:52:12Z</time>
      </trkpt>
      <trkpt lat="46.66028" lon="5.5634">
        <ele>430.4</ele>
        <time>2022-03-05T13:52:15Z</time>
      </trkpt>
      <trkpt lat="46.66025" lon="5.56348">
        <ele>431</ele>
        <time>2022-03-05T13:52:17Z</time>
      </trkpt>
      <trkpt lat="46.66019" lon="5.56366">
        <ele>432</ele>
        <time>2022-03-05T13:52:22Z</time>
      </trkpt>
      <trkpt lat="46.66017" lon="5.56373">
        <ele>433.2</ele>
        <time>2022-03-05T13:52:24Z</time>
      </trkpt>
      <trkpt lat="46.66016" lon="5.56376">
        <ele>433.4</ele>
        <time>2022-03-05T13:52:25Z</time>
      </trkpt>
      <trkpt lat="46.66013" lon="5.5639">
        <ele>434.4</ele>
        <time>2022-03-05T13:52:29Z</time>
      </trkpt>
      <trkpt lat="46.66009" lon="5.56404">
        <ele>435.4</ele>
        <time>2022-03-05T13:52:33Z</time>
      </trkpt>
      <trkpt lat="46.66008" lon="5.56408">
        <ele>435.6</ele>
        <time>2022-03-05T13:52:34Z</time>
      </trkpt>
      <trkpt lat="46.66005" lon="5.56423">
        <ele>436.4</ele>
        <time>2022-03-05T13:52:38Z</time>
      </trkpt>
      <trkpt lat="46.66003" lon="5.56438">
        <ele>437.6</ele>
        <time>2022-03-05T13:52:42Z</time>
      </trkpt>
      <trkpt lat="46.66003" lon="5.56447">
        <ele>438.2</ele>
        <time>2022-03-05T13:52:44Z</time>
      </trkpt>
      <trkpt lat="46.66003" lon="5.56457">
        <ele>438.8</ele>
        <time>2022-03-05T13:52:46Z</time>
      </trkpt>
      <trkpt lat="46.66" lon="5.56482">
        <ele>440.2</ele>
        <time>2022-03-05T13:52:51Z</time>
      </trkpt>
      <trkpt lat="46.65996" lon="5.56507">
        <ele>441.4</ele>
        <time>2022-03-05T13:52:56Z</time>
      </trkpt>
      <trkpt lat="46.65992" lon="5.56517">
        <ele>441.6</ele>
        <time>2022-03-05T13:52:58Z</time>
      </trkpt>
      <trkpt lat="46.65986" lon="5.5653">
        <ele>442.6</ele>
        <time>2022-03-05T13:53:01Z</time>
      </trkpt>
      <trkpt lat="46.65975" lon="5.56552">
        <ele>443.4</ele>
        <time>2022-03-05T13:53:06Z</time>
      </trkpt>
      <trkpt lat="46.65973" lon="5.56557">
        <ele>443.6</ele>
        <time>2022-03-05T13:53:07Z</time>
      </trkpt>
      <trkpt lat="46.65963" lon="5.56575">
        <ele>444.6</ele>
        <time>2022-03-05T13:53:12Z</time>
      </trkpt>
      <trkpt lat="46.65961" lon="5.56578">
        <ele>444.6</ele>
        <time>2022-03-05T13:53:13Z</time>
      </trkpt>
      <trkpt lat="46.6595" lon="5.56599">
        <ele>445.4</ele>
        <time>2022-03-05T13:53:18Z</time>
      </trkpt>
      <trkpt lat="46.65945" lon="5.56612">
        <ele>446</ele>
        <time>2022-03-05T13:53:21Z</time>
      </trkpt>
      <trkpt lat="46.65938" lon="5.56628">
        <ele>446.8</ele>
        <time>2022-03-05T13:53:25Z</time>
      </trkpt>
      <trkpt lat="46.65935" lon="5.56636">
        <ele>447.4</ele>
        <time>2022-03-05T13:53:27Z</time>
      </trkpt>
      <trkpt lat="46.65926" lon="5.56654">
        <ele>448</ele>
        <time>2022-03-05T13:53:31Z</time>
      </trkpt>
      <trkpt lat="46.65922" lon="5.56661">
        <ele>448.4</ele>
        <time>2022-03-05T13:53:33Z</time>
      </trkpt>
      <trkpt lat="46.65919" lon="5.56667">
        <ele>449</ele>
        <time>2022-03-05T13:53:35Z</time>
      </trkpt>
      <trkpt lat="46.65915" lon="5.56672">
        <ele>449.4</ele>
        <time>2022-03-05T13:53:37Z</time>
      </trkpt>
      <trkpt lat="46.6591" lon="5.56681">
        <ele>449.6</ele>
        <time>2022-03-05T13:53:39Z</time>
      </trkpt>
      <trkpt lat="46.65903" lon="5.56698">
        <ele>449.8</ele>
        <time>2022-03-05T13:53:42Z</time>
      </trkpt>
      <trkpt lat="46.65898" lon="5.56712">
        <ele>449.6</ele>
        <time>2022-03-05T13:53:44Z</time>
      </trkpt>
      <trkpt lat="46.65885" lon="5.56744">
        <ele>449.2</ele>
        <time>2022-03-05T13:53:49Z</time>
      </trkpt>
      <trkpt lat="46.65882" lon="5.56753">
        <ele>448.6</ele>
        <time>2022-03-05T13:53:51Z</time>
      </trkpt>
      <trkpt lat="46.65881" lon="5.56762">
        <ele>448</ele>
        <time>2022-03-05T13:53:53Z</time>
      </trkpt>
      <trkpt lat="46.65881" lon="5.56766">
        <ele>448</ele>
        <time>2022-03-05T13:53:54Z</time>
      </trkpt>
      <trkpt lat="46.65885" lon="5.5677">
        <ele>447.8</ele>
        <time>2022-03-05T13:53:56Z</time>
      </trkpt>
      <trkpt lat="46.659" lon="5.56779">
        <ele>447.6</ele>
        <time>2022-03-05T13:54:01Z</time>
      </trkpt>
      <trkpt lat="46.65902" lon="5.56785">
        <ele>447.6</ele>
        <time>2022-03-05T13:54:03Z</time>
      </trkpt>
      <trkpt lat="46.65902" lon="5.56789">
        <ele>447.4</ele>
        <time>2022-03-05T13:54:04Z</time>
      </trkpt>
      <trkpt lat="46.65909" lon="5.56816">
        <ele>446.6</ele>
        <time>2022-03-05T13:54:09Z</time>
      </trkpt>
      <trkpt lat="46.65913" lon="5.5683">
        <ele>446.4</ele>
        <time>2022-03-05T13:54:11Z</time>
      </trkpt>
      <trkpt lat="46.65923" lon="5.56861">
        <ele>446</ele>
        <time>2022-03-05T13:54:15Z</time>
      </trkpt>
      <trkpt lat="46.6594" lon="5.56897">
        <ele>444.8</ele>
        <time>2022-03-05T13:54:20Z</time>
      </trkpt>
      <trkpt lat="46.65948" lon="5.56911">
        <ele>444</ele>
        <time>2022-03-05T13:54:22Z</time>
      </trkpt>
      <trkpt lat="46.65953" lon="5.56919">
        <ele>443.2</ele>
        <time>2022-03-05T13:54:23Z</time>
      </trkpt>
      <trkpt lat="46.65974" lon="5.5695">
        <ele>442.2</ele>
        <time>2022-03-05T13:54:27Z</time>
      </trkpt>
      <trkpt lat="46.65991" lon="5.56976">
        <ele>441.2</ele>
        <time>2022-03-05T13:54:30Z</time>
      </trkpt>
      <trkpt lat="46.65997" lon="5.56983">
        <ele>441</ele>
        <time>2022-03-05T13:54:31Z</time>
      </trkpt>
      <trkpt lat="46.6601" lon="5.56994">
        <ele>440</ele>
        <time>2022-03-05T13:54:33Z</time>
      </trkpt>
      <trkpt lat="46.66026" lon="5.56999">
        <ele>439.2</ele>
        <time>2022-03-05T13:54:35Z</time>
      </trkpt>
      <trkpt lat="46.66034" lon="5.56999">
        <ele>438.4</ele>
        <time>2022-03-05T13:54:36Z</time>
      </trkpt>
      <trkpt lat="46.66043" lon="5.56999">
        <ele>438</ele>
        <time>2022-03-05T13:54:37Z</time>
      </trkpt>
      <trkpt lat="46.66058" lon="5.56999">
        <ele>437</ele>
        <time>2022-03-05T13:54:39Z</time>
      </trkpt>
      <trkpt lat="46.66065" lon="5.57001">
        <ele>436.4</ele>
        <time>2022-03-05T13:54:40Z</time>
      </trkpt>
      <trkpt lat="46.66071" lon="5.57004">
        <ele>435.4</ele>
        <time>2022-03-05T13:54:41Z</time>
      </trkpt>
      <trkpt lat="46.66078" lon="5.57017">
        <ele>434.6</ele>
        <time>2022-03-05T13:54:43Z</time>
      </trkpt>
      <trkpt lat="46.66073" lon="5.57032">
        <ele>434.2</ele>
        <time>2022-03-05T13:54:45Z</time>
      </trkpt>
      <trkpt lat="46.66062" lon="5.57042">
        <ele>434</ele>
        <time>2022-03-05T13:54:47Z</time>
      </trkpt>
      <trkpt lat="46.66055" lon="5.57046">
        <ele>433.8</ele>
        <time>2022-03-05T13:54:48Z</time>
      </trkpt>
      <trkpt lat="46.66039" lon="5.57054">
        <ele>433</ele>
        <time>2022-03-05T13:54:50Z</time>
      </trkpt>
      <trkpt lat="46.66024" lon="5.57061">
        <ele>432</ele>
        <time>2022-03-05T13:54:52Z</time>
      </trkpt>
      <trkpt lat="46.66007" lon="5.57069">
        <ele>431.2</ele>
        <time>2022-03-05T13:54:54Z</time>
      </trkpt>
      <trkpt lat="46.65999" lon="5.57073">
        <ele>430.8</ele>
        <time>2022-03-05T13:54:55Z</time>
      </trkpt>
      <trkpt lat="46.65981" lon="5.57081">
        <ele>429.4</ele>
        <time>2022-03-05T13:54:57Z</time>
      </trkpt>
      <trkpt lat="46.65963" lon="5.5709">
        <ele>428.2</ele>
        <time>2022-03-05T13:54:59Z</time>
      </trkpt>
      <trkpt lat="46.65945" lon="5.57098">
        <ele>426.8</ele>
        <time>2022-03-05T13:55:01Z</time>
      </trkpt>
      <trkpt lat="46.65936" lon="5.57103">
        <ele>425.8</ele>
        <time>2022-03-05T13:55:02Z</time>
      </trkpt>
      <trkpt lat="46.65917" lon="5.57112">
        <ele>424.6</ele>
        <time>2022-03-05T13:55:04Z</time>
      </trkpt>
      <trkpt lat="46.65897" lon="5.57119">
        <ele>423.6</ele>
        <time>2022-03-05T13:55:06Z</time>
      </trkpt>
      <trkpt lat="46.65886" lon="5.57123">
        <ele>423.2</ele>
        <time>2022-03-05T13:55:07Z</time>
      </trkpt>
      <trkpt lat="46.65866" lon="5.5713">
        <ele>421.6</ele>
        <time>2022-03-05T13:55:09Z</time>
      </trkpt>
      <trkpt lat="46.65846" lon="5.57139">
        <ele>420.4</ele>
        <time>2022-03-05T13:55:11Z</time>
      </trkpt>
      <trkpt lat="46.65837" lon="5.57144">
        <ele>420</ele>
        <time>2022-03-05T13:55:12Z</time>
      </trkpt>
      <trkpt lat="46.65828" lon="5.57151">
        <ele>419.2</ele>
        <time>2022-03-05T13:55:13Z</time>
      </trkpt>
      <trkpt lat="46.65822" lon="5.57163">
        <ele>419</ele>
        <time>2022-03-05T13:55:14Z</time>
      </trkpt>
      <trkpt lat="46.65817" lon="5.57174">
        <ele>418.4</ele>
        <time>2022-03-05T13:55:15Z</time>
      </trkpt>
      <trkpt lat="46.65817" lon="5.57183">
        <ele>418.2</ele>
        <time>2022-03-05T13:55:16Z</time>
      </trkpt>
      <trkpt lat="46.65815" lon="5.57196">
        <ele>417.4</ele>
        <time>2022-03-05T13:55:17Z</time>
      </trkpt>
      <trkpt lat="46.65812" lon="5.57207">
        <ele>416.8</ele>
        <time>2022-03-05T13:55:18Z</time>
      </trkpt>
      <trkpt lat="46.65809" lon="5.57219">
        <ele>416.4</ele>
        <time>2022-03-05T13:55:19Z</time>
      </trkpt>
      <trkpt lat="46.65804" lon="5.5723">
        <ele>415.8</ele>
        <time>2022-03-05T13:55:20Z</time>
      </trkpt>
      <trkpt lat="46.658" lon="5.57243">
        <ele>415.4</ele>
        <time>2022-03-05T13:55:21Z</time>
      </trkpt>
      <trkpt lat="46.65794" lon="5.57271">
        <ele>414.6</ele>
        <time>2022-03-05T13:55:23Z</time>
      </trkpt>
      <trkpt lat="46.65794" lon="5.57284">
        <ele>414.2</ele>
        <time>2022-03-05T13:55:24Z</time>
      </trkpt>
      <trkpt lat="46.65795" lon="5.57297">
        <ele>414</ele>
        <time>2022-03-05T13:55:25Z</time>
      </trkpt>
      <trkpt lat="46.65801" lon="5.57321">
        <ele>413.2</ele>
        <time>2022-03-05T13:55:27Z</time>
      </trkpt>
      <trkpt lat="46.65805" lon="5.57332">
        <ele>413</ele>
        <time>2022-03-05T13:55:28Z</time>
      </trkpt>
      <trkpt lat="46.65812" lon="5.57356">
        <ele>411.6</ele>
        <time>2022-03-05T13:55:30Z</time>
      </trkpt>
      <trkpt lat="46.65813" lon="5.57369">
        <ele>410.4</ele>
        <time>2022-03-05T13:55:31Z</time>
      </trkpt>
      <trkpt lat="46.65815" lon="5.57398">
        <ele>409</ele>
        <time>2022-03-05T13:55:33Z</time>
      </trkpt>
      <trkpt lat="46.65818" lon="5.57412">
        <ele>407.4</ele>
        <time>2022-03-05T13:55:34Z</time>
      </trkpt>
      <trkpt lat="46.65827" lon="5.57439">
        <ele>406</ele>
        <time>2022-03-05T13:55:36Z</time>
      </trkpt>
      <trkpt lat="46.65832" lon="5.57454">
        <ele>405.6</ele>
        <time>2022-03-05T13:55:37Z</time>
      </trkpt>
      <trkpt lat="46.65835" lon="5.57469">
        <ele>405</ele>
        <time>2022-03-05T13:55:38Z</time>
      </trkpt>
      <trkpt lat="46.65836" lon="5.575">
        <ele>404</ele>
        <time>2022-03-05T13:55:40Z</time>
      </trkpt>
      <trkpt lat="46.65833" lon="5.57515">
        <ele>403.6</ele>
        <time>2022-03-05T13:55:41Z</time>
      </trkpt>
      <trkpt lat="46.65826" lon="5.57545">
        <ele>401.8</ele>
        <time>2022-03-05T13:55:43Z</time>
      </trkpt>
      <trkpt lat="46.65818" lon="5.57576">
        <ele>400.4</ele>
        <time>2022-03-05T13:55:45Z</time>
      </trkpt>
      <trkpt lat="46.65812" lon="5.57608">
        <ele>398.6</ele>
        <time>2022-03-05T13:55:47Z</time>
      </trkpt>
      <trkpt lat="46.65806" lon="5.57661">
        <ele>395.2</ele>
        <time>2022-03-05T13:55:50Z</time>
      </trkpt>
      <trkpt lat="46.65801" lon="5.57696">
        <ele>393.6</ele>
        <time>2022-03-05T13:55:52Z</time>
      </trkpt>
      <trkpt lat="46.65798" lon="5.57714">
        <ele>393.2</ele>
        <time>2022-03-05T13:55:53Z</time>
      </trkpt>
      <trkpt lat="46.65794" lon="5.57731">
        <ele>392.4</ele>
        <time>2022-03-05T13:55:54Z</time>
      </trkpt>
      <trkpt lat="46.65787" lon="5.57765">
        <ele>391</ele>
        <time>2022-03-05T13:55:56Z</time>
      </trkpt>
      <trkpt lat="46.65784" lon="5.57799">
        <ele>389.4</ele>
        <time>2022-03-05T13:55:58Z</time>
      </trkpt>
      <trkpt lat="46.65783" lon="5.57832">
        <ele>388.4</ele>
        <time>2022-03-05T13:56:00Z</time>
      </trkpt>
      <trkpt lat="46.65781" lon="5.57847">
        <ele>387.4</ele>
        <time>2022-03-05T13:56:01Z</time>
      </trkpt>
      <trkpt lat="46.65779" lon="5.57863">
        <ele>387</ele>
        <time>2022-03-05T13:56:02Z</time>
      </trkpt>
      <trkpt lat="46.65775" lon="5.57878">
        <ele>385.8</ele>
        <time>2022-03-05T13:56:03Z</time>
      </trkpt>
      <trkpt lat="46.6577" lon="5.57909">
        <ele>384.2</ele>
        <time>2022-03-05T13:56:05Z</time>
      </trkpt>
      <trkpt lat="46.6577" lon="5.57925">
        <ele>384</ele>
        <time>2022-03-05T13:56:06Z</time>
      </trkpt>
      <trkpt lat="46.65771" lon="5.57958">
        <ele>382.6</ele>
        <time>2022-03-05T13:56:08Z</time>
      </trkpt>
      <trkpt lat="46.65771" lon="5.57988">
        <ele>381.4</ele>
        <time>2022-03-05T13:56:10Z</time>
      </trkpt>
      <trkpt lat="46.65771" lon="5.58001">
        <ele>381</ele>
        <time>2022-03-05T13:56:11Z</time>
      </trkpt>
      <trkpt lat="46.65768" lon="5.58013">
        <ele>379.6</ele>
        <time>2022-03-05T13:56:12Z</time>
      </trkpt>
      <trkpt lat="46.65765" lon="5.58024">
        <ele>378.8</ele>
        <time>2022-03-05T13:56:13Z</time>
      </trkpt>
      <trkpt lat="46.6576" lon="5.58034">
        <ele>378</ele>
        <time>2022-03-05T13:56:14Z</time>
      </trkpt>
      <trkpt lat="46.65749" lon="5.58057">
        <ele>376.8</ele>
        <time>2022-03-05T13:56:16Z</time>
      </trkpt>
      <trkpt lat="46.65742" lon="5.58087">
        <ele>375.6</ele>
        <time>2022-03-05T13:56:18Z</time>
      </trkpt>
      <trkpt lat="46.65741" lon="5.58101">
        <ele>375</ele>
        <time>2022-03-05T13:56:19Z</time>
      </trkpt>
      <trkpt lat="46.6574" lon="5.58116">
        <ele>374.6</ele>
        <time>2022-03-05T13:56:20Z</time>
      </trkpt>
      <trkpt lat="46.6574" lon="5.58132">
        <ele>373.8</ele>
        <time>2022-03-05T13:56:21Z</time>
      </trkpt>
      <trkpt lat="46.65739" lon="5.58164">
        <ele>372</ele>
        <time>2022-03-05T13:56:23Z</time>
      </trkpt>
      <trkpt lat="46.65737" lon="5.5818">
        <ele>370.2</ele>
        <time>2022-03-05T13:56:24Z</time>
      </trkpt>
      <trkpt lat="46.65735" lon="5.58196">
        <ele>369.2</ele>
        <time>2022-03-05T13:56:25Z</time>
      </trkpt>
      <trkpt lat="46.65731" lon="5.5821">
        <ele>368</ele>
        <time>2022-03-05T13:56:26Z</time>
      </trkpt>
      <trkpt lat="46.65727" lon="5.58224">
        <ele>367.8</ele>
        <time>2022-03-05T13:56:27Z</time>
      </trkpt>
      <trkpt lat="46.65717" lon="5.5825">
        <ele>366.8</ele>
        <time>2022-03-05T13:56:29Z</time>
      </trkpt>
      <trkpt lat="46.65709" lon="5.58271">
        <ele>365.6</ele>
        <time>2022-03-05T13:56:31Z</time>
      </trkpt>
      <trkpt lat="46.65704" lon="5.58295">
        <ele>363.6</ele>
        <time>2022-03-05T13:56:33Z</time>
      </trkpt>
      <trkpt lat="46.65703" lon="5.58306">
        <ele>363.2</ele>
        <time>2022-03-05T13:56:34Z</time>
      </trkpt>
      <trkpt lat="46.65702" lon="5.58321">
        <ele>362.2</ele>
        <time>2022-03-05T13:56:35Z</time>
      </trkpt>
      <trkpt lat="46.65704" lon="5.58345">
        <ele>361</ele>
        <time>2022-03-05T13:56:37Z</time>
      </trkpt>
      <trkpt lat="46.6571" lon="5.5837">
        <ele>359.4</ele>
        <time>2022-03-05T13:56:39Z</time>
      </trkpt>
      <trkpt lat="46.65711" lon="5.58382">
        <ele>358.8</ele>
        <time>2022-03-05T13:56:40Z</time>
      </trkpt>
      <trkpt lat="46.65711" lon="5.58393">
        <ele>358.6</ele>
        <time>2022-03-05T13:56:41Z</time>
      </trkpt>
      <trkpt lat="46.65709" lon="5.58405">
        <ele>358.2</ele>
        <time>2022-03-05T13:56:42Z</time>
      </trkpt>
      <trkpt lat="46.65701" lon="5.58428">
        <ele>357.8</ele>
        <time>2022-03-05T13:56:44Z</time>
      </trkpt>
      <trkpt lat="46.65697" lon="5.58439">
        <ele>357.4</ele>
        <time>2022-03-05T13:56:45Z</time>
      </trkpt>
      <trkpt lat="46.65694" lon="5.58452">
        <ele>356.4</ele>
        <time>2022-03-05T13:56:46Z</time>
      </trkpt>
      <trkpt lat="46.65693" lon="5.58467">
        <ele>356.2</ele>
        <time>2022-03-05T13:56:47Z</time>
      </trkpt>
      <trkpt lat="46.65694" lon="5.58481">
        <ele>355</ele>
        <time>2022-03-05T13:56:48Z</time>
      </trkpt>
      <trkpt lat="46.65695" lon="5.58496">
        <ele>353.8</ele>
        <time>2022-03-05T13:56:49Z</time>
      </trkpt>
      <trkpt lat="46.65699" lon="5.58526">
        <ele>352.2</ele>
        <time>2022-03-05T13:56:51Z</time>
      </trkpt>
      <trkpt lat="46.657" lon="5.58542">
        <ele>351.8</ele>
        <time>2022-03-05T13:56:52Z</time>
      </trkpt>
      <trkpt lat="46.65702" lon="5.58556">
        <ele>351</ele>
        <time>2022-03-05T13:56:53Z</time>
      </trkpt>
      <trkpt lat="46.65701" lon="5.58583">
        <ele>350</ele>
        <time>2022-03-05T13:56:55Z</time>
      </trkpt>
      <trkpt lat="46.65699" lon="5.58596">
        <ele>349.4</ele>
        <time>2022-03-05T13:56:56Z</time>
      </trkpt>
      <trkpt lat="46.65693" lon="5.58623">
        <ele>348</ele>
        <time>2022-03-05T13:56:58Z</time>
      </trkpt>
      <trkpt lat="46.65687" lon="5.58649">
        <ele>346.2</ele>
        <time>2022-03-05T13:57:00Z</time>
      </trkpt>
      <trkpt lat="46.65683" lon="5.58663">
        <ele>345.6</ele>
        <time>2022-03-05T13:57:01Z</time>
      </trkpt>
      <trkpt lat="46.6568" lon="5.58676">
        <ele>344.8</ele>
        <time>2022-03-05T13:57:02Z</time>
      </trkpt>
      <trkpt lat="46.6567" lon="5.5871">
        <ele>343</ele>
        <time>2022-03-05T13:57:05Z</time>
      </trkpt>
      <trkpt lat="46.65665" lon="5.5873">
        <ele>341.6</ele>
        <time>2022-03-05T13:57:07Z</time>
      </trkpt>
      <trkpt lat="46.65659" lon="5.58749">
        <ele>340.4</ele>
        <time>2022-03-05T13:57:09Z</time>
      </trkpt>
      <trkpt lat="46.65655" lon="5.58765">
        <ele>339.8</ele>
        <time>2022-03-05T13:57:11Z</time>
      </trkpt>
      <trkpt lat="46.65656" lon="5.58773">
        <ele>339.6</ele>
        <time>2022-03-05T13:57:12Z</time>
      </trkpt>
      <trkpt lat="46.65659" lon="5.58781">
        <ele>339.4</ele>
        <time>2022-03-05T13:57:13Z</time>
      </trkpt>
      <trkpt lat="46.65669" lon="5.58793">
        <ele>338.2</ele>
        <time>2022-03-05T13:57:15Z</time>
      </trkpt>
      <trkpt lat="46.65687" lon="5.58807">
        <ele>336.8</ele>
        <time>2022-03-05T13:57:18Z</time>
      </trkpt>
      <trkpt lat="46.65699" lon="5.58815">
        <ele>335.8</ele>
        <time>2022-03-05T13:57:20Z</time>
      </trkpt>
      <trkpt lat="46.65712" lon="5.58823">
        <ele>334.6</ele>
        <time>2022-03-05T13:57:22Z</time>
      </trkpt>
      <trkpt lat="46.65725" lon="5.5883">
        <ele>333.4</ele>
        <time>2022-03-05T13:57:24Z</time>
      </trkpt>
      <trkpt lat="46.65741" lon="5.58839">
        <ele>332.2</ele>
        <time>2022-03-05T13:57:27Z</time>
      </trkpt>
      <trkpt lat="46.65745" lon="5.58841">
        <ele>331.8</ele>
        <time>2022-03-05T13:57:28Z</time>
      </trkpt>
      <trkpt lat="46.65755" lon="5.58847">
        <ele>331</ele>
        <time>2022-03-05T13:57:31Z</time>
      </trkpt>
      <trkpt lat="46.65758" lon="5.58848">
        <ele>331</ele>
        <time>2022-03-05T13:57:32Z</time>
      </trkpt>
      <trkpt lat="46.65774" lon="5.58851">
        <ele>329.8</ele>
        <time>2022-03-05T13:57:36Z</time>
      </trkpt>
      <trkpt lat="46.6578" lon="5.58848">
        <ele>328.8</ele>
        <time>2022-03-05T13:57:39Z</time>
      </trkpt>
      <trkpt lat="46.65783" lon="5.58842">
        <ele>328.8</ele>
        <time>2022-03-05T13:57:41Z</time>
      </trkpt>
      <trkpt lat="46.65784" lon="5.5884">
        <ele>328.6</ele>
        <time>2022-03-05T13:57:42Z</time>
      </trkpt>
      <trkpt lat="46.65785" lon="5.58837">
        <ele>328.4</ele>
        <time>2022-03-05T13:57:44Z</time>
      </trkpt>
      <trkpt lat="46.65784" lon="5.58836">
        <ele>328.2</ele>
        <time>2022-03-05T13:57:45Z</time>
      </trkpt>
      <trkpt lat="46.65781" lon="5.58844">
        <ele>327.6</ele>
        <time>2022-03-05T13:57:49Z</time>
      </trkpt>
      <trkpt lat="46.65781" lon="5.58859">
        <ele>327.8</ele>
        <time>2022-03-05T13:57:54Z</time>
      </trkpt>
      <trkpt lat="46.65788" lon="5.58878">
        <ele>327.6</ele>
        <time>2022-03-05T13:57:59Z</time>
      </trkpt>
      <trkpt lat="46.65801" lon="5.58904">
        <ele>327</ele>
        <time>2022-03-05T13:58:04Z</time>
      </trkpt>
      <trkpt lat="46.65803" lon="5.58908">
        <ele>326.8</ele>
        <time>2022-03-05T13:58:05Z</time>
      </trkpt>
      <trkpt lat="46.6581" lon="5.58917">
        <ele>326</ele>
        <time>2022-03-05T13:58:07Z</time>
      </trkpt>
      <trkpt lat="46.65819" lon="5.58923">
        <ele>325.6</ele>
        <time>2022-03-05T13:58:09Z</time>
      </trkpt>
      <trkpt lat="46.65839" lon="5.58934">
        <ele>324.6</ele>
        <time>2022-03-05T13:58:14Z</time>
      </trkpt>
      <trkpt lat="46.65843" lon="5.58936">
        <ele>324.2</ele>
        <time>2022-03-05T13:58:15Z</time>
      </trkpt>
      <trkpt lat="46.65851" lon="5.58941">
        <ele>323.6</ele>
        <time>2022-03-05T13:58:17Z</time>
      </trkpt>
      <trkpt lat="46.6587" lon="5.58952">
        <ele>322.2</ele>
        <time>2022-03-05T13:58:22Z</time>
      </trkpt>
      <trkpt lat="46.65875" lon="5.58956">
        <ele>321.6</ele>
        <time>2022-03-05T13:58:24Z</time>
      </trkpt>
      <trkpt lat="46.6588" lon="5.58961">
        <ele>321.2</ele>
        <time>2022-03-05T13:58:26Z</time>
      </trkpt>
      <trkpt lat="46.65891" lon="5.58969">
        <ele>320.2</ele>
        <time>2022-03-05T13:58:30Z</time>
      </trkpt>
      <trkpt lat="46.65894" lon="5.5897">
        <ele>320.2</ele>
        <time>2022-03-05T13:58:31Z</time>
      </trkpt>
      <trkpt lat="46.65911" lon="5.58976">
        <ele>319.8</ele>
        <time>2022-03-05T13:58:37Z</time>
      </trkpt>
      <trkpt lat="46.65928" lon="5.58986">
        <ele>319</ele>
        <time>2022-03-05T13:58:42Z</time>
      </trkpt>
      <trkpt lat="46.65936" lon="5.5899">
        <ele>318.6</ele>
        <time>2022-03-05T13:58:44Z</time>
      </trkpt>
      <trkpt lat="46.65953" lon="5.58999">
        <ele>317.8</ele>
        <time>2022-03-05T13:58:48Z</time>
      </trkpt>
      <trkpt lat="46.65957" lon="5.59002">
        <ele>317.8</ele>
        <time>2022-03-05T13:58:49Z</time>
      </trkpt>
      <trkpt lat="46.65965" lon="5.59007">
        <ele>317.8</ele>
        <time>2022-03-05T13:58:51Z</time>
      </trkpt>
      <trkpt lat="46.65975" lon="5.59016">
        <ele>317.6</ele>
        <time>2022-03-05T13:58:54Z</time>
      </trkpt>
      <trkpt lat="46.65984" lon="5.59029">
        <ele>317.4</ele>
        <time>2022-03-05T13:58:59Z</time>
      </trkpt>
      <trkpt lat="46.65984" lon="5.5903">
        <ele>317.4</ele>
        <time>2022-03-05T13:59:01Z</time>
      </trkpt>
      <trkpt lat="46.65982" lon="5.59035">
        <ele>317.6</ele>
        <time>2022-03-05T13:59:07Z</time>
      </trkpt>
      <trkpt lat="46.6598" lon="5.59037">
        <ele>317.6</ele>
        <time>2022-03-05T13:59:08Z</time>
      </trkpt>
      <trkpt lat="46.65967" lon="5.59054">
        <ele>317.6</ele>
        <time>2022-03-05T13:59:13Z</time>
      </trkpt>
      <trkpt lat="46.65955" lon="5.59072">
        <ele>317.6</ele>
        <time>2022-03-05T13:59:17Z</time>
      </trkpt>
      <trkpt lat="46.65949" lon="5.59081">
        <ele>317.6</ele>
        <time>2022-03-05T13:59:19Z</time>
      </trkpt>
      <trkpt lat="46.65929" lon="5.59107">
        <ele>317.8</ele>
        <time>2022-03-05T13:59:24Z</time>
      </trkpt>
      <trkpt lat="46.659" lon="5.59145">
        <ele>318.4</ele>
        <time>2022-03-05T13:59:31Z</time>
      </trkpt>
      <trkpt lat="46.65887" lon="5.5916">
        <ele>319</ele>
        <time>2022-03-05T13:59:34Z</time>
      </trkpt>
      <trkpt lat="46.65872" lon="5.59181">
        <ele>319.4</ele>
        <time>2022-03-05T13:59:38Z</time>
      </trkpt>
      <trkpt lat="46.65845" lon="5.59218">
        <ele>319.8</ele>
        <time>2022-03-05T13:59:45Z</time>
      </trkpt>
      <trkpt lat="46.65833" lon="5.59233">
        <ele>320.2</ele>
        <time>2022-03-05T13:59:48Z</time>
      </trkpt>
      <trkpt lat="46.65809" lon="5.59265">
        <ele>321.2</ele>
        <time>2022-03-05T13:59:54Z</time>
      </trkpt>
      <trkpt lat="46.65805" lon="5.5927">
        <ele>321.4</ele>
        <time>2022-03-05T13:59:55Z</time>
      </trkpt>
      <trkpt lat="46.65777" lon="5.59308">
        <ele>322.2</ele>
        <time>2022-03-05T14:00:02Z</time>
      </trkpt>
      <trkpt lat="46.65769" lon="5.59319">
        <ele>322.4</ele>
        <time>2022-03-05T14:00:04Z</time>
      </trkpt>
      <trkpt lat="46.65743" lon="5.59351">
        <ele>322.6</ele>
        <time>2022-03-05T14:00:10Z</time>
      </trkpt>
      <trkpt lat="46.65702" lon="5.59406">
        <ele>323</ele>
        <time>2022-03-05T14:00:20Z</time>
      </trkpt>
      <trkpt lat="46.65672" lon="5.59445">
        <ele>323.4</ele>
        <time>2022-03-05T14:00:27Z</time>
      </trkpt>
      <trkpt lat="46.65637" lon="5.59491">
        <ele>324.2</ele>
        <time>2022-03-05T14:00:35Z</time>
      </trkpt>
      <trkpt lat="46.65624" lon="5.59509">
        <ele>324.6</ele>
        <time>2022-03-05T14:00:38Z</time>
      </trkpt>
      <trkpt lat="46.65615" lon="5.5952">
        <ele>324.8</ele>
        <time>2022-03-05T14:00:40Z</time>
      </trkpt>
      <trkpt lat="46.65604" lon="5.59537">
        <ele>325.2</ele>
        <time>2022-03-05T14:00:43Z</time>
      </trkpt>
      <trkpt lat="46.656" lon="5.59542">
        <ele>325.4</ele>
        <time>2022-03-05T14:00:44Z</time>
      </trkpt>
      <trkpt lat="46.65594" lon="5.59554">
        <ele>325.6</ele>
        <time>2022-03-05T14:00:46Z</time>
      </trkpt>
      <trkpt lat="46.65581" lon="5.59578">
        <ele>326.4</ele>
        <time>2022-03-05T14:00:50Z</time>
      </trkpt>
      <trkpt lat="46.65574" lon="5.59592">
        <ele>326.8</ele>
        <time>2022-03-05T14:00:52Z</time>
      </trkpt>
      <trkpt lat="46.65561" lon="5.59618">
        <ele>327.2</ele>
        <time>2022-03-05T14:00:56Z</time>
      </trkpt>
      <trkpt lat="46.65557" lon="5.59625">
        <ele>327.2</ele>
        <time>2022-03-05T14:00:57Z</time>
      </trkpt>
      <trkpt lat="46.65547" lon="5.59644">
        <ele>327.8</ele>
        <time>2022-03-05T14:01:00Z</time>
      </trkpt>
      <trkpt lat="46.6554" lon="5.59657">
        <ele>328.2</ele>
        <time>2022-03-05T14:01:02Z</time>
      </trkpt>
      <trkpt lat="46.65537" lon="5.59662">
        <ele>328.4</ele>
        <time>2022-03-05T14:01:03Z</time>
      </trkpt>
      <trkpt lat="46.65525" lon="5.59681">
        <ele>328.8</ele>
        <time>2022-03-05T14:01:06Z</time>
      </trkpt>
      <trkpt lat="46.65513" lon="5.59706">
        <ele>329.8</ele>
        <time>2022-03-05T14:01:10Z</time>
      </trkpt>
      <trkpt lat="46.65509" lon="5.59712">
        <ele>330</ele>
        <time>2022-03-05T14:01:11Z</time>
      </trkpt>
      <trkpt lat="46.65487" lon="5.59746">
        <ele>331</ele>
        <time>2022-03-05T14:01:17Z</time>
      </trkpt>
      <trkpt lat="46.65481" lon="5.59757">
        <ele>331.2</ele>
        <time>2022-03-05T14:01:19Z</time>
      </trkpt>
      <trkpt lat="46.6547" lon="5.59787">
        <ele>331.8</ele>
        <time>2022-03-05T14:01:24Z</time>
      </trkpt>
      <trkpt lat="46.65466" lon="5.59799">
        <ele>332.2</ele>
        <time>2022-03-05T14:01:26Z</time>
      </trkpt>
      <trkpt lat="46.65455" lon="5.59839">
        <ele>333</ele>
        <time>2022-03-05T14:01:32Z</time>
      </trkpt>
      <trkpt lat="46.65453" lon="5.59845">
        <ele>333.2</ele>
        <time>2022-03-05T14:01:33Z</time>
      </trkpt>
      <trkpt lat="46.65451" lon="5.5985">
        <ele>333.4</ele>
        <time>2022-03-05T14:01:34Z</time>
      </trkpt>
      <trkpt lat="46.65447" lon="5.5986">
        <ele>333.6</ele>
        <time>2022-03-05T14:01:36Z</time>
      </trkpt>
      <trkpt lat="46.65445" lon="5.59863">
        <ele>333.8</ele>
        <time>2022-03-05T14:01:37Z</time>
      </trkpt>
      <trkpt lat="46.65435" lon="5.59872">
        <ele>334.6</ele>
        <time>2022-03-05T14:01:40Z</time>
      </trkpt>
      <trkpt lat="46.65432" lon="5.59873">
        <ele>334.6</ele>
        <time>2022-03-05T14:01:41Z</time>
      </trkpt>
      <trkpt lat="46.65424" lon="5.59874">
        <ele>335.2</ele>
        <time>2022-03-05T14:01:43Z</time>
      </trkpt>
      <trkpt lat="46.65416" lon="5.59879">
        <ele>335.4</ele>
        <time>2022-03-05T14:01:45Z</time>
      </trkpt>
      <trkpt lat="46.65412" lon="5.59881">
        <ele>335.6</ele>
        <time>2022-03-05T14:01:46Z</time>
      </trkpt>
      <trkpt lat="46.65394" lon="5.59893">
        <ele>336</ele>
        <time>2022-03-05T14:01:50Z</time>
      </trkpt>
      <trkpt lat="46.65355" lon="5.5992">
        <ele>336.4</ele>
        <time>2022-03-05T14:01:58Z</time>
      </trkpt>
      <trkpt lat="46.65345" lon="5.59927">
        <ele>336.6</ele>
        <time>2022-03-05T14:02:00Z</time>
      </trkpt>
      <trkpt lat="46.65341" lon="5.59932">
        <ele>336.6</ele>
        <time>2022-03-05T14:02:01Z</time>
      </trkpt>
      <trkpt lat="46.65328" lon="5.59949">
        <ele>336.6</ele>
        <time>2022-03-05T14:02:04Z</time>
      </trkpt>
      <trkpt lat="46.65296" lon="5.59995">
        <ele>337</ele>
        <time>2022-03-05T14:02:12Z</time>
      </trkpt>
      <trkpt lat="46.65293" lon="5.6">
        <ele>337</ele>
        <time>2022-03-05T14:02:13Z</time>
      </trkpt>
      <trkpt lat="46.65277" lon="5.60015">
        <ele>337.2</ele>
        <time>2022-03-05T14:02:17Z</time>
      </trkpt>
      <trkpt lat="46.65248" lon="5.60032">
        <ele>337.6</ele>
        <time>2022-03-05T14:02:23Z</time>
      </trkpt>
      <trkpt lat="46.65238" lon="5.60037">
        <ele>337.8</ele>
        <time>2022-03-05T14:02:25Z</time>
      </trkpt>
      <trkpt lat="46.65196" lon="5.60055">
        <ele>338</ele>
        <time>2022-03-05T14:02:33Z</time>
      </trkpt>
      <trkpt lat="46.65154" lon="5.60076">
        <ele>338.6</ele>
        <time>2022-03-05T14:02:41Z</time>
      </trkpt>
      <trkpt lat="46.65143" lon="5.6008">
        <ele>339</ele>
        <time>2022-03-05T14:02:43Z</time>
      </trkpt>
      <trkpt lat="46.65097" lon="5.60101">
        <ele>339.6</ele>
        <time>2022-03-05T14:02:51Z</time>
      </trkpt>
      <trkpt lat="46.65068" lon="5.60115">
        <ele>340.2</ele>
        <time>2022-03-05T14:02:56Z</time>
      </trkpt>
      <trkpt lat="46.65056" lon="5.6012">
        <ele>340.4</ele>
        <time>2022-03-05T14:02:58Z</time>
      </trkpt>
      <trkpt lat="46.65014" lon="5.60137">
        <ele>340.4</ele>
        <time>2022-03-05T14:03:05Z</time>
      </trkpt>
      <trkpt lat="46.64969" lon="5.6015">
        <ele>340.8</ele>
        <time>2022-03-05T14:03:13Z</time>
      </trkpt>
      <trkpt lat="46.64945" lon="5.60156">
        <ele>341.4</ele>
        <time>2022-03-05T14:03:17Z</time>
      </trkpt>
      <trkpt lat="46.64934" lon="5.60158">
        <ele>341.6</ele>
        <time>2022-03-05T14:03:19Z</time>
      </trkpt>
      <trkpt lat="46.64922" lon="5.60161">
        <ele>341.8</ele>
        <time>2022-03-05T14:03:21Z</time>
      </trkpt>
      <trkpt lat="46.64888" lon="5.6017">
        <ele>342.4</ele>
        <time>2022-03-05T14:03:27Z</time>
      </trkpt>
      <trkpt lat="46.6487" lon="5.60174">
        <ele>342.8</ele>
        <time>2022-03-05T14:03:30Z</time>
      </trkpt>
      <trkpt lat="46.64835" lon="5.60183">
        <ele>343.4</ele>
        <time>2022-03-05T14:03:36Z</time>
      </trkpt>
      <trkpt lat="46.64829" lon="5.60185">
        <ele>343.4</ele>
        <time>2022-03-05T14:03:37Z</time>
      </trkpt>
      <trkpt lat="46.64795" lon="5.60191">
        <ele>344</ele>
        <time>2022-03-05T14:03:42Z</time>
      </trkpt>
      <trkpt lat="46.64759" lon="5.60199">
        <ele>344.6</ele>
        <time>2022-03-05T14:03:48Z</time>
      </trkpt>
      <trkpt lat="46.64741" lon="5.60204">
        <ele>345.2</ele>
        <time>2022-03-05T14:03:51Z</time>
      </trkpt>
      <trkpt lat="46.64718" lon="5.6021">
        <ele>345.6</ele>
        <time>2022-03-05T14:03:55Z</time>
      </trkpt>
      <trkpt lat="46.64706" lon="5.60213">
        <ele>346</ele>
        <time>2022-03-05T14:03:57Z</time>
      </trkpt>
      <trkpt lat="46.64689" lon="5.60217">
        <ele>346.4</ele>
        <time>2022-03-05T14:04:00Z</time>
      </trkpt>
      <trkpt lat="46.64678" lon="5.6022">
        <ele>346.6</ele>
        <time>2022-03-05T14:04:02Z</time>
      </trkpt>
      <trkpt lat="46.64644" lon="5.60226">
        <ele>347.6</ele>
        <time>2022-03-05T14:04:08Z</time>
      </trkpt>
      <trkpt lat="46.64627" lon="5.60229">
        <ele>347.8</ele>
        <time>2022-03-05T14:04:11Z</time>
      </trkpt>
      <trkpt lat="46.64593" lon="5.60232">
        <ele>348.6</ele>
        <time>2022-03-05T14:04:17Z</time>
      </trkpt>
      <trkpt lat="46.64571" lon="5.60233">
        <ele>349</ele>
        <time>2022-03-05T14:04:21Z</time>
      </trkpt>
      <trkpt lat="46.64532" lon="5.60232">
        <ele>349.8</ele>
        <time>2022-03-05T14:04:28Z</time>
      </trkpt>
      <trkpt lat="46.64504" lon="5.6023">
        <ele>350.6</ele>
        <time>2022-03-05T14:04:33Z</time>
      </trkpt>
      <trkpt lat="46.64493" lon="5.60229">
        <ele>351</ele>
        <time>2022-03-05T14:04:35Z</time>
      </trkpt>
      <trkpt lat="46.64454" lon="5.60223">
        <ele>352</ele>
        <time>2022-03-05T14:04:42Z</time>
      </trkpt>
      <trkpt lat="46.64432" lon="5.60218">
        <ele>352.4</ele>
        <time>2022-03-05T14:04:46Z</time>
      </trkpt>
      <trkpt lat="46.64392" lon="5.6021">
        <ele>353</ele>
        <time>2022-03-05T14:04:53Z</time>
      </trkpt>
      <trkpt lat="46.64375" lon="5.60205">
        <ele>353.2</ele>
        <time>2022-03-05T14:04:56Z</time>
      </trkpt>
      <trkpt lat="46.6432" lon="5.60193">
        <ele>354</ele>
        <time>2022-03-05T14:05:05Z</time>
      </trkpt>
      <trkpt lat="46.64314" lon="5.60192">
        <ele>354</ele>
        <time>2022-03-05T14:05:06Z</time>
      </trkpt>
      <trkpt lat="46.64308" lon="5.6019">
        <ele>354.2</ele>
        <time>2022-03-05T14:05:07Z</time>
      </trkpt>
      <trkpt lat="46.64248" lon="5.6018">
        <ele>355</ele>
        <time>2022-03-05T14:05:17Z</time>
      </trkpt>
      <trkpt lat="46.64229" lon="5.60178">
        <ele>355.2</ele>
        <time>2022-03-05T14:05:20Z</time>
      </trkpt>
      <trkpt lat="46.64188" lon="5.60175">
        <ele>355.2</ele>
        <time>2022-03-05T14:05:26Z</time>
      </trkpt>
      <trkpt lat="46.64133" lon="5.6017">
        <ele>355.8</ele>
        <time>2022-03-05T14:05:35Z</time>
      </trkpt>
      <trkpt lat="46.64122" lon="5.6017">
        <ele>356.2</ele>
        <time>2022-03-05T14:05:37Z</time>
      </trkpt>
      <trkpt lat="46.64106" lon="5.60172">
        <ele>356.8</ele>
        <time>2022-03-05T14:05:40Z</time>
      </trkpt>
      <trkpt lat="46.64101" lon="5.60174">
        <ele>357.2</ele>
        <time>2022-03-05T14:05:41Z</time>
      </trkpt>
      <trkpt lat="46.64096" lon="5.60176">
        <ele>357.4</ele>
        <time>2022-03-05T14:05:42Z</time>
      </trkpt>
      <trkpt lat="46.64077" lon="5.60184">
        <ele>358.6</ele>
        <time>2022-03-05T14:05:46Z</time>
      </trkpt>
      <trkpt lat="46.64068" lon="5.60189">
        <ele>359.2</ele>
        <time>2022-03-05T14:05:48Z</time>
      </trkpt>
      <trkpt lat="46.64063" lon="5.60191">
        <ele>359.4</ele>
        <time>2022-03-05T14:05:49Z</time>
      </trkpt>
      <trkpt lat="46.64054" lon="5.60197">
        <ele>359.8</ele>
        <time>2022-03-05T14:05:51Z</time>
      </trkpt>
      <trkpt lat="46.6404" lon="5.60204">
        <ele>360.8</ele>
        <time>2022-03-05T14:05:54Z</time>
      </trkpt>
      <trkpt lat="46.64027" lon="5.60212">
        <ele>361.6</ele>
        <time>2022-03-05T14:05:57Z</time>
      </trkpt>
      <trkpt lat="46.64018" lon="5.60217">
        <ele>362</ele>
        <time>2022-03-05T14:05:59Z</time>
      </trkpt>
      <trkpt lat="46.63994" lon="5.60226">
        <ele>363.2</ele>
        <time>2022-03-05T14:06:04Z</time>
      </trkpt>
      <trkpt lat="46.63989" lon="5.60228">
        <ele>363.4</ele>
        <time>2022-03-05T14:06:05Z</time>
      </trkpt>
      <trkpt lat="46.63975" lon="5.60235">
        <ele>364.2</ele>
        <time>2022-03-05T14:06:08Z</time>
      </trkpt>
      <trkpt lat="46.63957" lon="5.60244">
        <ele>365.4</ele>
        <time>2022-03-05T14:06:12Z</time>
      </trkpt>
      <trkpt lat="46.63935" lon="5.60255">
        <ele>366.2</ele>
        <time>2022-03-05T14:06:17Z</time>
      </trkpt>
      <trkpt lat="46.6393" lon="5.60257">
        <ele>366.4</ele>
        <time>2022-03-05T14:06:18Z</time>
      </trkpt>
      <trkpt lat="46.63899" lon="5.60274">
        <ele>367.6</ele>
        <time>2022-03-05T14:06:25Z</time>
      </trkpt>
      <trkpt lat="46.63889" lon="5.60278">
        <ele>368</ele>
        <time>2022-03-05T14:06:27Z</time>
      </trkpt>
      <trkpt lat="46.63872" lon="5.60288">
        <ele>368.4</ele>
        <time>2022-03-05T14:06:31Z</time>
      </trkpt>
      <trkpt lat="46.63867" lon="5.6029">
        <ele>368.6</ele>
        <time>2022-03-05T14:06:32Z</time>
      </trkpt>
      <trkpt lat="46.63863" lon="5.60292">
        <ele>369</ele>
        <time>2022-03-05T14:06:33Z</time>
      </trkpt>
      <trkpt lat="46.63851" lon="5.60296">
        <ele>369.6</ele>
        <time>2022-03-05T14:06:36Z</time>
      </trkpt>
      <trkpt lat="46.63847" lon="5.60299">
        <ele>369.8</ele>
        <time>2022-03-05T14:06:37Z</time>
      </trkpt>
      <trkpt lat="46.63842" lon="5.60302">
        <ele>370</ele>
        <time>2022-03-05T14:06:38Z</time>
      </trkpt>
      <trkpt lat="46.63829" lon="5.60308">
        <ele>370.8</ele>
        <time>2022-03-05T14:06:41Z</time>
      </trkpt>
      <trkpt lat="46.63824" lon="5.6031">
        <ele>371</ele>
        <time>2022-03-05T14:06:42Z</time>
      </trkpt>
      <trkpt lat="46.63792" lon="5.60327">
        <ele>372</ele>
        <time>2022-03-05T14:06:49Z</time>
      </trkpt>
      <trkpt lat="46.63783" lon="5.60332">
        <ele>372.6</ele>
        <time>2022-03-05T14:06:51Z</time>
      </trkpt>
      <trkpt lat="46.63757" lon="5.60345">
        <ele>373.2</ele>
        <time>2022-03-05T14:06:56Z</time>
      </trkpt>
      <trkpt lat="46.63719" lon="5.60365">
        <ele>373.8</ele>
        <time>2022-03-05T14:07:03Z</time>
      </trkpt>
      <trkpt lat="46.63666" lon="5.60393">
        <ele>374</ele>
        <time>2022-03-05T14:07:12Z</time>
      </trkpt>
      <trkpt lat="46.6366" lon="5.60397">
        <ele>374</ele>
        <time>2022-03-05T14:07:13Z</time>
      </trkpt>
      <trkpt lat="46.63604" lon="5.60426">
        <ele>374</ele>
        <time>2022-03-05T14:07:22Z</time>
      </trkpt>
      <trkpt lat="46.6358" lon="5.60442">
        <ele>374</ele>
        <time>2022-03-05T14:07:26Z</time>
      </trkpt>
      <trkpt lat="46.63569" lon="5.60453">
        <ele>374.2</ele>
        <time>2022-03-05T14:07:28Z</time>
      </trkpt>
      <trkpt lat="46.63554" lon="5.60471">
        <ele>374.4</ele>
        <time>2022-03-05T14:07:31Z</time>
      </trkpt>
      <trkpt lat="46.63529" lon="5.60502">
        <ele>374.8</ele>
        <time>2022-03-05T14:07:36Z</time>
      </trkpt>
      <trkpt lat="46.63487" lon="5.60556">
        <ele>375.2</ele>
        <time>2022-03-05T14:07:45Z</time>
      </trkpt>
      <trkpt lat="46.63474" lon="5.60574">
        <ele>375.4</ele>
        <time>2022-03-05T14:07:48Z</time>
      </trkpt>
      <trkpt lat="46.63469" lon="5.6058">
        <ele>375.4</ele>
        <time>2022-03-05T14:07:49Z</time>
      </trkpt>
      <trkpt lat="46.63446" lon="5.60615">
        <ele>376.4</ele>
        <time>2022-03-05T14:07:55Z</time>
      </trkpt>
      <trkpt lat="46.63443" lon="5.6062">
        <ele>376.6</ele>
        <time>2022-03-05T14:07:56Z</time>
      </trkpt>
      <trkpt lat="46.63434" lon="5.60638">
        <ele>377.6</ele>
        <time>2022-03-05T14:07:59Z</time>
      </trkpt>
      <trkpt lat="46.63427" lon="5.60654">
        <ele>378.4</ele>
        <time>2022-03-05T14:08:02Z</time>
      </trkpt>
      <trkpt lat="46.63424" lon="5.6066">
        <ele>378.6</ele>
        <time>2022-03-05T14:08:03Z</time>
      </trkpt>
      <trkpt lat="46.63416" lon="5.60683">
        <ele>379.6</ele>
        <time>2022-03-05T14:08:07Z</time>
      </trkpt>
      <trkpt lat="46.6341" lon="5.60699">
        <ele>380.2</ele>
        <time>2022-03-05T14:08:10Z</time>
      </trkpt>
      <trkpt lat="46.63406" lon="5.6071">
        <ele>380.8</ele>
        <time>2022-03-05T14:08:12Z</time>
      </trkpt>
      <trkpt lat="46.63396" lon="5.6073">
        <ele>381.8</ele>
        <time>2022-03-05T14:08:16Z</time>
      </trkpt>
      <trkpt lat="46.63392" lon="5.60739">
        <ele>382</ele>
        <time>2022-03-05T14:08:18Z</time>
      </trkpt>
      <trkpt lat="46.63379" lon="5.6076">
        <ele>383.4</ele>
        <time>2022-03-05T14:08:23Z</time>
      </trkpt>
      <trkpt lat="46.63376" lon="5.60764">
        <ele>383.4</ele>
        <time>2022-03-05T14:08:24Z</time>
      </trkpt>
      <trkpt lat="46.63366" lon="5.60783">
        <ele>384.4</ele>
        <time>2022-03-05T14:08:28Z</time>
      </trkpt>
      <trkpt lat="46.63355" lon="5.60802">
        <ele>385.4</ele>
        <time>2022-03-05T14:08:32Z</time>
      </trkpt>
      <trkpt lat="46.63352" lon="5.60806">
        <ele>385.6</ele>
        <time>2022-03-05T14:08:33Z</time>
      </trkpt>
      <trkpt lat="46.63339" lon="5.60825">
        <ele>386.6</ele>
        <time>2022-03-05T14:08:37Z</time>
      </trkpt>
      <trkpt lat="46.63337" lon="5.6083">
        <ele>386.8</ele>
        <time>2022-03-05T14:08:38Z</time>
      </trkpt>
      <trkpt lat="46.63334" lon="5.60859">
        <ele>387.4</ele>
        <time>2022-03-05T14:08:43Z</time>
      </trkpt>
      <trkpt lat="46.63333" lon="5.60864">
        <ele>387.8</ele>
        <time>2022-03-05T14:08:44Z</time>
      </trkpt>
      <trkpt lat="46.63331" lon="5.60893">
        <ele>388.8</ele>
        <time>2022-03-05T14:08:49Z</time>
      </trkpt>
      <trkpt lat="46.63329" lon="5.60911">
        <ele>389.2</ele>
        <time>2022-03-05T14:08:52Z</time>
      </trkpt>
      <trkpt lat="46.63325" lon="5.60941">
        <ele>390</ele>
        <time>2022-03-05T14:08:57Z</time>
      </trkpt>
      <trkpt lat="46.63321" lon="5.6097">
        <ele>390.8</ele>
        <time>2022-03-05T14:09:02Z</time>
      </trkpt>
      <trkpt lat="46.6332" lon="5.60981">
        <ele>391</ele>
        <time>2022-03-05T14:09:04Z</time>
      </trkpt>
      <trkpt lat="46.63316" lon="5.61022">
        <ele>392.4</ele>
        <time>2022-03-05T14:09:11Z</time>
      </trkpt>
      <trkpt lat="46.63317" lon="5.61028">
        <ele>392.6</ele>
        <time>2022-03-05T14:09:12Z</time>
      </trkpt>
      <trkpt lat="46.63319" lon="5.61052">
        <ele>393.4</ele>
        <time>2022-03-05T14:09:16Z</time>
      </trkpt>
      <trkpt lat="46.6332" lon="5.61057">
        <ele>393.4</ele>
        <time>2022-03-05T14:09:17Z</time>
      </trkpt>
      <trkpt lat="46.63338" lon="5.61101">
        <ele>394.6</ele>
        <time>2022-03-05T14:09:25Z</time>
      </trkpt>
      <trkpt lat="46.63353" lon="5.61138">
        <ele>395.8</ele>
        <time>2022-03-05T14:09:32Z</time>
      </trkpt>
      <trkpt lat="46.6336" lon="5.61153">
        <ele>396.4</ele>
        <time>2022-03-05T14:09:35Z</time>
      </trkpt>
      <trkpt lat="46.63368" lon="5.61168">
        <ele>397</ele>
        <time>2022-03-05T14:09:38Z</time>
      </trkpt>
      <trkpt lat="46.6338" lon="5.61192">
        <ele>397.8</ele>
        <time>2022-03-05T14:09:43Z</time>
      </trkpt>
      <trkpt lat="46.63383" lon="5.61196">
        <ele>398</ele>
        <time>2022-03-05T14:09:44Z</time>
      </trkpt>
      <trkpt lat="46.63402" lon="5.61234">
        <ele>399</ele>
        <time>2022-03-05T14:09:52Z</time>
      </trkpt>
      <trkpt lat="46.63406" lon="5.61238">
        <ele>399.2</ele>
        <time>2022-03-05T14:09:53Z</time>
      </trkpt>
      <trkpt lat="46.6342" lon="5.61266">
        <ele>400.2</ele>
        <time>2022-03-05T14:09:59Z</time>
      </trkpt>
      <trkpt lat="46.63432" lon="5.61289">
        <ele>401.4</ele>
        <time>2022-03-05T14:10:04Z</time>
      </trkpt>
      <trkpt lat="46.6344" lon="5.61303">
        <ele>402</ele>
        <time>2022-03-05T14:10:07Z</time>
      </trkpt>
      <trkpt lat="46.63447" lon="5.61317">
        <ele>402.4</ele>
        <time>2022-03-05T14:10:10Z</time>
      </trkpt>
      <trkpt lat="46.63458" lon="5.61336">
        <ele>403.6</ele>
        <time>2022-03-05T14:10:14Z</time>
      </trkpt>
      <trkpt lat="46.63461" lon="5.61341">
        <ele>403.8</ele>
        <time>2022-03-05T14:10:15Z</time>
      </trkpt>
      <trkpt lat="46.63469" lon="5.61354">
        <ele>404.2</ele>
        <time>2022-03-05T14:10:18Z</time>
      </trkpt>
      <trkpt lat="46.63475" lon="5.61362">
        <ele>404.8</ele>
        <time>2022-03-05T14:10:20Z</time>
      </trkpt>
      <trkpt lat="46.63478" lon="5.61366">
        <ele>404.8</ele>
        <time>2022-03-05T14:10:21Z</time>
      </trkpt>
      <trkpt lat="46.63486" lon="5.61378">
        <ele>406</ele>
        <time>2022-03-05T14:10:24Z</time>
      </trkpt>
      <trkpt lat="46.63495" lon="5.6139">
        <ele>407</ele>
        <time>2022-03-05T14:10:27Z</time>
      </trkpt>
      <trkpt lat="46.63505" lon="5.61402">
        <ele>407.8</ele>
        <time>2022-03-05T14:10:30Z</time>
      </trkpt>
      <trkpt lat="46.63508" lon="5.61406">
        <ele>408.2</ele>
        <time>2022-03-05T14:10:31Z</time>
      </trkpt>
      <trkpt lat="46.63521" lon="5.6142">
        <ele>409.2</ele>
        <time>2022-03-05T14:10:35Z</time>
      </trkpt>
      <trkpt lat="46.63536" lon="5.6144">
        <ele>410.2</ele>
        <time>2022-03-05T14:10:40Z</time>
      </trkpt>
      <trkpt lat="46.63542" lon="5.61447">
        <ele>410.6</ele>
        <time>2022-03-05T14:10:42Z</time>
      </trkpt>
      <trkpt lat="46.63554" lon="5.61462">
        <ele>411.6</ele>
        <time>2022-03-05T14:10:46Z</time>
      </trkpt>
      <trkpt lat="46.63556" lon="5.61466">
        <ele>412</ele>
        <time>2022-03-05T14:10:47Z</time>
      </trkpt>
      <trkpt lat="46.63566" lon="5.61481">
        <ele>412.6</ele>
        <time>2022-03-05T14:10:51Z</time>
      </trkpt>
      <trkpt lat="46.63577" lon="5.61495">
        <ele>413.4</ele>
        <time>2022-03-05T14:10:55Z</time>
      </trkpt>
      <trkpt lat="46.6358" lon="5.61498">
        <ele>413.8</ele>
        <time>2022-03-05T14:10:56Z</time>
      </trkpt>
      <trkpt lat="46.63591" lon="5.61512">
        <ele>414.8</ele>
        <time>2022-03-05T14:11:00Z</time>
      </trkpt>
      <trkpt lat="46.63604" lon="5.61529">
        <ele>415.8</ele>
        <time>2022-03-05T14:11:05Z</time>
      </trkpt>
      <trkpt lat="46.63606" lon="5.61532">
        <ele>415.8</ele>
        <time>2022-03-05T14:11:06Z</time>
      </trkpt>
      <trkpt lat="46.63617" lon="5.61547">
        <ele>417</ele>
        <time>2022-03-05T14:11:10Z</time>
      </trkpt>
      <trkpt lat="46.63638" lon="5.61571">
        <ele>418</ele>
        <time>2022-03-05T14:11:17Z</time>
      </trkpt>
      <trkpt lat="46.63651" lon="5.61586">
        <ele>419.2</ele>
        <time>2022-03-05T14:11:22Z</time>
      </trkpt>
      <trkpt lat="46.6366" lon="5.61592">
        <ele>419.8</ele>
        <time>2022-03-05T14:11:25Z</time>
      </trkpt>
      <trkpt lat="46.63675" lon="5.61597">
        <ele>420.6</ele>
        <time>2022-03-05T14:11:30Z</time>
      </trkpt>
      <trkpt lat="46.63684" lon="5.61599">
        <ele>421.6</ele>
        <time>2022-03-05T14:11:33Z</time>
      </trkpt>
      <trkpt lat="46.63687" lon="5.616">
        <ele>421.8</ele>
        <time>2022-03-05T14:11:34Z</time>
      </trkpt>
      <trkpt lat="46.63707" lon="5.61603">
        <ele>423</ele>
        <time>2022-03-05T14:11:40Z</time>
      </trkpt>
      <trkpt lat="46.63717" lon="5.61606">
        <ele>423.6</ele>
        <time>2022-03-05T14:11:43Z</time>
      </trkpt>
      <trkpt lat="46.63728" lon="5.61608">
        <ele>424</ele>
        <time>2022-03-05T14:11:46Z</time>
      </trkpt>
      <trkpt lat="46.63752" lon="5.61614">
        <ele>425</ele>
        <time>2022-03-05T14:11:51Z</time>
      </trkpt>
      <trkpt lat="46.63755" lon="5.61617">
        <ele>425</ele>
        <time>2022-03-05T14:11:52Z</time>
      </trkpt>
      <trkpt lat="46.63764" lon="5.6163">
        <ele>425.4</ele>
        <time>2022-03-05T14:11:55Z</time>
      </trkpt>
      <trkpt lat="46.63766" lon="5.61636">
        <ele>425.6</ele>
        <time>2022-03-05T14:11:56Z</time>
      </trkpt>
      <trkpt lat="46.63766" lon="5.61642">
        <ele>425.8</ele>
        <time>2022-03-05T14:11:57Z</time>
      </trkpt>
      <trkpt lat="46.63763" lon="5.61654">
        <ele>425.8</ele>
        <time>2022-03-05T14:11:59Z</time>
      </trkpt>
      <trkpt lat="46.63761" lon="5.6166">
        <ele>426</ele>
        <time>2022-03-05T14:12:00Z</time>
      </trkpt>
      <trkpt lat="46.63757" lon="5.61665">
        <ele>426</ele>
        <time>2022-03-05T14:12:01Z</time>
      </trkpt>
      <trkpt lat="46.6375" lon="5.61671">
        <ele>426</ele>
        <time>2022-03-05T14:12:03Z</time>
      </trkpt>
      <trkpt lat="46.63746" lon="5.61673">
        <ele>426.2</ele>
        <time>2022-03-05T14:12:04Z</time>
      </trkpt>
      <trkpt lat="46.63732" lon="5.61675">
        <ele>426.2</ele>
        <time>2022-03-05T14:12:07Z</time>
      </trkpt>
      <trkpt lat="46.63712" lon="5.61672">
        <ele>427</ele>
        <time>2022-03-05T14:12:12Z</time>
      </trkpt>
      <trkpt lat="46.63701" lon="5.61669">
        <ele>427.4</ele>
        <time>2022-03-05T14:12:15Z</time>
      </trkpt>
      <trkpt lat="46.63681" lon="5.61667">
        <ele>428.2</ele>
        <time>2022-03-05T14:12:20Z</time>
      </trkpt>
      <trkpt lat="46.63655" lon="5.61663">
        <ele>429.4</ele>
        <time>2022-03-05T14:12:27Z</time>
      </trkpt>
      <trkpt lat="46.63637" lon="5.61658">
        <ele>430.4</ele>
        <time>2022-03-05T14:12:32Z</time>
      </trkpt>
      <trkpt lat="46.63625" lon="5.61652">
        <ele>431.4</ele>
        <time>2022-03-05T14:12:37Z</time>
      </trkpt>
      <trkpt lat="46.63623" lon="5.61651">
        <ele>431.4</ele>
        <time>2022-03-05T14:12:38Z</time>
      </trkpt>
      <trkpt lat="46.63605" lon="5.61643">
        <ele>432.4</ele>
        <time>2022-03-05T14:12:43Z</time>
      </trkpt>
      <trkpt lat="46.63601" lon="5.61642">
        <ele>432.6</ele>
        <time>2022-03-05T14:12:44Z</time>
      </trkpt>
      <trkpt lat="46.63586" lon="5.61634">
        <ele>433.6</ele>
        <time>2022-03-05T14:12:48Z</time>
      </trkpt>
      <trkpt lat="46.63571" lon="5.61626">
        <ele>434.4</ele>
        <time>2022-03-05T14:12:52Z</time>
      </trkpt>
      <trkpt lat="46.63566" lon="5.61624">
        <ele>434.6</ele>
        <time>2022-03-05T14:12:53Z</time>
      </trkpt>
      <trkpt lat="46.63545" lon="5.61616">
        <ele>435.6</ele>
        <time>2022-03-05T14:12:58Z</time>
      </trkpt>
      <trkpt lat="46.63529" lon="5.6161">
        <ele>436.8</ele>
        <time>2022-03-05T14:13:02Z</time>
      </trkpt>
      <trkpt lat="46.63517" lon="5.61602">
        <ele>437.8</ele>
        <time>2022-03-05T14:13:05Z</time>
      </trkpt>
      <trkpt lat="46.63495" lon="5.61583">
        <ele>439</ele>
        <time>2022-03-05T14:13:11Z</time>
      </trkpt>
      <trkpt lat="46.63484" lon="5.61574">
        <ele>439.6</ele>
        <time>2022-03-05T14:13:14Z</time>
      </trkpt>
      <trkpt lat="46.63473" lon="5.61566">
        <ele>440.2</ele>
        <time>2022-03-05T14:13:17Z</time>
      </trkpt>
      <trkpt lat="46.63461" lon="5.61563">
        <ele>441</ele>
        <time>2022-03-05T14:13:20Z</time>
      </trkpt>
      <trkpt lat="46.63453" lon="5.61563">
        <ele>441.6</ele>
        <time>2022-03-05T14:13:22Z</time>
      </trkpt>
      <trkpt lat="46.63442" lon="5.61569">
        <ele>442.4</ele>
        <time>2022-03-05T14:13:25Z</time>
      </trkpt>
      <trkpt lat="46.63439" lon="5.61572">
        <ele>442.8</ele>
        <time>2022-03-05T14:13:26Z</time>
      </trkpt>
      <trkpt lat="46.63426" lon="5.61586">
        <ele>443.8</ele>
        <time>2022-03-05T14:13:30Z</time>
      </trkpt>
      <trkpt lat="46.63421" lon="5.61594">
        <ele>444</ele>
        <time>2022-03-05T14:13:32Z</time>
      </trkpt>
      <trkpt lat="46.63405" lon="5.61617">
        <ele>445</ele>
        <time>2022-03-05T14:13:38Z</time>
      </trkpt>
      <trkpt lat="46.63399" lon="5.61622">
        <ele>445.6</ele>
        <time>2022-03-05T14:13:40Z</time>
      </trkpt>
      <trkpt lat="46.63391" lon="5.61624">
        <ele>446</ele>
        <time>2022-03-05T14:13:42Z</time>
      </trkpt>
      <trkpt lat="46.6338" lon="5.61622">
        <ele>446.6</ele>
        <time>2022-03-05T14:13:45Z</time>
      </trkpt>
      <trkpt lat="46.63376" lon="5.61619">
        <ele>446.6</ele>
        <time>2022-03-05T14:13:46Z</time>
      </trkpt>
      <trkpt lat="46.6337" lon="5.61612">
        <ele>447.2</ele>
        <time>2022-03-05T14:13:48Z</time>
      </trkpt>
      <trkpt lat="46.63366" lon="5.61602">
        <ele>448.2</ele>
        <time>2022-03-05T14:13:50Z</time>
      </trkpt>
      <trkpt lat="46.63362" lon="5.61591">
        <ele>448.8</ele>
        <time>2022-03-05T14:13:52Z</time>
      </trkpt>
      <trkpt lat="46.63361" lon="5.61587">
        <ele>448.8</ele>
        <time>2022-03-05T14:13:53Z</time>
      </trkpt>
      <trkpt lat="46.63361" lon="5.61583">
        <ele>449.2</ele>
        <time>2022-03-05T14:13:54Z</time>
      </trkpt>
      <trkpt lat="46.63362" lon="5.61574">
        <ele>449.4</ele>
        <time>2022-03-05T14:13:56Z</time>
      </trkpt>
      <trkpt lat="46.63361" lon="5.61569">
        <ele>449.6</ele>
        <time>2022-03-05T14:13:57Z</time>
      </trkpt>
      <trkpt lat="46.63361" lon="5.61556">
        <ele>450.4</ele>
        <time>2022-03-05T14:14:00Z</time>
      </trkpt>
      <trkpt lat="46.6336" lon="5.61545">
        <ele>451</ele>
        <time>2022-03-05T14:14:02Z</time>
      </trkpt>
      <trkpt lat="46.63358" lon="5.61528">
        <ele>451.6</ele>
        <time>2022-03-05T14:14:05Z</time>
      </trkpt>
      <trkpt lat="46.63356" lon="5.61503">
        <ele>452.6</ele>
        <time>2022-03-05T14:14:10Z</time>
      </trkpt>
      <trkpt lat="46.63355" lon="5.61498">
        <ele>452.6</ele>
        <time>2022-03-05T14:14:11Z</time>
      </trkpt>
      <trkpt lat="46.6335" lon="5.61473">
        <ele>453.8</ele>
        <time>2022-03-05T14:14:16Z</time>
      </trkpt>
      <trkpt lat="46.63348" lon="5.61468">
        <ele>454</ele>
        <time>2022-03-05T14:14:17Z</time>
      </trkpt>
      <trkpt lat="46.63341" lon="5.6145">
        <ele>454.8</ele>
        <time>2022-03-05T14:14:21Z</time>
      </trkpt>
      <trkpt lat="46.6333" lon="5.61434">
        <ele>455.6</ele>
        <time>2022-03-05T14:14:25Z</time>
      </trkpt>
      <trkpt lat="46.63327" lon="5.6143">
        <ele>456</ele>
        <time>2022-03-05T14:14:26Z</time>
      </trkpt>
      <trkpt lat="46.6331" lon="5.61396">
        <ele>457</ele>
        <time>2022-03-05T14:14:34Z</time>
      </trkpt>
      <trkpt lat="46.63308" lon="5.61392">
        <ele>457.2</ele>
        <time>2022-03-05T14:14:35Z</time>
      </trkpt>
      <trkpt lat="46.63302" lon="5.6138">
        <ele>457.8</ele>
        <time>2022-03-05T14:14:38Z</time>
      </trkpt>
      <trkpt lat="46.63296" lon="5.61371">
        <ele>458.2</ele>
        <time>2022-03-05T14:14:40Z</time>
      </trkpt>
      <trkpt lat="46.63289" lon="5.61359">
        <ele>458.6</ele>
        <time>2022-03-05T14:14:43Z</time>
      </trkpt>
      <trkpt lat="46.63279" lon="5.61342">
        <ele>459.2</ele>
        <time>2022-03-05T14:14:47Z</time>
      </trkpt>
      <trkpt lat="46.63266" lon="5.61323">
        <ele>460.2</ele>
        <time>2022-03-05T14:14:52Z</time>
      </trkpt>
      <trkpt lat="46.63251" lon="5.61308">
        <ele>461.2</ele>
        <time>2022-03-05T14:14:57Z</time>
      </trkpt>
      <trkpt lat="46.63248" lon="5.61305">
        <ele>461.6</ele>
        <time>2022-03-05T14:14:58Z</time>
      </trkpt>
      <trkpt lat="46.63236" lon="5.61295">
        <ele>462.2</ele>
        <time>2022-03-05T14:15:02Z</time>
      </trkpt>
      <trkpt lat="46.63228" lon="5.61289">
        <ele>463.2</ele>
        <time>2022-03-05T14:15:05Z</time>
      </trkpt>
      <trkpt lat="46.63224" lon="5.61286">
        <ele>463.4</ele>
        <time>2022-03-05T14:15:06Z</time>
      </trkpt>
      <trkpt lat="46.63208" lon="5.61275">
        <ele>464.2</ele>
        <time>2022-03-05T14:15:11Z</time>
      </trkpt>
      <trkpt lat="46.63204" lon="5.61272">
        <ele>464.4</ele>
        <time>2022-03-05T14:15:12Z</time>
      </trkpt>
      <trkpt lat="46.63188" lon="5.6126">
        <ele>465.4</ele>
        <time>2022-03-05T14:15:17Z</time>
      </trkpt>
      <trkpt lat="46.63179" lon="5.61253">
        <ele>466.2</ele>
        <time>2022-03-05T14:15:20Z</time>
      </trkpt>
      <trkpt lat="46.63175" lon="5.6125">
        <ele>466.6</ele>
        <time>2022-03-05T14:15:21Z</time>
      </trkpt>
      <trkpt lat="46.63158" lon="5.61237">
        <ele>467.8</ele>
        <time>2022-03-05T14:15:26Z</time>
      </trkpt>
      <trkpt lat="46.63154" lon="5.61234">
        <ele>468</ele>
        <time>2022-03-05T14:15:27Z</time>
      </trkpt>
      <trkpt lat="46.63144" lon="5.61228">
        <ele>469</ele>
        <time>2022-03-05T14:15:30Z</time>
      </trkpt>
      <trkpt lat="46.63126" lon="5.61222">
        <ele>470</ele>
        <time>2022-03-05T14:15:35Z</time>
      </trkpt>
      <trkpt lat="46.63123" lon="5.61222">
        <ele>470.2</ele>
        <time>2022-03-05T14:15:36Z</time>
      </trkpt>
      <trkpt lat="46.63113" lon="5.61224">
        <ele>471</ele>
        <time>2022-03-05T14:15:39Z</time>
      </trkpt>
      <trkpt lat="46.63103" lon="5.61229">
        <ele>472</ele>
        <time>2022-03-05T14:15:42Z</time>
      </trkpt>
      <trkpt lat="46.63099" lon="5.61231">
        <ele>472</ele>
        <time>2022-03-05T14:15:43Z</time>
      </trkpt>
      <trkpt lat="46.63084" lon="5.61243">
        <ele>473.4</ele>
        <time>2022-03-05T14:15:48Z</time>
      </trkpt>
      <trkpt lat="46.63081" lon="5.61246">
        <ele>473.4</ele>
        <time>2022-03-05T14:15:49Z</time>
      </trkpt>
      <trkpt lat="46.6306" lon="5.61262">
        <ele>474.4</ele>
        <time>2022-03-05T14:15:55Z</time>
      </trkpt>
      <trkpt lat="46.63049" lon="5.61269">
        <ele>474.8</ele>
        <time>2022-03-05T14:15:58Z</time>
      </trkpt>
      <trkpt lat="46.63041" lon="5.61274">
        <ele>475.4</ele>
        <time>2022-03-05T14:16:00Z</time>
      </trkpt>
      <trkpt lat="46.63027" lon="5.61282">
        <ele>476.6</ele>
        <time>2022-03-05T14:16:04Z</time>
      </trkpt>
      <trkpt lat="46.63016" lon="5.61284">
        <ele>477.2</ele>
        <time>2022-03-05T14:16:07Z</time>
      </trkpt>
      <trkpt lat="46.63004" lon="5.61287">
        <ele>477.6</ele>
        <time>2022-03-05T14:16:10Z</time>
      </trkpt>
      <trkpt lat="46.62989" lon="5.61288">
        <ele>478.4</ele>
        <time>2022-03-05T14:16:14Z</time>
      </trkpt>
      <trkpt lat="46.62986" lon="5.61289">
        <ele>478.6</ele>
        <time>2022-03-05T14:16:15Z</time>
      </trkpt>
      <trkpt lat="46.62972" lon="5.61294">
        <ele>479.4</ele>
        <time>2022-03-05T14:16:19Z</time>
      </trkpt>
      <trkpt lat="46.62964" lon="5.61296">
        <ele>479.6</ele>
        <time>2022-03-05T14:16:21Z</time>
      </trkpt>
      <trkpt lat="46.62949" lon="5.61298">
        <ele>480.8</ele>
        <time>2022-03-05T14:16:25Z</time>
      </trkpt>
      <trkpt lat="46.62946" lon="5.613">
        <ele>480.8</ele>
        <time>2022-03-05T14:16:26Z</time>
      </trkpt>
      <trkpt lat="46.62928" lon="5.61306">
        <ele>481.8</ele>
        <time>2022-03-05T14:16:31Z</time>
      </trkpt>
      <trkpt lat="46.62925" lon="5.61308">
        <ele>482</ele>
        <time>2022-03-05T14:16:32Z</time>
      </trkpt>
      <trkpt lat="46.62914" lon="5.61312">
        <ele>482.8</ele>
        <time>2022-03-05T14:16:35Z</time>
      </trkpt>
      <trkpt lat="46.62906" lon="5.61315">
        <ele>483.2</ele>
        <time>2022-03-05T14:16:37Z</time>
      </trkpt>
      <trkpt lat="46.6289" lon="5.6132">
        <ele>484.2</ele>
        <time>2022-03-05T14:16:41Z</time>
      </trkpt>
      <trkpt lat="46.62886" lon="5.61322">
        <ele>484.2</ele>
        <time>2022-03-05T14:16:42Z</time>
      </trkpt>
      <trkpt lat="46.62879" lon="5.61325">
        <ele>484.4</ele>
        <time>2022-03-05T14:16:44Z</time>
      </trkpt>
      <trkpt lat="46.62867" lon="5.61329">
        <ele>485.2</ele>
        <time>2022-03-05T14:16:47Z</time>
      </trkpt>
      <trkpt lat="46.62849" lon="5.61333">
        <ele>486.2</ele>
        <time>2022-03-05T14:16:52Z</time>
      </trkpt>
      <trkpt lat="46.62827" lon="5.61339">
        <ele>487.2</ele>
        <time>2022-03-05T14:16:58Z</time>
      </trkpt>
      <trkpt lat="46.6282" lon="5.61341">
        <ele>487.8</ele>
        <time>2022-03-05T14:17:00Z</time>
      </trkpt>
      <trkpt lat="46.62809" lon="5.61343">
        <ele>488.6</ele>
        <time>2022-03-05T14:17:03Z</time>
      </trkpt>
      <trkpt lat="46.62798" lon="5.61348">
        <ele>489.4</ele>
        <time>2022-03-05T14:17:06Z</time>
      </trkpt>
      <trkpt lat="46.62795" lon="5.6135">
        <ele>489.6</ele>
        <time>2022-03-05T14:17:07Z</time>
      </trkpt>
      <trkpt lat="46.62784" lon="5.61351">
        <ele>490.4</ele>
        <time>2022-03-05T14:17:10Z</time>
      </trkpt>
      <trkpt lat="46.62778" lon="5.61351">
        <ele>490.8</ele>
        <time>2022-03-05T14:17:12Z</time>
      </trkpt>
      <trkpt lat="46.62773" lon="5.6135">
        <ele>491.4</ele>
        <time>2022-03-05T14:17:14Z</time>
      </trkpt>
      <trkpt lat="46.6276" lon="5.61349">
        <ele>492</ele>
        <time>2022-03-05T14:17:18Z</time>
      </trkpt>
      <trkpt lat="46.62757" lon="5.61349">
        <ele>492</ele>
        <time>2022-03-05T14:17:19Z</time>
      </trkpt>
      <trkpt lat="46.62742" lon="5.61348">
        <ele>492.4</ele>
        <time>2022-03-05T14:17:24Z</time>
      </trkpt>
      <trkpt lat="46.62736" lon="5.61348">
        <ele>493</ele>
        <time>2022-03-05T14:17:26Z</time>
      </trkpt>
      <trkpt lat="46.62727" lon="5.61342">
        <ele>494</ele>
        <time>2022-03-05T14:17:30Z</time>
      </trkpt>
      <trkpt lat="46.62724" lon="5.6134">
        <ele>494.4</ele>
        <time>2022-03-05T14:17:31Z</time>
      </trkpt>
      <trkpt lat="46.62715" lon="5.61326">
        <ele>495.6</ele>
        <time>2022-03-05T14:17:36Z</time>
      </trkpt>
      <trkpt lat="46.627" lon="5.61315">
        <ele>496</ele>
        <time>2022-03-05T14:17:38Z</time>
      </trkpt>
      <trkpt lat="46.62693" lon="5.61303">
        <ele>496.6</ele>
        <time>2022-03-05T14:17:41Z</time>
      </trkpt>
      <trkpt lat="46.62681" lon="5.6128">
        <ele>497.6</ele>
        <time>2022-03-05T14:17:47Z</time>
      </trkpt>
      <trkpt lat="46.62679" lon="5.61277">
        <ele>497.8</ele>
        <time>2022-03-05T14:17:48Z</time>
      </trkpt>
      <trkpt lat="46.62667" lon="5.61258">
        <ele>498.6</ele>
        <time>2022-03-05T14:17:53Z</time>
      </trkpt>
      <trkpt lat="46.62663" lon="5.61251">
        <ele>499</ele>
        <time>2022-03-05T14:17:55Z</time>
      </trkpt>
      <trkpt lat="46.62655" lon="5.61242">
        <ele>499.8</ele>
        <time>2022-03-05T14:17:58Z</time>
      </trkpt>
      <trkpt lat="46.62641" lon="5.61233">
        <ele>500.6</ele>
        <time>2022-03-05T14:18:02Z</time>
      </trkpt>
      <trkpt lat="46.62637" lon="5.61231">
        <ele>501</ele>
        <time>2022-03-05T14:18:03Z</time>
      </trkpt>
      <trkpt lat="46.62614" lon="5.61223">
        <ele>502</ele>
        <time>2022-03-05T14:18:09Z</time>
      </trkpt>
      <trkpt lat="46.62596" lon="5.61219">
        <ele>503</ele>
        <time>2022-03-05T14:18:14Z</time>
      </trkpt>
      <trkpt lat="46.62592" lon="5.61218">
        <ele>503.2</ele>
        <time>2022-03-05T14:18:15Z</time>
      </trkpt>
      <trkpt lat="46.62577" lon="5.61213">
        <ele>504.2</ele>
        <time>2022-03-05T14:18:19Z</time>
      </trkpt>
      <trkpt lat="46.62574" lon="5.61211">
        <ele>504.4</ele>
        <time>2022-03-05T14:18:20Z</time>
      </trkpt>
      <trkpt lat="46.6256" lon="5.61198">
        <ele>505.4</ele>
        <time>2022-03-05T14:18:24Z</time>
      </trkpt>
      <trkpt lat="46.62554" lon="5.61191">
        <ele>506</ele>
        <time>2022-03-05T14:18:26Z</time>
      </trkpt>
      <trkpt lat="46.62548" lon="5.61185">
        <ele>506.6</ele>
        <time>2022-03-05T14:18:28Z</time>
      </trkpt>
      <trkpt lat="46.62529" lon="5.61168">
        <ele>507.6</ele>
        <time>2022-03-05T14:18:34Z</time>
      </trkpt>
      <trkpt lat="46.62525" lon="5.61165">
        <ele>508</ele>
        <time>2022-03-05T14:18:35Z</time>
      </trkpt>
      <trkpt lat="46.62505" lon="5.61153">
        <ele>508.8</ele>
        <time>2022-03-05T14:18:40Z</time>
      </trkpt>
      <trkpt lat="46.62489" lon="5.61141">
        <ele>510</ele>
        <time>2022-03-05T14:18:45Z</time>
      </trkpt>
      <trkpt lat="46.62484" lon="5.61133">
        <ele>510.2</ele>
        <time>2022-03-05T14:18:47Z</time>
      </trkpt>
      <trkpt lat="46.62479" lon="5.61126">
        <ele>511</ele>
        <time>2022-03-05T14:18:49Z</time>
      </trkpt>
      <trkpt lat="46.62466" lon="5.61112">
        <ele>512.4</ele>
        <time>2022-03-05T14:18:53Z</time>
      </trkpt>
      <trkpt lat="46.62463" lon="5.61109">
        <ele>512.6</ele>
        <time>2022-03-05T14:18:54Z</time>
      </trkpt>
      <trkpt lat="46.62452" lon="5.61097">
        <ele>513.6</ele>
        <time>2022-03-05T14:18:58Z</time>
      </trkpt>
      <trkpt lat="46.62441" lon="5.61091">
        <ele>514.2</ele>
        <time>2022-03-05T14:19:01Z</time>
      </trkpt>
      <trkpt lat="46.62434" lon="5.61087">
        <ele>514.6</ele>
        <time>2022-03-05T14:19:03Z</time>
      </trkpt>
      <trkpt lat="46.6241" lon="5.61077">
        <ele>515.6</ele>
        <time>2022-03-05T14:19:09Z</time>
      </trkpt>
      <trkpt lat="46.62388" lon="5.61072">
        <ele>517.2</ele>
        <time>2022-03-05T14:19:14Z</time>
      </trkpt>
      <trkpt lat="46.62379" lon="5.61072">
        <ele>517.6</ele>
        <time>2022-03-05T14:19:16Z</time>
      </trkpt>
      <trkpt lat="46.62374" lon="5.61071">
        <ele>517.6</ele>
        <time>2022-03-05T14:19:17Z</time>
      </trkpt>
      <trkpt lat="46.62356" lon="5.61072">
        <ele>518.4</ele>
        <time>2022-03-05T14:19:21Z</time>
      </trkpt>
      <trkpt lat="46.62338" lon="5.61074">
        <ele>519.4</ele>
        <time>2022-03-05T14:19:25Z</time>
      </trkpt>
      <trkpt lat="46.62326" lon="5.61077">
        <ele>520.2</ele>
        <time>2022-03-05T14:19:28Z</time>
      </trkpt>
      <trkpt lat="46.62319" lon="5.61079">
        <ele>520.6</ele>
        <time>2022-03-05T14:19:30Z</time>
      </trkpt>
      <trkpt lat="46.62315" lon="5.6108">
        <ele>521</ele>
        <time>2022-03-05T14:19:31Z</time>
      </trkpt>
      <trkpt lat="46.62304" lon="5.61083">
        <ele>521.8</ele>
        <time>2022-03-05T14:19:34Z</time>
      </trkpt>
      <trkpt lat="46.62289" lon="5.61085">
        <ele>522.4</ele>
        <time>2022-03-05T14:19:38Z</time>
      </trkpt>
      <trkpt lat="46.62278" lon="5.61086">
        <ele>523.2</ele>
        <time>2022-03-05T14:19:41Z</time>
      </trkpt>
      <trkpt lat="46.62263" lon="5.61087">
        <ele>524</ele>
        <time>2022-03-05T14:19:45Z</time>
      </trkpt>
      <trkpt lat="46.62255" lon="5.61088">
        <ele>524.2</ele>
        <time>2022-03-05T14:19:47Z</time>
      </trkpt>
      <trkpt lat="46.62235" lon="5.61089">
        <ele>524.8</ele>
        <time>2022-03-05T14:19:52Z</time>
      </trkpt>
      <trkpt lat="46.6223" lon="5.61089">
        <ele>525.4</ele>
        <time>2022-03-05T14:19:53Z</time>
      </trkpt>
      <trkpt lat="46.62204" lon="5.61089">
        <ele>526.4</ele>
        <time>2022-03-05T14:19:59Z</time>
      </trkpt>
      <trkpt lat="46.62187" lon="5.61089">
        <ele>527.4</ele>
        <time>2022-03-05T14:20:03Z</time>
      </trkpt>
      <trkpt lat="46.62173" lon="5.61089">
        <ele>528.2</ele>
        <time>2022-03-05T14:20:06Z</time>
      </trkpt>
      <trkpt lat="46.62168" lon="5.61089">
        <ele>528.4</ele>
        <time>2022-03-05T14:20:07Z</time>
      </trkpt>
      <trkpt lat="46.62165" lon="5.6109">
        <ele>528.8</ele>
        <time>2022-03-05T14:20:08Z</time>
      </trkpt>
      <trkpt lat="46.62152" lon="5.6109">
        <ele>529.6</ele>
        <time>2022-03-05T14:20:11Z</time>
      </trkpt>
      <trkpt lat="46.6214" lon="5.61092">
        <ele>530.2</ele>
        <time>2022-03-05T14:20:14Z</time>
      </trkpt>
      <trkpt lat="46.62136" lon="5.61092">
        <ele>530.4</ele>
        <time>2022-03-05T14:20:15Z</time>
      </trkpt>
      <trkpt lat="46.62131" lon="5.61092">
        <ele>530.6</ele>
        <time>2022-03-05T14:20:16Z</time>
      </trkpt>
      <trkpt lat="46.62114" lon="5.61096">
        <ele>531.8</ele>
        <time>2022-03-05T14:20:20Z</time>
      </trkpt>
      <trkpt lat="46.62096" lon="5.61097">
        <ele>532.8</ele>
        <time>2022-03-05T14:20:24Z</time>
      </trkpt>
      <trkpt lat="46.62087" lon="5.61097">
        <ele>533.2</ele>
        <time>2022-03-05T14:20:26Z</time>
      </trkpt>
      <trkpt lat="46.62082" lon="5.61098">
        <ele>534</ele>
        <time>2022-03-05T14:20:27Z</time>
      </trkpt>
      <trkpt lat="46.62078" lon="5.61098">
        <ele>534</ele>
        <time>2022-03-05T14:20:28Z</time>
      </trkpt>
      <trkpt lat="46.62069" lon="5.611">
        <ele>534.4</ele>
        <time>2022-03-05T14:20:30Z</time>
      </trkpt>
      <trkpt lat="46.62057" lon="5.61101">
        <ele>535</ele>
        <time>2022-03-05T14:20:33Z</time>
      </trkpt>
      <trkpt lat="46.62044" lon="5.61102">
        <ele>536</ele>
        <time>2022-03-05T14:20:36Z</time>
      </trkpt>
      <trkpt lat="46.6204" lon="5.61102">
        <ele>536.2</ele>
        <time>2022-03-05T14:20:37Z</time>
      </trkpt>
      <trkpt lat="46.6202" lon="5.61106">
        <ele>537.4</ele>
        <time>2022-03-05T14:20:42Z</time>
      </trkpt>
      <trkpt lat="46.61998" lon="5.61106">
        <ele>538.4</ele>
        <time>2022-03-05T14:20:47Z</time>
      </trkpt>
      <trkpt lat="46.61985" lon="5.61104">
        <ele>539.4</ele>
        <time>2022-03-05T14:20:50Z</time>
      </trkpt>
      <trkpt lat="46.61968" lon="5.61103">
        <ele>540.6</ele>
        <time>2022-03-05T14:20:54Z</time>
      </trkpt>
      <trkpt lat="46.61963" lon="5.61102">
        <ele>540.8</ele>
        <time>2022-03-05T14:20:55Z</time>
      </trkpt>
      <trkpt lat="46.61939" lon="5.61102">
        <ele>542</ele>
        <time>2022-03-05T14:21:01Z</time>
      </trkpt>
      <trkpt lat="46.6193" lon="5.61103">
        <ele>542.4</ele>
        <time>2022-03-05T14:21:03Z</time>
      </trkpt>
      <trkpt lat="46.61917" lon="5.61106">
        <ele>543.4</ele>
        <time>2022-03-05T14:21:06Z</time>
      </trkpt>
      <trkpt lat="46.61902" lon="5.6111">
        <ele>544.6</ele>
        <time>2022-03-05T14:21:10Z</time>
      </trkpt>
      <trkpt lat="46.61897" lon="5.61112">
        <ele>544.6</ele>
        <time>2022-03-05T14:21:11Z</time>
      </trkpt>
      <trkpt lat="46.61882" lon="5.61123">
        <ele>545.6</ele>
        <time>2022-03-05T14:21:15Z</time>
      </trkpt>
      <trkpt lat="46.61878" lon="5.61125">
        <ele>545.8</ele>
        <time>2022-03-05T14:21:16Z</time>
      </trkpt>
      <trkpt lat="46.61868" lon="5.61133">
        <ele>546.8</ele>
        <time>2022-03-05T14:21:19Z</time>
      </trkpt>
      <trkpt lat="46.61865" lon="5.61135">
        <ele>547</ele>
        <time>2022-03-05T14:21:20Z</time>
      </trkpt>
      <trkpt lat="46.61845" lon="5.61149">
        <ele>547.8</ele>
        <time>2022-03-05T14:21:25Z</time>
      </trkpt>
      <trkpt lat="46.61828" lon="5.61159">
        <ele>548.6</ele>
        <time>2022-03-05T14:21:29Z</time>
      </trkpt>
      <trkpt lat="46.61824" lon="5.61162">
        <ele>548.8</ele>
        <time>2022-03-05T14:21:30Z</time>
      </trkpt>
      <trkpt lat="46.61805" lon="5.61175">
        <ele>549.6</ele>
        <time>2022-03-05T14:21:36Z</time>
      </trkpt>
      <trkpt lat="46.61802" lon="5.61176">
        <ele>549.8</ele>
        <time>2022-03-05T14:21:37Z</time>
      </trkpt>
      <trkpt lat="46.61792" lon="5.61176">
        <ele>550.6</ele>
        <time>2022-03-05T14:21:42Z</time>
      </trkpt>
      <trkpt lat="46.61781" lon="5.6116">
        <ele>550.8</ele>
        <time>2022-03-05T14:21:47Z</time>
      </trkpt>
      <trkpt lat="46.61774" lon="5.61134">
        <ele>551</ele>
        <time>2022-03-05T14:21:53Z</time>
      </trkpt>
      <trkpt lat="46.61766" lon="5.61119">
        <ele>551.6</ele>
        <time>2022-03-05T14:21:58Z</time>
      </trkpt>
      <trkpt lat="46.61755" lon="5.61107">
        <ele>551.8</ele>
        <time>2022-03-05T14:22:03Z</time>
      </trkpt>
      <trkpt lat="46.61745" lon="5.61099">
        <ele>552.2</ele>
        <time>2022-03-05T14:22:07Z</time>
      </trkpt>
      <trkpt lat="46.61736" lon="5.61092">
        <ele>552.4</ele>
        <time>2022-03-05T14:22:10Z</time>
      </trkpt>
      <trkpt lat="46.61719" lon="5.61077">
        <ele>552.8</ele>
        <time>2022-03-05T14:22:15Z</time>
      </trkpt>
      <trkpt lat="46.61716" lon="5.61072">
        <ele>553.2</ele>
        <time>2022-03-05T14:22:16Z</time>
      </trkpt>
      <trkpt lat="46.61713" lon="5.61067">
        <ele>553.2</ele>
        <time>2022-03-05T14:22:17Z</time>
      </trkpt>
      <trkpt lat="46.61692" lon="5.61039">
        <ele>553.8</ele>
        <time>2022-03-05T14:22:23Z</time>
      </trkpt>
      <trkpt lat="46.61675" lon="5.61015">
        <ele>554.4</ele>
        <time>2022-03-05T14:22:28Z</time>
      </trkpt>
      <trkpt lat="46.61659" lon="5.60991">
        <ele>555</ele>
        <time>2022-03-05T14:22:33Z</time>
      </trkpt>
      <trkpt lat="46.61643" lon="5.60969">
        <ele>555.6</ele>
        <time>2022-03-05T14:22:38Z</time>
      </trkpt>
      <trkpt lat="46.61638" lon="5.60961">
        <ele>555.8</ele>
        <time>2022-03-05T14:22:40Z</time>
      </trkpt>
      <trkpt lat="46.61628" lon="5.6095">
        <ele>556.4</ele>
        <time>2022-03-05T14:22:45Z</time>
      </trkpt>
      <trkpt lat="46.61625" lon="5.6095">
        <ele>556.4</ele>
        <time>2022-03-05T14:22:46Z</time>
      </trkpt>
      <trkpt lat="46.6162" lon="5.60955">
        <ele>556.4</ele>
        <time>2022-03-05T14:22:48Z</time>
      </trkpt>
      <trkpt lat="46.61607" lon="5.60978">
        <ele>556.2</ele>
        <time>2022-03-05T14:22:53Z</time>
      </trkpt>
      <trkpt lat="46.61589" lon="5.61017">
        <ele>555.2</ele>
        <time>2022-03-05T14:22:59Z</time>
      </trkpt>
      <trkpt lat="46.6157" lon="5.61052">
        <ele>554.8</ele>
        <time>2022-03-05T14:23:04Z</time>
      </trkpt>
      <trkpt lat="46.61562" lon="5.61068">
        <ele>554.4</ele>
        <time>2022-03-05T14:23:06Z</time>
      </trkpt>
      <trkpt lat="46.61537" lon="5.61114">
        <ele>553.4</ele>
        <time>2022-03-05T14:23:12Z</time>
      </trkpt>
      <trkpt lat="46.61512" lon="5.61162">
        <ele>552.4</ele>
        <time>2022-03-05T14:23:18Z</time>
      </trkpt>
      <trkpt lat="46.61508" lon="5.6117">
        <ele>552.4</ele>
        <time>2022-03-05T14:23:19Z</time>
      </trkpt>
      <trkpt lat="46.61482" lon="5.61217">
        <ele>553</ele>
        <time>2022-03-05T14:23:25Z</time>
      </trkpt>
      <trkpt lat="46.61452" lon="5.61274">
        <ele>553.8</ele>
        <time>2022-03-05T14:23:32Z</time>
      </trkpt>
      <trkpt lat="46.6144" lon="5.61297">
        <ele>554.2</ele>
        <time>2022-03-05T14:23:35Z</time>
      </trkpt>
      <trkpt lat="46.61404" lon="5.61366">
        <ele>554.6</ele>
        <time>2022-03-05T14:23:44Z</time>
      </trkpt>
      <trkpt lat="46.61395" lon="5.61381">
        <ele>554.8</ele>
        <time>2022-03-05T14:23:46Z</time>
      </trkpt>
      <trkpt lat="46.61359" lon="5.61449">
        <ele>555.8</ele>
        <time>2022-03-05T14:23:55Z</time>
      </trkpt>
      <trkpt lat="46.61346" lon="5.61472">
        <ele>556</ele>
        <time>2022-03-05T14:23:58Z</time>
      </trkpt>
      <trkpt lat="46.61313" lon="5.61534">
        <ele>556.2</ele>
        <time>2022-03-05T14:24:06Z</time>
      </trkpt>
      <trkpt lat="46.613" lon="5.61558">
        <ele>556.4</ele>
        <time>2022-03-05T14:24:09Z</time>
      </trkpt>
      <trkpt lat="46.61263" lon="5.61627">
        <ele>556.6</ele>
        <time>2022-03-05T14:24:17Z</time>
      </trkpt>
      <trkpt lat="46.61249" lon="5.61654">
        <ele>556.4</ele>
        <time>2022-03-05T14:24:20Z</time>
      </trkpt>
      <trkpt lat="46.61213" lon="5.6172">
        <ele>556.6</ele>
        <time>2022-03-05T14:24:28Z</time>
      </trkpt>
      <trkpt lat="46.61206" lon="5.61734">
        <ele>556.8</ele>
        <time>2022-03-05T14:24:30Z</time>
      </trkpt>
      <trkpt lat="46.61194" lon="5.61759">
        <ele>557.2</ele>
        <time>2022-03-05T14:24:33Z</time>
      </trkpt>
      <trkpt lat="46.61174" lon="5.61796">
        <ele>558.6</ele>
        <time>2022-03-05T14:24:38Z</time>
      </trkpt>
      <trkpt lat="46.61166" lon="5.61811">
        <ele>559</ele>
        <time>2022-03-05T14:24:40Z</time>
      </trkpt>
      <trkpt lat="46.6113" lon="5.6188">
        <ele>559.4</ele>
        <time>2022-03-05T14:24:49Z</time>
      </trkpt>
      <trkpt lat="46.61117" lon="5.61902">
        <ele>559.6</ele>
        <time>2022-03-05T14:24:52Z</time>
      </trkpt>
      <trkpt lat="46.61097" lon="5.6194">
        <ele>560.4</ele>
        <time>2022-03-05T14:24:57Z</time>
      </trkpt>
      <trkpt lat="46.61081" lon="5.61969">
        <ele>560.8</ele>
        <time>2022-03-05T14:25:01Z</time>
      </trkpt>
      <trkpt lat="46.61062" lon="5.62006">
        <ele>561.4</ele>
        <time>2022-03-05T14:25:06Z</time>
      </trkpt>
      <trkpt lat="46.61043" lon="5.62042">
        <ele>561.8</ele>
        <time>2022-03-05T14:25:11Z</time>
      </trkpt>
      <trkpt lat="46.6102" lon="5.62086">
        <ele>562.6</ele>
        <time>2022-03-05T14:25:17Z</time>
      </trkpt>
      <trkpt lat="46.61009" lon="5.62109">
        <ele>563.2</ele>
        <time>2022-03-05T14:25:20Z</time>
      </trkpt>
      <trkpt lat="46.60977" lon="5.62168">
        <ele>563.6</ele>
        <time>2022-03-05T14:25:28Z</time>
      </trkpt>
      <trkpt lat="46.60952" lon="5.62215">
        <ele>564.2</ele>
        <time>2022-03-05T14:25:34Z</time>
      </trkpt>
      <trkpt lat="46.60929" lon="5.62257">
        <ele>564.2</ele>
        <time>2022-03-05T14:25:39Z</time>
      </trkpt>
      <trkpt lat="46.60905" lon="5.62302">
        <ele>563.8</ele>
        <time>2022-03-05T14:25:44Z</time>
      </trkpt>
      <trkpt lat="46.60882" lon="5.62344">
        <ele>563</ele>
        <time>2022-03-05T14:25:48Z</time>
      </trkpt>
      <trkpt lat="46.60865" lon="5.62377">
        <ele>562.2</ele>
        <time>2022-03-05T14:25:51Z</time>
      </trkpt>
      <trkpt lat="46.60859" lon="5.62388">
        <ele>562</ele>
        <time>2022-03-05T14:25:52Z</time>
      </trkpt>
      <trkpt lat="46.60835" lon="5.62433">
        <ele>560.8</ele>
        <time>2022-03-05T14:25:56Z</time>
      </trkpt>
      <trkpt lat="46.60823" lon="5.62456">
        <ele>560.4</ele>
        <time>2022-03-05T14:25:58Z</time>
      </trkpt>
      <trkpt lat="46.60804" lon="5.6249">
        <ele>559.4</ele>
        <time>2022-03-05T14:26:01Z</time>
      </trkpt>
      <trkpt lat="46.60768" lon="5.62558">
        <ele>558.4</ele>
        <time>2022-03-05T14:26:07Z</time>
      </trkpt>
      <trkpt lat="46.60762" lon="5.62568">
        <ele>558.2</ele>
        <time>2022-03-05T14:26:08Z</time>
      </trkpt>
      <trkpt lat="46.60732" lon="5.6262">
        <ele>557.8</ele>
        <time>2022-03-05T14:26:13Z</time>
      </trkpt>
      <trkpt lat="46.60726" lon="5.62628">
        <ele>557.8</ele>
        <time>2022-03-05T14:26:14Z</time>
      </trkpt>
      <trkpt lat="46.60719" lon="5.62633">
        <ele>557.8</ele>
        <time>2022-03-05T14:26:15Z</time>
      </trkpt>
      <trkpt lat="46.60709" lon="5.62635">
        <ele>557.8</ele>
        <time>2022-03-05T14:26:16Z</time>
      </trkpt>
      <trkpt lat="46.60701" lon="5.62634">
        <ele>557.8</ele>
        <time>2022-03-05T14:26:17Z</time>
      </trkpt>
      <trkpt lat="46.60684" lon="5.6263">
        <ele>557.8</ele>
        <time>2022-03-05T14:26:19Z</time>
      </trkpt>
      <trkpt lat="46.6065" lon="5.62638">
        <ele>557.8</ele>
        <time>2022-03-05T14:26:23Z</time>
      </trkpt>
      <trkpt lat="46.60612" lon="5.62649">
        <ele>557.4</ele>
        <time>2022-03-05T14:26:28Z</time>
      </trkpt>
      <trkpt lat="46.60605" lon="5.62652">
        <ele>557.4</ele>
        <time>2022-03-05T14:26:29Z</time>
      </trkpt>
      <trkpt lat="46.60567" lon="5.62664">
        <ele>557.4</ele>
        <time>2022-03-05T14:26:35Z</time>
      </trkpt>
      <trkpt lat="46.60534" lon="5.62674">
        <ele>557.6</ele>
        <time>2022-03-05T14:26:41Z</time>
      </trkpt>
      <trkpt lat="46.6049" lon="5.62689">
        <ele>558.4</ele>
        <time>2022-03-05T14:26:49Z</time>
      </trkpt>
      <trkpt lat="46.60479" lon="5.62693">
        <ele>558.6</ele>
        <time>2022-03-05T14:26:51Z</time>
      </trkpt>
      <trkpt lat="46.60451" lon="5.62702">
        <ele>559</ele>
        <time>2022-03-05T14:26:56Z</time>
      </trkpt>
      <trkpt lat="46.60414" lon="5.62715">
        <ele>559.2</ele>
        <time>2022-03-05T14:27:03Z</time>
      </trkpt>
      <trkpt lat="46.6038" lon="5.62725">
        <ele>559.8</ele>
        <time>2022-03-05T14:27:09Z</time>
      </trkpt>
      <trkpt lat="46.60356" lon="5.62733">
        <ele>560.2</ele>
        <time>2022-03-05T14:27:13Z</time>
      </trkpt>
      <trkpt lat="46.60317" lon="5.62748">
        <ele>560.6</ele>
        <time>2022-03-05T14:27:20Z</time>
      </trkpt>
      <trkpt lat="46.60311" lon="5.62749">
        <ele>560.6</ele>
        <time>2022-03-05T14:27:21Z</time>
      </trkpt>
      <trkpt lat="46.60256" lon="5.62767">
        <ele>560.6</ele>
        <time>2022-03-05T14:27:31Z</time>
      </trkpt>
      <trkpt lat="46.60215" lon="5.62781">
        <ele>560.6</ele>
        <time>2022-03-05T14:27:38Z</time>
      </trkpt>
      <trkpt lat="46.60177" lon="5.62793">
        <ele>560.4</ele>
        <time>2022-03-05T14:27:44Z</time>
      </trkpt>
      <trkpt lat="46.60118" lon="5.62812">
        <ele>559.6</ele>
        <time>2022-03-05T14:27:53Z</time>
      </trkpt>
      <trkpt lat="46.60104" lon="5.62816">
        <ele>559.6</ele>
        <time>2022-03-05T14:27:55Z</time>
      </trkpt>
      <trkpt lat="46.60055" lon="5.62833">
        <ele>558.8</ele>
        <time>2022-03-05T14:28:02Z</time>
      </trkpt>
      <trkpt lat="46.60013" lon="5.62847">
        <ele>558.4</ele>
        <time>2022-03-05T14:28:08Z</time>
      </trkpt>
      <trkpt lat="46.59955" lon="5.62867">
        <ele>558.2</ele>
        <time>2022-03-05T14:28:16Z</time>
      </trkpt>
      <trkpt lat="46.59928" lon="5.62876">
        <ele>558.2</ele>
        <time>2022-03-05T14:28:20Z</time>
      </trkpt>
      <trkpt lat="46.5987" lon="5.62894">
        <ele>559</ele>
        <time>2022-03-05T14:28:29Z</time>
      </trkpt>
      <trkpt lat="46.59864" lon="5.62895">
        <ele>559.2</ele>
        <time>2022-03-05T14:28:30Z</time>
      </trkpt>
      <trkpt lat="46.59832" lon="5.629">
        <ele>560</ele>
        <time>2022-03-05T14:28:35Z</time>
      </trkpt>
      <trkpt lat="46.59816" lon="5.62904">
        <ele>560</ele>
        <time>2022-03-05T14:28:38Z</time>
      </trkpt>
      <trkpt lat="46.59765" lon="5.62912">
        <ele>561.2</ele>
        <time>2022-03-05T14:28:46Z</time>
      </trkpt>
      <trkpt lat="46.59749" lon="5.62915">
        <ele>561.4</ele>
        <time>2022-03-05T14:28:49Z</time>
      </trkpt>
      <trkpt lat="46.59705" lon="5.62923">
        <ele>562.2</ele>
        <time>2022-03-05T14:28:56Z</time>
      </trkpt>
      <trkpt lat="46.59699" lon="5.62924">
        <ele>562.4</ele>
        <time>2022-03-05T14:28:57Z</time>
      </trkpt>
      <trkpt lat="46.59652" lon="5.62932">
        <ele>563.4</ele>
        <time>2022-03-05T14:29:05Z</time>
      </trkpt>
      <trkpt lat="46.59597" lon="5.6294">
        <ele>564.4</ele>
        <time>2022-03-05T14:29:14Z</time>
      </trkpt>
      <trkpt lat="46.59587" lon="5.62942">
        <ele>564.6</ele>
        <time>2022-03-05T14:29:16Z</time>
      </trkpt>
      <trkpt lat="46.59549" lon="5.6295">
        <ele>565</ele>
        <time>2022-03-05T14:29:22Z</time>
      </trkpt>
      <trkpt lat="46.59519" lon="5.62956">
        <ele>565.6</ele>
        <time>2022-03-05T14:29:27Z</time>
      </trkpt>
      <trkpt lat="46.59495" lon="5.6296">
        <ele>566</ele>
        <time>2022-03-05T14:29:31Z</time>
      </trkpt>
      <trkpt lat="46.59441" lon="5.6297">
        <ele>566.6</ele>
        <time>2022-03-05T14:29:40Z</time>
      </trkpt>
      <trkpt lat="46.59386" lon="5.62979">
        <ele>567.8</ele>
        <time>2022-03-05T14:29:49Z</time>
      </trkpt>
      <trkpt lat="46.59367" lon="5.62983">
        <ele>568</ele>
        <time>2022-03-05T14:29:52Z</time>
      </trkpt>
      <trkpt lat="46.59333" lon="5.62989">
        <ele>568</ele>
        <time>2022-03-05T14:29:57Z</time>
      </trkpt>
      <trkpt lat="46.59277" lon="5.62996">
        <ele>567.8</ele>
        <time>2022-03-05T14:30:05Z</time>
      </trkpt>
      <trkpt lat="46.59255" lon="5.62996">
        <ele>567.6</ele>
        <time>2022-03-05T14:30:08Z</time>
      </trkpt>
      <trkpt lat="46.59211" lon="5.62992">
        <ele>567</ele>
        <time>2022-03-05T14:30:14Z</time>
      </trkpt>
      <trkpt lat="46.59188" lon="5.62989">
        <ele>566.8</ele>
        <time>2022-03-05T14:30:17Z</time>
      </trkpt>
      <trkpt lat="46.59133" lon="5.62981">
        <ele>566.2</ele>
        <time>2022-03-05T14:30:24Z</time>
      </trkpt>
      <trkpt lat="46.59109" lon="5.62977">
        <ele>565.8</ele>
        <time>2022-03-05T14:30:27Z</time>
      </trkpt>
      <trkpt lat="46.59053" lon="5.62969">
        <ele>565.2</ele>
        <time>2022-03-05T14:30:34Z</time>
      </trkpt>
      <trkpt lat="46.59036" lon="5.62967">
        <ele>565</ele>
        <time>2022-03-05T14:30:36Z</time>
      </trkpt>
      <trkpt lat="46.59002" lon="5.62962">
        <ele>564.8</ele>
        <time>2022-03-05T14:30:40Z</time>
      </trkpt>
      <trkpt lat="46.58949" lon="5.62955">
        <ele>564.6</ele>
        <time>2022-03-05T14:30:46Z</time>
      </trkpt>
      <trkpt lat="46.58886" lon="5.62946">
        <ele>564.4</ele>
        <time>2022-03-05T14:30:53Z</time>
      </trkpt>
      <trkpt lat="46.5886" lon="5.62942">
        <ele>564.4</ele>
        <time>2022-03-05T14:30:56Z</time>
      </trkpt>
      <trkpt lat="46.58799" lon="5.62934">
        <ele>564.2</ele>
        <time>2022-03-05T14:31:03Z</time>
      </trkpt>
      <trkpt lat="46.58774" lon="5.6293">
        <ele>564</ele>
        <time>2022-03-05T14:31:06Z</time>
      </trkpt>
      <trkpt lat="46.58714" lon="5.62918">
        <ele>563.6</ele>
        <time>2022-03-05T14:31:13Z</time>
      </trkpt>
      <trkpt lat="46.58706" lon="5.62915">
        <ele>563.6</ele>
        <time>2022-03-05T14:31:14Z</time>
      </trkpt>
      <trkpt lat="46.58653" lon="5.629">
        <ele>563</ele>
        <time>2022-03-05T14:31:20Z</time>
      </trkpt>
      <trkpt lat="46.58634" lon="5.62894">
        <ele>562.6</ele>
        <time>2022-03-05T14:31:22Z</time>
      </trkpt>
      <trkpt lat="46.58598" lon="5.62885">
        <ele>561.8</ele>
        <time>2022-03-05T14:31:26Z</time>
      </trkpt>
      <trkpt lat="46.58571" lon="5.62879">
        <ele>561.4</ele>
        <time>2022-03-05T14:31:29Z</time>
      </trkpt>
      <trkpt lat="46.58563" lon="5.62879">
        <ele>561.2</ele>
        <time>2022-03-05T14:31:30Z</time>
      </trkpt>
      <trkpt lat="46.58545" lon="5.62881">
        <ele>561</ele>
        <time>2022-03-05T14:31:32Z</time>
      </trkpt>
      <trkpt lat="46.58536" lon="5.62883">
        <ele>560.8</ele>
        <time>2022-03-05T14:31:33Z</time>
      </trkpt>
      <trkpt lat="46.58527" lon="5.62886">
        <ele>560.8</ele>
        <time>2022-03-05T14:31:34Z</time>
      </trkpt>
      <trkpt lat="46.58473" lon="5.62913">
        <ele>559.8</ele>
        <time>2022-03-05T14:31:40Z</time>
      </trkpt>
      <trkpt lat="46.58426" lon="5.62936">
        <ele>558.2</ele>
        <time>2022-03-05T14:31:45Z</time>
      </trkpt>
      <trkpt lat="46.584" lon="5.6295">
        <ele>557.6</ele>
        <time>2022-03-05T14:31:48Z</time>
      </trkpt>
      <trkpt lat="46.58371" lon="5.62964">
        <ele>557</ele>
        <time>2022-03-05T14:31:51Z</time>
      </trkpt>
      <trkpt lat="46.58326" lon="5.62986">
        <ele>555.8</ele>
        <time>2022-03-05T14:31:56Z</time>
      </trkpt>
      <trkpt lat="46.58275" lon="5.63011">
        <ele>555</ele>
        <time>2022-03-05T14:32:02Z</time>
      </trkpt>
      <trkpt lat="46.58257" lon="5.6302">
        <ele>554.8</ele>
        <time>2022-03-05T14:32:04Z</time>
      </trkpt>
      <trkpt lat="46.58231" lon="5.63032">
        <ele>554.4</ele>
        <time>2022-03-05T14:32:07Z</time>
      </trkpt>
      <trkpt lat="46.58196" lon="5.63045">
        <ele>553.2</ele>
        <time>2022-03-05T14:32:11Z</time>
      </trkpt>
      <trkpt lat="46.58186" lon="5.63046">
        <ele>553</ele>
        <time>2022-03-05T14:32:12Z</time>
      </trkpt>
      <trkpt lat="46.58167" lon="5.63045">
        <ele>552.6</ele>
        <time>2022-03-05T14:32:14Z</time>
      </trkpt>
      <trkpt lat="46.58149" lon="5.63038">
        <ele>552.4</ele>
        <time>2022-03-05T14:32:16Z</time>
      </trkpt>
      <trkpt lat="46.5814" lon="5.63034">
        <ele>552.2</ele>
        <time>2022-03-05T14:32:17Z</time>
      </trkpt>
      <trkpt lat="46.58131" lon="5.63028">
        <ele>552.2</ele>
        <time>2022-03-05T14:32:18Z</time>
      </trkpt>
      <trkpt lat="46.58117" lon="5.63014">
        <ele>551.8</ele>
        <time>2022-03-05T14:32:20Z</time>
      </trkpt>
      <trkpt lat="46.58094" lon="5.62985">
        <ele>551</ele>
        <time>2022-03-05T14:32:23Z</time>
      </trkpt>
      <trkpt lat="46.58057" lon="5.62939">
        <ele>550.2</ele>
        <time>2022-03-05T14:32:28Z</time>
      </trkpt>
      <trkpt lat="46.58041" lon="5.62923">
        <ele>550</ele>
        <time>2022-03-05T14:32:30Z</time>
      </trkpt>
      <trkpt lat="46.58016" lon="5.62901">
        <ele>548.6</ele>
        <time>2022-03-05T14:32:33Z</time>
      </trkpt>
      <trkpt lat="46.58008" lon="5.62894">
        <ele>548.4</ele>
        <time>2022-03-05T14:32:34Z</time>
      </trkpt>
      <trkpt lat="46.57983" lon="5.62876">
        <ele>547.4</ele>
        <time>2022-03-05T14:32:37Z</time>
      </trkpt>
      <trkpt lat="46.57948" lon="5.62857">
        <ele>547</ele>
        <time>2022-03-05T14:32:41Z</time>
      </trkpt>
      <trkpt lat="46.57921" lon="5.62846">
        <ele>546.6</ele>
        <time>2022-03-05T14:32:44Z</time>
      </trkpt>
      <trkpt lat="46.57893" lon="5.62837">
        <ele>546</ele>
        <time>2022-03-05T14:32:47Z</time>
      </trkpt>
      <trkpt lat="46.57864" lon="5.62829">
        <ele>545.6</ele>
        <time>2022-03-05T14:32:50Z</time>
      </trkpt>
      <trkpt lat="46.57825" lon="5.62818">
        <ele>544.6</ele>
        <time>2022-03-05T14:32:54Z</time>
      </trkpt>
      <trkpt lat="46.57815" lon="5.62815">
        <ele>544.4</ele>
        <time>2022-03-05T14:32:55Z</time>
      </trkpt>
      <trkpt lat="46.57753" lon="5.62792">
        <ele>543.4</ele>
        <time>2022-03-05T14:33:01Z</time>
      </trkpt>
      <trkpt lat="46.57743" lon="5.62787">
        <ele>543</ele>
        <time>2022-03-05T14:33:02Z</time>
      </trkpt>
      <trkpt lat="46.57712" lon="5.62771">
        <ele>541.6</ele>
        <time>2022-03-05T14:33:05Z</time>
      </trkpt>
      <trkpt lat="46.57681" lon="5.62755">
        <ele>540.6</ele>
        <time>2022-03-05T14:33:08Z</time>
      </trkpt>
      <trkpt lat="46.57671" lon="5.6275">
        <ele>540.2</ele>
        <time>2022-03-05T14:33:09Z</time>
      </trkpt>
      <trkpt lat="46.5764" lon="5.62735">
        <ele>539.4</ele>
        <time>2022-03-05T14:33:12Z</time>
      </trkpt>
      <trkpt lat="46.57579" lon="5.62703">
        <ele>538.2</ele>
        <time>2022-03-05T14:33:18Z</time>
      </trkpt>
      <trkpt lat="46.57559" lon="5.6269">
        <ele>537.8</ele>
        <time>2022-03-05T14:33:20Z</time>
      </trkpt>
      <trkpt lat="46.57531" lon="5.62666">
        <ele>537</ele>
        <time>2022-03-05T14:33:23Z</time>
      </trkpt>
      <trkpt lat="46.57496" lon="5.62634">
        <ele>535.8</ele>
        <time>2022-03-05T14:33:27Z</time>
      </trkpt>
      <trkpt lat="46.57445" lon="5.62586">
        <ele>535.6</ele>
        <time>2022-03-05T14:33:33Z</time>
      </trkpt>
      <trkpt lat="46.57436" lon="5.62578">
        <ele>535.4</ele>
        <time>2022-03-05T14:33:34Z</time>
      </trkpt>
      <trkpt lat="46.57402" lon="5.62548">
        <ele>534.8</ele>
        <time>2022-03-05T14:33:38Z</time>
      </trkpt>
      <trkpt lat="46.57375" lon="5.62532">
        <ele>534.6</ele>
        <time>2022-03-05T14:33:41Z</time>
      </trkpt>
      <trkpt lat="46.57328" lon="5.62516">
        <ele>534.6</ele>
        <time>2022-03-05T14:33:46Z</time>
      </trkpt>
      <trkpt lat="46.57272" lon="5.62499">
        <ele>535.2</ele>
        <time>2022-03-05T14:33:52Z</time>
      </trkpt>
      <trkpt lat="46.57236" lon="5.6249">
        <ele>535.4</ele>
        <time>2022-03-05T14:33:56Z</time>
      </trkpt>
      <trkpt lat="46.57201" lon="5.62491">
        <ele>536</ele>
        <time>2022-03-05T14:34:00Z</time>
      </trkpt>
      <trkpt lat="46.57192" lon="5.62493">
        <ele>536</ele>
        <time>2022-03-05T14:34:01Z</time>
      </trkpt>
      <trkpt lat="46.57148" lon="5.62496">
        <ele>536.4</ele>
        <time>2022-03-05T14:34:06Z</time>
      </trkpt>
      <trkpt lat="46.57139" lon="5.62495">
        <ele>536.4</ele>
        <time>2022-03-05T14:34:07Z</time>
      </trkpt>
      <trkpt lat="46.57122" lon="5.62488">
        <ele>536.4</ele>
        <time>2022-03-05T14:34:09Z</time>
      </trkpt>
      <trkpt lat="46.57113" lon="5.62483">
        <ele>536.4</ele>
        <time>2022-03-05T14:34:10Z</time>
      </trkpt>
      <trkpt lat="46.57069" lon="5.62444">
        <ele>536.2</ele>
        <time>2022-03-05T14:34:16Z</time>
      </trkpt>
      <trkpt lat="46.57019" lon="5.62396">
        <ele>536.8</ele>
        <time>2022-03-05T14:34:23Z</time>
      </trkpt>
      <trkpt lat="46.56969" lon="5.62348">
        <ele>537</ele>
        <time>2022-03-05T14:34:30Z</time>
      </trkpt>
      <trkpt lat="46.56917" lon="5.62299">
        <ele>536.4</ele>
        <time>2022-03-05T14:34:37Z</time>
      </trkpt>
      <trkpt lat="46.56894" lon="5.62277">
        <ele>535.6</ele>
        <time>2022-03-05T14:34:40Z</time>
      </trkpt>
      <trkpt lat="46.56862" lon="5.62249">
        <ele>535</ele>
        <time>2022-03-05T14:34:44Z</time>
      </trkpt>
      <trkpt lat="46.56817" lon="5.62206">
        <ele>534.4</ele>
        <time>2022-03-05T14:34:50Z</time>
      </trkpt>
      <trkpt lat="46.56802" lon="5.62192">
        <ele>534.2</ele>
        <time>2022-03-05T14:34:52Z</time>
      </trkpt>
      <trkpt lat="46.56786" lon="5.62178">
        <ele>534</ele>
        <time>2022-03-05T14:34:54Z</time>
      </trkpt>
      <trkpt lat="46.56738" lon="5.62133">
        <ele>533</ele>
        <time>2022-03-05T14:35:00Z</time>
      </trkpt>
      <trkpt lat="46.56732" lon="5.62127">
        <ele>532.8</ele>
        <time>2022-03-05T14:35:01Z</time>
      </trkpt>
      <trkpt lat="46.56714" lon="5.6211">
        <ele>532.4</ele>
        <time>2022-03-05T14:35:03Z</time>
      </trkpt>
      <trkpt lat="46.56666" lon="5.62064">
        <ele>532</ele>
        <time>2022-03-05T14:35:09Z</time>
      </trkpt>
      <trkpt lat="46.56644" lon="5.62043">
        <ele>531.8</ele>
        <time>2022-03-05T14:35:12Z</time>
      </trkpt>
      <trkpt lat="46.56592" lon="5.61995">
        <ele>532</ele>
        <time>2022-03-05T14:35:19Z</time>
      </trkpt>
      <trkpt lat="46.56586" lon="5.61989">
        <ele>532</ele>
        <time>2022-03-05T14:35:20Z</time>
      </trkpt>
      <trkpt lat="46.56538" lon="5.61943">
        <ele>532.2</ele>
        <time>2022-03-05T14:35:27Z</time>
      </trkpt>
      <trkpt lat="46.56489" lon="5.61898">
        <ele>532.6</ele>
        <time>2022-03-05T14:35:34Z</time>
      </trkpt>
      <trkpt lat="46.5647" lon="5.61879">
        <ele>532.8</ele>
        <time>2022-03-05T14:35:37Z</time>
      </trkpt>
      <trkpt lat="46.56433" lon="5.61844">
        <ele>533.8</ele>
        <time>2022-03-05T14:35:43Z</time>
      </trkpt>
      <trkpt lat="46.56422" lon="5.61834">
        <ele>534.2</ele>
        <time>2022-03-05T14:35:45Z</time>
      </trkpt>
      <trkpt lat="46.56394" lon="5.61803">
        <ele>534.6</ele>
        <time>2022-03-05T14:35:50Z</time>
      </trkpt>
      <trkpt lat="46.56388" lon="5.61796">
        <ele>534.8</ele>
        <time>2022-03-05T14:35:51Z</time>
      </trkpt>
      <trkpt lat="46.56377" lon="5.61784">
        <ele>535</ele>
        <time>2022-03-05T14:35:53Z</time>
      </trkpt>
      <trkpt lat="46.56373" lon="5.61778">
        <ele>535</ele>
        <time>2022-03-05T14:35:54Z</time>
      </trkpt>
      <trkpt lat="46.56333" lon="5.61724">
        <ele>535.2</ele>
        <time>2022-03-05T14:36:02Z</time>
      </trkpt>
      <trkpt lat="46.56291" lon="5.61672">
        <ele>535.2</ele>
        <time>2022-03-05T14:36:10Z</time>
      </trkpt>
      <trkpt lat="46.56285" lon="5.61664">
        <ele>535.2</ele>
        <time>2022-03-05T14:36:11Z</time>
      </trkpt>
      <trkpt lat="46.56244" lon="5.61607">
        <ele>535</ele>
        <time>2022-03-05T14:36:19Z</time>
      </trkpt>
      <trkpt lat="46.56208" lon="5.61545">
        <ele>534.8</ele>
        <time>2022-03-05T14:36:27Z</time>
      </trkpt>
      <trkpt lat="46.56204" lon="5.61537">
        <ele>534.8</ele>
        <time>2022-03-05T14:36:28Z</time>
      </trkpt>
      <trkpt lat="46.56187" lon="5.61503">
        <ele>534.8</ele>
        <time>2022-03-05T14:36:32Z</time>
      </trkpt>
      <trkpt lat="46.56171" lon="5.6147">
        <ele>535</ele>
        <time>2022-03-05T14:36:36Z</time>
      </trkpt>
      <trkpt lat="46.56159" lon="5.61444">
        <ele>535.4</ele>
        <time>2022-03-05T14:36:39Z</time>
      </trkpt>
      <trkpt lat="46.56142" lon="5.61409">
        <ele>535.6</ele>
        <time>2022-03-05T14:36:43Z</time>
      </trkpt>
      <trkpt lat="46.56108" lon="5.6134">
        <ele>535.8</ele>
        <time>2022-03-05T14:36:51Z</time>
      </trkpt>
      <trkpt lat="46.56076" lon="5.61274">
        <ele>535.8</ele>
        <time>2022-03-05T14:36:59Z</time>
      </trkpt>
      <trkpt lat="46.56072" lon="5.61266">
        <ele>536</ele>
        <time>2022-03-05T14:37:00Z</time>
      </trkpt>
      <trkpt lat="46.56057" lon="5.61237">
        <ele>536.6</ele>
        <time>2022-03-05T14:37:04Z</time>
      </trkpt>
      <trkpt lat="46.56048" lon="5.61217">
        <ele>537</ele>
        <time>2022-03-05T14:37:07Z</time>
      </trkpt>
      <trkpt lat="46.56043" lon="5.61204">
        <ele>537</ele>
        <time>2022-03-05T14:37:09Z</time>
      </trkpt>
      <trkpt lat="46.56032" lon="5.61178">
        <ele>537.4</ele>
        <time>2022-03-05T14:37:13Z</time>
      </trkpt>
      <trkpt lat="46.56023" lon="5.61159">
        <ele>537.8</ele>
        <time>2022-03-05T14:37:16Z</time>
      </trkpt>
      <trkpt lat="46.56009" lon="5.61126">
        <ele>538</ele>
        <time>2022-03-05T14:37:21Z</time>
      </trkpt>
      <trkpt lat="46.55989" lon="5.61084">
        <ele>538.8</ele>
        <time>2022-03-05T14:37:27Z</time>
      </trkpt>
      <trkpt lat="46.55971" lon="5.61029">
        <ele>539.4</ele>
        <time>2022-03-05T14:37:34Z</time>
      </trkpt>
      <trkpt lat="46.55962" lon="5.60989">
        <ele>539.8</ele>
        <time>2022-03-05T14:37:39Z</time>
      </trkpt>
      <trkpt lat="46.55954" lon="5.60958">
        <ele>539.8</ele>
        <time>2022-03-05T14:37:43Z</time>
      </trkpt>
      <trkpt lat="46.55941" lon="5.60906">
        <ele>540</ele>
        <time>2022-03-05T14:37:50Z</time>
      </trkpt>
      <trkpt lat="46.55934" lon="5.60877">
        <ele>540.2</ele>
        <time>2022-03-05T14:37:54Z</time>
      </trkpt>
      <trkpt lat="46.55932" lon="5.60861">
        <ele>540.2</ele>
        <time>2022-03-05T14:37:56Z</time>
      </trkpt>
      <trkpt lat="46.5593" lon="5.60831">
        <ele>540.8</ele>
        <time>2022-03-05T14:38:00Z</time>
      </trkpt>
      <trkpt lat="46.5593" lon="5.60805">
        <ele>541</ele>
        <time>2022-03-05T14:38:03Z</time>
      </trkpt>
      <trkpt lat="46.55929" lon="5.60789">
        <ele>541</ele>
        <time>2022-03-05T14:38:05Z</time>
      </trkpt>
      <trkpt lat="46.55926" lon="5.60765">
        <ele>541</ele>
        <time>2022-03-05T14:38:08Z</time>
      </trkpt>
      <trkpt lat="46.55913" lon="5.60696">
        <ele>540.6</ele>
        <time>2022-03-05T14:38:16Z</time>
      </trkpt>
      <trkpt lat="46.55904" lon="5.60659">
        <ele>539.6</ele>
        <time>2022-03-05T14:38:20Z</time>
      </trkpt>
      <trkpt lat="46.559" lon="5.6064">
        <ele>539.6</ele>
        <time>2022-03-05T14:38:22Z</time>
      </trkpt>
      <trkpt lat="46.5589" lon="5.60603">
        <ele>538.8</ele>
        <time>2022-03-05T14:38:26Z</time>
      </trkpt>
      <trkpt lat="46.55884" lon="5.60586">
        <ele>538.6</ele>
        <time>2022-03-05T14:38:28Z</time>
      </trkpt>
      <trkpt lat="46.5588" lon="5.60577">
        <ele>538.4</ele>
        <time>2022-03-05T14:38:29Z</time>
      </trkpt>
      <trkpt lat="46.55876" lon="5.6057">
        <ele>538.4</ele>
        <time>2022-03-05T14:38:30Z</time>
      </trkpt>
      <trkpt lat="46.55865" lon="5.60556">
        <ele>538.2</ele>
        <time>2022-03-05T14:38:32Z</time>
      </trkpt>
      <trkpt lat="46.55859" lon="5.6055">
        <ele>538</ele>
        <time>2022-03-05T14:38:33Z</time>
      </trkpt>
      <trkpt lat="46.55853" lon="5.60545">
        <ele>538</ele>
        <time>2022-03-05T14:38:34Z</time>
      </trkpt>
      <trkpt lat="46.55839" lon="5.60538">
        <ele>537.8</ele>
        <time>2022-03-05T14:38:36Z</time>
      </trkpt>
      <trkpt lat="46.55832" lon="5.60535">
        <ele>537.6</ele>
        <time>2022-03-05T14:38:37Z</time>
      </trkpt>
      <trkpt lat="46.5581" lon="5.60529">
        <ele>537.4</ele>
        <time>2022-03-05T14:38:40Z</time>
      </trkpt>
      <trkpt lat="46.55787" lon="5.60525">
        <ele>536.6</ele>
        <time>2022-03-05T14:38:43Z</time>
      </trkpt>
      <trkpt lat="46.55744" lon="5.60504">
        <ele>535.8</ele>
        <time>2022-03-05T14:38:48Z</time>
      </trkpt>
      <trkpt lat="46.55738" lon="5.60497">
        <ele>535.4</ele>
        <time>2022-03-05T14:38:49Z</time>
      </trkpt>
      <trkpt lat="46.55722" lon="5.60473">
        <ele>534.8</ele>
        <time>2022-03-05T14:38:52Z</time>
      </trkpt>
      <trkpt lat="46.55714" lon="5.60456">
        <ele>534.2</ele>
        <time>2022-03-05T14:38:54Z</time>
      </trkpt>
      <trkpt lat="46.55692" lon="5.60403">
        <ele>533.2</ele>
        <time>2022-03-05T14:38:59Z</time>
      </trkpt>
      <trkpt lat="46.55692" lon="5.60403">
        <ele>533.2</ele>
        <time>2022-03-05T14:39:00Z</time>
      </trkpt>
      <trkpt lat="46.55675" lon="5.60377">
        <ele>533</ele>
        <time>2022-03-05T14:39:02Z</time>
      </trkpt>
      <trkpt lat="46.55662" lon="5.60364">
        <ele>532.6</ele>
        <time>2022-03-05T14:39:04Z</time>
      </trkpt>
      <trkpt lat="46.55647" lon="5.60356">
        <ele>532.2</ele>
        <time>2022-03-05T14:39:06Z</time>
      </trkpt>
      <trkpt lat="46.55632" lon="5.60351">
        <ele>531.8</ele>
        <time>2022-03-05T14:39:08Z</time>
      </trkpt>
      <trkpt lat="46.55598" lon="5.60348">
        <ele>530.8</ele>
        <time>2022-03-05T14:39:12Z</time>
      </trkpt>
      <trkpt lat="46.55575" lon="5.60347">
        <ele>530</ele>
        <time>2022-03-05T14:39:15Z</time>
      </trkpt>
      <trkpt lat="46.55531" lon="5.60342">
        <ele>529.8</ele>
        <time>2022-03-05T14:39:20Z</time>
      </trkpt>
      <trkpt lat="46.55502" lon="5.60335">
        <ele>529.2</ele>
        <time>2022-03-05T14:39:23Z</time>
      </trkpt>
      <trkpt lat="46.55484" lon="5.60329">
        <ele>528.6</ele>
        <time>2022-03-05T14:39:26Z</time>
      </trkpt>
      <trkpt lat="46.5545" lon="5.60318">
        <ele>527.4</ele>
        <time>2022-03-05T14:39:30Z</time>
      </trkpt>
      <trkpt lat="46.55424" lon="5.60308">
        <ele>526.6</ele>
        <time>2022-03-05T14:39:32Z</time>
      </trkpt>
      <trkpt lat="46.55424" lon="5.60308">
        <ele>526.2</ele>
        <time>2022-03-05T14:39:33Z</time>
      </trkpt>
      <trkpt lat="46.55368" lon="5.60288">
        <ele>525.2</ele>
        <time>2022-03-05T14:39:39Z</time>
      </trkpt>
      <trkpt lat="46.55368" lon="5.60288">
        <ele>525.2</ele>
        <time>2022-03-05T14:39:40Z</time>
      </trkpt>
      <trkpt lat="46.55352" lon="5.60283">
        <ele>525</ele>
        <time>2022-03-05T14:39:42Z</time>
      </trkpt>
      <trkpt lat="46.55311" lon="5.60277">
        <ele>524.8</ele>
        <time>2022-03-05T14:39:46Z</time>
      </trkpt>
      <trkpt lat="46.55303" lon="5.60279">
        <ele>524.8</ele>
        <time>2022-03-05T14:39:47Z</time>
      </trkpt>
      <trkpt lat="46.55253" lon="5.60298">
        <ele>524.4</ele>
        <time>2022-03-05T14:39:53Z</time>
      </trkpt>
      <trkpt lat="46.55245" lon="5.60301">
        <ele>523.8</ele>
        <time>2022-03-05T14:39:54Z</time>
      </trkpt>
      <trkpt lat="46.55189" lon="5.60322">
        <ele>522.6</ele>
        <time>2022-03-05T14:40:01Z</time>
      </trkpt>
      <trkpt lat="46.55181" lon="5.60322">
        <ele>522.6</ele>
        <time>2022-03-05T14:40:02Z</time>
      </trkpt>
      <trkpt lat="46.55172" lon="5.60321">
        <ele>522.6</ele>
        <time>2022-03-05T14:40:03Z</time>
      </trkpt>
      <trkpt lat="46.55148" lon="5.60312">
        <ele>522.4</ele>
        <time>2022-03-05T14:40:06Z</time>
      </trkpt>
      <trkpt lat="46.55128" lon="5.60297">
        <ele>521.8</ele>
        <time>2022-03-05T14:40:10Z</time>
      </trkpt>
      <trkpt lat="46.55115" lon="5.6028">
        <ele>521.6</ele>
        <time>2022-03-05T14:40:11Z</time>
      </trkpt>
      <trkpt lat="46.55105" lon="5.60264">
        <ele>521.6</ele>
        <time>2022-03-05T14:40:13Z</time>
      </trkpt>
      <trkpt lat="46.55063" lon="5.60193">
        <ele>521.2</ele>
        <time>2022-03-05T14:40:21Z</time>
      </trkpt>
      <trkpt lat="46.5503" lon="5.60163">
        <ele>521</ele>
        <time>2022-03-05T14:40:26Z</time>
      </trkpt>
      <trkpt lat="46.55009" lon="5.60149">
        <ele>520.6</ele>
        <time>2022-03-05T14:40:30Z</time>
      </trkpt>
      <trkpt lat="46.54958" lon="5.60114">
        <ele>520.2</ele>
        <time>2022-03-05T14:40:36Z</time>
      </trkpt>
      <trkpt lat="46.54927" lon="5.60079">
        <ele>519.4</ele>
        <time>2022-03-05T14:40:41Z</time>
      </trkpt>
      <trkpt lat="46.54921" lon="5.60072">
        <ele>519.2</ele>
        <time>2022-03-05T14:40:43Z</time>
      </trkpt>
      <trkpt lat="46.54909" lon="5.60061">
        <ele>519.2</ele>
        <time>2022-03-05T14:40:44Z</time>
      </trkpt>
      <trkpt lat="46.54885" lon="5.60047">
        <ele>519</ele>
        <time>2022-03-05T14:40:47Z</time>
      </trkpt>
      <trkpt lat="46.54838" lon="5.60033">
        <ele>518.4</ele>
        <time>2022-03-05T14:40:53Z</time>
      </trkpt>
      <trkpt lat="46.54823" lon="5.60028">
        <ele>518.2</ele>
        <time>2022-03-05T14:40:55Z</time>
      </trkpt>
      <trkpt lat="46.54808" lon="5.60019">
        <ele>517.8</ele>
        <time>2022-03-05T14:40:57Z</time>
      </trkpt>
      <trkpt lat="46.54797" lon="5.60009">
        <ele>517.6</ele>
        <time>2022-03-05T14:40:59Z</time>
      </trkpt>
      <trkpt lat="46.5479" lon="5.6">
        <ele>517.6</ele>
        <time>2022-03-05T14:41:00Z</time>
      </trkpt>
      <trkpt lat="46.5478" lon="5.59984">
        <ele>517.4</ele>
        <time>2022-03-05T14:41:02Z</time>
      </trkpt>
      <trkpt lat="46.54771" lon="5.59968">
        <ele>517.2</ele>
        <time>2022-03-05T14:41:04Z</time>
      </trkpt>
      <trkpt lat="46.54752" lon="5.59943">
        <ele>517</ele>
        <time>2022-03-05T14:41:07Z</time>
      </trkpt>
      <trkpt lat="46.54738" lon="5.59933">
        <ele>517</ele>
        <time>2022-03-05T14:41:09Z</time>
      </trkpt>
      <trkpt lat="46.54723" lon="5.59928">
        <ele>516.8</ele>
        <time>2022-03-05T14:41:11Z</time>
      </trkpt>
      <trkpt lat="46.54715" lon="5.59929">
        <ele>516.8</ele>
        <time>2022-03-05T14:41:12Z</time>
      </trkpt>
      <trkpt lat="46.54707" lon="5.5993">
        <ele>516.6</ele>
        <time>2022-03-05T14:41:13Z</time>
      </trkpt>
      <trkpt lat="46.54692" lon="5.59937">
        <ele>516.4</ele>
        <time>2022-03-05T14:41:16Z</time>
      </trkpt>
      <trkpt lat="46.54638" lon="5.59967">
        <ele>516</ele>
        <time>2022-03-05T14:41:22Z</time>
      </trkpt>
      <trkpt lat="46.5463" lon="5.59971">
        <ele>515.8</ele>
        <time>2022-03-05T14:41:23Z</time>
      </trkpt>
      <trkpt lat="46.54622" lon="5.59974">
        <ele>515.6</ele>
        <time>2022-03-05T14:41:25Z</time>
      </trkpt>
      <trkpt lat="46.54606" lon="5.59977">
        <ele>515.4</ele>
        <time>2022-03-05T14:41:27Z</time>
      </trkpt>
      <trkpt lat="46.54589" lon="5.59979">
        <ele>515.4</ele>
        <time>2022-03-05T14:41:28Z</time>
      </trkpt>
      <trkpt lat="46.54573" lon="5.5998">
        <ele>515.4</ele>
        <time>2022-03-05T14:41:30Z</time>
      </trkpt>
      <trkpt lat="46.5454" lon="5.59973">
        <ele>515</ele>
        <time>2022-03-05T14:41:34Z</time>
      </trkpt>
      <trkpt lat="46.54505" lon="5.59961">
        <ele>514.4</ele>
        <time>2022-03-05T14:41:38Z</time>
      </trkpt>
      <trkpt lat="46.5448" lon="5.59953">
        <ele>513.4</ele>
        <time>2022-03-05T14:41:42Z</time>
      </trkpt>
      <trkpt lat="46.5447" lon="5.59949">
        <ele>513.2</ele>
        <time>2022-03-05T14:41:43Z</time>
      </trkpt>
      <trkpt lat="46.54447" lon="5.59941">
        <ele>512</ele>
        <time>2022-03-05T14:41:46Z</time>
      </trkpt>
      <trkpt lat="46.54418" lon="5.59931">
        <ele>511.2</ele>
        <time>2022-03-05T14:41:49Z</time>
      </trkpt>
      <trkpt lat="46.54409" lon="5.59925">
        <ele>511</ele>
        <time>2022-03-05T14:41:51Z</time>
      </trkpt>
      <trkpt lat="46.54406" lon="5.59921">
        <ele>510.8</ele>
        <time>2022-03-05T14:41:52Z</time>
      </trkpt>
      <trkpt lat="46.54395" lon="5.59907">
        <ele>510.8</ele>
        <time>2022-03-05T14:41:55Z</time>
      </trkpt>
      <trkpt lat="46.5439" lon="5.59897">
        <ele>510.8</ele>
        <time>2022-03-05T14:41:57Z</time>
      </trkpt>
      <trkpt lat="46.54391" lon="5.59872">
        <ele>510.8</ele>
        <time>2022-03-05T14:42:00Z</time>
      </trkpt>
      <trkpt lat="46.54396" lon="5.59841">
        <ele>509.8</ele>
        <time>2022-03-05T14:42:04Z</time>
      </trkpt>
      <trkpt lat="46.54398" lon="5.59825">
        <ele>509.6</ele>
        <time>2022-03-05T14:42:06Z</time>
      </trkpt>
      <trkpt lat="46.54399" lon="5.59817">
        <ele>509.6</ele>
        <time>2022-03-05T14:42:07Z</time>
      </trkpt>
      <trkpt lat="46.54402" lon="5.59803">
        <ele>509.6</ele>
        <time>2022-03-05T14:42:09Z</time>
      </trkpt>
      <trkpt lat="46.54407" lon="5.59754">
        <ele>510</ele>
        <time>2022-03-05T14:42:15Z</time>
      </trkpt>
      <trkpt lat="46.54415" lon="5.59673">
        <ele>510.6</ele>
        <time>2022-03-05T14:42:25Z</time>
      </trkpt>
      <trkpt lat="46.54418" lon="5.59644">
        <ele>510.8</ele>
        <time>2022-03-05T14:42:29Z</time>
      </trkpt>
      <trkpt lat="46.54422" lon="5.59615">
        <ele>511.2</ele>
        <time>2022-03-05T14:42:33Z</time>
      </trkpt>
      <trkpt lat="46.54428" lon="5.59565">
        <ele>512</ele>
        <time>2022-03-05T14:42:40Z</time>
      </trkpt>
      <trkpt lat="46.5443" lon="5.59551">
        <ele>512.6</ele>
        <time>2022-03-05T14:42:42Z</time>
      </trkpt>
      <trkpt lat="46.54432" lon="5.59532">
        <ele>513.2</ele>
        <time>2022-03-05T14:42:45Z</time>
      </trkpt>
      <trkpt lat="46.54436" lon="5.59493">
        <ele>514.4</ele>
        <time>2022-03-05T14:42:51Z</time>
      </trkpt>
      <trkpt lat="46.54436" lon="5.59487">
        <ele>514.4</ele>
        <time>2022-03-05T14:42:52Z</time>
      </trkpt>
      <trkpt lat="46.5444" lon="5.59461">
        <ele>514.8</ele>
        <time>2022-03-05T14:42:56Z</time>
      </trkpt>
      <trkpt lat="46.54443" lon="5.59434">
        <ele>515.2</ele>
        <time>2022-03-05T14:43:00Z</time>
      </trkpt>
      <trkpt lat="46.54444" lon="5.59428">
        <ele>515.6</ele>
        <time>2022-03-05T14:43:01Z</time>
      </trkpt>
      <trkpt lat="46.54447" lon="5.59402">
        <ele>516.4</ele>
        <time>2022-03-05T14:43:05Z</time>
      </trkpt>
      <trkpt lat="46.54449" lon="5.59389">
        <ele>516.6</ele>
        <time>2022-03-05T14:43:07Z</time>
      </trkpt>
      <trkpt lat="46.5445" lon="5.59382">
        <ele>517</ele>
        <time>2022-03-05T14:43:08Z</time>
      </trkpt>
      <trkpt lat="46.54453" lon="5.59349">
        <ele>518.2</ele>
        <time>2022-03-05T14:43:13Z</time>
      </trkpt>
      <trkpt lat="46.54454" lon="5.59343">
        <ele>518.4</ele>
        <time>2022-03-05T14:43:14Z</time>
      </trkpt>
      <trkpt lat="46.54458" lon="5.59324">
        <ele>519</ele>
        <time>2022-03-05T14:43:17Z</time>
      </trkpt>
      <trkpt lat="46.54462" lon="5.59312">
        <ele>519.2</ele>
        <time>2022-03-05T14:43:19Z</time>
      </trkpt>
      <trkpt lat="46.54464" lon="5.59306">
        <ele>519.4</ele>
        <time>2022-03-05T14:43:20Z</time>
      </trkpt>
      <trkpt lat="46.54479" lon="5.59279">
        <ele>520.4</ele>
        <time>2022-03-05T14:43:26Z</time>
      </trkpt>
      <trkpt lat="46.54485" lon="5.59267">
        <ele>520.4</ele>
        <time>2022-03-05T14:43:27Z</time>
      </trkpt>
      <trkpt lat="46.54491" lon="5.59241">
        <ele>520.8</ele>
        <time>2022-03-05T14:43:31Z</time>
      </trkpt>
      <trkpt lat="46.54491" lon="5.59234">
        <ele>520.8</ele>
        <time>2022-03-05T14:43:32Z</time>
      </trkpt>
      <trkpt lat="46.54497" lon="5.59164">
        <ele>521.2</ele>
        <time>2022-03-05T14:43:41Z</time>
      </trkpt>
      <trkpt lat="46.54503" lon="5.59115">
        <ele>521.4</ele>
        <time>2022-03-05T14:43:48Z</time>
      </trkpt>
      <trkpt lat="46.54505" lon="5.59095">
        <ele>521.6</ele>
        <time>2022-03-05T14:43:51Z</time>
      </trkpt>
      <trkpt lat="46.54508" lon="5.59068">
        <ele>522</ele>
        <time>2022-03-05T14:43:55Z</time>
      </trkpt>
      <trkpt lat="46.5451" lon="5.59035">
        <ele>522.8</ele>
        <time>2022-03-05T14:44:00Z</time>
      </trkpt>
      <trkpt lat="46.5451" lon="5.59021">
        <ele>523.2</ele>
        <time>2022-03-05T14:44:02Z</time>
      </trkpt>
      <trkpt lat="46.54511" lon="5.58991">
        <ele>523.8</ele>
        <time>2022-03-05T14:44:06Z</time>
      </trkpt>
      <trkpt lat="46.54513" lon="5.58933">
        <ele>524.2</ele>
        <time>2022-03-05T14:44:13Z</time>
      </trkpt>
      <trkpt lat="46.54513" lon="5.58863">
        <ele>523.8</ele>
        <time>2022-03-05T14:44:21Z</time>
      </trkpt>
      <trkpt lat="46.54515" lon="5.58777">
        <ele>523.6</ele>
        <time>2022-03-05T14:44:31Z</time>
      </trkpt>
      <trkpt lat="46.54517" lon="5.58724">
        <ele>523.6</ele>
        <time>2022-03-05T14:44:38Z</time>
      </trkpt>
      <trkpt lat="46.54523" lon="5.58661">
        <ele>524.6</ele>
        <time>2022-03-05T14:44:46Z</time>
      </trkpt>
      <trkpt lat="46.5453" lon="5.58596">
        <ele>524.8</ele>
        <time>2022-03-05T14:44:54Z</time>
      </trkpt>
      <trkpt lat="46.54539" lon="5.58511">
        <ele>525</ele>
        <time>2022-03-05T14:45:05Z</time>
      </trkpt>
      <trkpt lat="46.54541" lon="5.58464">
        <ele>525.8</ele>
        <time>2022-03-05T14:45:12Z</time>
      </trkpt>
      <trkpt lat="46.5454" lon="5.58458">
        <ele>526</ele>
        <time>2022-03-05T14:45:13Z</time>
      </trkpt>
      <trkpt lat="46.54539" lon="5.58446">
        <ele>526.2</ele>
        <time>2022-03-05T14:45:15Z</time>
      </trkpt>
      <trkpt lat="46.54534" lon="5.58436">
        <ele>526.6</ele>
        <time>2022-03-05T14:45:17Z</time>
      </trkpt>
      <trkpt lat="46.54534" lon="5.58436">
        <ele>526.8</ele>
        <time>2022-03-05T14:45:18Z</time>
      </trkpt>
      <trkpt lat="46.54526" lon="5.58428">
        <ele>527</ele>
        <time>2022-03-05T14:45:19Z</time>
      </trkpt>
      <trkpt lat="46.54521" lon="5.58425">
        <ele>527.2</ele>
        <time>2022-03-05T14:45:20Z</time>
      </trkpt>
      <trkpt lat="46.54516" lon="5.58424">
        <ele>527.4</ele>
        <time>2022-03-05T14:45:21Z</time>
      </trkpt>
      <trkpt lat="46.5448" lon="5.58415">
        <ele>527.4</ele>
        <time>2022-03-05T14:45:27Z</time>
      </trkpt>
      <trkpt lat="46.54436" lon="5.584">
        <ele>526.6</ele>
        <time>2022-03-05T14:45:33Z</time>
      </trkpt>
      <trkpt lat="46.54428" lon="5.58397">
        <ele>526.2</ele>
        <time>2022-03-05T14:45:34Z</time>
      </trkpt>
      <trkpt lat="46.54398" lon="5.58382">
        <ele>525</ele>
        <time>2022-03-05T14:45:38Z</time>
      </trkpt>
      <trkpt lat="46.54376" lon="5.58371">
        <ele>524.2</ele>
        <time>2022-03-05T14:45:41Z</time>
      </trkpt>
      <trkpt lat="46.5436" lon="5.58363">
        <ele>524</ele>
        <time>2022-03-05T14:45:43Z</time>
      </trkpt>
      <trkpt lat="46.54303" lon="5.58335">
        <ele>522.6</ele>
        <time>2022-03-05T14:45:50Z</time>
      </trkpt>
      <trkpt lat="46.54295" lon="5.58331">
        <ele>522.4</ele>
        <time>2022-03-05T14:45:51Z</time>
      </trkpt>
      <trkpt lat="46.54261" lon="5.58313">
        <ele>521.6</ele>
        <time>2022-03-05T14:45:55Z</time>
      </trkpt>
      <trkpt lat="46.54221" lon="5.58293">
        <ele>520.8</ele>
        <time>2022-03-05T14:46:00Z</time>
      </trkpt>
      <trkpt lat="46.54206" lon="5.58284">
        <ele>520.4</ele>
        <time>2022-03-05T14:46:02Z</time>
      </trkpt>
      <trkpt lat="46.54199" lon="5.58278">
        <ele>520.2</ele>
        <time>2022-03-05T14:46:03Z</time>
      </trkpt>
      <trkpt lat="46.54193" lon="5.58272">
        <ele>520</ele>
        <time>2022-03-05T14:46:04Z</time>
      </trkpt>
      <trkpt lat="46.54188" lon="5.58264">
        <ele>520</ele>
        <time>2022-03-05T14:46:05Z</time>
      </trkpt>
      <trkpt lat="46.54181" lon="5.58245">
        <ele>520.2</ele>
        <time>2022-03-05T14:46:07Z</time>
      </trkpt>
      <trkpt lat="46.54171" lon="5.582">
        <ele>521.2</ele>
        <time>2022-03-05T14:46:12Z</time>
      </trkpt>
      <trkpt lat="46.54169" lon="5.58192">
        <ele>521.4</ele>
        <time>2022-03-05T14:46:13Z</time>
      </trkpt>
      <trkpt lat="46.54167" lon="5.58184">
        <ele>521.6</ele>
        <time>2022-03-05T14:46:14Z</time>
      </trkpt>
      <trkpt lat="46.54161" lon="5.5817">
        <ele>522.2</ele>
        <time>2022-03-05T14:46:16Z</time>
      </trkpt>
      <trkpt lat="46.54157" lon="5.58164">
        <ele>522.2</ele>
        <time>2022-03-05T14:46:17Z</time>
      </trkpt>
      <trkpt lat="46.54153" lon="5.58157">
        <ele>522.8</ele>
        <time>2022-03-05T14:46:18Z</time>
      </trkpt>
      <trkpt lat="46.54142" lon="5.58139">
        <ele>523.8</ele>
        <time>2022-03-05T14:46:21Z</time>
      </trkpt>
      <trkpt lat="46.54129" lon="5.58123">
        <ele>525</ele>
        <time>2022-03-05T14:46:24Z</time>
      </trkpt>
      <trkpt lat="46.54124" lon="5.58118">
        <ele>525.2</ele>
        <time>2022-03-05T14:46:25Z</time>
      </trkpt>
      <trkpt lat="46.54098" lon="5.58091">
        <ele>526.4</ele>
        <time>2022-03-05T14:46:31Z</time>
      </trkpt>
      <trkpt lat="46.54079" lon="5.58069">
        <ele>527.4</ele>
        <time>2022-03-05T14:46:36Z</time>
      </trkpt>
      <trkpt lat="46.54069" lon="5.58055">
        <ele>528.6</ele>
        <time>2022-03-05T14:46:39Z</time>
      </trkpt>
      <trkpt lat="46.54062" lon="5.58047">
        <ele>529.8</ele>
        <time>2022-03-05T14:46:41Z</time>
      </trkpt>
      <trkpt lat="46.54054" lon="5.58039">
        <ele>530</ele>
        <time>2022-03-05T14:46:43Z</time>
      </trkpt>
      <trkpt lat="46.54019" lon="5.58013">
        <ele>530.8</ele>
        <time>2022-03-05T14:46:50Z</time>
      </trkpt>
      <trkpt lat="46.54014" lon="5.5801">
        <ele>530.8</ele>
        <time>2022-03-05T14:46:51Z</time>
      </trkpt>
      <trkpt lat="46.54003" lon="5.58003">
        <ele>530.8</ele>
        <time>2022-03-05T14:46:53Z</time>
      </trkpt>
      <trkpt lat="46.53984" lon="5.57995">
        <ele>530.6</ele>
        <time>2022-03-05T14:46:56Z</time>
      </trkpt>
      <trkpt lat="46.53953" lon="5.57986">
        <ele>529.6</ele>
        <time>2022-03-05T14:47:00Z</time>
      </trkpt>
      <trkpt lat="46.53944" lon="5.57984">
        <ele>529.2</ele>
        <time>2022-03-05T14:47:01Z</time>
      </trkpt>
      <trkpt lat="46.53936" lon="5.57983">
        <ele>528.4</ele>
        <time>2022-03-05T14:47:03Z</time>
      </trkpt>
      <trkpt lat="46.53902" lon="5.57978">
        <ele>527.8</ele>
        <time>2022-03-05T14:47:05Z</time>
      </trkpt>
      <trkpt lat="46.53891" lon="5.57976">
        <ele>526.4</ele>
        <time>2022-03-05T14:47:06Z</time>
      </trkpt>
      <trkpt lat="46.53882" lon="5.57974">
        <ele>525.2</ele>
        <time>2022-03-05T14:47:07Z</time>
      </trkpt>
      <trkpt lat="46.5387" lon="5.57971">
        <ele>523.4</ele>
        <time>2022-03-05T14:47:08Z</time>
      </trkpt>
      <trkpt lat="46.53844" lon="5.57963">
        <ele>521.6</ele>
        <time>2022-03-05T14:47:10Z</time>
      </trkpt>
      <trkpt lat="46.53824" lon="5.57957">
        <ele>519.8</ele>
        <time>2022-03-05T14:47:12Z</time>
      </trkpt>
      <trkpt lat="46.53812" lon="5.57954">
        <ele>518.4</ele>
        <time>2022-03-05T14:47:13Z</time>
      </trkpt>
      <trkpt lat="46.53787" lon="5.57946">
        <ele>517.2</ele>
        <time>2022-03-05T14:47:15Z</time>
      </trkpt>
      <trkpt lat="46.53777" lon="5.57943">
        <ele>516</ele>
        <time>2022-03-05T14:47:17Z</time>
      </trkpt>
      <trkpt lat="46.5374" lon="5.57932">
        <ele>515</ele>
        <time>2022-03-05T14:47:19Z</time>
      </trkpt>
      <trkpt lat="46.53719" lon="5.57926">
        <ele>513.2</ele>
        <time>2022-03-05T14:47:22Z</time>
      </trkpt>
      <trkpt lat="46.53695" lon="5.5792">
        <ele>512.6</ele>
        <time>2022-03-05T14:47:23Z</time>
      </trkpt>
      <trkpt lat="46.53681" lon="5.57916">
        <ele>511.8</ele>
        <time>2022-03-05T14:47:24Z</time>
      </trkpt>
      <trkpt lat="46.5366" lon="5.5791">
        <ele>510.6</ele>
        <time>2022-03-05T14:47:26Z</time>
      </trkpt>
      <trkpt lat="46.53626" lon="5.57898">
        <ele>509.4</ele>
        <time>2022-03-05T14:47:29Z</time>
      </trkpt>
      <trkpt lat="46.53604" lon="5.57889">
        <ele>508.6</ele>
        <time>2022-03-05T14:47:31Z</time>
      </trkpt>
      <trkpt lat="46.53594" lon="5.57883">
        <ele>508.2</ele>
        <time>2022-03-05T14:47:32Z</time>
      </trkpt>
      <trkpt lat="46.53544" lon="5.57859">
        <ele>507.2</ele>
        <time>2022-03-05T14:47:37Z</time>
      </trkpt>
      <trkpt lat="46.53505" lon="5.57828">
        <ele>508</ele>
        <time>2022-03-05T14:47:42Z</time>
      </trkpt>
      <trkpt lat="46.53478" lon="5.57798">
        <ele>509.4</ele>
        <time>2022-03-05T14:47:47Z</time>
      </trkpt>
      <trkpt lat="46.53457" lon="5.57777">
        <ele>511.4</ele>
        <time>2022-03-05T14:47:51Z</time>
      </trkpt>
      <trkpt lat="46.53445" lon="5.57769">
        <ele>512.8</ele>
        <time>2022-03-05T14:47:53Z</time>
      </trkpt>
      <trkpt lat="46.53438" lon="5.57766">
        <ele>513.4</ele>
        <time>2022-03-05T14:47:54Z</time>
      </trkpt>
      <trkpt lat="46.53425" lon="5.5776">
        <ele>514</ele>
        <time>2022-03-05T14:47:56Z</time>
      </trkpt>
      <trkpt lat="46.53411" lon="5.57755">
        <ele>514.4</ele>
        <time>2022-03-05T14:47:58Z</time>
      </trkpt>
      <trkpt lat="46.53367" lon="5.57741">
        <ele>514.6</ele>
        <time>2022-03-05T14:48:04Z</time>
      </trkpt>
      <trkpt lat="46.53354" lon="5.57737">
        <ele>514.6</ele>
        <time>2022-03-05T14:48:06Z</time>
      </trkpt>
      <trkpt lat="46.53336" lon="5.57728">
        <ele>514.8</ele>
        <time>2022-03-05T14:48:09Z</time>
      </trkpt>
      <trkpt lat="46.53325" lon="5.5772">
        <ele>514.8</ele>
        <time>2022-03-05T14:48:11Z</time>
      </trkpt>
      <trkpt lat="46.53305" lon="5.57701">
        <ele>515.8</ele>
        <time>2022-03-05T14:48:15Z</time>
      </trkpt>
      <trkpt lat="46.53301" lon="5.57694">
        <ele>516</ele>
        <time>2022-03-05T14:48:16Z</time>
      </trkpt>
      <trkpt lat="46.53297" lon="5.57688">
        <ele>516.2</ele>
        <time>2022-03-05T14:48:17Z</time>
      </trkpt>
      <trkpt lat="46.53291" lon="5.57673">
        <ele>516.4</ele>
        <time>2022-03-05T14:48:19Z</time>
      </trkpt>
      <trkpt lat="46.53289" lon="5.57665">
        <ele>516.4</ele>
        <time>2022-03-05T14:48:20Z</time>
      </trkpt>
      <trkpt lat="46.53287" lon="5.57656">
        <ele>516.6</ele>
        <time>2022-03-05T14:48:21Z</time>
      </trkpt>
      <trkpt lat="46.53287" lon="5.57628">
        <ele>516.8</ele>
        <time>2022-03-05T14:48:24Z</time>
      </trkpt>
      <trkpt lat="46.53287" lon="5.57579">
        <ele>516.6</ele>
        <time>2022-03-05T14:48:29Z</time>
      </trkpt>
      <trkpt lat="46.53285" lon="5.57569">
        <ele>516.6</ele>
        <time>2022-03-05T14:48:30Z</time>
      </trkpt>
      <trkpt lat="46.53274" lon="5.57519">
        <ele>516.4</ele>
        <time>2022-03-05T14:48:35Z</time>
      </trkpt>
      <trkpt lat="46.53269" lon="5.57499">
        <ele>516.2</ele>
        <time>2022-03-05T14:48:37Z</time>
      </trkpt>
      <trkpt lat="46.53259" lon="5.57472">
        <ele>516.2</ele>
        <time>2022-03-05T14:48:40Z</time>
      </trkpt>
      <trkpt lat="46.53255" lon="5.57464">
        <ele>516.2</ele>
        <time>2022-03-05T14:48:41Z</time>
      </trkpt>
      <trkpt lat="46.53239" lon="5.57441">
        <ele>516</ele>
        <time>2022-03-05T14:48:44Z</time>
      </trkpt>
      <trkpt lat="46.53217" lon="5.57414">
        <ele>516.4</ele>
        <time>2022-03-05T14:48:48Z</time>
      </trkpt>
      <trkpt lat="46.53205" lon="5.57401">
        <ele>516.4</ele>
        <time>2022-03-05T14:48:50Z</time>
      </trkpt>
      <trkpt lat="46.53165" lon="5.57365">
        <ele>516.2</ele>
        <time>2022-03-05T14:48:56Z</time>
      </trkpt>
      <trkpt lat="46.53118" lon="5.57329">
        <ele>515</ele>
        <time>2022-03-05T14:49:03Z</time>
      </trkpt>
      <trkpt lat="46.53104" lon="5.57316">
        <ele>514.8</ele>
        <time>2022-03-05T14:49:05Z</time>
      </trkpt>
      <trkpt lat="46.53098" lon="5.57308">
        <ele>514.8</ele>
        <time>2022-03-05T14:49:06Z</time>
      </trkpt>
      <trkpt lat="46.53093" lon="5.573">
        <ele>514.8</ele>
        <time>2022-03-05T14:49:07Z</time>
      </trkpt>
      <trkpt lat="46.53088" lon="5.5729">
        <ele>514.6</ele>
        <time>2022-03-05T14:49:08Z</time>
      </trkpt>
      <trkpt lat="46.53071" lon="5.57251">
        <ele>513.6</ele>
        <time>2022-03-05T14:49:12Z</time>
      </trkpt>
      <trkpt lat="46.5305" lon="5.572">
        <ele>512.6</ele>
        <time>2022-03-05T14:49:17Z</time>
      </trkpt>
      <trkpt lat="46.53024" lon="5.57137">
        <ele>511.6</ele>
        <time>2022-03-05T14:49:23Z</time>
      </trkpt>
      <trkpt lat="46.5302" lon="5.57127">
        <ele>511.4</ele>
        <time>2022-03-05T14:49:24Z</time>
      </trkpt>
      <trkpt lat="46.53003" lon="5.57087">
        <ele>510.4</ele>
        <time>2022-03-05T14:49:28Z</time>
      </trkpt>
      <trkpt lat="46.52999" lon="5.57078">
        <ele>510.4</ele>
        <time>2022-03-05T14:49:29Z</time>
      </trkpt>
      <trkpt lat="46.52986" lon="5.5705">
        <ele>510.4</ele>
        <time>2022-03-05T14:49:32Z</time>
      </trkpt>
      <trkpt lat="46.52977" lon="5.57034">
        <ele>510.8</ele>
        <time>2022-03-05T14:49:34Z</time>
      </trkpt>
      <trkpt lat="46.52953" lon="5.56999">
        <ele>511.2</ele>
        <time>2022-03-05T14:49:39Z</time>
      </trkpt>
      <trkpt lat="46.52949" lon="5.56992">
        <ele>511.4</ele>
        <time>2022-03-05T14:49:40Z</time>
      </trkpt>
      <trkpt lat="46.52945" lon="5.56984">
        <ele>511.6</ele>
        <time>2022-03-05T14:49:41Z</time>
      </trkpt>
      <trkpt lat="46.52942" lon="5.56976">
        <ele>511.6</ele>
        <time>2022-03-05T14:49:42Z</time>
      </trkpt>
      <trkpt lat="46.5294" lon="5.56967">
        <ele>511.8</ele>
        <time>2022-03-05T14:49:43Z</time>
      </trkpt>
      <trkpt lat="46.52928" lon="5.56916">
        <ele>512.2</ele>
        <time>2022-03-05T14:49:49Z</time>
      </trkpt>
      <trkpt lat="46.52913" lon="5.5686">
        <ele>512.2</ele>
        <time>2022-03-05T14:49:55Z</time>
      </trkpt>
      <trkpt lat="46.52898" lon="5.56805">
        <ele>512</ele>
        <time>2022-03-05T14:50:01Z</time>
      </trkpt>
      <trkpt lat="46.52885" lon="5.56745">
        <ele>512</ele>
        <time>2022-03-05T14:50:08Z</time>
      </trkpt>
      <trkpt lat="46.52868" lon="5.56667">
        <ele>511.2</ele>
        <time>2022-03-05T14:50:17Z</time>
      </trkpt>
      <trkpt lat="46.52865" lon="5.56657">
        <ele>511.2</ele>
        <time>2022-03-05T14:50:18Z</time>
      </trkpt>
      <trkpt lat="46.52851" lon="5.56595">
        <ele>510.6</ele>
        <time>2022-03-05T14:50:25Z</time>
      </trkpt>
      <trkpt lat="46.52845" lon="5.56566">
        <ele>510.6</ele>
        <time>2022-03-05T14:50:28Z</time>
      </trkpt>
      <trkpt lat="46.52826" lon="5.56489">
        <ele>509.8</ele>
        <time>2022-03-05T14:50:36Z</time>
      </trkpt>
      <trkpt lat="46.5282" lon="5.56468">
        <ele>509.4</ele>
        <time>2022-03-05T14:50:38Z</time>
      </trkpt>
      <trkpt lat="46.52813" lon="5.56439">
        <ele>508.2</ele>
        <time>2022-03-05T14:50:41Z</time>
      </trkpt>
      <trkpt lat="46.52803" lon="5.56395">
        <ele>507.4</ele>
        <time>2022-03-05T14:50:46Z</time>
      </trkpt>
      <trkpt lat="46.52786" lon="5.56329">
        <ele>507.2</ele>
        <time>2022-03-05T14:50:54Z</time>
      </trkpt>
      <trkpt lat="46.52771" lon="5.56266">
        <ele>507.4</ele>
        <time>2022-03-05T14:51:02Z</time>
      </trkpt>
      <trkpt lat="46.52767" lon="5.5625">
        <ele>507.2</ele>
        <time>2022-03-05T14:51:04Z</time>
      </trkpt>
      <trkpt lat="46.52754" lon="5.56202">
        <ele>506.8</ele>
        <time>2022-03-05T14:51:10Z</time>
      </trkpt>
      <trkpt lat="46.52737" lon="5.56135">
        <ele>506.8</ele>
        <time>2022-03-05T14:51:19Z</time>
      </trkpt>
      <trkpt lat="46.52728" lon="5.56098">
        <ele>506.8</ele>
        <time>2022-03-05T14:51:24Z</time>
      </trkpt>
      <trkpt lat="46.52725" lon="5.56085">
        <ele>506.8</ele>
        <time>2022-03-05T14:51:26Z</time>
      </trkpt>
      <trkpt lat="46.52723" lon="5.56079">
        <ele>506.8</ele>
        <time>2022-03-05T14:51:27Z</time>
      </trkpt>
      <trkpt lat="46.5272" lon="5.56076">
        <ele>507</ele>
        <time>2022-03-05T14:51:28Z</time>
      </trkpt>
      <trkpt lat="46.52715" lon="5.56075">
        <ele>507</ele>
        <time>2022-03-05T14:51:29Z</time>
      </trkpt>
      <trkpt lat="46.5271" lon="5.56077">
        <ele>507</ele>
        <time>2022-03-05T14:51:30Z</time>
      </trkpt>
      <trkpt lat="46.52699" lon="5.56081">
        <ele>507</ele>
        <time>2022-03-05T14:51:32Z</time>
      </trkpt>
      <trkpt lat="46.52694" lon="5.56083">
        <ele>506.8</ele>
        <time>2022-03-05T14:51:33Z</time>
      </trkpt>
      <trkpt lat="46.52684" lon="5.56088">
        <ele>507</ele>
        <time>2022-03-05T14:51:35Z</time>
      </trkpt>
      <trkpt lat="46.52669" lon="5.56095">
        <ele>507</ele>
        <time>2022-03-05T14:51:38Z</time>
      </trkpt>
      <trkpt lat="46.5266" lon="5.56099">
        <ele>507</ele>
        <time>2022-03-05T14:51:40Z</time>
      </trkpt>
      <trkpt lat="46.52642" lon="5.56105">
        <ele>506.8</ele>
        <time>2022-03-05T14:51:44Z</time>
      </trkpt>
      <trkpt lat="46.52621" lon="5.56112">
        <ele>506.6</ele>
        <time>2022-03-05T14:51:50Z</time>
      </trkpt>
      <trkpt lat="46.52617" lon="5.5611">
        <ele>506.6</ele>
        <time>2022-03-05T14:51:54Z</time>
      </trkpt>
      <trkpt lat="46.52617" lon="5.5611">
        <ele>506.6</ele>
        <time>2022-03-05T14:51:55Z</time>
      </trkpt>
      <trkpt lat="46.52612" lon="5.56114">
        <ele>506</ele>
        <time>2022-03-05T14:54:58Z</time>
      </trkpt>
      <trkpt lat="46.52611" lon="5.56121">
        <ele>506.2</ele>
        <time>2022-03-05T14:55:00Z</time>
      </trkpt>
      <trkpt lat="46.52607" lon="5.56153">
        <ele>506.2</ele>
        <time>2022-03-05T14:55:06Z</time>
      </trkpt>
      <trkpt lat="46.52598" lon="5.56168">
        <ele>506.6</ele>
        <time>2022-03-05T14:55:10Z</time>
      </trkpt>
      <trkpt lat="46.52577" lon="5.56171">
        <ele>506.8</ele>
        <time>2022-03-05T14:55:15Z</time>
      </trkpt>
      <trkpt lat="46.52552" lon="5.56174">
        <ele>506.8</ele>
        <time>2022-03-05T14:55:21Z</time>
      </trkpt>
      <trkpt lat="46.52516" lon="5.56177">
        <ele>506.8</ele>
        <time>2022-03-05T14:55:27Z</time>
      </trkpt>
      <trkpt lat="46.52483" lon="5.56167">
        <ele>506.6</ele>
        <time>2022-03-05T14:55:32Z</time>
      </trkpt>
      <trkpt lat="46.52427" lon="5.56145">
        <ele>506.2</ele>
        <time>2022-03-05T14:55:40Z</time>
      </trkpt>
      <trkpt lat="46.52397" lon="5.56139">
        <ele>506</ele>
        <time>2022-03-05T14:55:44Z</time>
      </trkpt>
      <trkpt lat="46.52389" lon="5.5614">
        <ele>506</ele>
        <time>2022-03-05T14:55:45Z</time>
      </trkpt>
      <trkpt lat="46.52382" lon="5.56143">
        <ele>506</ele>
        <time>2022-03-05T14:55:46Z</time>
      </trkpt>
      <trkpt lat="46.52362" lon="5.56157">
        <ele>506</ele>
        <time>2022-03-05T14:55:49Z</time>
      </trkpt>
      <trkpt lat="46.52349" lon="5.56166">
        <ele>506.2</ele>
        <time>2022-03-05T14:55:51Z</time>
      </trkpt>
      <trkpt lat="46.52335" lon="5.56169">
        <ele>506.4</ele>
        <time>2022-03-05T14:55:53Z</time>
      </trkpt>
      <trkpt lat="46.52308" lon="5.5616">
        <ele>506.8</ele>
        <time>2022-03-05T14:55:57Z</time>
      </trkpt>
      <trkpt lat="46.52261" lon="5.56142">
        <ele>507.2</ele>
        <time>2022-03-05T14:56:04Z</time>
      </trkpt>
      <trkpt lat="46.52215" lon="5.56138">
        <ele>507.6</ele>
        <time>2022-03-05T14:56:10Z</time>
      </trkpt>
      <trkpt lat="46.52173" lon="5.56125">
        <ele>507</ele>
        <time>2022-03-05T14:56:15Z</time>
      </trkpt>
      <trkpt lat="46.52156" lon="5.56124">
        <ele>506.8</ele>
        <time>2022-03-05T14:56:17Z</time>
      </trkpt>
      <trkpt lat="46.52148" lon="5.56128">
        <ele>507</ele>
        <time>2022-03-05T14:56:18Z</time>
      </trkpt>
      <trkpt lat="46.5214" lon="5.56133">
        <ele>506.4</ele>
        <time>2022-03-05T14:56:19Z</time>
      </trkpt>
      <trkpt lat="46.52127" lon="5.56149">
        <ele>506.2</ele>
        <time>2022-03-05T14:56:21Z</time>
      </trkpt>
      <trkpt lat="46.52122" lon="5.56159">
        <ele>506.4</ele>
        <time>2022-03-05T14:56:22Z</time>
      </trkpt>
      <trkpt lat="46.52096" lon="5.56191">
        <ele>506.2</ele>
        <time>2022-03-05T14:56:26Z</time>
      </trkpt>
      <trkpt lat="46.52053" lon="5.56225">
        <ele>506.2</ele>
        <time>2022-03-05T14:56:32Z</time>
      </trkpt>
      <trkpt lat="46.52" lon="5.56265">
        <ele>506.4</ele>
        <time>2022-03-05T14:56:39Z</time>
      </trkpt>
      <trkpt lat="46.51985" lon="5.56275">
        <ele>506.4</ele>
        <time>2022-03-05T14:56:41Z</time>
      </trkpt>
      <trkpt lat="46.51934" lon="5.56317">
        <ele>505.8</ele>
        <time>2022-03-05T14:56:48Z</time>
      </trkpt>
      <trkpt lat="46.51904" lon="5.56337">
        <ele>505.8</ele>
        <time>2022-03-05T14:56:52Z</time>
      </trkpt>
      <trkpt lat="46.51896" lon="5.5634">
        <ele>505.8</ele>
        <time>2022-03-05T14:56:53Z</time>
      </trkpt>
      <trkpt lat="46.5184" lon="5.56353">
        <ele>505.6</ele>
        <time>2022-03-05T14:57:00Z</time>
      </trkpt>
      <trkpt lat="46.51783" lon="5.56368">
        <ele>505.4</ele>
        <time>2022-03-05T14:57:07Z</time>
      </trkpt>
      <trkpt lat="46.51758" lon="5.56372">
        <ele>505.4</ele>
        <time>2022-03-05T14:57:10Z</time>
      </trkpt>
      <trkpt lat="46.517" lon="5.56379">
        <ele>505.4</ele>
        <time>2022-03-05T14:57:17Z</time>
      </trkpt>
      <trkpt lat="46.51675" lon="5.56383">
        <ele>505.4</ele>
        <time>2022-03-05T14:57:20Z</time>
      </trkpt>
      <trkpt lat="46.51619" lon="5.5639">
        <ele>505.6</ele>
        <time>2022-03-05T14:57:27Z</time>
      </trkpt>
      <trkpt lat="46.51603" lon="5.56392">
        <ele>506</ele>
        <time>2022-03-05T14:57:29Z</time>
      </trkpt>
      <trkpt lat="46.51548" lon="5.56403">
        <ele>506</ele>
        <time>2022-03-05T14:57:36Z</time>
      </trkpt>
      <trkpt lat="46.5154" lon="5.56406">
        <ele>506.2</ele>
        <time>2022-03-05T14:57:37Z</time>
      </trkpt>
      <trkpt lat="46.51483" lon="5.56423">
        <ele>506</ele>
        <time>2022-03-05T14:57:44Z</time>
      </trkpt>
      <trkpt lat="46.51477" lon="5.56424">
        <ele>506</ele>
        <time>2022-03-05T14:57:45Z</time>
      </trkpt>
      <trkpt lat="46.51446" lon="5.56424">
        <ele>506.2</ele>
        <time>2022-03-05T14:57:49Z</time>
      </trkpt>
      <trkpt lat="46.51439" lon="5.56427">
        <ele>506.2</ele>
        <time>2022-03-05T14:57:50Z</time>
      </trkpt>
      <trkpt lat="46.51432" lon="5.56433">
        <ele>506.2</ele>
        <time>2022-03-05T14:57:51Z</time>
      </trkpt>
      <trkpt lat="46.51428" lon="5.56443">
        <ele>506.2</ele>
        <time>2022-03-05T14:57:52Z</time>
      </trkpt>
      <trkpt lat="46.51425" lon="5.56454">
        <ele>506.2</ele>
        <time>2022-03-05T14:57:53Z</time>
      </trkpt>
      <trkpt lat="46.51423" lon="5.56479">
        <ele>506.2</ele>
        <time>2022-03-05T14:57:55Z</time>
      </trkpt>
      <trkpt lat="46.51419" lon="5.56542">
        <ele>506.2</ele>
        <time>2022-03-05T14:58:00Z</time>
      </trkpt>
      <trkpt lat="46.51415" lon="5.5655">
        <ele>506.2</ele>
        <time>2022-03-05T14:58:01Z</time>
      </trkpt>
      <trkpt lat="46.51409" lon="5.56558">
        <ele>506</ele>
        <time>2022-03-05T14:58:02Z</time>
      </trkpt>
      <trkpt lat="46.51402" lon="5.56563">
        <ele>506</ele>
        <time>2022-03-05T14:58:03Z</time>
      </trkpt>
      <trkpt lat="46.51394" lon="5.56565">
        <ele>506</ele>
        <time>2022-03-05T14:58:04Z</time>
      </trkpt>
      <trkpt lat="46.5137" lon="5.56566">
        <ele>506.2</ele>
        <time>2022-03-05T14:58:07Z</time>
      </trkpt>
      <trkpt lat="46.51317" lon="5.56578">
        <ele>506.4</ele>
        <time>2022-03-05T14:58:14Z</time>
      </trkpt>
      <trkpt lat="46.51257" lon="5.56594">
        <ele>506.8</ele>
        <time>2022-03-05T14:58:22Z</time>
      </trkpt>
      <trkpt lat="46.5125" lon="5.56597">
        <ele>507</ele>
        <time>2022-03-05T14:58:23Z</time>
      </trkpt>
      <trkpt lat="46.51195" lon="5.5661">
        <ele>507.2</ele>
        <time>2022-03-05T14:58:30Z</time>
      </trkpt>
      <trkpt lat="46.51188" lon="5.56611">
        <ele>507.2</ele>
        <time>2022-03-05T14:58:31Z</time>
      </trkpt>
      <trkpt lat="46.51146" lon="5.56606">
        <ele>508</ele>
        <time>2022-03-05T14:58:37Z</time>
      </trkpt>
      <trkpt lat="46.51118" lon="5.56603">
        <ele>509.2</ele>
        <time>2022-03-05T14:58:41Z</time>
      </trkpt>
      <trkpt lat="46.51088" lon="5.56598">
        <ele>509.4</ele>
        <time>2022-03-05T14:58:45Z</time>
      </trkpt>
      <trkpt lat="46.51031" lon="5.5658">
        <ele>509.6</ele>
        <time>2022-03-05T14:58:53Z</time>
      </trkpt>
      <trkpt lat="46.51014" lon="5.56573">
        <ele>510</ele>
        <time>2022-03-05T14:58:56Z</time>
      </trkpt>
      <trkpt lat="46.51002" lon="5.56571">
        <ele>510</ele>
        <time>2022-03-05T14:58:58Z</time>
      </trkpt>
      <trkpt lat="46.50997" lon="5.56571">
        <ele>510.2</ele>
        <time>2022-03-05T14:58:59Z</time>
      </trkpt>
      <trkpt lat="46.50976" lon="5.56575">
        <ele>511.2</ele>
        <time>2022-03-05T14:59:03Z</time>
      </trkpt>
      <trkpt lat="46.50971" lon="5.56578">
        <ele>512.2</ele>
        <time>2022-03-05T14:59:04Z</time>
      </trkpt>
      <trkpt lat="46.50966" lon="5.56581">
        <ele>512.4</ele>
        <time>2022-03-05T14:59:05Z</time>
      </trkpt>
      <trkpt lat="46.50954" lon="5.56592">
        <ele>513.4</ele>
        <time>2022-03-05T14:59:08Z</time>
      </trkpt>
      <trkpt lat="46.5095" lon="5.56597">
        <ele>514</ele>
        <time>2022-03-05T14:59:09Z</time>
      </trkpt>
      <trkpt lat="46.50942" lon="5.56608">
        <ele>514.6</ele>
        <time>2022-03-05T14:59:11Z</time>
      </trkpt>
      <trkpt lat="46.50934" lon="5.56619">
        <ele>515</ele>
        <time>2022-03-05T14:59:13Z</time>
      </trkpt>
      <trkpt lat="46.50927" lon="5.5663">
        <ele>515.6</ele>
        <time>2022-03-05T14:59:15Z</time>
      </trkpt>
      <trkpt lat="46.50923" lon="5.56635">
        <ele>516</ele>
        <time>2022-03-05T14:59:16Z</time>
      </trkpt>
      <trkpt lat="46.50909" lon="5.56653">
        <ele>517</ele>
        <time>2022-03-05T14:59:20Z</time>
      </trkpt>
      <trkpt lat="46.50906" lon="5.56656">
        <ele>517.2</ele>
        <time>2022-03-05T14:59:21Z</time>
      </trkpt>
      <trkpt lat="46.50898" lon="5.56664">
        <ele>518</ele>
        <time>2022-03-05T14:59:23Z</time>
      </trkpt>
      <trkpt lat="46.50879" lon="5.56679">
        <ele>519</ele>
        <time>2022-03-05T14:59:28Z</time>
      </trkpt>
      <trkpt lat="46.50875" lon="5.56682">
        <ele>519.4</ele>
        <time>2022-03-05T14:59:29Z</time>
      </trkpt>
      <trkpt lat="46.50872" lon="5.56684">
        <ele>519.6</ele>
        <time>2022-03-05T14:59:30Z</time>
      </trkpt>
      <trkpt lat="46.50864" lon="5.56687">
        <ele>520.2</ele>
        <time>2022-03-05T14:59:32Z</time>
      </trkpt>
      <trkpt lat="46.50859" lon="5.56688">
        <ele>520.4</ele>
        <time>2022-03-05T14:59:33Z</time>
      </trkpt>
      <trkpt lat="46.5085" lon="5.56687">
        <ele>520.6</ele>
        <time>2022-03-05T14:59:35Z</time>
      </trkpt>
      <trkpt lat="46.50845" lon="5.56687">
        <ele>521</ele>
        <time>2022-03-05T14:59:36Z</time>
      </trkpt>
      <trkpt lat="46.5084" lon="5.56687">
        <ele>521.2</ele>
        <time>2022-03-05T14:59:37Z</time>
      </trkpt>
      <trkpt lat="46.50821" lon="5.5669">
        <ele>522.2</ele>
        <time>2022-03-05T14:59:41Z</time>
      </trkpt>
      <trkpt lat="46.50816" lon="5.56691">
        <ele>522.2</ele>
        <time>2022-03-05T14:59:42Z</time>
      </trkpt>
      <trkpt lat="46.50809" lon="5.56691">
        <ele>522.4</ele>
        <time>2022-03-05T14:59:43Z</time>
      </trkpt>
      <trkpt lat="46.508" lon="5.56689">
        <ele>522.6</ele>
        <time>2022-03-05T14:59:45Z</time>
      </trkpt>
      <trkpt lat="46.50793" lon="5.56685">
        <ele>522.6</ele>
        <time>2022-03-05T14:59:46Z</time>
      </trkpt>
      <trkpt lat="46.50783" lon="5.56679">
        <ele>522.6</ele>
        <time>2022-03-05T14:59:48Z</time>
      </trkpt>
      <trkpt lat="46.50766" lon="5.56664">
        <ele>522.4</ele>
        <time>2022-03-05T14:59:51Z</time>
      </trkpt>
      <trkpt lat="46.50761" lon="5.56658">
        <ele>521.8</ele>
        <time>2022-03-05T14:59:52Z</time>
      </trkpt>
      <trkpt lat="46.50746" lon="5.56639">
        <ele>521.4</ele>
        <time>2022-03-05T14:59:55Z</time>
      </trkpt>
      <trkpt lat="46.50735" lon="5.5663">
        <ele>521.2</ele>
        <time>2022-03-05T14:59:57Z</time>
      </trkpt>
      <trkpt lat="46.50723" lon="5.56624">
        <ele>521.2</ele>
        <time>2022-03-05T14:59:59Z</time>
      </trkpt>
      <trkpt lat="46.50698" lon="5.56612">
        <ele>521.8</ele>
        <time>2022-03-05T15:00:04Z</time>
      </trkpt>
      <trkpt lat="46.50684" lon="5.56606">
        <ele>522.4</ele>
        <time>2022-03-05T15:00:07Z</time>
      </trkpt>
      <trkpt lat="46.50672" lon="5.56602">
        <ele>523.6</ele>
        <time>2022-03-05T15:00:10Z</time>
      </trkpt>
      <trkpt lat="46.5065" lon="5.56596">
        <ele>524.8</ele>
        <time>2022-03-05T15:00:15Z</time>
      </trkpt>
      <trkpt lat="46.50638" lon="5.56593">
        <ele>525.8</ele>
        <time>2022-03-05T15:00:18Z</time>
      </trkpt>
      <trkpt lat="46.50617" lon="5.56587">
        <ele>526.8</ele>
        <time>2022-03-05T15:00:23Z</time>
      </trkpt>
      <trkpt lat="46.50604" lon="5.56582">
        <ele>528</ele>
        <time>2022-03-05T15:00:26Z</time>
      </trkpt>
      <trkpt lat="46.50588" lon="5.56569">
        <ele>529</ele>
        <time>2022-03-05T15:00:30Z</time>
      </trkpt>
      <trkpt lat="46.50575" lon="5.56559">
        <ele>529.6</ele>
        <time>2022-03-05T15:00:33Z</time>
      </trkpt>
      <trkpt lat="46.50571" lon="5.56556">
        <ele>530.2</ele>
        <time>2022-03-05T15:00:34Z</time>
      </trkpt>
      <trkpt lat="46.50566" lon="5.56552">
        <ele>530.4</ele>
        <time>2022-03-05T15:00:35Z</time>
      </trkpt>
      <trkpt lat="46.50552" lon="5.56545">
        <ele>531.4</ele>
        <time>2022-03-05T15:00:38Z</time>
      </trkpt>
      <trkpt lat="46.50544" lon="5.56542">
        <ele>531.8</ele>
        <time>2022-03-05T15:00:40Z</time>
      </trkpt>
      <trkpt lat="46.5053" lon="5.56538">
        <ele>532.4</ele>
        <time>2022-03-05T15:00:43Z</time>
      </trkpt>
      <trkpt lat="46.50507" lon="5.56534">
        <ele>533.6</ele>
        <time>2022-03-05T15:00:48Z</time>
      </trkpt>
      <trkpt lat="46.50497" lon="5.56532">
        <ele>534</ele>
        <time>2022-03-05T15:00:50Z</time>
      </trkpt>
      <trkpt lat="46.50476" lon="5.56529">
        <ele>534.6</ele>
        <time>2022-03-05T15:00:54Z</time>
      </trkpt>
      <trkpt lat="46.5046" lon="5.56526">
        <ele>535.4</ele>
        <time>2022-03-05T15:00:57Z</time>
      </trkpt>
      <trkpt lat="46.50449" lon="5.56523">
        <ele>535.6</ele>
        <time>2022-03-05T15:00:59Z</time>
      </trkpt>
      <trkpt lat="46.50444" lon="5.56521">
        <ele>535.6</ele>
        <time>2022-03-05T15:01:00Z</time>
      </trkpt>
      <trkpt lat="46.50392" lon="5.56504">
        <ele>536</ele>
        <time>2022-03-05T15:01:09Z</time>
      </trkpt>
      <trkpt lat="46.50337" lon="5.56486">
        <ele>537</ele>
        <time>2022-03-05T15:01:19Z</time>
      </trkpt>
      <trkpt lat="46.50326" lon="5.56483">
        <ele>537.4</ele>
        <time>2022-03-05T15:01:21Z</time>
      </trkpt>
      <trkpt lat="46.50311" lon="5.56478">
        <ele>538.2</ele>
        <time>2022-03-05T15:01:24Z</time>
      </trkpt>
      <trkpt lat="46.50287" lon="5.56467">
        <ele>539.2</ele>
        <time>2022-03-05T15:01:29Z</time>
      </trkpt>
      <trkpt lat="46.50282" lon="5.56464">
        <ele>539.2</ele>
        <time>2022-03-05T15:01:30Z</time>
      </trkpt>
      <trkpt lat="46.5026" lon="5.56442">
        <ele>540.4</ele>
        <time>2022-03-05T15:01:35Z</time>
      </trkpt>
      <trkpt lat="46.5024" lon="5.56418">
        <ele>541.4</ele>
        <time>2022-03-05T15:01:40Z</time>
      </trkpt>
      <trkpt lat="46.50228" lon="5.56406">
        <ele>541.8</ele>
        <time>2022-03-05T15:01:43Z</time>
      </trkpt>
      <trkpt lat="46.50211" lon="5.5639">
        <ele>542.6</ele>
        <time>2022-03-05T15:01:47Z</time>
      </trkpt>
      <trkpt lat="46.50207" lon="5.56386">
        <ele>542.8</ele>
        <time>2022-03-05T15:01:48Z</time>
      </trkpt>
      <trkpt lat="46.50186" lon="5.56366">
        <ele>543.2</ele>
        <time>2022-03-05T15:01:52Z</time>
      </trkpt>
      <trkpt lat="46.50175" lon="5.56352">
        <ele>543.2</ele>
        <time>2022-03-05T15:01:54Z</time>
      </trkpt>
      <trkpt lat="46.50166" lon="5.56338">
        <ele>543.2</ele>
        <time>2022-03-05T15:01:56Z</time>
      </trkpt>
      <trkpt lat="46.50157" lon="5.56321">
        <ele>543</ele>
        <time>2022-03-05T15:01:58Z</time>
      </trkpt>
      <trkpt lat="46.50146" lon="5.56293">
        <ele>543</ele>
        <time>2022-03-05T15:02:01Z</time>
      </trkpt>
      <trkpt lat="46.50126" lon="5.56247">
        <ele>542.6</ele>
        <time>2022-03-05T15:02:06Z</time>
      </trkpt>
      <trkpt lat="46.50122" lon="5.56241">
        <ele>542.4</ele>
        <time>2022-03-05T15:02:07Z</time>
      </trkpt>
      <trkpt lat="46.50117" lon="5.56234">
        <ele>542.4</ele>
        <time>2022-03-05T15:02:08Z</time>
      </trkpt>
      <trkpt lat="46.50096" lon="5.56216">
        <ele>542.4</ele>
        <time>2022-03-05T15:02:11Z</time>
      </trkpt>
      <trkpt lat="46.50064" lon="5.56195">
        <ele>541.6</ele>
        <time>2022-03-05T15:02:15Z</time>
      </trkpt>
      <trkpt lat="46.5004" lon="5.56176">
        <ele>541.2</ele>
        <time>2022-03-05T15:02:18Z</time>
      </trkpt>
      <trkpt lat="46.50013" lon="5.56159">
        <ele>540.4</ele>
        <time>2022-03-05T15:02:21Z</time>
      </trkpt>
      <trkpt lat="46.49986" lon="5.56142">
        <ele>540</ele>
        <time>2022-03-05T15:02:24Z</time>
      </trkpt>
      <trkpt lat="46.49976" lon="5.56134">
        <ele>539.2</ele>
        <time>2022-03-05T15:02:25Z</time>
      </trkpt>
      <trkpt lat="46.49962" lon="5.56118">
        <ele>539</ele>
        <time>2022-03-05T15:02:27Z</time>
      </trkpt>
      <trkpt lat="46.49951" lon="5.56096">
        <ele>538.4</ele>
        <time>2022-03-05T15:02:29Z</time>
      </trkpt>
      <trkpt lat="46.49941" lon="5.5607">
        <ele>538.4</ele>
        <time>2022-03-05T15:02:31Z</time>
      </trkpt>
      <trkpt lat="46.49931" lon="5.5605">
        <ele>538.2</ele>
        <time>2022-03-05T15:02:33Z</time>
      </trkpt>
      <trkpt lat="46.49917" lon="5.56031">
        <ele>538.2</ele>
        <time>2022-03-05T15:02:35Z</time>
      </trkpt>
      <trkpt lat="46.49882" lon="5.56002">
        <ele>538</ele>
        <time>2022-03-05T15:02:39Z</time>
      </trkpt>
      <trkpt lat="46.49835" lon="5.55968">
        <ele>537.2</ele>
        <time>2022-03-05T15:02:44Z</time>
      </trkpt>
      <trkpt lat="46.49826" lon="5.55959">
        <ele>537</ele>
        <time>2022-03-05T15:02:45Z</time>
      </trkpt>
      <trkpt lat="46.49818" lon="5.55949">
        <ele>536.2</ele>
        <time>2022-03-05T15:02:46Z</time>
      </trkpt>
      <trkpt lat="46.49793" lon="5.55918">
        <ele>535</ele>
        <time>2022-03-05T15:02:49Z</time>
      </trkpt>
      <trkpt lat="46.49782" lon="5.55908">
        <ele>535</ele>
        <time>2022-03-05T15:02:50Z</time>
      </trkpt>
      <trkpt lat="46.49745" lon="5.5588">
        <ele>534</ele>
        <time>2022-03-05T15:02:54Z</time>
      </trkpt>
      <trkpt lat="46.49725" lon="5.55868">
        <ele>533.4</ele>
        <time>2022-03-05T15:02:56Z</time>
      </trkpt>
      <trkpt lat="46.49704" lon="5.55855">
        <ele>532.8</ele>
        <time>2022-03-05T15:02:58Z</time>
      </trkpt>
      <trkpt lat="46.49662" lon="5.55828">
        <ele>531.2</ele>
        <time>2022-03-05T15:03:02Z</time>
      </trkpt>
      <trkpt lat="46.49629" lon="5.55807">
        <ele>530.2</ele>
        <time>2022-03-05T15:03:05Z</time>
      </trkpt>
      <trkpt lat="46.49618" lon="5.55799">
        <ele>530</ele>
        <time>2022-03-05T15:03:06Z</time>
      </trkpt>
      <trkpt lat="46.49587" lon="5.55774">
        <ele>528.8</ele>
        <time>2022-03-05T15:03:09Z</time>
      </trkpt>
      <trkpt lat="46.49557" lon="5.55747">
        <ele>528</ele>
        <time>2022-03-05T15:03:12Z</time>
      </trkpt>
      <trkpt lat="46.49547" lon="5.55738">
        <ele>527.8</ele>
        <time>2022-03-05T15:03:13Z</time>
      </trkpt>
      <trkpt lat="46.49527" lon="5.5572">
        <ele>526.6</ele>
        <time>2022-03-05T15:03:15Z</time>
      </trkpt>
      <trkpt lat="46.49486" lon="5.55684">
        <ele>525.6</ele>
        <time>2022-03-05T15:03:19Z</time>
      </trkpt>
      <trkpt lat="46.49448" lon="5.55647">
        <ele>524.6</ele>
        <time>2022-03-05T15:03:23Z</time>
      </trkpt>
      <trkpt lat="46.49439" lon="5.55636">
        <ele>524.2</ele>
        <time>2022-03-05T15:03:24Z</time>
      </trkpt>
      <trkpt lat="46.49426" lon="5.55608">
        <ele>523.8</ele>
        <time>2022-03-05T15:03:26Z</time>
      </trkpt>
      <trkpt lat="46.49423" lon="5.55592">
        <ele>523.2</ele>
        <time>2022-03-05T15:03:27Z</time>
      </trkpt>
      <trkpt lat="46.49422" lon="5.55576">
        <ele>522.8</ele>
        <time>2022-03-05T15:03:28Z</time>
      </trkpt>
      <trkpt lat="46.49422" lon="5.5556">
        <ele>522.4</ele>
        <time>2022-03-05T15:03:29Z</time>
      </trkpt>
      <trkpt lat="46.49421" lon="5.55543">
        <ele>521.6</ele>
        <time>2022-03-05T15:03:30Z</time>
      </trkpt>
      <trkpt lat="46.49414" lon="5.55512">
        <ele>520.6</ele>
        <time>2022-03-05T15:03:32Z</time>
      </trkpt>
      <trkpt lat="46.49401" lon="5.55488">
        <ele>519.6</ele>
        <time>2022-03-05T15:03:34Z</time>
      </trkpt>
      <trkpt lat="46.49393" lon="5.55478">
        <ele>519.4</ele>
        <time>2022-03-05T15:03:35Z</time>
      </trkpt>
      <trkpt lat="46.49385" lon="5.55469">
        <ele>518.8</ele>
        <time>2022-03-05T15:03:36Z</time>
      </trkpt>
      <trkpt lat="46.49356" lon="5.55449">
        <ele>518.2</ele>
        <time>2022-03-05T15:03:39Z</time>
      </trkpt>
      <trkpt lat="46.49301" lon="5.55406">
        <ele>517.6</ele>
        <time>2022-03-05T15:03:45Z</time>
      </trkpt>
      <trkpt lat="46.49252" lon="5.55378">
        <ele>517.6</ele>
        <time>2022-03-05T15:03:50Z</time>
      </trkpt>
      <trkpt lat="46.49238" lon="5.55362">
        <ele>517.6</ele>
        <time>2022-03-05T15:03:52Z</time>
      </trkpt>
      <trkpt lat="46.49231" lon="5.55352">
        <ele>517.4</ele>
        <time>2022-03-05T15:03:53Z</time>
      </trkpt>
      <trkpt lat="46.49218" lon="5.55332">
        <ele>517.2</ele>
        <time>2022-03-05T15:03:55Z</time>
      </trkpt>
      <trkpt lat="46.4919" lon="5.55294">
        <ele>516.4</ele>
        <time>2022-03-05T15:03:59Z</time>
      </trkpt>
      <trkpt lat="46.49167" lon="5.55266">
        <ele>516.4</ele>
        <time>2022-03-05T15:04:03Z</time>
      </trkpt>
      <trkpt lat="46.4913" lon="5.55209">
        <ele>517.6</ele>
        <time>2022-03-05T15:04:10Z</time>
      </trkpt>
      <trkpt lat="46.49114" lon="5.55186">
        <ele>518.2</ele>
        <time>2022-03-05T15:04:13Z</time>
      </trkpt>
      <trkpt lat="46.4911" lon="5.5518">
        <ele>518.2</ele>
        <time>2022-03-05T15:04:14Z</time>
      </trkpt>
      <trkpt lat="46.49105" lon="5.55173">
        <ele>518.4</ele>
        <time>2022-03-05T15:04:15Z</time>
      </trkpt>
      <trkpt lat="46.49075" lon="5.55138">
        <ele>519.2</ele>
        <time>2022-03-05T15:04:20Z</time>
      </trkpt>
      <trkpt lat="46.4907" lon="5.55128">
        <ele>519.2</ele>
        <time>2022-03-05T15:04:21Z</time>
      </trkpt>
      <trkpt lat="46.49066" lon="5.55118">
        <ele>519.2</ele>
        <time>2022-03-05T15:04:22Z</time>
      </trkpt>
      <trkpt lat="46.49061" lon="5.55096">
        <ele>519.2</ele>
        <time>2022-03-05T15:04:24Z</time>
      </trkpt>
      <trkpt lat="46.49059" lon="5.55074">
        <ele>519.2</ele>
        <time>2022-03-05T15:04:26Z</time>
      </trkpt>
      <trkpt lat="46.4906" lon="5.55051">
        <ele>519</ele>
        <time>2022-03-05T15:04:28Z</time>
      </trkpt>
      <trkpt lat="46.49067" lon="5.54965">
        <ele>517.8</ele>
        <time>2022-03-05T15:04:35Z</time>
      </trkpt>
      <trkpt lat="46.49075" lon="5.54916">
        <ele>517.2</ele>
        <time>2022-03-05T15:04:39Z</time>
      </trkpt>
      <trkpt lat="46.49073" lon="5.54891">
        <ele>517</ele>
        <time>2022-03-05T15:04:41Z</time>
      </trkpt>
      <trkpt lat="46.49068" lon="5.54868">
        <ele>516.8</ele>
        <time>2022-03-05T15:04:43Z</time>
      </trkpt>
      <trkpt lat="46.49059" lon="5.54845">
        <ele>516.2</ele>
        <time>2022-03-05T15:04:45Z</time>
      </trkpt>
      <trkpt lat="46.49054" lon="5.54834">
        <ele>516</ele>
        <time>2022-03-05T15:04:46Z</time>
      </trkpt>
      <trkpt lat="46.49043" lon="5.54813">
        <ele>515.4</ele>
        <time>2022-03-05T15:04:48Z</time>
      </trkpt>
      <trkpt lat="46.49036" lon="5.54805">
        <ele>515.4</ele>
        <time>2022-03-05T15:04:49Z</time>
      </trkpt>
      <trkpt lat="46.49029" lon="5.54798">
        <ele>515.2</ele>
        <time>2022-03-05T15:04:50Z</time>
      </trkpt>
      <trkpt lat="46.49021" lon="5.54793">
        <ele>515.2</ele>
        <time>2022-03-05T15:04:51Z</time>
      </trkpt>
      <trkpt lat="46.49012" lon="5.54789">
        <ele>515</ele>
        <time>2022-03-05T15:04:52Z</time>
      </trkpt>
      <trkpt lat="46.48973" lon="5.5478">
        <ele>514</ele>
        <time>2022-03-05T15:04:56Z</time>
      </trkpt>
      <trkpt lat="46.48956" lon="5.54778">
        <ele>513.4</ele>
        <time>2022-03-05T15:04:58Z</time>
      </trkpt>
      <trkpt lat="46.48936" lon="5.54783">
        <ele>513</ele>
        <time>2022-03-05T15:05:00Z</time>
      </trkpt>
      <trkpt lat="46.48926" lon="5.54788">
        <ele>512.4</ele>
        <time>2022-03-05T15:05:01Z</time>
      </trkpt>
      <trkpt lat="46.48915" lon="5.54793">
        <ele>512.2</ele>
        <time>2022-03-05T15:05:02Z</time>
      </trkpt>
      <trkpt lat="46.48905" lon="5.54795">
        <ele>511.6</ele>
        <time>2022-03-05T15:05:03Z</time>
      </trkpt>
      <trkpt lat="46.48894" lon="5.54795">
        <ele>511</ele>
        <time>2022-03-05T15:05:04Z</time>
      </trkpt>
      <trkpt lat="46.48873" lon="5.54787">
        <ele>510</ele>
        <time>2022-03-05T15:05:06Z</time>
      </trkpt>
      <trkpt lat="46.48863" lon="5.54782">
        <ele>509.6</ele>
        <time>2022-03-05T15:05:07Z</time>
      </trkpt>
      <trkpt lat="46.48853" lon="5.54776">
        <ele>508.6</ele>
        <time>2022-03-05T15:05:08Z</time>
      </trkpt>
      <trkpt lat="46.48825" lon="5.54754">
        <ele>507.4</ele>
        <time>2022-03-05T15:05:11Z</time>
      </trkpt>
      <trkpt lat="46.48776" lon="5.54705">
        <ele>507.2</ele>
        <time>2022-03-05T15:05:17Z</time>
      </trkpt>
      <trkpt lat="46.48736" lon="5.54677">
        <ele>507.6</ele>
        <time>2022-03-05T15:05:22Z</time>
      </trkpt>
      <trkpt lat="46.48697" lon="5.54656">
        <ele>508.6</ele>
        <time>2022-03-05T15:05:27Z</time>
      </trkpt>
      <trkpt lat="46.48682" lon="5.54649">
        <ele>509</ele>
        <time>2022-03-05T15:05:29Z</time>
      </trkpt>
      <trkpt lat="46.4864" lon="5.54628">
        <ele>510</ele>
        <time>2022-03-05T15:05:35Z</time>
      </trkpt>
      <trkpt lat="46.48614" lon="5.54621">
        <ele>510.4</ele>
        <time>2022-03-05T15:05:39Z</time>
      </trkpt>
      <trkpt lat="46.48608" lon="5.54619">
        <ele>510.4</ele>
        <time>2022-03-05T15:05:40Z</time>
      </trkpt>
      <trkpt lat="46.48587" lon="5.54613">
        <ele>511</ele>
        <time>2022-03-05T15:05:43Z</time>
      </trkpt>
      <trkpt lat="46.4858" lon="5.5461">
        <ele>511.2</ele>
        <time>2022-03-05T15:05:44Z</time>
      </trkpt>
      <trkpt lat="46.48574" lon="5.54606">
        <ele>511.4</ele>
        <time>2022-03-05T15:05:45Z</time>
      </trkpt>
      <trkpt lat="46.48568" lon="5.546">
        <ele>511.4</ele>
        <time>2022-03-05T15:05:46Z</time>
      </trkpt>
      <trkpt lat="46.48558" lon="5.54585">
        <ele>511.6</ele>
        <time>2022-03-05T15:05:48Z</time>
      </trkpt>
      <trkpt lat="46.48547" lon="5.54562">
        <ele>512.2</ele>
        <time>2022-03-05T15:05:51Z</time>
      </trkpt>
      <trkpt lat="46.48543" lon="5.54556">
        <ele>512.6</ele>
        <time>2022-03-05T15:05:52Z</time>
      </trkpt>
      <trkpt lat="46.48538" lon="5.5455">
        <ele>512.8</ele>
        <time>2022-03-05T15:05:53Z</time>
      </trkpt>
      <trkpt lat="46.48533" lon="5.54547">
        <ele>513</ele>
        <time>2022-03-05T15:05:54Z</time>
      </trkpt>
      <trkpt lat="46.48522" lon="5.54544">
        <ele>513.6</ele>
        <time>2022-03-05T15:05:56Z</time>
      </trkpt>
      <trkpt lat="46.48505" lon="5.54541">
        <ele>514.8</ele>
        <time>2022-03-05T15:05:59Z</time>
      </trkpt>
      <trkpt lat="46.4848" lon="5.54536">
        <ele>516</ele>
        <time>2022-03-05T15:06:03Z</time>
      </trkpt>
      <trkpt lat="46.48475" lon="5.54534">
        <ele>516.2</ele>
        <time>2022-03-05T15:06:04Z</time>
      </trkpt>
      <trkpt lat="46.48451" lon="5.54528">
        <ele>517.2</ele>
        <time>2022-03-05T15:06:08Z</time>
      </trkpt>
      <trkpt lat="46.48408" lon="5.54511">
        <ele>518</ele>
        <time>2022-03-05T15:06:15Z</time>
      </trkpt>
      <trkpt lat="46.48397" lon="5.54506">
        <ele>518.2</ele>
        <time>2022-03-05T15:06:17Z</time>
      </trkpt>
      <trkpt lat="46.48363" lon="5.5449">
        <ele>518.6</ele>
        <time>2022-03-05T15:06:22Z</time>
      </trkpt>
      <trkpt lat="46.48356" lon="5.54487">
        <ele>518.6</ele>
        <time>2022-03-05T15:06:23Z</time>
      </trkpt>
      <trkpt lat="46.4831" lon="5.54462">
        <ele>518</ele>
        <time>2022-03-05T15:06:29Z</time>
      </trkpt>
      <trkpt lat="46.48276" lon="5.54445">
        <ele>517.2</ele>
        <time>2022-03-05T15:06:33Z</time>
      </trkpt>
      <trkpt lat="46.48251" lon="5.54433">
        <ele>516.6</ele>
        <time>2022-03-05T15:06:36Z</time>
      </trkpt>
      <trkpt lat="46.48227" lon="5.54422">
        <ele>516.2</ele>
        <time>2022-03-05T15:06:39Z</time>
      </trkpt>
      <trkpt lat="46.48198" lon="5.54406">
        <ele>516.4</ele>
        <time>2022-03-05T15:06:43Z</time>
      </trkpt>
      <trkpt lat="46.48179" lon="5.54395">
        <ele>517.2</ele>
        <time>2022-03-05T15:06:46Z</time>
      </trkpt>
      <trkpt lat="46.4816" lon="5.54381">
        <ele>518.8</ele>
        <time>2022-03-05T15:06:49Z</time>
      </trkpt>
      <trkpt lat="46.48149" lon="5.54368">
        <ele>519.6</ele>
        <time>2022-03-05T15:06:51Z</time>
      </trkpt>
      <trkpt lat="46.48144" lon="5.5436">
        <ele>519.8</ele>
        <time>2022-03-05T15:06:52Z</time>
      </trkpt>
      <trkpt lat="46.48139" lon="5.54352">
        <ele>520</ele>
        <time>2022-03-05T15:06:53Z</time>
      </trkpt>
      <trkpt lat="46.48127" lon="5.54325">
        <ele>520.8</ele>
        <time>2022-03-05T15:06:56Z</time>
      </trkpt>
      <trkpt lat="46.48113" lon="5.54303">
        <ele>521.4</ele>
        <time>2022-03-05T15:06:59Z</time>
      </trkpt>
      <trkpt lat="46.48107" lon="5.54297">
        <ele>521.8</ele>
        <time>2022-03-05T15:07:00Z</time>
      </trkpt>
      <trkpt lat="46.48101" lon="5.54292">
        <ele>521.8</ele>
        <time>2022-03-05T15:07:01Z</time>
      </trkpt>
      <trkpt lat="46.48089" lon="5.54286">
        <ele>522.2</ele>
        <time>2022-03-05T15:07:03Z</time>
      </trkpt>
      <trkpt lat="46.48082" lon="5.54284">
        <ele>522.4</ele>
        <time>2022-03-05T15:07:04Z</time>
      </trkpt>
      <trkpt lat="46.48061" lon="5.5428">
        <ele>523</ele>
        <time>2022-03-05T15:07:07Z</time>
      </trkpt>
      <trkpt lat="46.48031" lon="5.54271">
        <ele>523.2</ele>
        <time>2022-03-05T15:07:11Z</time>
      </trkpt>
      <trkpt lat="46.47976" lon="5.54253">
        <ele>522.4</ele>
        <time>2022-03-05T15:07:18Z</time>
      </trkpt>
      <trkpt lat="46.47959" lon="5.54246">
        <ele>521.8</ele>
        <time>2022-03-05T15:07:20Z</time>
      </trkpt>
      <trkpt lat="46.47915" lon="5.54224">
        <ele>520.8</ele>
        <time>2022-03-05T15:07:25Z</time>
      </trkpt>
      <trkpt lat="46.47906" lon="5.54219">
        <ele>520.8</ele>
        <time>2022-03-05T15:07:26Z</time>
      </trkpt>
      <trkpt lat="46.47875" lon="5.54201">
        <ele>519.8</ele>
        <time>2022-03-05T15:07:29Z</time>
      </trkpt>
      <trkpt lat="46.47865" lon="5.54194">
        <ele>519</ele>
        <time>2022-03-05T15:07:30Z</time>
      </trkpt>
      <trkpt lat="46.47844" lon="5.54181">
        <ele>516.8</ele>
        <time>2022-03-05T15:07:32Z</time>
      </trkpt>
      <trkpt lat="46.47823" lon="5.54167">
        <ele>514.4</ele>
        <time>2022-03-05T15:07:34Z</time>
      </trkpt>
      <trkpt lat="46.47802" lon="5.54153">
        <ele>513.2</ele>
        <time>2022-03-05T15:07:36Z</time>
      </trkpt>
      <trkpt lat="46.4777" lon="5.54132">
        <ele>511.8</ele>
        <time>2022-03-05T15:07:39Z</time>
      </trkpt>
      <trkpt lat="46.47709" lon="5.54095">
        <ele>511.2</ele>
        <time>2022-03-05T15:07:45Z</time>
      </trkpt>
      <trkpt lat="46.47678" lon="5.54076">
        <ele>510.8</ele>
        <time>2022-03-05T15:07:48Z</time>
      </trkpt>
      <trkpt lat="46.47657" lon="5.5406">
        <ele>510.4</ele>
        <time>2022-03-05T15:07:50Z</time>
      </trkpt>
      <trkpt lat="46.47649" lon="5.5405">
        <ele>510.2</ele>
        <time>2022-03-05T15:07:51Z</time>
      </trkpt>
      <trkpt lat="46.4764" lon="5.54033">
        <ele>510</ele>
        <time>2022-03-05T15:07:52Z</time>
      </trkpt>
      <trkpt lat="46.47635" lon="5.54019">
        <ele>509.4</ele>
        <time>2022-03-05T15:07:53Z</time>
      </trkpt>
      <trkpt lat="46.47624" lon="5.53986">
        <ele>507.6</ele>
        <time>2022-03-05T15:07:55Z</time>
      </trkpt>
      <trkpt lat="46.4761" lon="5.53957">
        <ele>505.4</ele>
        <time>2022-03-05T15:07:57Z</time>
      </trkpt>
      <trkpt lat="46.47592" lon="5.5393">
        <ele>504.2</ele>
        <time>2022-03-05T15:07:59Z</time>
      </trkpt>
      <trkpt lat="46.47572" lon="5.53907">
        <ele>502.2</ele>
        <time>2022-03-05T15:08:01Z</time>
      </trkpt>
      <trkpt lat="46.47549" lon="5.53885">
        <ele>501</ele>
        <time>2022-03-05T15:08:03Z</time>
      </trkpt>
      <trkpt lat="46.4753" lon="5.5387">
        <ele>499.4</ele>
        <time>2022-03-05T15:08:05Z</time>
      </trkpt>
      <trkpt lat="46.47519" lon="5.53862">
        <ele>498.8</ele>
        <time>2022-03-05T15:08:06Z</time>
      </trkpt>
      <trkpt lat="46.47507" lon="5.53855">
        <ele>498.4</ele>
        <time>2022-03-05T15:08:07Z</time>
      </trkpt>
      <trkpt lat="46.47496" lon="5.53848">
        <ele>497.4</ele>
        <time>2022-03-05T15:08:08Z</time>
      </trkpt>
      <trkpt lat="46.47474" lon="5.53832">
        <ele>496.4</ele>
        <time>2022-03-05T15:08:10Z</time>
      </trkpt>
      <trkpt lat="46.47463" lon="5.53825">
        <ele>495.4</ele>
        <time>2022-03-05T15:08:11Z</time>
      </trkpt>
      <trkpt lat="46.47449" lon="5.53816">
        <ele>495.2</ele>
        <time>2022-03-05T15:08:12Z</time>
      </trkpt>
      <trkpt lat="46.47416" lon="5.53795">
        <ele>493.8</ele>
        <time>2022-03-05T15:08:15Z</time>
      </trkpt>
      <trkpt lat="46.47389" lon="5.5378">
        <ele>492</ele>
        <time>2022-03-05T15:08:17Z</time>
      </trkpt>
      <trkpt lat="46.47377" lon="5.53773">
        <ele>491</ele>
        <time>2022-03-05T15:08:18Z</time>
      </trkpt>
      <trkpt lat="46.47365" lon="5.53767">
        <ele>490.6</ele>
        <time>2022-03-05T15:08:19Z</time>
      </trkpt>
      <trkpt lat="46.47356" lon="5.53761">
        <ele>489.4</ele>
        <time>2022-03-05T15:08:20Z</time>
      </trkpt>
      <trkpt lat="46.47318" lon="5.53739">
        <ele>488.2</ele>
        <time>2022-03-05T15:08:23Z</time>
      </trkpt>
      <trkpt lat="46.47305" lon="5.53733">
        <ele>487</ele>
        <time>2022-03-05T15:08:24Z</time>
      </trkpt>
      <trkpt lat="46.47293" lon="5.53727">
        <ele>486</ele>
        <time>2022-03-05T15:08:25Z</time>
      </trkpt>
      <trkpt lat="46.47269" lon="5.53717">
        <ele>484.8</ele>
        <time>2022-03-05T15:08:27Z</time>
      </trkpt>
      <trkpt lat="46.47245" lon="5.53707">
        <ele>483</ele>
        <time>2022-03-05T15:08:29Z</time>
      </trkpt>
      <trkpt lat="46.4722" lon="5.53697">
        <ele>481.2</ele>
        <time>2022-03-05T15:08:31Z</time>
      </trkpt>
      <trkpt lat="46.47208" lon="5.53692">
        <ele>480.8</ele>
        <time>2022-03-05T15:08:32Z</time>
      </trkpt>
      <trkpt lat="46.47196" lon="5.53688">
        <ele>479.8</ele>
        <time>2022-03-05T15:08:33Z</time>
      </trkpt>
      <trkpt lat="46.47174" lon="5.53679">
        <ele>478.4</ele>
        <time>2022-03-05T15:08:35Z</time>
      </trkpt>
      <trkpt lat="46.47162" lon="5.53675">
        <ele>477.4</ele>
        <time>2022-03-05T15:08:36Z</time>
      </trkpt>
      <trkpt lat="46.47136" lon="5.53663">
        <ele>475.8</ele>
        <time>2022-03-05T15:08:38Z</time>
      </trkpt>
      <trkpt lat="46.47125" lon="5.53656">
        <ele>475.4</ele>
        <time>2022-03-05T15:08:39Z</time>
      </trkpt>
      <trkpt lat="46.47117" lon="5.53649">
        <ele>474.8</ele>
        <time>2022-03-05T15:08:40Z</time>
      </trkpt>
      <trkpt lat="46.47094" lon="5.53631">
        <ele>473.4</ele>
        <time>2022-03-05T15:08:42Z</time>
      </trkpt>
      <trkpt lat="46.47072" lon="5.53613">
        <ele>472</ele>
        <time>2022-03-05T15:08:44Z</time>
      </trkpt>
      <trkpt lat="46.47051" lon="5.53594">
        <ele>470.8</ele>
        <time>2022-03-05T15:08:46Z</time>
      </trkpt>
      <trkpt lat="46.47031" lon="5.53576">
        <ele>469.8</ele>
        <time>2022-03-05T15:08:48Z</time>
      </trkpt>
      <trkpt lat="46.47011" lon="5.53559">
        <ele>468</ele>
        <time>2022-03-05T15:08:50Z</time>
      </trkpt>
      <trkpt lat="46.46987" lon="5.53539">
        <ele>465.8</ele>
        <time>2022-03-05T15:08:52Z</time>
      </trkpt>
      <trkpt lat="46.46965" lon="5.5352">
        <ele>464.8</ele>
        <time>2022-03-05T15:08:54Z</time>
      </trkpt>
      <trkpt lat="46.46943" lon="5.53502">
        <ele>463.4</ele>
        <time>2022-03-05T15:08:56Z</time>
      </trkpt>
      <trkpt lat="46.46932" lon="5.53492">
        <ele>462</ele>
        <time>2022-03-05T15:08:57Z</time>
      </trkpt>
      <trkpt lat="46.46913" lon="5.53475">
        <ele>460.6</ele>
        <time>2022-03-05T15:08:59Z</time>
      </trkpt>
      <trkpt lat="46.46888" lon="5.53455">
        <ele>458.4</ele>
        <time>2022-03-05T15:09:01Z</time>
      </trkpt>
      <trkpt lat="46.46867" lon="5.53434">
        <ele>457.2</ele>
        <time>2022-03-05T15:09:03Z</time>
      </trkpt>
      <trkpt lat="46.46859" lon="5.53425">
        <ele>457.2</ele>
        <time>2022-03-05T15:09:04Z</time>
      </trkpt>
      <trkpt lat="46.46837" lon="5.53399">
        <ele>455.8</ele>
        <time>2022-03-05T15:09:06Z</time>
      </trkpt>
      <trkpt lat="46.46821" lon="5.53374">
        <ele>453.8</ele>
        <time>2022-03-05T15:09:08Z</time>
      </trkpt>
      <trkpt lat="46.46815" lon="5.53362">
        <ele>453</ele>
        <time>2022-03-05T15:09:09Z</time>
      </trkpt>
      <trkpt lat="46.4681" lon="5.53349">
        <ele>452.2</ele>
        <time>2022-03-05T15:09:10Z</time>
      </trkpt>
      <trkpt lat="46.46807" lon="5.53337">
        <ele>451.6</ele>
        <time>2022-03-05T15:09:11Z</time>
      </trkpt>
      <trkpt lat="46.46805" lon="5.53325">
        <ele>450.6</ele>
        <time>2022-03-05T15:09:12Z</time>
      </trkpt>
      <trkpt lat="46.46808" lon="5.53304">
        <ele>449.6</ele>
        <time>2022-03-05T15:09:14Z</time>
      </trkpt>
      <trkpt lat="46.46812" lon="5.53294">
        <ele>449.4</ele>
        <time>2022-03-05T15:09:15Z</time>
      </trkpt>
      <trkpt lat="46.46821" lon="5.53277">
        <ele>449</ele>
        <time>2022-03-05T15:09:17Z</time>
      </trkpt>
      <trkpt lat="46.46825" lon="5.53267">
        <ele>449</ele>
        <time>2022-03-05T15:09:18Z</time>
      </trkpt>
      <trkpt lat="46.46832" lon="5.53245">
        <ele>449</ele>
        <time>2022-03-05T15:09:20Z</time>
      </trkpt>
      <trkpt lat="46.46841" lon="5.53227">
        <ele>449</ele>
        <time>2022-03-05T15:09:22Z</time>
      </trkpt>
      <trkpt lat="46.46873" lon="5.53175">
        <ele>449.4</ele>
        <time>2022-03-05T15:09:29Z</time>
      </trkpt>
      <trkpt lat="46.46882" lon="5.53157">
        <ele>450.4</ele>
        <time>2022-03-05T15:09:32Z</time>
      </trkpt>
      <trkpt lat="46.46886" lon="5.5315">
        <ele>451</ele>
        <time>2022-03-05T15:09:33Z</time>
      </trkpt>
      <trkpt lat="46.46891" lon="5.53137">
        <ele>451.8</ele>
        <time>2022-03-05T15:09:35Z</time>
      </trkpt>
      <trkpt lat="46.46896" lon="5.53125">
        <ele>452.6</ele>
        <time>2022-03-05T15:09:37Z</time>
      </trkpt>
      <trkpt lat="46.46899" lon="5.53119">
        <ele>453.2</ele>
        <time>2022-03-05T15:09:38Z</time>
      </trkpt>
      <trkpt lat="46.46904" lon="5.53109">
        <ele>454.2</ele>
        <time>2022-03-05T15:09:40Z</time>
      </trkpt>
      <trkpt lat="46.46917" lon="5.5309">
        <ele>455.4</ele>
        <time>2022-03-05T15:09:44Z</time>
      </trkpt>
      <trkpt lat="46.46929" lon="5.53076">
        <ele>456.4</ele>
        <time>2022-03-05T15:09:47Z</time>
      </trkpt>
      <trkpt lat="46.4694" lon="5.53064">
        <ele>457</ele>
        <time>2022-03-05T15:09:50Z</time>
      </trkpt>
      <trkpt lat="46.4695" lon="5.53053">
        <ele>457.6</ele>
        <time>2022-03-05T15:09:53Z</time>
      </trkpt>
      <trkpt lat="46.4696" lon="5.53039">
        <ele>458.6</ele>
        <time>2022-03-05T15:09:56Z</time>
      </trkpt>
      <trkpt lat="46.46966" lon="5.53031">
        <ele>459.2</ele>
        <time>2022-03-05T15:09:58Z</time>
      </trkpt>
      <trkpt lat="46.46972" lon="5.53023">
        <ele>460</ele>
        <time>2022-03-05T15:10:00Z</time>
      </trkpt>
      <trkpt lat="46.46985" lon="5.53002">
        <ele>461</ele>
        <time>2022-03-05T15:10:05Z</time>
      </trkpt>
      <trkpt lat="46.46999" lon="5.5298">
        <ele>462.2</ele>
        <time>2022-03-05T15:10:10Z</time>
      </trkpt>
      <trkpt lat="46.47002" lon="5.52976">
        <ele>462.4</ele>
        <time>2022-03-05T15:10:11Z</time>
      </trkpt>
      <trkpt lat="46.47011" lon="5.52962">
        <ele>463.6</ele>
        <time>2022-03-05T15:10:14Z</time>
      </trkpt>
      <trkpt lat="46.47017" lon="5.52953">
        <ele>464.2</ele>
        <time>2022-03-05T15:10:16Z</time>
      </trkpt>
      <trkpt lat="46.47023" lon="5.52946">
        <ele>464.6</ele>
        <time>2022-03-05T15:10:18Z</time>
      </trkpt>
      <trkpt lat="46.47026" lon="5.52941">
        <ele>464.8</ele>
        <time>2022-03-05T15:10:19Z</time>
      </trkpt>
      <trkpt lat="46.47043" lon="5.52916">
        <ele>465.8</ele>
        <time>2022-03-05T15:10:25Z</time>
      </trkpt>
      <trkpt lat="46.47046" lon="5.52912">
        <ele>466</ele>
        <time>2022-03-05T15:10:26Z</time>
      </trkpt>
      <trkpt lat="46.47059" lon="5.52898">
        <ele>467</ele>
        <time>2022-03-05T15:10:30Z</time>
      </trkpt>
      <trkpt lat="46.47064" lon="5.52891">
        <ele>467.4</ele>
        <time>2022-03-05T15:10:32Z</time>
      </trkpt>
      <trkpt lat="46.47073" lon="5.52881">
        <ele>468</ele>
        <time>2022-03-05T15:10:35Z</time>
      </trkpt>
      <trkpt lat="46.4709" lon="5.52864">
        <ele>469</ele>
        <time>2022-03-05T15:10:40Z</time>
      </trkpt>
      <trkpt lat="46.47096" lon="5.52858">
        <ele>469.4</ele>
        <time>2022-03-05T15:10:42Z</time>
      </trkpt>
      <trkpt lat="46.47109" lon="5.52845">
        <ele>470</ele>
        <time>2022-03-05T15:10:46Z</time>
      </trkpt>
      <trkpt lat="46.47122" lon="5.52834">
        <ele>471.4</ele>
        <time>2022-03-05T15:10:50Z</time>
      </trkpt>
      <trkpt lat="46.47136" lon="5.52823">
        <ele>472.2</ele>
        <time>2022-03-05T15:10:54Z</time>
      </trkpt>
      <trkpt lat="46.4715" lon="5.52811">
        <ele>473.4</ele>
        <time>2022-03-05T15:10:58Z</time>
      </trkpt>
      <trkpt lat="46.47154" lon="5.52808">
        <ele>473.6</ele>
        <time>2022-03-05T15:10:59Z</time>
      </trkpt>
      <trkpt lat="46.47168" lon="5.52796">
        <ele>474.6</ele>
        <time>2022-03-05T15:11:03Z</time>
      </trkpt>
      <trkpt lat="46.47189" lon="5.52778">
        <ele>475.6</ele>
        <time>2022-03-05T15:11:09Z</time>
      </trkpt>
      <trkpt lat="46.47196" lon="5.52771">
        <ele>476.2</ele>
        <time>2022-03-05T15:11:11Z</time>
      </trkpt>
      <trkpt lat="46.47207" lon="5.52762">
        <ele>476.8</ele>
        <time>2022-03-05T15:11:14Z</time>
      </trkpt>
      <trkpt lat="46.47217" lon="5.52754">
        <ele>477.4</ele>
        <time>2022-03-05T15:11:17Z</time>
      </trkpt>
      <trkpt lat="46.47224" lon="5.52749">
        <ele>478</ele>
        <time>2022-03-05T15:11:19Z</time>
      </trkpt>
      <trkpt lat="46.47234" lon="5.5274">
        <ele>478.6</ele>
        <time>2022-03-05T15:11:22Z</time>
      </trkpt>
      <trkpt lat="46.47242" lon="5.52735">
        <ele>479</ele>
        <time>2022-03-05T15:11:24Z</time>
      </trkpt>
      <trkpt lat="46.47269" lon="5.52721">
        <ele>480.2</ele>
        <time>2022-03-05T15:11:31Z</time>
      </trkpt>
      <trkpt lat="46.47273" lon="5.52719">
        <ele>480.4</ele>
        <time>2022-03-05T15:11:32Z</time>
      </trkpt>
      <trkpt lat="46.47288" lon="5.52712">
        <ele>481.4</ele>
        <time>2022-03-05T15:11:36Z</time>
      </trkpt>
      <trkpt lat="46.47296" lon="5.52709">
        <ele>481.6</ele>
        <time>2022-03-05T15:11:38Z</time>
      </trkpt>
      <trkpt lat="46.47307" lon="5.52704">
        <ele>482.4</ele>
        <time>2022-03-05T15:11:41Z</time>
      </trkpt>
      <trkpt lat="46.47325" lon="5.52698">
        <ele>483.6</ele>
        <time>2022-03-05T15:11:46Z</time>
      </trkpt>
      <trkpt lat="46.47333" lon="5.52695">
        <ele>484.2</ele>
        <time>2022-03-05T15:11:48Z</time>
      </trkpt>
      <trkpt lat="46.4734" lon="5.52693">
        <ele>484.8</ele>
        <time>2022-03-05T15:11:50Z</time>
      </trkpt>
      <trkpt lat="46.4736" lon="5.52685">
        <ele>486</ele>
        <time>2022-03-05T15:11:55Z</time>
      </trkpt>
      <trkpt lat="46.47367" lon="5.52681">
        <ele>486.4</ele>
        <time>2022-03-05T15:11:57Z</time>
      </trkpt>
      <trkpt lat="46.47382" lon="5.52673">
        <ele>487.2</ele>
        <time>2022-03-05T15:12:01Z</time>
      </trkpt>
      <trkpt lat="46.47401" lon="5.52662">
        <ele>488.4</ele>
        <time>2022-03-05T15:12:06Z</time>
      </trkpt>
      <trkpt lat="46.47412" lon="5.52654">
        <ele>489</ele>
        <time>2022-03-05T15:12:09Z</time>
      </trkpt>
      <trkpt lat="46.4742" lon="5.52649">
        <ele>489.4</ele>
        <time>2022-03-05T15:12:11Z</time>
      </trkpt>
      <trkpt lat="46.47441" lon="5.52637">
        <ele>490.4</ele>
        <time>2022-03-05T15:12:17Z</time>
      </trkpt>
      <trkpt lat="46.47448" lon="5.52634">
        <ele>491</ele>
        <time>2022-03-05T15:12:19Z</time>
      </trkpt>
      <trkpt lat="46.47459" lon="5.52629">
        <ele>491.8</ele>
        <time>2022-03-05T15:12:22Z</time>
      </trkpt>
      <trkpt lat="46.4748" lon="5.5262">
        <ele>493</ele>
        <time>2022-03-05T15:12:27Z</time>
      </trkpt>
      <trkpt lat="46.47495" lon="5.52613">
        <ele>493.8</ele>
        <time>2022-03-05T15:12:31Z</time>
      </trkpt>
      <trkpt lat="46.47503" lon="5.52611">
        <ele>494.2</ele>
        <time>2022-03-05T15:12:33Z</time>
      </trkpt>
      <trkpt lat="46.47518" lon="5.52607">
        <ele>495.2</ele>
        <time>2022-03-05T15:12:37Z</time>
      </trkpt>
      <trkpt lat="46.47527" lon="5.52604">
        <ele>495.6</ele>
        <time>2022-03-05T15:12:39Z</time>
      </trkpt>
      <trkpt lat="46.47538" lon="5.52599">
        <ele>496.4</ele>
        <time>2022-03-05T15:12:42Z</time>
      </trkpt>
      <trkpt lat="46.47552" lon="5.52588">
        <ele>497.4</ele>
        <time>2022-03-05T15:12:46Z</time>
      </trkpt>
      <trkpt lat="46.47555" lon="5.52585">
        <ele>497.6</ele>
        <time>2022-03-05T15:12:47Z</time>
      </trkpt>
      <trkpt lat="46.47566" lon="5.52578">
        <ele>498.6</ele>
        <time>2022-03-05T15:12:50Z</time>
      </trkpt>
      <trkpt lat="46.47588" lon="5.52562">
        <ele>499.8</ele>
        <time>2022-03-05T15:12:56Z</time>
      </trkpt>
      <trkpt lat="46.47605" lon="5.52557">
        <ele>500.8</ele>
        <time>2022-03-05T15:13:00Z</time>
      </trkpt>
      <trkpt lat="46.47621" lon="5.52554">
        <ele>501.6</ele>
        <time>2022-03-05T15:13:04Z</time>
      </trkpt>
      <trkpt lat="46.47629" lon="5.52553">
        <ele>502</ele>
        <time>2022-03-05T15:13:06Z</time>
      </trkpt>
      <trkpt lat="46.47653" lon="5.5255">
        <ele>503.2</ele>
        <time>2022-03-05T15:13:12Z</time>
      </trkpt>
      <trkpt lat="46.47666" lon="5.52546">
        <ele>504.2</ele>
        <time>2022-03-05T15:13:15Z</time>
      </trkpt>
      <trkpt lat="46.47683" lon="5.52539">
        <ele>504.8</ele>
        <time>2022-03-05T15:13:19Z</time>
      </trkpt>
      <trkpt lat="46.47696" lon="5.52533">
        <ele>505.2</ele>
        <time>2022-03-05T15:13:22Z</time>
      </trkpt>
      <trkpt lat="46.47705" lon="5.52529">
        <ele>505.4</ele>
        <time>2022-03-05T15:13:24Z</time>
      </trkpt>
      <trkpt lat="46.47747" lon="5.52509">
        <ele>505.8</ele>
        <time>2022-03-05T15:13:33Z</time>
      </trkpt>
      <trkpt lat="46.47763" lon="5.52489">
        <ele>505.8</ele>
        <time>2022-03-05T15:13:37Z</time>
      </trkpt>
      <trkpt lat="46.47767" lon="5.52482">
        <ele>505.8</ele>
        <time>2022-03-05T15:13:38Z</time>
      </trkpt>
      <trkpt lat="46.4777" lon="5.52475">
        <ele>505.8</ele>
        <time>2022-03-05T15:13:39Z</time>
      </trkpt>
      <trkpt lat="46.47783" lon="5.52442">
        <ele>505.6</ele>
        <time>2022-03-05T15:13:44Z</time>
      </trkpt>
      <trkpt lat="46.4779" lon="5.52424">
        <ele>505.6</ele>
        <time>2022-03-05T15:13:47Z</time>
      </trkpt>
      <trkpt lat="46.47796" lon="5.52413">
        <ele>505.6</ele>
        <time>2022-03-05T15:13:49Z</time>
      </trkpt>
      <trkpt lat="46.47799" lon="5.52406">
        <ele>505.6</ele>
        <time>2022-03-05T15:13:50Z</time>
      </trkpt>
      <trkpt lat="46.4781" lon="5.5238">
        <ele>505.4</ele>
        <time>2022-03-05T15:13:54Z</time>
      </trkpt>
      <trkpt lat="46.47818" lon="5.52364">
        <ele>505.4</ele>
        <time>2022-03-05T15:13:57Z</time>
      </trkpt>
      <trkpt lat="46.47821" lon="5.52356">
        <ele>505.4</ele>
        <time>2022-03-05T15:13:58Z</time>
      </trkpt>
      <trkpt lat="46.4783" lon="5.52337">
        <ele>505.4</ele>
        <time>2022-03-05T15:14:01Z</time>
      </trkpt>
      <trkpt lat="46.47839" lon="5.5232">
        <ele>505.6</ele>
        <time>2022-03-05T15:14:04Z</time>
      </trkpt>
      <trkpt lat="46.47848" lon="5.52303">
        <ele>505.8</ele>
        <time>2022-03-05T15:14:07Z</time>
      </trkpt>
      <trkpt lat="46.47858" lon="5.5229">
        <ele>506</ele>
        <time>2022-03-05T15:14:09Z</time>
      </trkpt>
      <trkpt lat="46.47863" lon="5.52285">
        <ele>506</ele>
        <time>2022-03-05T15:14:10Z</time>
      </trkpt>
      <trkpt lat="46.47882" lon="5.52269">
        <ele>505.6</ele>
        <time>2022-03-05T15:14:14Z</time>
      </trkpt>
      <trkpt lat="46.47903" lon="5.52251">
        <ele>505.4</ele>
        <time>2022-03-05T15:14:18Z</time>
      </trkpt>
      <trkpt lat="46.4791" lon="5.52245">
        <ele>505.4</ele>
        <time>2022-03-05T15:14:19Z</time>
      </trkpt>
      <trkpt lat="46.47915" lon="5.52241">
        <ele>505.4</ele>
        <time>2022-03-05T15:14:20Z</time>
      </trkpt>
      <trkpt lat="46.47927" lon="5.52235">
        <ele>505</ele>
        <time>2022-03-05T15:14:22Z</time>
      </trkpt>
      <trkpt lat="46.47931" lon="5.52229">
        <ele>504.8</ele>
        <time>2022-03-05T15:14:23Z</time>
      </trkpt>
      <trkpt lat="46.47935" lon="5.52222">
        <ele>504.6</ele>
        <time>2022-03-05T15:14:24Z</time>
      </trkpt>
      <trkpt lat="46.47937" lon="5.52201">
        <ele>504.2</ele>
        <time>2022-03-05T15:14:26Z</time>
      </trkpt>
      <trkpt lat="46.47936" lon="5.52193">
        <ele>504.2</ele>
        <time>2022-03-05T15:14:27Z</time>
      </trkpt>
      <trkpt lat="46.47934" lon="5.52184">
        <ele>503.8</ele>
        <time>2022-03-05T15:14:28Z</time>
      </trkpt>
      <trkpt lat="46.47928" lon="5.52169">
        <ele>503.4</ele>
        <time>2022-03-05T15:14:30Z</time>
      </trkpt>
      <trkpt lat="46.4792" lon="5.52157">
        <ele>503.4</ele>
        <time>2022-03-05T15:14:32Z</time>
      </trkpt>
      <trkpt lat="46.47911" lon="5.52146">
        <ele>503.2</ele>
        <time>2022-03-05T15:14:34Z</time>
      </trkpt>
      <trkpt lat="46.47892" lon="5.52128">
        <ele>503.4</ele>
        <time>2022-03-05T15:14:38Z</time>
      </trkpt>
      <trkpt lat="46.47882" lon="5.52122">
        <ele>504</ele>
        <time>2022-03-05T15:14:40Z</time>
      </trkpt>
      <trkpt lat="46.47873" lon="5.52116">
        <ele>504.4</ele>
        <time>2022-03-05T15:14:42Z</time>
      </trkpt>
      <trkpt lat="46.47855" lon="5.52104">
        <ele>505.2</ele>
        <time>2022-03-05T15:14:46Z</time>
      </trkpt>
      <trkpt lat="46.47839" lon="5.52093">
        <ele>506</ele>
        <time>2022-03-05T15:14:50Z</time>
      </trkpt>
      <trkpt lat="46.47836" lon="5.5209">
        <ele>506.2</ele>
        <time>2022-03-05T15:14:51Z</time>
      </trkpt>
      <trkpt lat="46.47815" lon="5.52083">
        <ele>507.4</ele>
        <time>2022-03-05T15:14:56Z</time>
      </trkpt>
      <trkpt lat="46.47785" lon="5.52079">
        <ele>508.6</ele>
        <time>2022-03-05T15:15:02Z</time>
      </trkpt>
      <trkpt lat="46.47779" lon="5.52078">
        <ele>508.8</ele>
        <time>2022-03-05T15:15:03Z</time>
      </trkpt>
      <trkpt lat="46.47757" lon="5.52074">
        <ele>509.8</ele>
        <time>2022-03-05T15:15:07Z</time>
      </trkpt>
      <trkpt lat="46.47746" lon="5.52074">
        <ele>510.2</ele>
        <time>2022-03-05T15:15:09Z</time>
      </trkpt>
      <trkpt lat="46.47719" lon="5.52072">
        <ele>510.8</ele>
        <time>2022-03-05T15:15:14Z</time>
      </trkpt>
      <trkpt lat="46.47698" lon="5.52067">
        <ele>511.8</ele>
        <time>2022-03-05T15:15:18Z</time>
      </trkpt>
      <trkpt lat="46.47693" lon="5.52065">
        <ele>511.8</ele>
        <time>2022-03-05T15:15:19Z</time>
      </trkpt>
      <trkpt lat="46.47689" lon="5.52062">
        <ele>512</ele>
        <time>2022-03-05T15:15:20Z</time>
      </trkpt>
      <trkpt lat="46.47685" lon="5.52059">
        <ele>512.4</ele>
        <time>2022-03-05T15:15:21Z</time>
      </trkpt>
      <trkpt lat="46.47677" lon="5.52052">
        <ele>512.6</ele>
        <time>2022-03-05T15:15:23Z</time>
      </trkpt>
      <trkpt lat="46.47669" lon="5.52045">
        <ele>513</ele>
        <time>2022-03-05T15:15:25Z</time>
      </trkpt>
      <trkpt lat="46.47658" lon="5.52037">
        <ele>514</ele>
        <time>2022-03-05T15:15:28Z</time>
      </trkpt>
      <trkpt lat="46.47646" lon="5.5203">
        <ele>514.8</ele>
        <time>2022-03-05T15:15:31Z</time>
      </trkpt>
      <trkpt lat="46.47641" lon="5.52028">
        <ele>515.2</ele>
        <time>2022-03-05T15:15:32Z</time>
      </trkpt>
      <trkpt lat="46.47625" lon="5.5202">
        <ele>515.6</ele>
        <time>2022-03-05T15:15:36Z</time>
      </trkpt>
      <trkpt lat="46.4762" lon="5.52018">
        <ele>516</ele>
        <time>2022-03-05T15:15:37Z</time>
      </trkpt>
      <trkpt lat="46.47606" lon="5.52015">
        <ele>516.2</ele>
        <time>2022-03-05T15:15:40Z</time>
      </trkpt>
      <trkpt lat="46.47593" lon="5.52011">
        <ele>516.8</ele>
        <time>2022-03-05T15:15:43Z</time>
      </trkpt>
      <trkpt lat="46.47584" lon="5.5201">
        <ele>517.2</ele>
        <time>2022-03-05T15:15:45Z</time>
      </trkpt>
      <trkpt lat="46.47575" lon="5.52009">
        <ele>517.6</ele>
        <time>2022-03-05T15:15:47Z</time>
      </trkpt>
      <trkpt lat="46.4756" lon="5.52009">
        <ele>518</ele>
        <time>2022-03-05T15:15:50Z</time>
      </trkpt>
      <trkpt lat="46.47551" lon="5.52009">
        <ele>518.4</ele>
        <time>2022-03-05T15:15:52Z</time>
      </trkpt>
      <trkpt lat="46.47536" lon="5.5201">
        <ele>518.8</ele>
        <time>2022-03-05T15:15:55Z</time>
      </trkpt>
      <trkpt lat="46.47527" lon="5.52009">
        <ele>518.8</ele>
        <time>2022-03-05T15:15:57Z</time>
      </trkpt>
      <trkpt lat="46.47513" lon="5.52011">
        <ele>519.6</ele>
        <time>2022-03-05T15:16:00Z</time>
      </trkpt>
      <trkpt lat="46.47494" lon="5.52015">
        <ele>520.6</ele>
        <time>2022-03-05T15:16:04Z</time>
      </trkpt>
      <trkpt lat="46.47485" lon="5.52016">
        <ele>520.8</ele>
        <time>2022-03-05T15:16:06Z</time>
      </trkpt>
      <trkpt lat="46.4748" lon="5.52017">
        <ele>521</ele>
        <time>2022-03-05T15:16:07Z</time>
      </trkpt>
      <trkpt lat="46.47458" lon="5.52027">
        <ele>521.6</ele>
        <time>2022-03-05T15:16:12Z</time>
      </trkpt>
      <trkpt lat="46.47445" lon="5.52036">
        <ele>522</ele>
        <time>2022-03-05T15:16:15Z</time>
      </trkpt>
      <trkpt lat="46.47429" lon="5.52052">
        <ele>523.2</ele>
        <time>2022-03-05T15:16:19Z</time>
      </trkpt>
      <trkpt lat="46.47425" lon="5.52055">
        <ele>523.4</ele>
        <time>2022-03-05T15:16:20Z</time>
      </trkpt>
      <trkpt lat="46.47409" lon="5.52072">
        <ele>524</ele>
        <time>2022-03-05T15:16:24Z</time>
      </trkpt>
      <trkpt lat="46.47406" lon="5.52074">
        <ele>524.2</ele>
        <time>2022-03-05T15:16:25Z</time>
      </trkpt>
      <trkpt lat="46.47387" lon="5.52089">
        <ele>524.8</ele>
        <time>2022-03-05T15:16:29Z</time>
      </trkpt>
      <trkpt lat="46.47378" lon="5.52093">
        <ele>525.2</ele>
        <time>2022-03-05T15:16:31Z</time>
      </trkpt>
      <trkpt lat="46.4736" lon="5.52095">
        <ele>525.8</ele>
        <time>2022-03-05T15:16:35Z</time>
      </trkpt>
      <trkpt lat="46.47345" lon="5.52093">
        <ele>526.4</ele>
        <time>2022-03-05T15:16:38Z</time>
      </trkpt>
      <trkpt lat="46.47337" lon="5.52091">
        <ele>526.8</ele>
        <time>2022-03-05T15:16:40Z</time>
      </trkpt>
      <trkpt lat="46.47326" lon="5.52088">
        <ele>527.2</ele>
        <time>2022-03-05T15:16:42Z</time>
      </trkpt>
      <trkpt lat="46.47317" lon="5.52086">
        <ele>527.4</ele>
        <time>2022-03-05T15:16:44Z</time>
      </trkpt>
      <trkpt lat="46.47312" lon="5.52084">
        <ele>527.6</ele>
        <time>2022-03-05T15:16:45Z</time>
      </trkpt>
      <trkpt lat="46.47299" lon="5.52078">
        <ele>528.4</ele>
        <time>2022-03-05T15:16:48Z</time>
      </trkpt>
      <trkpt lat="46.47289" lon="5.52073">
        <ele>528.6</ele>
        <time>2022-03-05T15:16:50Z</time>
      </trkpt>
      <trkpt lat="46.47279" lon="5.52068">
        <ele>528.8</ele>
        <time>2022-03-05T15:16:52Z</time>
      </trkpt>
      <trkpt lat="46.47263" lon="5.52054">
        <ele>529.4</ele>
        <time>2022-03-05T15:16:56Z</time>
      </trkpt>
      <trkpt lat="46.47259" lon="5.52051">
        <ele>529.6</ele>
        <time>2022-03-05T15:16:57Z</time>
      </trkpt>
      <trkpt lat="46.47243" lon="5.52033">
        <ele>530.8</ele>
        <time>2022-03-05T15:17:01Z</time>
      </trkpt>
      <trkpt lat="46.47232" lon="5.52021">
        <ele>531.2</ele>
        <time>2022-03-05T15:17:04Z</time>
      </trkpt>
      <trkpt lat="46.47222" lon="5.52015">
        <ele>531.4</ele>
        <time>2022-03-05T15:17:06Z</time>
      </trkpt>
      <trkpt lat="46.47213" lon="5.52012">
        <ele>531.8</ele>
        <time>2022-03-05T15:17:08Z</time>
      </trkpt>
      <trkpt lat="46.47208" lon="5.52011">
        <ele>531.8</ele>
        <time>2022-03-05T15:17:09Z</time>
      </trkpt>
      <trkpt lat="46.47204" lon="5.5201">
        <ele>532.2</ele>
        <time>2022-03-05T15:17:10Z</time>
      </trkpt>
      <trkpt lat="46.47189" lon="5.52008">
        <ele>532.8</ele>
        <time>2022-03-05T15:17:13Z</time>
      </trkpt>
      <trkpt lat="46.47159" lon="5.52002">
        <ele>534</ele>
        <time>2022-03-05T15:17:19Z</time>
      </trkpt>
      <trkpt lat="46.4715" lon="5.51998">
        <ele>534.4</ele>
        <time>2022-03-05T15:17:21Z</time>
      </trkpt>
      <trkpt lat="46.47122" lon="5.51986">
        <ele>535</ele>
        <time>2022-03-05T15:17:27Z</time>
      </trkpt>
      <trkpt lat="46.47117" lon="5.51984">
        <ele>535.2</ele>
        <time>2022-03-05T15:17:28Z</time>
      </trkpt>
      <trkpt lat="46.47103" lon="5.51976">
        <ele>535.8</ele>
        <time>2022-03-05T15:17:31Z</time>
      </trkpt>
      <trkpt lat="46.47094" lon="5.51972">
        <ele>536.2</ele>
        <time>2022-03-05T15:17:33Z</time>
      </trkpt>
      <trkpt lat="46.47088" lon="5.51969">
        <ele>536.2</ele>
        <time>2022-03-05T15:17:34Z</time>
      </trkpt>
      <trkpt lat="46.47075" lon="5.51963">
        <ele>536.6</ele>
        <time>2022-03-05T15:17:37Z</time>
      </trkpt>
      <trkpt lat="46.47059" lon="5.51958">
        <ele>537.2</ele>
        <time>2022-03-05T15:17:40Z</time>
      </trkpt>
      <trkpt lat="46.47054" lon="5.51956">
        <ele>537.2</ele>
        <time>2022-03-05T15:17:41Z</time>
      </trkpt>
      <trkpt lat="46.4703" lon="5.51951">
        <ele>538.2</ele>
        <time>2022-03-05T15:17:46Z</time>
      </trkpt>
      <trkpt lat="46.47026" lon="5.5195">
        <ele>538.4</ele>
        <time>2022-03-05T15:17:47Z</time>
      </trkpt>
      <trkpt lat="46.47011" lon="5.51944">
        <ele>538.8</ele>
        <time>2022-03-05T15:17:50Z</time>
      </trkpt>
      <trkpt lat="46.46997" lon="5.51937">
        <ele>539.2</ele>
        <time>2022-03-05T15:17:53Z</time>
      </trkpt>
      <trkpt lat="46.46993" lon="5.51934">
        <ele>539.4</ele>
        <time>2022-03-05T15:17:54Z</time>
      </trkpt>
      <trkpt lat="46.46967" lon="5.51906">
        <ele>540.4</ele>
        <time>2022-03-05T15:18:01Z</time>
      </trkpt>
      <trkpt lat="46.46964" lon="5.51902">
        <ele>540.6</ele>
        <time>2022-03-05T15:18:02Z</time>
      </trkpt>
      <trkpt lat="46.46951" lon="5.51889">
        <ele>541.2</ele>
        <time>2022-03-05T15:18:05Z</time>
      </trkpt>
      <trkpt lat="46.46942" lon="5.51882">
        <ele>541.6</ele>
        <time>2022-03-05T15:18:07Z</time>
      </trkpt>
      <trkpt lat="46.46937" lon="5.51881">
        <ele>541.8</ele>
        <time>2022-03-05T15:18:08Z</time>
      </trkpt>
      <trkpt lat="46.46932" lon="5.5188">
        <ele>541.8</ele>
        <time>2022-03-05T15:18:09Z</time>
      </trkpt>
      <trkpt lat="46.46923" lon="5.5188">
        <ele>542.4</ele>
        <time>2022-03-05T15:18:11Z</time>
      </trkpt>
      <trkpt lat="46.46918" lon="5.51881">
        <ele>542.6</ele>
        <time>2022-03-05T15:18:12Z</time>
      </trkpt>
      <trkpt lat="46.46903" lon="5.51883">
        <ele>543</ele>
        <time>2022-03-05T15:18:15Z</time>
      </trkpt>
      <trkpt lat="46.46895" lon="5.51887">
        <ele>543.4</ele>
        <time>2022-03-05T15:18:17Z</time>
      </trkpt>
      <trkpt lat="46.4689" lon="5.51889">
        <ele>543.4</ele>
        <time>2022-03-05T15:18:18Z</time>
      </trkpt>
      <trkpt lat="46.4687" lon="5.51894">
        <ele>544</ele>
        <time>2022-03-05T15:18:22Z</time>
      </trkpt>
      <trkpt lat="46.4686" lon="5.519">
        <ele>544.2</ele>
        <time>2022-03-05T15:18:24Z</time>
      </trkpt>
      <trkpt lat="46.46851" lon="5.51906">
        <ele>544.6</ele>
        <time>2022-03-05T15:18:26Z</time>
      </trkpt>
      <trkpt lat="46.46842" lon="5.51912">
        <ele>544.8</ele>
        <time>2022-03-05T15:18:28Z</time>
      </trkpt>
      <trkpt lat="46.46837" lon="5.51915">
        <ele>545</ele>
        <time>2022-03-05T15:18:29Z</time>
      </trkpt>
      <trkpt lat="46.46832" lon="5.51917">
        <ele>545.4</ele>
        <time>2022-03-05T15:18:30Z</time>
      </trkpt>
      <trkpt lat="46.46822" lon="5.51921">
        <ele>545.6</ele>
        <time>2022-03-05T15:18:32Z</time>
      </trkpt>
      <trkpt lat="46.46813" lon="5.5192">
        <ele>545.8</ele>
        <time>2022-03-05T15:18:34Z</time>
      </trkpt>
      <trkpt lat="46.46785" lon="5.51923">
        <ele>546.6</ele>
        <time>2022-03-05T15:18:39Z</time>
      </trkpt>
      <trkpt lat="46.46781" lon="5.51925">
        <ele>547</ele>
        <time>2022-03-05T15:18:40Z</time>
      </trkpt>
      <trkpt lat="46.46776" lon="5.51925">
        <ele>547</ele>
        <time>2022-03-05T15:18:41Z</time>
      </trkpt>
      <trkpt lat="46.46765" lon="5.51925">
        <ele>547.4</ele>
        <time>2022-03-05T15:18:43Z</time>
      </trkpt>
      <trkpt lat="46.46751" lon="5.51921">
        <ele>548.2</ele>
        <time>2022-03-05T15:18:46Z</time>
      </trkpt>
      <trkpt lat="46.46745" lon="5.51917">
        <ele>548.2</ele>
        <time>2022-03-05T15:18:47Z</time>
      </trkpt>
      <trkpt lat="46.46734" lon="5.51907">
        <ele>548.8</ele>
        <time>2022-03-05T15:18:50Z</time>
      </trkpt>
      <trkpt lat="46.4673" lon="5.51903">
        <ele>549</ele>
        <time>2022-03-05T15:18:51Z</time>
      </trkpt>
      <trkpt lat="46.46725" lon="5.51899">
        <ele>549.2</ele>
        <time>2022-03-05T15:18:52Z</time>
      </trkpt>
      <trkpt lat="46.46721" lon="5.51897">
        <ele>549.4</ele>
        <time>2022-03-05T15:18:53Z</time>
      </trkpt>
      <trkpt lat="46.46707" lon="5.51891">
        <ele>549.8</ele>
        <time>2022-03-05T15:18:56Z</time>
      </trkpt>
      <trkpt lat="46.46702" lon="5.5189">
        <ele>550</ele>
        <time>2022-03-05T15:18:57Z</time>
      </trkpt>
      <trkpt lat="46.46692" lon="5.5189">
        <ele>550.4</ele>
        <time>2022-03-05T15:18:59Z</time>
      </trkpt>
      <trkpt lat="46.46683" lon="5.51894">
        <ele>550.8</ele>
        <time>2022-03-05T15:19:01Z</time>
      </trkpt>
      <trkpt lat="46.46675" lon="5.51902">
        <ele>551</ele>
        <time>2022-03-05T15:19:03Z</time>
      </trkpt>
      <trkpt lat="46.46669" lon="5.51913">
        <ele>551.4</ele>
        <time>2022-03-05T15:19:05Z</time>
      </trkpt>
      <trkpt lat="46.46651" lon="5.51942">
        <ele>552.4</ele>
        <time>2022-03-05T15:19:10Z</time>
      </trkpt>
      <trkpt lat="46.46646" lon="5.51947">
        <ele>552.6</ele>
        <time>2022-03-05T15:19:11Z</time>
      </trkpt>
      <trkpt lat="46.46641" lon="5.51951">
        <ele>552.8</ele>
        <time>2022-03-05T15:19:12Z</time>
      </trkpt>
      <trkpt lat="46.46618" lon="5.51965">
        <ele>553.8</ele>
        <time>2022-03-05T15:19:17Z</time>
      </trkpt>
      <trkpt lat="46.46612" lon="5.51966">
        <ele>554.2</ele>
        <time>2022-03-05T15:19:18Z</time>
      </trkpt>
      <trkpt lat="46.46608" lon="5.51967">
        <ele>554.4</ele>
        <time>2022-03-05T15:19:19Z</time>
      </trkpt>
      <trkpt lat="46.46604" lon="5.51966">
        <ele>555</ele>
        <time>2022-03-05T15:19:20Z</time>
      </trkpt>
      <trkpt lat="46.46599" lon="5.51964">
        <ele>555.2</ele>
        <time>2022-03-05T15:19:21Z</time>
      </trkpt>
      <trkpt lat="46.46595" lon="5.51962">
        <ele>555.2</ele>
        <time>2022-03-05T15:19:22Z</time>
      </trkpt>
      <trkpt lat="46.4659" lon="5.51958">
        <ele>555.6</ele>
        <time>2022-03-05T15:19:23Z</time>
      </trkpt>
      <trkpt lat="46.46586" lon="5.51955">
        <ele>555.6</ele>
        <time>2022-03-05T15:19:24Z</time>
      </trkpt>
      <trkpt lat="46.46581" lon="5.51953">
        <ele>556</ele>
        <time>2022-03-05T15:19:25Z</time>
      </trkpt>
      <trkpt lat="46.46575" lon="5.51951">
        <ele>556.2</ele>
        <time>2022-03-05T15:19:26Z</time>
      </trkpt>
      <trkpt lat="46.4657" lon="5.5195">
        <ele>556.4</ele>
        <time>2022-03-05T15:19:27Z</time>
      </trkpt>
      <trkpt lat="46.46565" lon="5.5195">
        <ele>556.4</ele>
        <time>2022-03-05T15:19:28Z</time>
      </trkpt>
      <trkpt lat="46.46556" lon="5.51952">
        <ele>557</ele>
        <time>2022-03-05T15:19:30Z</time>
      </trkpt>
      <trkpt lat="46.4655" lon="5.51955">
        <ele>557.2</ele>
        <time>2022-03-05T15:19:31Z</time>
      </trkpt>
      <trkpt lat="46.46537" lon="5.51962">
        <ele>557.8</ele>
        <time>2022-03-05T15:19:34Z</time>
      </trkpt>
      <trkpt lat="46.46528" lon="5.51965">
        <ele>558</ele>
        <time>2022-03-05T15:19:36Z</time>
      </trkpt>
      <trkpt lat="46.46522" lon="5.51967">
        <ele>558.2</ele>
        <time>2022-03-05T15:19:37Z</time>
      </trkpt>
      <trkpt lat="46.46513" lon="5.51969">
        <ele>558.8</ele>
        <time>2022-03-05T15:19:39Z</time>
      </trkpt>
      <trkpt lat="46.46502" lon="5.5197">
        <ele>559.2</ele>
        <time>2022-03-05T15:19:41Z</time>
      </trkpt>
      <trkpt lat="46.46498" lon="5.5197">
        <ele>559.2</ele>
        <time>2022-03-05T15:19:42Z</time>
      </trkpt>
      <trkpt lat="46.46484" lon="5.51972">
        <ele>559.8</ele>
        <time>2022-03-05T15:19:45Z</time>
      </trkpt>
      <trkpt lat="46.46478" lon="5.51974">
        <ele>560.2</ele>
        <time>2022-03-05T15:19:46Z</time>
      </trkpt>
      <trkpt lat="46.46474" lon="5.51975">
        <ele>560.2</ele>
        <time>2022-03-05T15:19:47Z</time>
      </trkpt>
      <trkpt lat="46.46465" lon="5.5198">
        <ele>560.6</ele>
        <time>2022-03-05T15:19:49Z</time>
      </trkpt>
      <trkpt lat="46.46461" lon="5.51982">
        <ele>560.8</ele>
        <time>2022-03-05T15:19:50Z</time>
      </trkpt>
      <trkpt lat="46.46451" lon="5.51984">
        <ele>561.2</ele>
        <time>2022-03-05T15:19:52Z</time>
      </trkpt>
      <trkpt lat="46.46442" lon="5.51984">
        <ele>561.4</ele>
        <time>2022-03-05T15:19:54Z</time>
      </trkpt>
      <trkpt lat="46.46422" lon="5.51978">
        <ele>562.2</ele>
        <time>2022-03-05T15:19:58Z</time>
      </trkpt>
      <trkpt lat="46.46413" lon="5.51975">
        <ele>562.6</ele>
        <time>2022-03-05T15:20:00Z</time>
      </trkpt>
      <trkpt lat="46.464" lon="5.51977">
        <ele>563.4</ele>
        <time>2022-03-05T15:20:03Z</time>
      </trkpt>
      <trkpt lat="46.46395" lon="5.5198">
        <ele>563.8</ele>
        <time>2022-03-05T15:20:04Z</time>
      </trkpt>
      <trkpt lat="46.46391" lon="5.51984">
        <ele>564</ele>
        <time>2022-03-05T15:20:05Z</time>
      </trkpt>
      <trkpt lat="46.46388" lon="5.51988">
        <ele>564.4</ele>
        <time>2022-03-05T15:20:06Z</time>
      </trkpt>
      <trkpt lat="46.4638" lon="5.52001">
        <ele>565</ele>
        <time>2022-03-05T15:20:08Z</time>
      </trkpt>
      <trkpt lat="46.46371" lon="5.52018">
        <ele>565.6</ele>
        <time>2022-03-05T15:20:11Z</time>
      </trkpt>
      <trkpt lat="46.46365" lon="5.5203">
        <ele>566</ele>
        <time>2022-03-05T15:20:13Z</time>
      </trkpt>
      <trkpt lat="46.46359" lon="5.52042">
        <ele>566.2</ele>
        <time>2022-03-05T15:20:15Z</time>
      </trkpt>
      <trkpt lat="46.46354" lon="5.52053">
        <ele>566.6</ele>
        <time>2022-03-05T15:20:17Z</time>
      </trkpt>
      <trkpt lat="46.46344" lon="5.5207">
        <ele>567.4</ele>
        <time>2022-03-05T15:20:20Z</time>
      </trkpt>
      <trkpt lat="46.46338" lon="5.52081">
        <ele>567.6</ele>
        <time>2022-03-05T15:20:22Z</time>
      </trkpt>
      <trkpt lat="46.46331" lon="5.52091">
        <ele>567.8</ele>
        <time>2022-03-05T15:20:24Z</time>
      </trkpt>
      <trkpt lat="46.46322" lon="5.52101">
        <ele>568.4</ele>
        <time>2022-03-05T15:20:26Z</time>
      </trkpt>
      <trkpt lat="46.46317" lon="5.52104">
        <ele>568.4</ele>
        <time>2022-03-05T15:20:27Z</time>
      </trkpt>
      <trkpt lat="46.46312" lon="5.52105">
        <ele>568.8</ele>
        <time>2022-03-05T15:20:28Z</time>
      </trkpt>
      <trkpt lat="46.46291" lon="5.52102">
        <ele>569.8</ele>
        <time>2022-03-05T15:20:32Z</time>
      </trkpt>
      <trkpt lat="46.46288" lon="5.52101">
        <ele>570</ele>
        <time>2022-03-05T15:20:33Z</time>
      </trkpt>
      <trkpt lat="46.46261" lon="5.52091">
        <ele>571</ele>
        <time>2022-03-05T15:20:39Z</time>
      </trkpt>
      <trkpt lat="46.4625" lon="5.52091">
        <ele>571.4</ele>
        <time>2022-03-05T15:20:41Z</time>
      </trkpt>
      <trkpt lat="46.46243" lon="5.52093">
        <ele>571.8</ele>
        <time>2022-03-05T15:20:43Z</time>
      </trkpt>
      <trkpt lat="46.46239" lon="5.52095">
        <ele>572</ele>
        <time>2022-03-05T15:20:44Z</time>
      </trkpt>
      <trkpt lat="46.46229" lon="5.52097">
        <ele>572.4</ele>
        <time>2022-03-05T15:20:46Z</time>
      </trkpt>
      <trkpt lat="46.46224" lon="5.52097">
        <ele>572.6</ele>
        <time>2022-03-05T15:20:47Z</time>
      </trkpt>
      <trkpt lat="46.4622" lon="5.52097">
        <ele>572.8</ele>
        <time>2022-03-05T15:20:48Z</time>
      </trkpt>
      <trkpt lat="46.46215" lon="5.52096">
        <ele>573.2</ele>
        <time>2022-03-05T15:20:49Z</time>
      </trkpt>
      <trkpt lat="46.46189" lon="5.52085">
        <ele>574.6</ele>
        <time>2022-03-05T15:20:54Z</time>
      </trkpt>
      <trkpt lat="46.46166" lon="5.52068">
        <ele>575.6</ele>
        <time>2022-03-05T15:20:59Z</time>
      </trkpt>
      <trkpt lat="46.46149" lon="5.52056">
        <ele>576.4</ele>
        <time>2022-03-05T15:21:03Z</time>
      </trkpt>
      <trkpt lat="46.46143" lon="5.52053">
        <ele>576.4</ele>
        <time>2022-03-05T15:21:04Z</time>
      </trkpt>
      <trkpt lat="46.46139" lon="5.52052">
        <ele>576.8</ele>
        <time>2022-03-05T15:21:05Z</time>
      </trkpt>
      <trkpt lat="46.4612" lon="5.52047">
        <ele>578</ele>
        <time>2022-03-05T15:21:09Z</time>
      </trkpt>
      <trkpt lat="46.461" lon="5.52045">
        <ele>579</ele>
        <time>2022-03-05T15:21:13Z</time>
      </trkpt>
      <trkpt lat="46.46095" lon="5.52043">
        <ele>579.2</ele>
        <time>2022-03-05T15:21:14Z</time>
      </trkpt>
      <trkpt lat="46.46085" lon="5.52038">
        <ele>580</ele>
        <time>2022-03-05T15:21:16Z</time>
      </trkpt>
      <trkpt lat="46.46081" lon="5.52035">
        <ele>580.2</ele>
        <time>2022-03-05T15:21:17Z</time>
      </trkpt>
      <trkpt lat="46.46063" lon="5.52022">
        <ele>581.2</ele>
        <time>2022-03-05T15:21:21Z</time>
      </trkpt>
      <trkpt lat="46.46059" lon="5.52019">
        <ele>581.4</ele>
        <time>2022-03-05T15:21:22Z</time>
      </trkpt>
      <trkpt lat="46.46035" lon="5.5201">
        <ele>582.6</ele>
        <time>2022-03-05T15:21:27Z</time>
      </trkpt>
      <trkpt lat="46.46025" lon="5.52008">
        <ele>582.8</ele>
        <time>2022-03-05T15:21:29Z</time>
      </trkpt>
      <trkpt lat="46.46002" lon="5.51999">
        <ele>583.8</ele>
        <time>2022-03-05T15:21:34Z</time>
      </trkpt>
      <trkpt lat="46.45998" lon="5.51997">
        <ele>584</ele>
        <time>2022-03-05T15:21:35Z</time>
      </trkpt>
      <trkpt lat="46.45985" lon="5.51992">
        <ele>585</ele>
        <time>2022-03-05T15:21:38Z</time>
      </trkpt>
      <trkpt lat="46.45971" lon="5.51984">
        <ele>585.6</ele>
        <time>2022-03-05T15:21:41Z</time>
      </trkpt>
      <trkpt lat="46.45968" lon="5.51981">
        <ele>585.8</ele>
        <time>2022-03-05T15:21:42Z</time>
      </trkpt>
      <trkpt lat="46.45962" lon="5.51977">
        <ele>586</ele>
        <time>2022-03-05T15:21:43Z</time>
      </trkpt>
      <trkpt lat="46.45945" lon="5.51966">
        <ele>587.2</ele>
        <time>2022-03-05T15:21:47Z</time>
      </trkpt>
      <trkpt lat="46.45914" lon="5.5194">
        <ele>588.4</ele>
        <time>2022-03-05T15:21:54Z</time>
      </trkpt>
      <trkpt lat="46.45909" lon="5.51937">
        <ele>588.8</ele>
        <time>2022-03-05T15:21:55Z</time>
      </trkpt>
      <trkpt lat="46.45897" lon="5.51929">
        <ele>589.6</ele>
        <time>2022-03-05T15:21:58Z</time>
      </trkpt>
      <trkpt lat="46.45874" lon="5.51914">
        <ele>590.6</ele>
        <time>2022-03-05T15:22:03Z</time>
      </trkpt>
      <trkpt lat="46.45858" lon="5.51898">
        <ele>591.8</ele>
        <time>2022-03-05T15:22:07Z</time>
      </trkpt>
      <trkpt lat="46.45853" lon="5.51893">
        <ele>591.8</ele>
        <time>2022-03-05T15:22:08Z</time>
      </trkpt>
      <trkpt lat="46.45841" lon="5.51884">
        <ele>592.2</ele>
        <time>2022-03-05T15:22:11Z</time>
      </trkpt>
      <trkpt lat="46.4582" lon="5.51877">
        <ele>592.8</ele>
        <time>2022-03-05T15:22:15Z</time>
      </trkpt>
      <trkpt lat="46.45812" lon="5.51873">
        <ele>593.6</ele>
        <time>2022-03-05T15:22:17Z</time>
      </trkpt>
      <trkpt lat="46.45802" lon="5.51867">
        <ele>594</ele>
        <time>2022-03-05T15:22:19Z</time>
      </trkpt>
      <trkpt lat="46.45785" lon="5.51856">
        <ele>594.8</ele>
        <time>2022-03-05T15:22:23Z</time>
      </trkpt>
      <trkpt lat="46.45781" lon="5.51854">
        <ele>595</ele>
        <time>2022-03-05T15:22:24Z</time>
      </trkpt>
      <trkpt lat="46.45777" lon="5.51852">
        <ele>595.4</ele>
        <time>2022-03-05T15:22:25Z</time>
      </trkpt>
      <trkpt lat="46.45764" lon="5.51846">
        <ele>596.2</ele>
        <time>2022-03-05T15:22:28Z</time>
      </trkpt>
      <trkpt lat="46.45745" lon="5.51835">
        <ele>597.4</ele>
        <time>2022-03-05T15:22:32Z</time>
      </trkpt>
      <trkpt lat="46.45728" lon="5.51825">
        <ele>598.4</ele>
        <time>2022-03-05T15:22:36Z</time>
      </trkpt>
      <trkpt lat="46.45724" lon="5.51822">
        <ele>598.6</ele>
        <time>2022-03-05T15:22:37Z</time>
      </trkpt>
      <trkpt lat="46.45707" lon="5.51809">
        <ele>599.6</ele>
        <time>2022-03-05T15:22:41Z</time>
      </trkpt>
      <trkpt lat="46.45695" lon="5.51798">
        <ele>600.4</ele>
        <time>2022-03-05T15:22:44Z</time>
      </trkpt>
      <trkpt lat="46.45682" lon="5.5179">
        <ele>600.8</ele>
        <time>2022-03-05T15:22:47Z</time>
      </trkpt>
      <trkpt lat="46.45657" lon="5.51774">
        <ele>602</ele>
        <time>2022-03-05T15:22:53Z</time>
      </trkpt>
      <trkpt lat="46.45644" lon="5.51762">
        <ele>603</ele>
        <time>2022-03-05T15:22:57Z</time>
      </trkpt>
      <trkpt lat="46.45633" lon="5.51752">
        <ele>603.8</ele>
        <time>2022-03-05T15:23:00Z</time>
      </trkpt>
      <trkpt lat="46.4563" lon="5.51749">
        <ele>604</ele>
        <time>2022-03-05T15:23:01Z</time>
      </trkpt>
      <trkpt lat="46.45613" lon="5.51735">
        <ele>605.4</ele>
        <time>2022-03-05T15:23:06Z</time>
      </trkpt>
      <trkpt lat="46.45598" lon="5.51727">
        <ele>606.8</ele>
        <time>2022-03-05T15:23:10Z</time>
      </trkpt>
      <trkpt lat="46.45571" lon="5.51709">
        <ele>608.2</ele>
        <time>2022-03-05T15:23:17Z</time>
      </trkpt>
      <trkpt lat="46.45559" lon="5.517">
        <ele>608.6</ele>
        <time>2022-03-05T15:23:20Z</time>
      </trkpt>
      <trkpt lat="46.45545" lon="5.5169">
        <ele>609.2</ele>
        <time>2022-03-05T15:23:24Z</time>
      </trkpt>
      <trkpt lat="46.45532" lon="5.51679">
        <ele>610.2</ele>
        <time>2022-03-05T15:23:28Z</time>
      </trkpt>
      <trkpt lat="46.45529" lon="5.51677">
        <ele>610.6</ele>
        <time>2022-03-05T15:23:29Z</time>
      </trkpt>
      <trkpt lat="46.45514" lon="5.51665">
        <ele>611.6</ele>
        <time>2022-03-05T15:23:33Z</time>
      </trkpt>
      <trkpt lat="46.45501" lon="5.51654">
        <ele>612.8</ele>
        <time>2022-03-05T15:23:37Z</time>
      </trkpt>
      <trkpt lat="46.45498" lon="5.51651">
        <ele>613</ele>
        <time>2022-03-05T15:23:38Z</time>
      </trkpt>
      <trkpt lat="46.4549" lon="5.51645">
        <ele>613.8</ele>
        <time>2022-03-05T15:23:42Z</time>
      </trkpt>
      <trkpt lat="46.45489" lon="5.51644">
        <ele>613.8</ele>
        <time>2022-03-05T15:23:43Z</time>
      </trkpt>
      <trkpt lat="46.45485" lon="5.51638">
        <ele>614</ele>
        <time>2022-03-05T15:23:46Z</time>
      </trkpt>
      <trkpt lat="46.45477" lon="5.51629">
        <ele>614.4</ele>
        <time>2022-03-05T15:23:52Z</time>
      </trkpt>
      <trkpt lat="46.45471" lon="5.51618">
        <ele>614.6</ele>
        <time>2022-03-05T15:23:57Z</time>
      </trkpt>
      <trkpt lat="46.45467" lon="5.51613">
        <ele>614.8</ele>
        <time>2022-03-05T15:24:00Z</time>
      </trkpt>
      <trkpt lat="46.45466" lon="5.51609">
        <ele>614.8</ele>
        <time>2022-03-05T15:24:02Z</time>
      </trkpt>
      <trkpt lat="46.45465" lon="5.51607">
        <ele>615</ele>
        <time>2022-03-05T15:24:03Z</time>
      </trkpt>
      <trkpt lat="46.45464" lon="5.516">
        <ele>615</ele>
        <time>2022-03-05T15:24:06Z</time>
      </trkpt>
      <trkpt lat="46.45461" lon="5.51594">
        <ele>615.2</ele>
        <time>2022-03-05T15:24:08Z</time>
      </trkpt>
      <trkpt lat="46.45451" lon="5.5157">
        <ele>615</ele>
        <time>2022-03-05T15:24:17Z</time>
      </trkpt>
      <trkpt lat="46.45444" lon="5.51556">
        <ele>614.8</ele>
        <time>2022-03-05T15:24:23Z</time>
      </trkpt>
      <trkpt lat="46.45438" lon="5.51549">
        <ele>614.8</ele>
        <time>2022-03-05T15:24:25Z</time>
      </trkpt>
      <trkpt lat="46.45431" lon="5.51543">
        <ele>614.6</ele>
        <time>2022-03-05T15:24:27Z</time>
      </trkpt>
      <trkpt lat="46.45406" lon="5.51524">
        <ele>613.8</ele>
        <time>2022-03-05T15:24:33Z</time>
      </trkpt>
      <trkpt lat="46.45376" lon="5.51503">
        <ele>613</ele>
        <time>2022-03-05T15:24:39Z</time>
      </trkpt>
      <trkpt lat="46.45371" lon="5.51498">
        <ele>612.8</ele>
        <time>2022-03-05T15:24:40Z</time>
      </trkpt>
      <trkpt lat="46.45366" lon="5.51494">
        <ele>612.8</ele>
        <time>2022-03-05T15:24:41Z</time>
      </trkpt>
      <trkpt lat="46.45352" lon="5.51476">
        <ele>612.8</ele>
        <time>2022-03-05T15:24:44Z</time>
      </trkpt>
      <trkpt lat="46.45331" lon="5.51446">
        <ele>613.4</ele>
        <time>2022-03-05T15:24:50Z</time>
      </trkpt>
      <trkpt lat="46.45325" lon="5.51439">
        <ele>613.8</ele>
        <time>2022-03-05T15:24:52Z</time>
      </trkpt>
      <trkpt lat="46.45315" lon="5.51428">
        <ele>615.2</ele>
        <time>2022-03-05T15:24:55Z</time>
      </trkpt>
      <trkpt lat="46.45309" lon="5.5142">
        <ele>615.6</ele>
        <time>2022-03-05T15:24:57Z</time>
      </trkpt>
      <trkpt lat="46.45303" lon="5.5141">
        <ele>615.8</ele>
        <time>2022-03-05T15:24:59Z</time>
      </trkpt>
      <trkpt lat="46.45299" lon="5.51398">
        <ele>616.2</ele>
        <time>2022-03-05T15:25:01Z</time>
      </trkpt>
      <trkpt lat="46.45297" lon="5.51392">
        <ele>616.4</ele>
        <time>2022-03-05T15:25:02Z</time>
      </trkpt>
      <trkpt lat="46.45295" lon="5.51363">
        <ele>616.6</ele>
        <time>2022-03-05T15:25:06Z</time>
      </trkpt>
      <trkpt lat="46.45296" lon="5.51356">
        <ele>616.6</ele>
        <time>2022-03-05T15:25:07Z</time>
      </trkpt>
      <trkpt lat="46.45299" lon="5.51322">
        <ele>616.6</ele>
        <time>2022-03-05T15:25:12Z</time>
      </trkpt>
      <trkpt lat="46.45297" lon="5.5131">
        <ele>616.6</ele>
        <time>2022-03-05T15:25:14Z</time>
      </trkpt>
      <trkpt lat="46.4529" lon="5.51301">
        <ele>616.6</ele>
        <time>2022-03-05T15:25:16Z</time>
      </trkpt>
      <trkpt lat="46.45285" lon="5.51299">
        <ele>616.4</ele>
        <time>2022-03-05T15:25:17Z</time>
      </trkpt>
      <trkpt lat="46.45269" lon="5.5129">
        <ele>616.2</ele>
        <time>2022-03-05T15:25:20Z</time>
      </trkpt>
      <trkpt lat="46.45263" lon="5.5128">
        <ele>616</ele>
        <time>2022-03-05T15:25:22Z</time>
      </trkpt>
      <trkpt lat="46.45267" lon="5.51265">
        <ele>615.8</ele>
        <time>2022-03-05T15:25:24Z</time>
      </trkpt>
      <trkpt lat="46.45281" lon="5.5124">
        <ele>615</ele>
        <time>2022-03-05T15:25:27Z</time>
      </trkpt>
      <trkpt lat="46.45292" lon="5.51221">
        <ele>614.2</ele>
        <time>2022-03-05T15:25:29Z</time>
      </trkpt>
      <trkpt lat="46.45301" lon="5.51201">
        <ele>612.8</ele>
        <time>2022-03-05T15:25:31Z</time>
      </trkpt>
      <trkpt lat="46.45303" lon="5.51189">
        <ele>612.4</ele>
        <time>2022-03-05T15:25:32Z</time>
      </trkpt>
      <trkpt lat="46.45304" lon="5.51177">
        <ele>611.6</ele>
        <time>2022-03-05T15:25:33Z</time>
      </trkpt>
      <trkpt lat="46.45304" lon="5.51152">
        <ele>610.6</ele>
        <time>2022-03-05T15:25:35Z</time>
      </trkpt>
      <trkpt lat="46.45304" lon="5.51138">
        <ele>609.8</ele>
        <time>2022-03-05T15:25:36Z</time>
      </trkpt>
      <trkpt lat="46.45304" lon="5.51125">
        <ele>609.4</ele>
        <time>2022-03-05T15:25:37Z</time>
      </trkpt>
      <trkpt lat="46.45304" lon="5.51095">
        <ele>608</ele>
        <time>2022-03-05T15:25:39Z</time>
      </trkpt>
      <trkpt lat="46.45305" lon="5.51065">
        <ele>607.2</ele>
        <time>2022-03-05T15:25:41Z</time>
      </trkpt>
      <trkpt lat="46.45307" lon="5.51049">
        <ele>606.6</ele>
        <time>2022-03-05T15:25:42Z</time>
      </trkpt>
      <trkpt lat="46.45312" lon="5.51035">
        <ele>605.4</ele>
        <time>2022-03-05T15:25:43Z</time>
      </trkpt>
      <trkpt lat="46.4532" lon="5.51023">
        <ele>604.8</ele>
        <time>2022-03-05T15:25:44Z</time>
      </trkpt>
      <trkpt lat="46.45329" lon="5.51014">
        <ele>603.6</ele>
        <time>2022-03-05T15:25:45Z</time>
      </trkpt>
      <trkpt lat="46.45346" lon="5.51001">
        <ele>602.2</ele>
        <time>2022-03-05T15:25:47Z</time>
      </trkpt>
      <trkpt lat="46.45352" lon="5.50993">
        <ele>601</ele>
        <time>2022-03-05T15:25:48Z</time>
      </trkpt>
      <trkpt lat="46.45355" lon="5.50984">
        <ele>599.8</ele>
        <time>2022-03-05T15:25:49Z</time>
      </trkpt>
      <trkpt lat="46.45352" lon="5.50964">
        <ele>598.4</ele>
        <time>2022-03-05T15:25:51Z</time>
      </trkpt>
      <trkpt lat="46.45347" lon="5.50957">
        <ele>597.8</ele>
        <time>2022-03-05T15:25:52Z</time>
      </trkpt>
      <trkpt lat="46.45339" lon="5.50952">
        <ele>597.4</ele>
        <time>2022-03-05T15:25:53Z</time>
      </trkpt>
      <trkpt lat="46.45332" lon="5.50948">
        <ele>597.4</ele>
        <time>2022-03-05T15:25:54Z</time>
      </trkpt>
      <trkpt lat="46.45324" lon="5.50945">
        <ele>597.4</ele>
        <time>2022-03-05T15:25:55Z</time>
      </trkpt>
      <trkpt lat="46.45299" lon="5.5094">
        <ele>596.8</ele>
        <time>2022-03-05T15:25:58Z</time>
      </trkpt>
      <trkpt lat="46.45282" lon="5.50943">
        <ele>596.2</ele>
        <time>2022-03-05T15:26:00Z</time>
      </trkpt>
      <trkpt lat="46.45253" lon="5.50953">
        <ele>594.6</ele>
        <time>2022-03-05T15:26:03Z</time>
      </trkpt>
      <trkpt lat="46.45242" lon="5.50954">
        <ele>594.4</ele>
        <time>2022-03-05T15:26:04Z</time>
      </trkpt>
      <trkpt lat="46.45231" lon="5.50953">
        <ele>593.2</ele>
        <time>2022-03-05T15:26:05Z</time>
      </trkpt>
      <trkpt lat="46.45208" lon="5.50948">
        <ele>591.8</ele>
        <time>2022-03-05T15:26:07Z</time>
      </trkpt>
      <trkpt lat="46.45182" lon="5.50941">
        <ele>590.6</ele>
        <time>2022-03-05T15:26:09Z</time>
      </trkpt>
      <trkpt lat="46.4517" lon="5.50936">
        <ele>589.2</ele>
        <time>2022-03-05T15:26:10Z</time>
      </trkpt>
      <trkpt lat="46.45148" lon="5.50924">
        <ele>587.2</ele>
        <time>2022-03-05T15:26:12Z</time>
      </trkpt>
      <trkpt lat="46.45137" lon="5.50916">
        <ele>586.2</ele>
        <time>2022-03-05T15:26:13Z</time>
      </trkpt>
      <trkpt lat="46.45124" lon="5.50903">
        <ele>585</ele>
        <time>2022-03-05T15:26:14Z</time>
      </trkpt>
      <trkpt lat="46.45113" lon="5.5089">
        <ele>584.4</ele>
        <time>2022-03-05T15:26:15Z</time>
      </trkpt>
      <trkpt lat="46.45104" lon="5.50877">
        <ele>583.2</ele>
        <time>2022-03-05T15:26:16Z</time>
      </trkpt>
      <trkpt lat="46.45094" lon="5.50862">
        <ele>581.8</ele>
        <time>2022-03-05T15:26:17Z</time>
      </trkpt>
      <trkpt lat="46.45076" lon="5.50833">
        <ele>579.4</ele>
        <time>2022-03-05T15:26:19Z</time>
      </trkpt>
      <trkpt lat="46.45068" lon="5.50817">
        <ele>578.6</ele>
        <time>2022-03-05T15:26:20Z</time>
      </trkpt>
      <trkpt lat="46.4506" lon="5.50801">
        <ele>576.6</ele>
        <time>2022-03-05T15:26:21Z</time>
      </trkpt>
      <trkpt lat="46.45046" lon="5.50766">
        <ele>574.8</ele>
        <time>2022-03-05T15:26:23Z</time>
      </trkpt>
      <trkpt lat="46.45037" lon="5.50733">
        <ele>572.8</ele>
        <time>2022-03-05T15:26:25Z</time>
      </trkpt>
      <trkpt lat="46.45031" lon="5.50717">
        <ele>571.4</ele>
        <time>2022-03-05T15:26:26Z</time>
      </trkpt>
      <trkpt lat="46.45014" lon="5.5069">
        <ele>569.2</ele>
        <time>2022-03-05T15:26:28Z</time>
      </trkpt>
      <trkpt lat="46.45004" lon="5.50679">
        <ele>568.6</ele>
        <time>2022-03-05T15:26:29Z</time>
      </trkpt>
      <trkpt lat="46.44994" lon="5.50669">
        <ele>567.2</ele>
        <time>2022-03-05T15:26:30Z</time>
      </trkpt>
      <trkpt lat="46.44974" lon="5.50651">
        <ele>565.2</ele>
        <time>2022-03-05T15:26:32Z</time>
      </trkpt>
      <trkpt lat="46.44964" lon="5.50641">
        <ele>563.8</ele>
        <time>2022-03-05T15:26:33Z</time>
      </trkpt>
      <trkpt lat="46.44952" lon="5.50631">
        <ele>563.2</ele>
        <time>2022-03-05T15:26:34Z</time>
      </trkpt>
      <trkpt lat="46.44942" lon="5.50627">
        <ele>561.8</ele>
        <time>2022-03-05T15:26:35Z</time>
      </trkpt>
      <trkpt lat="46.44932" lon="5.50625">
        <ele>561.4</ele>
        <time>2022-03-05T15:26:36Z</time>
      </trkpt>
      <trkpt lat="46.44922" lon="5.50627">
        <ele>560.4</ele>
        <time>2022-03-05T15:26:37Z</time>
      </trkpt>
      <trkpt lat="46.44911" lon="5.50631">
        <ele>559.6</ele>
        <time>2022-03-05T15:26:38Z</time>
      </trkpt>
      <trkpt lat="46.449" lon="5.50635">
        <ele>558.6</ele>
        <time>2022-03-05T15:26:39Z</time>
      </trkpt>
      <trkpt lat="46.44889" lon="5.50637">
        <ele>558</ele>
        <time>2022-03-05T15:26:40Z</time>
      </trkpt>
      <trkpt lat="46.44879" lon="5.50636">
        <ele>557</ele>
        <time>2022-03-05T15:26:41Z</time>
      </trkpt>
      <trkpt lat="46.44867" lon="5.50632">
        <ele>555.4</ele>
        <time>2022-03-05T15:26:42Z</time>
      </trkpt>
      <trkpt lat="46.44855" lon="5.50624">
        <ele>554.8</ele>
        <time>2022-03-05T15:26:43Z</time>
      </trkpt>
      <trkpt lat="46.44841" lon="5.50613">
        <ele>553.2</ele>
        <time>2022-03-05T15:26:44Z</time>
      </trkpt>
      <trkpt lat="46.44819" lon="5.50597">
        <ele>551</ele>
        <time>2022-03-05T15:26:46Z</time>
      </trkpt>
      <trkpt lat="46.44794" lon="5.50582">
        <ele>548.4</ele>
        <time>2022-03-05T15:26:48Z</time>
      </trkpt>
      <trkpt lat="46.44765" lon="5.5057">
        <ele>546</ele>
        <time>2022-03-05T15:26:50Z</time>
      </trkpt>
      <trkpt lat="46.44755" lon="5.50566">
        <ele>544.4</ele>
        <time>2022-03-05T15:26:51Z</time>
      </trkpt>
      <trkpt lat="46.4474" lon="5.50561">
        <ele>543.6</ele>
        <time>2022-03-05T15:26:52Z</time>
      </trkpt>
      <trkpt lat="46.44727" lon="5.50557">
        <ele>541.8</ele>
        <time>2022-03-05T15:26:53Z</time>
      </trkpt>
      <trkpt lat="46.44708" lon="5.50549">
        <ele>539.6</ele>
        <time>2022-03-05T15:26:55Z</time>
      </trkpt>
      <trkpt lat="46.447" lon="5.50545">
        <ele>539.2</ele>
        <time>2022-03-05T15:26:56Z</time>
      </trkpt>
      <trkpt lat="46.44691" lon="5.50542">
        <ele>537.8</ele>
        <time>2022-03-05T15:26:57Z</time>
      </trkpt>
      <trkpt lat="46.44687" lon="5.50544">
        <ele>536.6</ele>
        <time>2022-03-05T15:26:58Z</time>
      </trkpt>
      <trkpt lat="46.44681" lon="5.50551">
        <ele>536.2</ele>
        <time>2022-03-05T15:26:59Z</time>
      </trkpt>
      <trkpt lat="46.44679" lon="5.50559">
        <ele>535.2</ele>
        <time>2022-03-05T15:27:00Z</time>
      </trkpt>
      <trkpt lat="46.44681" lon="5.50568">
        <ele>534.8</ele>
        <time>2022-03-05T15:27:01Z</time>
      </trkpt>
      <trkpt lat="46.44686" lon="5.50576">
        <ele>534</ele>
        <time>2022-03-05T15:27:02Z</time>
      </trkpt>
      <trkpt lat="46.44699" lon="5.5059">
        <ele>532.4</ele>
        <time>2022-03-05T15:27:04Z</time>
      </trkpt>
      <trkpt lat="46.44714" lon="5.50605">
        <ele>531.2</ele>
        <time>2022-03-05T15:27:06Z</time>
      </trkpt>
      <trkpt lat="46.44722" lon="5.50613">
        <ele>530.4</ele>
        <time>2022-03-05T15:27:07Z</time>
      </trkpt>
      <trkpt lat="46.44729" lon="5.50621">
        <ele>530</ele>
        <time>2022-03-05T15:27:08Z</time>
      </trkpt>
      <trkpt lat="46.44745" lon="5.50636">
        <ele>528.6</ele>
        <time>2022-03-05T15:27:10Z</time>
      </trkpt>
      <trkpt lat="46.44762" lon="5.50653">
        <ele>527.4</ele>
        <time>2022-03-05T15:27:12Z</time>
      </trkpt>
      <trkpt lat="46.4477" lon="5.50662">
        <ele>526.8</ele>
        <time>2022-03-05T15:27:13Z</time>
      </trkpt>
      <trkpt lat="46.4478" lon="5.5067">
        <ele>526.4</ele>
        <time>2022-03-05T15:27:14Z</time>
      </trkpt>
      <trkpt lat="46.44793" lon="5.50676">
        <ele>525.2</ele>
        <time>2022-03-05T15:27:16Z</time>
      </trkpt>
      <trkpt lat="46.448" lon="5.5068">
        <ele>524.8</ele>
        <time>2022-03-05T15:27:17Z</time>
      </trkpt>
      <trkpt lat="46.44805" lon="5.5069">
        <ele>524</ele>
        <time>2022-03-05T15:27:19Z</time>
      </trkpt>
      <trkpt lat="46.44799" lon="5.507">
        <ele>523.2</ele>
        <time>2022-03-05T15:27:21Z</time>
      </trkpt>
      <trkpt lat="46.44793" lon="5.50699">
        <ele>522.8</ele>
        <time>2022-03-05T15:27:22Z</time>
      </trkpt>
      <trkpt lat="46.44787" lon="5.50696">
        <ele>522.4</ele>
        <time>2022-03-05T15:27:23Z</time>
      </trkpt>
      <trkpt lat="46.4477" lon="5.50685">
        <ele>521.6</ele>
        <time>2022-03-05T15:27:25Z</time>
      </trkpt>
      <trkpt lat="46.44752" lon="5.50676">
        <ele>520.6</ele>
        <time>2022-03-05T15:27:27Z</time>
      </trkpt>
      <trkpt lat="46.44742" lon="5.50671">
        <ele>520.4</ele>
        <time>2022-03-05T15:27:28Z</time>
      </trkpt>
      <trkpt lat="46.44734" lon="5.50667">
        <ele>519.2</ele>
        <time>2022-03-05T15:27:29Z</time>
      </trkpt>
      <trkpt lat="46.44713" lon="5.50658">
        <ele>517.2</ele>
        <time>2022-03-05T15:27:31Z</time>
      </trkpt>
      <trkpt lat="46.447" lon="5.50652">
        <ele>516</ele>
        <time>2022-03-05T15:27:32Z</time>
      </trkpt>
      <trkpt lat="46.4468" lon="5.5064">
        <ele>513.8</ele>
        <time>2022-03-05T15:27:34Z</time>
      </trkpt>
      <trkpt lat="46.44658" lon="5.50627">
        <ele>512</ele>
        <time>2022-03-05T15:27:36Z</time>
      </trkpt>
      <trkpt lat="46.44645" lon="5.50619">
        <ele>511.4</ele>
        <time>2022-03-05T15:27:37Z</time>
      </trkpt>
      <trkpt lat="46.44633" lon="5.50612">
        <ele>510.2</ele>
        <time>2022-03-05T15:27:38Z</time>
      </trkpt>
      <trkpt lat="46.44624" lon="5.50606">
        <ele>509</ele>
        <time>2022-03-05T15:27:39Z</time>
      </trkpt>
      <trkpt lat="46.44599" lon="5.50591">
        <ele>506.6</ele>
        <time>2022-03-05T15:27:41Z</time>
      </trkpt>
      <trkpt lat="46.44584" lon="5.50583">
        <ele>505.8</ele>
        <time>2022-03-05T15:27:42Z</time>
      </trkpt>
      <trkpt lat="46.44572" lon="5.50576">
        <ele>504.4</ele>
        <time>2022-03-05T15:27:43Z</time>
      </trkpt>
      <trkpt lat="46.44549" lon="5.50564">
        <ele>502</ele>
        <time>2022-03-05T15:27:45Z</time>
      </trkpt>
      <trkpt lat="46.44537" lon="5.50556">
        <ele>501</ele>
        <time>2022-03-05T15:27:46Z</time>
      </trkpt>
      <trkpt lat="46.44523" lon="5.50545">
        <ele>499.4</ele>
        <time>2022-03-05T15:27:47Z</time>
      </trkpt>
      <trkpt lat="46.44515" lon="5.50536">
        <ele>497</ele>
        <time>2022-03-05T15:27:48Z</time>
      </trkpt>
      <trkpt lat="46.44505" lon="5.50524">
        <ele>496.4</ele>
        <time>2022-03-05T15:27:49Z</time>
      </trkpt>
      <trkpt lat="46.44498" lon="5.5051">
        <ele>494</ele>
        <time>2022-03-05T15:27:50Z</time>
      </trkpt>
      <trkpt lat="46.44491" lon="5.50491">
        <ele>493.4</ele>
        <time>2022-03-05T15:27:51Z</time>
      </trkpt>
      <trkpt lat="46.44488" lon="5.50475">
        <ele>491.8</ele>
        <time>2022-03-05T15:27:52Z</time>
      </trkpt>
      <trkpt lat="46.44482" lon="5.50439">
        <ele>489.4</ele>
        <time>2022-03-05T15:27:54Z</time>
      </trkpt>
      <trkpt lat="46.44478" lon="5.50422">
        <ele>488.2</ele>
        <time>2022-03-05T15:27:55Z</time>
      </trkpt>
      <trkpt lat="46.44473" lon="5.50409">
        <ele>486.4</ele>
        <time>2022-03-05T15:27:56Z</time>
      </trkpt>
      <trkpt lat="46.44465" lon="5.50394">
        <ele>484.4</ele>
        <time>2022-03-05T15:27:57Z</time>
      </trkpt>
      <trkpt lat="46.44454" lon="5.50377">
        <ele>483.4</ele>
        <time>2022-03-05T15:27:58Z</time>
      </trkpt>
      <trkpt lat="46.44445" lon="5.50364">
        <ele>481.6</ele>
        <time>2022-03-05T15:27:59Z</time>
      </trkpt>
      <trkpt lat="46.44437" lon="5.50354">
        <ele>480.8</ele>
        <time>2022-03-05T15:28:00Z</time>
      </trkpt>
      <trkpt lat="46.44429" lon="5.50342">
        <ele>479</ele>
        <time>2022-03-05T15:28:01Z</time>
      </trkpt>
      <trkpt lat="46.4442" lon="5.50329">
        <ele>478</ele>
        <time>2022-03-05T15:28:02Z</time>
      </trkpt>
      <trkpt lat="46.44415" lon="5.50317">
        <ele>475.6</ele>
        <time>2022-03-05T15:28:03Z</time>
      </trkpt>
      <trkpt lat="46.44411" lon="5.50305">
        <ele>473.6</ele>
        <time>2022-03-05T15:28:04Z</time>
      </trkpt>
      <trkpt lat="46.44408" lon="5.50289">
        <ele>472.8</ele>
        <time>2022-03-05T15:28:05Z</time>
      </trkpt>
      <trkpt lat="46.44411" lon="5.50273">
        <ele>470.8</ele>
        <time>2022-03-05T15:28:06Z</time>
      </trkpt>
      <trkpt lat="46.44416" lon="5.50257">
        <ele>469.6</ele>
        <time>2022-03-05T15:28:07Z</time>
      </trkpt>
      <trkpt lat="46.4442" lon="5.5024">
        <ele>468</ele>
        <time>2022-03-05T15:28:08Z</time>
      </trkpt>
      <trkpt lat="46.44425" lon="5.50206">
        <ele>465</ele>
        <time>2022-03-05T15:28:10Z</time>
      </trkpt>
      <trkpt lat="46.44426" lon="5.5017">
        <ele>462.8</ele>
        <time>2022-03-05T15:28:12Z</time>
      </trkpt>
      <trkpt lat="46.4443" lon="5.50153">
        <ele>461.4</ele>
        <time>2022-03-05T15:28:13Z</time>
      </trkpt>
      <trkpt lat="46.44435" lon="5.50137">
        <ele>460.2</ele>
        <time>2022-03-05T15:28:14Z</time>
      </trkpt>
      <trkpt lat="46.44442" lon="5.50123">
        <ele>458.8</ele>
        <time>2022-03-05T15:28:15Z</time>
      </trkpt>
      <trkpt lat="46.44451" lon="5.5011">
        <ele>458.4</ele>
        <time>2022-03-05T15:28:16Z</time>
      </trkpt>
      <trkpt lat="46.44461" lon="5.50099">
        <ele>456.6</ele>
        <time>2022-03-05T15:28:17Z</time>
      </trkpt>
      <trkpt lat="46.44481" lon="5.50077">
        <ele>454.2</ele>
        <time>2022-03-05T15:28:19Z</time>
      </trkpt>
      <trkpt lat="46.4449" lon="5.50065">
        <ele>452.6</ele>
        <time>2022-03-05T15:28:20Z</time>
      </trkpt>
      <trkpt lat="46.44497" lon="5.50056">
        <ele>452</ele>
        <time>2022-03-05T15:28:21Z</time>
      </trkpt>
      <trkpt lat="46.44503" lon="5.5004">
        <ele>451</ele>
        <time>2022-03-05T15:28:22Z</time>
      </trkpt>
      <trkpt lat="46.44503" lon="5.50025">
        <ele>450.2</ele>
        <time>2022-03-05T15:28:23Z</time>
      </trkpt>
      <trkpt lat="46.44499" lon="5.50013">
        <ele>448.4</ele>
        <time>2022-03-05T15:28:24Z</time>
      </trkpt>
      <trkpt lat="46.44492" lon="5.50001">
        <ele>447.8</ele>
        <time>2022-03-05T15:28:25Z</time>
      </trkpt>
      <trkpt lat="46.44485" lon="5.49989">
        <ele>446.6</ele>
        <time>2022-03-05T15:28:26Z</time>
      </trkpt>
      <trkpt lat="46.44479" lon="5.49976">
        <ele>446</ele>
        <time>2022-03-05T15:28:27Z</time>
      </trkpt>
      <trkpt lat="46.44474" lon="5.49963">
        <ele>444.6</ele>
        <time>2022-03-05T15:28:28Z</time>
      </trkpt>
      <trkpt lat="46.44471" lon="5.4995">
        <ele>443.4</ele>
        <time>2022-03-05T15:28:29Z</time>
      </trkpt>
      <trkpt lat="46.4447" lon="5.49922">
        <ele>442.2</ele>
        <time>2022-03-05T15:28:31Z</time>
      </trkpt>
      <trkpt lat="46.44471" lon="5.49895">
        <ele>440.4</ele>
        <time>2022-03-05T15:28:33Z</time>
      </trkpt>
      <trkpt lat="46.4447" lon="5.49884">
        <ele>439.8</ele>
        <time>2022-03-05T15:28:34Z</time>
      </trkpt>
      <trkpt lat="46.44463" lon="5.49874">
        <ele>438.6</ele>
        <time>2022-03-05T15:28:35Z</time>
      </trkpt>
      <trkpt lat="46.44454" lon="5.49866">
        <ele>438</ele>
        <time>2022-03-05T15:28:36Z</time>
      </trkpt>
      <trkpt lat="46.44443" lon="5.49862">
        <ele>437.4</ele>
        <time>2022-03-05T15:28:37Z</time>
      </trkpt>
      <trkpt lat="46.44418" lon="5.49858">
        <ele>436.2</ele>
        <time>2022-03-05T15:28:39Z</time>
      </trkpt>
      <trkpt lat="46.44405" lon="5.49859">
        <ele>434.4</ele>
        <time>2022-03-05T15:28:40Z</time>
      </trkpt>
      <trkpt lat="46.44381" lon="5.49861">
        <ele>431.2</ele>
        <time>2022-03-05T15:28:42Z</time>
      </trkpt>
      <trkpt lat="46.4437" lon="5.49858">
        <ele>430.2</ele>
        <time>2022-03-05T15:28:43Z</time>
      </trkpt>
      <trkpt lat="46.4436" lon="5.49851">
        <ele>428</ele>
        <time>2022-03-05T15:28:44Z</time>
      </trkpt>
      <trkpt lat="46.44351" lon="5.49841">
        <ele>426.2</ele>
        <time>2022-03-05T15:28:45Z</time>
      </trkpt>
      <trkpt lat="46.44338" lon="5.49816">
        <ele>424.8</ele>
        <time>2022-03-05T15:28:47Z</time>
      </trkpt>
      <trkpt lat="46.44313" lon="5.49787">
        <ele>424</ele>
        <time>2022-03-05T15:28:50Z</time>
      </trkpt>
      <trkpt lat="46.44285" lon="5.49769">
        <ele>423.6</ele>
        <time>2022-03-05T15:28:53Z</time>
      </trkpt>
      <trkpt lat="46.44278" lon="5.49764">
        <ele>423.6</ele>
        <time>2022-03-05T15:28:54Z</time>
      </trkpt>
      <trkpt lat="46.44267" lon="5.49755">
        <ele>423.4</ele>
        <time>2022-03-05T15:28:55Z</time>
      </trkpt>
      <trkpt lat="46.44252" lon="5.49738">
        <ele>423.4</ele>
        <time>2022-03-05T15:28:57Z</time>
      </trkpt>
      <trkpt lat="46.44246" lon="5.49728">
        <ele>423.4</ele>
        <time>2022-03-05T15:28:58Z</time>
      </trkpt>
      <trkpt lat="46.44241" lon="5.49721">
        <ele>423.4</ele>
        <time>2022-03-05T15:28:59Z</time>
      </trkpt>
      <trkpt lat="46.44227" lon="5.49701">
        <ele>423.2</ele>
        <time>2022-03-05T15:29:01Z</time>
      </trkpt>
      <trkpt lat="46.44213" lon="5.49684">
        <ele>422.8</ele>
        <time>2022-03-05T15:29:03Z</time>
      </trkpt>
      <trkpt lat="46.44207" lon="5.49677">
        <ele>422.6</ele>
        <time>2022-03-05T15:29:04Z</time>
      </trkpt>
      <trkpt lat="46.44191" lon="5.49661">
        <ele>421.8</ele>
        <time>2022-03-05T15:29:06Z</time>
      </trkpt>
      <trkpt lat="46.44184" lon="5.49653">
        <ele>421.6</ele>
        <time>2022-03-05T15:29:07Z</time>
      </trkpt>
      <trkpt lat="46.44158" lon="5.49621">
        <ele>420.6</ele>
        <time>2022-03-05T15:29:11Z</time>
      </trkpt>
      <trkpt lat="46.4415" lon="5.49609">
        <ele>420.2</ele>
        <time>2022-03-05T15:29:12Z</time>
      </trkpt>
      <trkpt lat="46.44117" lon="5.49565">
        <ele>419.6</ele>
        <time>2022-03-05T15:29:17Z</time>
      </trkpt>
      <trkpt lat="46.44091" lon="5.4953">
        <ele>419</ele>
        <time>2022-03-05T15:29:21Z</time>
      </trkpt>
      <trkpt lat="46.44066" lon="5.49497">
        <ele>418.6</ele>
        <time>2022-03-05T15:29:25Z</time>
      </trkpt>
      <trkpt lat="46.44022" lon="5.4945">
        <ele>418.2</ele>
        <time>2022-03-05T15:29:31Z</time>
      </trkpt>
      <trkpt lat="46.44015" lon="5.49441">
        <ele>418</ele>
        <time>2022-03-05T15:29:32Z</time>
      </trkpt>
      <trkpt lat="46.43996" lon="5.49411">
        <ele>416.8</ele>
        <time>2022-03-05T15:29:35Z</time>
      </trkpt>
      <trkpt lat="46.43986" lon="5.4939">
        <ele>416.4</ele>
        <time>2022-03-05T15:29:37Z</time>
      </trkpt>
      <trkpt lat="46.43965" lon="5.49338">
        <ele>415.8</ele>
        <time>2022-03-05T15:29:42Z</time>
      </trkpt>
      <trkpt lat="46.4396" lon="5.49325">
        <ele>415.8</ele>
        <time>2022-03-05T15:29:43Z</time>
      </trkpt>
      <trkpt lat="46.43941" lon="5.49271">
        <ele>415.6</ele>
        <time>2022-03-05T15:29:48Z</time>
      </trkpt>
      <trkpt lat="46.43928" lon="5.49239">
        <ele>415.2</ele>
        <time>2022-03-05T15:29:51Z</time>
      </trkpt>
      <trkpt lat="46.43916" lon="5.49221">
        <ele>414.8</ele>
        <time>2022-03-05T15:29:53Z</time>
      </trkpt>
      <trkpt lat="46.43911" lon="5.49214">
        <ele>414.8</ele>
        <time>2022-03-05T15:29:54Z</time>
      </trkpt>
      <trkpt lat="46.43877" lon="5.49168">
        <ele>413.8</ele>
        <time>2022-03-05T15:29:59Z</time>
      </trkpt>
      <trkpt lat="46.43864" lon="5.49148">
        <ele>413.6</ele>
        <time>2022-03-05T15:30:01Z</time>
      </trkpt>
      <trkpt lat="46.43832" lon="5.49117">
        <ele>413.2</ele>
        <time>2022-03-05T15:30:05Z</time>
      </trkpt>
      <trkpt lat="46.43816" lon="5.49101">
        <ele>412.4</ele>
        <time>2022-03-05T15:30:07Z</time>
      </trkpt>
      <trkpt lat="46.43808" lon="5.49092">
        <ele>412.4</ele>
        <time>2022-03-05T15:30:08Z</time>
      </trkpt>
      <trkpt lat="46.43796" lon="5.49075">
        <ele>412.2</ele>
        <time>2022-03-05T15:30:10Z</time>
      </trkpt>
      <trkpt lat="46.43766" lon="5.49019">
        <ele>411.4</ele>
        <time>2022-03-05T15:30:15Z</time>
      </trkpt>
      <trkpt lat="46.43758" lon="5.48995">
        <ele>411.2</ele>
        <time>2022-03-05T15:30:17Z</time>
      </trkpt>
      <trkpt lat="46.43752" lon="5.4897">
        <ele>411.2</ele>
        <time>2022-03-05T15:30:19Z</time>
      </trkpt>
      <trkpt lat="46.43738" lon="5.48894">
        <ele>411</ele>
        <time>2022-03-05T15:30:25Z</time>
      </trkpt>
      <trkpt lat="46.43735" lon="5.48882">
        <ele>411</ele>
        <time>2022-03-05T15:30:26Z</time>
      </trkpt>
      <trkpt lat="46.4372" lon="5.48834">
        <ele>410.8</ele>
        <time>2022-03-05T15:30:30Z</time>
      </trkpt>
      <trkpt lat="46.43704" lon="5.48786">
        <ele>410.6</ele>
        <time>2022-03-05T15:30:34Z</time>
      </trkpt>
      <trkpt lat="46.43702" lon="5.48774">
        <ele>410.6</ele>
        <time>2022-03-05T15:30:35Z</time>
      </trkpt>
      <trkpt lat="46.43702" lon="5.48747">
        <ele>410.4</ele>
        <time>2022-03-05T15:30:37Z</time>
      </trkpt>
      <trkpt lat="46.43711" lon="5.48725">
        <ele>410.4</ele>
        <time>2022-03-05T15:30:39Z</time>
      </trkpt>
      <trkpt lat="46.43716" lon="5.48716">
        <ele>410.4</ele>
        <time>2022-03-05T15:30:40Z</time>
      </trkpt>
      <trkpt lat="46.43722" lon="5.48706">
        <ele>410.4</ele>
        <time>2022-03-05T15:30:41Z</time>
      </trkpt>
      <trkpt lat="46.43726" lon="5.48695">
        <ele>410.4</ele>
        <time>2022-03-05T15:30:42Z</time>
      </trkpt>
      <trkpt lat="46.43728" lon="5.48685">
        <ele>410.4</ele>
        <time>2022-03-05T15:30:43Z</time>
      </trkpt>
      <trkpt lat="46.4372" lon="5.48667">
        <ele>410.6</ele>
        <time>2022-03-05T15:30:45Z</time>
      </trkpt>
      <trkpt lat="46.43715" lon="5.48659">
        <ele>410.6</ele>
        <time>2022-03-05T15:30:46Z</time>
      </trkpt>
      <trkpt lat="46.43699" lon="5.48639">
        <ele>411.2</ele>
        <time>2022-03-05T15:30:49Z</time>
      </trkpt>
      <trkpt lat="46.43693" lon="5.48631">
        <ele>411.4</ele>
        <time>2022-03-05T15:30:50Z</time>
      </trkpt>
      <trkpt lat="46.43688" lon="5.48623">
        <ele>411.4</ele>
        <time>2022-03-05T15:30:51Z</time>
      </trkpt>
      <trkpt lat="46.43674" lon="5.48604">
        <ele>412.6</ele>
        <time>2022-03-05T15:30:54Z</time>
      </trkpt>
      <trkpt lat="46.43663" lon="5.4859">
        <ele>413.8</ele>
        <time>2022-03-05T15:30:56Z</time>
      </trkpt>
      <trkpt lat="46.43648" lon="5.48571">
        <ele>415.2</ele>
        <time>2022-03-05T15:30:59Z</time>
      </trkpt>
      <trkpt lat="46.43643" lon="5.48562">
        <ele>415.4</ele>
        <time>2022-03-05T15:31:00Z</time>
      </trkpt>
      <trkpt lat="46.43639" lon="5.48554">
        <ele>415.8</ele>
        <time>2022-03-05T15:31:01Z</time>
      </trkpt>
      <trkpt lat="46.43635" lon="5.48546">
        <ele>416</ele>
        <time>2022-03-05T15:31:02Z</time>
      </trkpt>
      <trkpt lat="46.43633" lon="5.48537">
        <ele>416.4</ele>
        <time>2022-03-05T15:31:03Z</time>
      </trkpt>
      <trkpt lat="46.43629" lon="5.48518">
        <ele>417</ele>
        <time>2022-03-05T15:31:05Z</time>
      </trkpt>
      <trkpt lat="46.43621" lon="5.48489">
        <ele>417.4</ele>
        <time>2022-03-05T15:31:08Z</time>
      </trkpt>
      <trkpt lat="46.43617" lon="5.48479">
        <ele>417.6</ele>
        <time>2022-03-05T15:31:09Z</time>
      </trkpt>
      <trkpt lat="46.43612" lon="5.4847">
        <ele>417.6</ele>
        <time>2022-03-05T15:31:10Z</time>
      </trkpt>
      <trkpt lat="46.43582" lon="5.48442">
        <ele>417.6</ele>
        <time>2022-03-05T15:31:14Z</time>
      </trkpt>
      <trkpt lat="46.43555" lon="5.48424">
        <ele>416.2</ele>
        <time>2022-03-05T15:31:17Z</time>
      </trkpt>
      <trkpt lat="46.43529" lon="5.4841">
        <ele>414.2</ele>
        <time>2022-03-05T15:31:20Z</time>
      </trkpt>
      <trkpt lat="46.43504" lon="5.48398">
        <ele>413.2</ele>
        <time>2022-03-05T15:31:23Z</time>
      </trkpt>
      <trkpt lat="46.43494" lon="5.48391">
        <ele>413</ele>
        <time>2022-03-05T15:31:24Z</time>
      </trkpt>
      <trkpt lat="46.43487" lon="5.48384">
        <ele>412.8</ele>
        <time>2022-03-05T15:31:25Z</time>
      </trkpt>
      <trkpt lat="46.4348" lon="5.48375">
        <ele>412.8</ele>
        <time>2022-03-05T15:31:26Z</time>
      </trkpt>
      <trkpt lat="46.43463" lon="5.48347">
        <ele>412.8</ele>
        <time>2022-03-05T15:31:29Z</time>
      </trkpt>
      <trkpt lat="46.43434" lon="5.48294">
        <ele>413.8</ele>
        <time>2022-03-05T15:31:35Z</time>
      </trkpt>
      <trkpt lat="46.43422" lon="5.48271">
        <ele>414.8</ele>
        <time>2022-03-05T15:31:38Z</time>
      </trkpt>
      <trkpt lat="46.43414" lon="5.48258">
        <ele>415.2</ele>
        <time>2022-03-05T15:31:40Z</time>
      </trkpt>
      <trkpt lat="46.43409" lon="5.48246">
        <ele>416.2</ele>
        <time>2022-03-05T15:31:42Z</time>
      </trkpt>
      <trkpt lat="46.43403" lon="5.48235">
        <ele>417.2</ele>
        <time>2022-03-05T15:31:44Z</time>
      </trkpt>
      <trkpt lat="46.43397" lon="5.48223">
        <ele>418.4</ele>
        <time>2022-03-05T15:31:46Z</time>
      </trkpt>
      <trkpt lat="46.43388" lon="5.48206">
        <ele>420</ele>
        <time>2022-03-05T15:31:49Z</time>
      </trkpt>
      <trkpt lat="46.43377" lon="5.48192">
        <ele>421.2</ele>
        <time>2022-03-05T15:31:52Z</time>
      </trkpt>
      <trkpt lat="46.43374" lon="5.48187">
        <ele>421.6</ele>
        <time>2022-03-05T15:31:53Z</time>
      </trkpt>
      <trkpt lat="46.43366" lon="5.48177">
        <ele>422.6</ele>
        <time>2022-03-05T15:31:55Z</time>
      </trkpt>
      <trkpt lat="46.43355" lon="5.48162">
        <ele>423.6</ele>
        <time>2022-03-05T15:31:58Z</time>
      </trkpt>
      <trkpt lat="46.43341" lon="5.48143">
        <ele>424.6</ele>
        <time>2022-03-05T15:32:02Z</time>
      </trkpt>
      <trkpt lat="46.43336" lon="5.48139">
        <ele>425</ele>
        <time>2022-03-05T15:32:03Z</time>
      </trkpt>
      <trkpt lat="46.43329" lon="5.48133">
        <ele>425.6</ele>
        <time>2022-03-05T15:32:05Z</time>
      </trkpt>
      <trkpt lat="46.43325" lon="5.48131">
        <ele>426</ele>
        <time>2022-03-05T15:32:06Z</time>
      </trkpt>
      <trkpt lat="46.43321" lon="5.4813">
        <ele>426.4</ele>
        <time>2022-03-05T15:32:07Z</time>
      </trkpt>
      <trkpt lat="46.43316" lon="5.48129">
        <ele>427</ele>
        <time>2022-03-05T15:32:08Z</time>
      </trkpt>
      <trkpt lat="46.43312" lon="5.48129">
        <ele>427.4</ele>
        <time>2022-03-05T15:32:09Z</time>
      </trkpt>
      <trkpt lat="46.43308" lon="5.48129">
        <ele>427.8</ele>
        <time>2022-03-05T15:32:10Z</time>
      </trkpt>
      <trkpt lat="46.43299" lon="5.4813">
        <ele>428.4</ele>
        <time>2022-03-05T15:32:12Z</time>
      </trkpt>
      <trkpt lat="46.43294" lon="5.48131">
        <ele>428.4</ele>
        <time>2022-03-05T15:32:13Z</time>
      </trkpt>
      <trkpt lat="46.4329" lon="5.48131">
        <ele>428.6</ele>
        <time>2022-03-05T15:32:14Z</time>
      </trkpt>
      <trkpt lat="46.43285" lon="5.48131">
        <ele>428.8</ele>
        <time>2022-03-05T15:32:15Z</time>
      </trkpt>
      <trkpt lat="46.43275" lon="5.48129">
        <ele>429.6</ele>
        <time>2022-03-05T15:32:17Z</time>
      </trkpt>
      <trkpt lat="46.43269" lon="5.48127">
        <ele>429.6</ele>
        <time>2022-03-05T15:32:18Z</time>
      </trkpt>
      <trkpt lat="46.43234" lon="5.48105">
        <ele>430</ele>
        <time>2022-03-05T15:32:25Z</time>
      </trkpt>
      <trkpt lat="46.43213" lon="5.48093">
        <ele>430.8</ele>
        <time>2022-03-05T15:32:30Z</time>
      </trkpt>
      <trkpt lat="46.432" lon="5.48085">
        <ele>431.4</ele>
        <time>2022-03-05T15:32:33Z</time>
      </trkpt>
      <trkpt lat="46.43192" lon="5.4808">
        <ele>432</ele>
        <time>2022-03-05T15:32:35Z</time>
      </trkpt>
      <trkpt lat="46.43176" lon="5.48068">
        <ele>433.2</ele>
        <time>2022-03-05T15:32:39Z</time>
      </trkpt>
      <trkpt lat="46.43164" lon="5.48058">
        <ele>434.6</ele>
        <time>2022-03-05T15:32:42Z</time>
      </trkpt>
      <trkpt lat="46.43161" lon="5.48055">
        <ele>434.6</ele>
        <time>2022-03-05T15:32:43Z</time>
      </trkpt>
      <trkpt lat="46.43143" lon="5.48033">
        <ele>435.8</ele>
        <time>2022-03-05T15:32:48Z</time>
      </trkpt>
      <trkpt lat="46.43136" lon="5.48022">
        <ele>436</ele>
        <time>2022-03-05T15:32:50Z</time>
      </trkpt>
      <trkpt lat="46.43126" lon="5.48004">
        <ele>436.4</ele>
        <time>2022-03-05T15:32:53Z</time>
      </trkpt>
      <trkpt lat="46.43113" lon="5.47979">
        <ele>436.8</ele>
        <time>2022-03-05T15:32:57Z</time>
      </trkpt>
      <trkpt lat="46.43085" lon="5.47925">
        <ele>437.6</ele>
        <time>2022-03-05T15:33:05Z</time>
      </trkpt>
      <trkpt lat="46.43052" lon="5.47879">
        <ele>437.6</ele>
        <time>2022-03-05T15:33:12Z</time>
      </trkpt>
      <trkpt lat="46.43048" lon="5.4786">
        <ele>437.6</ele>
        <time>2022-03-05T15:33:14Z</time>
      </trkpt>
      <trkpt lat="46.43048" lon="5.47849">
        <ele>437.6</ele>
        <time>2022-03-05T15:33:15Z</time>
      </trkpt>
      <trkpt lat="46.43051" lon="5.47838">
        <ele>437.6</ele>
        <time>2022-03-05T15:33:16Z</time>
      </trkpt>
      <trkpt lat="46.4306" lon="5.47804">
        <ele>437.4</ele>
        <time>2022-03-05T15:33:19Z</time>
      </trkpt>
      <trkpt lat="46.43067" lon="5.47744">
        <ele>437.2</ele>
        <time>2022-03-05T15:33:24Z</time>
      </trkpt>
      <trkpt lat="46.43068" lon="5.47719">
        <ele>436.8</ele>
        <time>2022-03-05T15:33:26Z</time>
      </trkpt>
      <trkpt lat="46.43062" lon="5.47696">
        <ele>436.4</ele>
        <time>2022-03-05T15:33:28Z</time>
      </trkpt>
      <trkpt lat="46.43049" lon="5.47677">
        <ele>436</ele>
        <time>2022-03-05T15:33:30Z</time>
      </trkpt>
      <trkpt lat="46.43042" lon="5.47669">
        <ele>435.8</ele>
        <time>2022-03-05T15:33:31Z</time>
      </trkpt>
      <trkpt lat="46.43035" lon="5.4766">
        <ele>435.6</ele>
        <time>2022-03-05T15:33:32Z</time>
      </trkpt>
      <trkpt lat="46.43024" lon="5.47637">
        <ele>435.2</ele>
        <time>2022-03-05T15:33:34Z</time>
      </trkpt>
      <trkpt lat="46.43014" lon="5.47613">
        <ele>434.6</ele>
        <time>2022-03-05T15:33:36Z</time>
      </trkpt>
      <trkpt lat="46.43008" lon="5.47601">
        <ele>434.4</ele>
        <time>2022-03-05T15:33:37Z</time>
      </trkpt>
      <trkpt lat="46.42993" lon="5.47582">
        <ele>433</ele>
        <time>2022-03-05T15:33:39Z</time>
      </trkpt>
      <trkpt lat="46.42974" lon="5.47568">
        <ele>431.2</ele>
        <time>2022-03-05T15:33:41Z</time>
      </trkpt>
      <trkpt lat="46.42953" lon="5.47555">
        <ele>430.4</ele>
        <time>2022-03-05T15:33:43Z</time>
      </trkpt>
      <trkpt lat="46.42943" lon="5.47549">
        <ele>430</ele>
        <time>2022-03-05T15:33:44Z</time>
      </trkpt>
      <trkpt lat="46.42921" lon="5.4754">
        <ele>429</ele>
        <time>2022-03-05T15:33:46Z</time>
      </trkpt>
      <trkpt lat="46.42911" lon="5.47538">
        <ele>428.6</ele>
        <time>2022-03-05T15:33:47Z</time>
      </trkpt>
      <trkpt lat="46.42901" lon="5.47537">
        <ele>428</ele>
        <time>2022-03-05T15:33:48Z</time>
      </trkpt>
      <trkpt lat="46.42892" lon="5.47536">
        <ele>427.6</ele>
        <time>2022-03-05T15:33:49Z</time>
      </trkpt>
      <trkpt lat="46.42884" lon="5.47534">
        <ele>426.8</ele>
        <time>2022-03-05T15:33:50Z</time>
      </trkpt>
      <trkpt lat="46.42878" lon="5.47528">
        <ele>426.4</ele>
        <time>2022-03-05T15:33:51Z</time>
      </trkpt>
      <trkpt lat="46.42876" lon="5.4752">
        <ele>425.2</ele>
        <time>2022-03-05T15:33:52Z</time>
      </trkpt>
      <trkpt lat="46.42881" lon="5.47503">
        <ele>424</ele>
        <time>2022-03-05T15:33:54Z</time>
      </trkpt>
      <trkpt lat="46.42894" lon="5.47504">
        <ele>423.2</ele>
        <time>2022-03-05T15:33:56Z</time>
      </trkpt>
      <trkpt lat="46.42902" lon="5.47506">
        <ele>422.4</ele>
        <time>2022-03-05T15:33:57Z</time>
      </trkpt>
      <trkpt lat="46.4291" lon="5.47507">
        <ele>422</ele>
        <time>2022-03-05T15:33:58Z</time>
      </trkpt>
      <trkpt lat="46.42926" lon="5.47508">
        <ele>421.4</ele>
        <time>2022-03-05T15:34:00Z</time>
      </trkpt>
      <trkpt lat="46.42934" lon="5.47507">
        <ele>420.8</ele>
        <time>2022-03-05T15:34:01Z</time>
      </trkpt>
      <trkpt lat="46.42951" lon="5.47502">
        <ele>420.4</ele>
        <time>2022-03-05T15:34:03Z</time>
      </trkpt>
      <trkpt lat="46.42968" lon="5.47497">
        <ele>419.2</ele>
        <time>2022-03-05T15:34:05Z</time>
      </trkpt>
      <trkpt lat="46.42985" lon="5.4749">
        <ele>418.4</ele>
        <time>2022-03-05T15:34:07Z</time>
      </trkpt>
      <trkpt lat="46.42994" lon="5.47487">
        <ele>417.8</ele>
        <time>2022-03-05T15:34:08Z</time>
      </trkpt>
      <trkpt lat="46.43011" lon="5.47482">
        <ele>416.8</ele>
        <time>2022-03-05T15:34:10Z</time>
      </trkpt>
      <trkpt lat="46.43028" lon="5.47475">
        <ele>415.6</ele>
        <time>2022-03-05T15:34:12Z</time>
      </trkpt>
      <trkpt lat="46.43044" lon="5.47465">
        <ele>415</ele>
        <time>2022-03-05T15:34:14Z</time>
      </trkpt>
      <trkpt lat="46.43052" lon="5.47459">
        <ele>414.6</ele>
        <time>2022-03-05T15:34:15Z</time>
      </trkpt>
      <trkpt lat="46.43074" lon="5.47436">
        <ele>413</ele>
        <time>2022-03-05T15:34:18Z</time>
      </trkpt>
      <trkpt lat="46.43089" lon="5.47419">
        <ele>411.8</ele>
        <time>2022-03-05T15:34:20Z</time>
      </trkpt>
      <trkpt lat="46.43097" lon="5.47411">
        <ele>411.4</ele>
        <time>2022-03-05T15:34:21Z</time>
      </trkpt>
      <trkpt lat="46.43113" lon="5.47397">
        <ele>410.6</ele>
        <time>2022-03-05T15:34:23Z</time>
      </trkpt>
      <trkpt lat="46.43139" lon="5.4738">
        <ele>409</ele>
        <time>2022-03-05T15:34:26Z</time>
      </trkpt>
      <trkpt lat="46.43166" lon="5.47361">
        <ele>407.8</ele>
        <time>2022-03-05T15:34:29Z</time>
      </trkpt>
      <trkpt lat="46.43184" lon="5.47347">
        <ele>406.6</ele>
        <time>2022-03-05T15:34:31Z</time>
      </trkpt>
      <trkpt lat="46.43201" lon="5.47331">
        <ele>405.6</ele>
        <time>2022-03-05T15:34:33Z</time>
      </trkpt>
      <trkpt lat="46.43216" lon="5.47311">
        <ele>404</ele>
        <time>2022-03-05T15:34:35Z</time>
      </trkpt>
      <trkpt lat="46.43222" lon="5.47299">
        <ele>403</ele>
        <time>2022-03-05T15:34:36Z</time>
      </trkpt>
      <trkpt lat="46.43227" lon="5.47286">
        <ele>402.8</ele>
        <time>2022-03-05T15:34:37Z</time>
      </trkpt>
      <trkpt lat="46.4323" lon="5.47256">
        <ele>401.8</ele>
        <time>2022-03-05T15:34:39Z</time>
      </trkpt>
      <trkpt lat="46.43225" lon="5.47227">
        <ele>400.8</ele>
        <time>2022-03-05T15:34:41Z</time>
      </trkpt>
      <trkpt lat="46.43222" lon="5.47212">
        <ele>400</ele>
        <time>2022-03-05T15:34:42Z</time>
      </trkpt>
      <trkpt lat="46.43218" lon="5.47198">
        <ele>399.2</ele>
        <time>2022-03-05T15:34:43Z</time>
      </trkpt>
      <trkpt lat="46.4321" lon="5.47171">
        <ele>398.4</ele>
        <time>2022-03-05T15:34:45Z</time>
      </trkpt>
      <trkpt lat="46.43198" lon="5.47146">
        <ele>397.8</ele>
        <time>2022-03-05T15:34:47Z</time>
      </trkpt>
      <trkpt lat="46.43166" lon="5.47107">
        <ele>396.2</ele>
        <time>2022-03-05T15:34:51Z</time>
      </trkpt>
      <trkpt lat="46.43148" lon="5.47091">
        <ele>395</ele>
        <time>2022-03-05T15:34:53Z</time>
      </trkpt>
      <trkpt lat="46.43122" lon="5.47067">
        <ele>394</ele>
        <time>2022-03-05T15:34:56Z</time>
      </trkpt>
      <trkpt lat="46.43115" lon="5.47058">
        <ele>393.8</ele>
        <time>2022-03-05T15:34:57Z</time>
      </trkpt>
      <trkpt lat="46.43106" lon="5.47034">
        <ele>393.2</ele>
        <time>2022-03-05T15:34:59Z</time>
      </trkpt>
      <trkpt lat="46.43105" lon="5.4702">
        <ele>392.8</ele>
        <time>2022-03-05T15:35:00Z</time>
      </trkpt>
      <trkpt lat="46.43106" lon="5.47007">
        <ele>392.4</ele>
        <time>2022-03-05T15:35:01Z</time>
      </trkpt>
      <trkpt lat="46.43108" lon="5.46994">
        <ele>392</ele>
        <time>2022-03-05T15:35:02Z</time>
      </trkpt>
      <trkpt lat="46.4311" lon="5.46981">
        <ele>391.8</ele>
        <time>2022-03-05T15:35:03Z</time>
      </trkpt>
      <trkpt lat="46.43119" lon="5.46946">
        <ele>391.4</ele>
        <time>2022-03-05T15:35:06Z</time>
      </trkpt>
      <trkpt lat="46.43143" lon="5.46874">
        <ele>391.2</ele>
        <time>2022-03-05T15:35:13Z</time>
      </trkpt>
      <trkpt lat="46.43164" lon="5.46793">
        <ele>391.4</ele>
        <time>2022-03-05T15:35:21Z</time>
      </trkpt>
      <trkpt lat="46.43171" lon="5.46732">
        <ele>392.4</ele>
        <time>2022-03-05T15:35:28Z</time>
      </trkpt>
      <trkpt lat="46.43177" lon="5.46697">
        <ele>393</ele>
        <time>2022-03-05T15:35:32Z</time>
      </trkpt>
      <trkpt lat="46.43181" lon="5.46672">
        <ele>393</ele>
        <time>2022-03-05T15:35:35Z</time>
      </trkpt>
      <trkpt lat="46.43183" lon="5.46655">
        <ele>393</ele>
        <time>2022-03-05T15:35:37Z</time>
      </trkpt>
      <trkpt lat="46.43191" lon="5.46624">
        <ele>393.2</ele>
        <time>2022-03-05T15:35:41Z</time>
      </trkpt>
      <trkpt lat="46.43194" lon="5.46617">
        <ele>393</ele>
        <time>2022-03-05T15:35:42Z</time>
      </trkpt>
      <trkpt lat="46.4321" lon="5.46588">
        <ele>393.4</ele>
        <time>2022-03-05T15:35:47Z</time>
      </trkpt>
      <trkpt lat="46.43213" lon="5.46582">
        <ele>393.2</ele>
        <time>2022-03-05T15:35:48Z</time>
      </trkpt>
      <trkpt lat="46.43233" lon="5.46548">
        <ele>393.6</ele>
        <time>2022-03-05T15:35:55Z</time>
      </trkpt>
      <trkpt lat="46.43243" lon="5.46535">
        <ele>393.8</ele>
        <time>2022-03-05T15:35:58Z</time>
      </trkpt>
      <trkpt lat="46.43255" lon="5.46523">
        <ele>394.2</ele>
        <time>2022-03-05T15:36:01Z</time>
      </trkpt>
      <trkpt lat="46.43277" lon="5.46489">
        <ele>394.6</ele>
        <time>2022-03-05T15:36:07Z</time>
      </trkpt>
      <trkpt lat="46.43291" lon="5.46442">
        <ele>394.2</ele>
        <time>2022-03-05T15:36:13Z</time>
      </trkpt>
      <trkpt lat="46.433" lon="5.46398">
        <ele>393.8</ele>
        <time>2022-03-05T15:36:18Z</time>
      </trkpt>
      <trkpt lat="46.43306" lon="5.46372">
        <ele>393.6</ele>
        <time>2022-03-05T15:36:21Z</time>
      </trkpt>
      <trkpt lat="46.43326" lon="5.46313">
        <ele>393.2</ele>
        <time>2022-03-05T15:36:28Z</time>
      </trkpt>
      <trkpt lat="46.43333" lon="5.46296">
        <ele>393.2</ele>
        <time>2022-03-05T15:36:30Z</time>
      </trkpt>
      <trkpt lat="46.43368" lon="5.46227">
        <ele>393</ele>
        <time>2022-03-05T15:36:39Z</time>
      </trkpt>
      <trkpt lat="46.43374" lon="5.4622">
        <ele>393</ele>
        <time>2022-03-05T15:36:40Z</time>
      </trkpt>
      <trkpt lat="46.43394" lon="5.46202">
        <ele>392.6</ele>
        <time>2022-03-05T15:36:43Z</time>
      </trkpt>
      <trkpt lat="46.43416" lon="5.46184">
        <ele>391.8</ele>
        <time>2022-03-05T15:36:46Z</time>
      </trkpt>
      <trkpt lat="46.4343" lon="5.46173">
        <ele>390.2</ele>
        <time>2022-03-05T15:36:48Z</time>
      </trkpt>
      <trkpt lat="46.4345" lon="5.46155">
        <ele>389</ele>
        <time>2022-03-05T15:36:51Z</time>
      </trkpt>
      <trkpt lat="46.435" lon="5.46111">
        <ele>388.4</ele>
        <time>2022-03-05T15:36:59Z</time>
      </trkpt>
      <trkpt lat="46.43506" lon="5.46106">
        <ele>388.4</ele>
        <time>2022-03-05T15:37:00Z</time>
      </trkpt>
      <trkpt lat="46.43554" lon="5.46082">
        <ele>388.4</ele>
        <time>2022-03-05T15:37:07Z</time>
      </trkpt>
      <trkpt lat="46.4361" lon="5.4607">
        <ele>388.6</ele>
        <time>2022-03-05T15:37:15Z</time>
      </trkpt>
      <trkpt lat="46.43662" lon="5.46055">
        <ele>388.6</ele>
        <time>2022-03-05T15:37:22Z</time>
      </trkpt>
      <trkpt lat="46.43676" lon="5.46046">
        <ele>388.4</ele>
        <time>2022-03-05T15:37:24Z</time>
      </trkpt>
      <trkpt lat="46.43689" lon="5.46032">
        <ele>388</ele>
        <time>2022-03-05T15:37:26Z</time>
      </trkpt>
      <trkpt lat="46.43695" lon="5.46023">
        <ele>387.8</ele>
        <time>2022-03-05T15:37:27Z</time>
      </trkpt>
      <trkpt lat="46.43721" lon="5.45981">
        <ele>387.2</ele>
        <time>2022-03-05T15:37:32Z</time>
      </trkpt>
      <trkpt lat="46.43751" lon="5.45948">
        <ele>386.8</ele>
        <time>2022-03-05T15:37:37Z</time>
      </trkpt>
      <trkpt lat="46.43771" lon="5.45923">
        <ele>387</ele>
        <time>2022-03-05T15:37:41Z</time>
      </trkpt>
      <trkpt lat="46.43781" lon="5.45913">
        <ele>387.2</ele>
        <time>2022-03-05T15:37:43Z</time>
      </trkpt>
      <trkpt lat="46.43796" lon="5.45902">
        <ele>387.6</ele>
        <time>2022-03-05T15:37:46Z</time>
      </trkpt>
      <trkpt lat="46.43802" lon="5.45899">
        <ele>387.6</ele>
        <time>2022-03-05T15:37:47Z</time>
      </trkpt>
      <trkpt lat="46.43832" lon="5.45887">
        <ele>388.2</ele>
        <time>2022-03-05T15:37:52Z</time>
      </trkpt>
      <trkpt lat="46.43883" lon="5.45857">
        <ele>388</ele>
        <time>2022-03-05T15:38:00Z</time>
      </trkpt>
      <trkpt lat="46.43893" lon="5.45844">
        <ele>387.8</ele>
        <time>2022-03-05T15:38:02Z</time>
      </trkpt>
      <trkpt lat="46.43897" lon="5.45835">
        <ele>387.6</ele>
        <time>2022-03-05T15:38:03Z</time>
      </trkpt>
      <trkpt lat="46.43899" lon="5.45825">
        <ele>387.4</ele>
        <time>2022-03-05T15:38:04Z</time>
      </trkpt>
      <trkpt lat="46.43897" lon="5.45804">
        <ele>387.2</ele>
        <time>2022-03-05T15:38:06Z</time>
      </trkpt>
      <trkpt lat="46.43885" lon="5.45759">
        <ele>387.4</ele>
        <time>2022-03-05T15:38:11Z</time>
      </trkpt>
      <trkpt lat="46.43881" lon="5.45741">
        <ele>387.4</ele>
        <time>2022-03-05T15:38:13Z</time>
      </trkpt>
      <trkpt lat="46.43879" lon="5.45725">
        <ele>387.6</ele>
        <time>2022-03-05T15:38:15Z</time>
      </trkpt>
      <trkpt lat="46.43879" lon="5.4571">
        <ele>387.6</ele>
        <time>2022-03-05T15:38:17Z</time>
      </trkpt>
      <trkpt lat="46.43882" lon="5.45698">
        <ele>387.8</ele>
        <time>2022-03-05T15:38:19Z</time>
      </trkpt>
      <trkpt lat="46.43888" lon="5.45693">
        <ele>387.6</ele>
        <time>2022-03-05T15:38:21Z</time>
      </trkpt>
      <trkpt lat="46.43892" lon="5.45692">
        <ele>387.6</ele>
        <time>2022-03-05T15:38:22Z</time>
      </trkpt>
      <trkpt lat="46.43925" lon="5.45687">
        <ele>387.2</ele>
        <time>2022-03-05T15:38:28Z</time>
      </trkpt>
      <trkpt lat="46.43943" lon="5.45683">
        <ele>386.8</ele>
        <time>2022-03-05T15:38:31Z</time>
      </trkpt>
      <trkpt lat="46.43968" lon="5.45679">
        <ele>386.4</ele>
        <time>2022-03-05T15:38:35Z</time>
      </trkpt>
      <trkpt lat="46.44023" lon="5.4567">
        <ele>386.4</ele>
        <time>2022-03-05T15:38:44Z</time>
      </trkpt>
      <trkpt lat="46.44081" lon="5.45661">
        <ele>386.8</ele>
        <time>2022-03-05T15:38:54Z</time>
      </trkpt>
      <trkpt lat="46.44092" lon="5.45659">
        <ele>386.8</ele>
        <time>2022-03-05T15:38:56Z</time>
      </trkpt>
      <trkpt lat="46.44146" lon="5.45649">
        <ele>387.4</ele>
        <time>2022-03-05T15:39:06Z</time>
      </trkpt>
      <trkpt lat="46.44152" lon="5.45647">
        <ele>387.6</ele>
        <time>2022-03-05T15:39:07Z</time>
      </trkpt>
      <trkpt lat="46.4418" lon="5.45642">
        <ele>387.8</ele>
        <time>2022-03-05T15:39:12Z</time>
      </trkpt>
      <trkpt lat="46.44208" lon="5.45637">
        <ele>388.2</ele>
        <time>2022-03-05T15:39:17Z</time>
      </trkpt>
      <trkpt lat="46.44258" lon="5.45629">
        <ele>389</ele>
        <time>2022-03-05T15:39:26Z</time>
      </trkpt>
      <trkpt lat="46.44264" lon="5.4563">
        <ele>389</ele>
        <time>2022-03-05T15:39:27Z</time>
      </trkpt>
      <trkpt lat="46.44298" lon="5.45632">
        <ele>390</ele>
        <time>2022-03-05T15:39:33Z</time>
      </trkpt>
      <trkpt lat="46.44327" lon="5.45635">
        <ele>390.6</ele>
        <time>2022-03-05T15:39:38Z</time>
      </trkpt>
      <trkpt lat="46.44349" lon="5.45638">
        <ele>391.2</ele>
        <time>2022-03-05T15:39:42Z</time>
      </trkpt>
      <trkpt lat="46.44378" lon="5.45641">
        <ele>391.8</ele>
        <time>2022-03-05T15:39:47Z</time>
      </trkpt>
      <trkpt lat="46.44394" lon="5.45642">
        <ele>392.2</ele>
        <time>2022-03-05T15:39:50Z</time>
      </trkpt>
      <trkpt lat="46.44417" lon="5.45644">
        <ele>393.4</ele>
        <time>2022-03-05T15:39:54Z</time>
      </trkpt>
      <trkpt lat="46.4444" lon="5.45646">
        <ele>393.8</ele>
        <time>2022-03-05T15:39:58Z</time>
      </trkpt>
      <trkpt lat="46.44462" lon="5.45649">
        <ele>394.4</ele>
        <time>2022-03-05T15:40:02Z</time>
      </trkpt>
      <trkpt lat="46.44497" lon="5.45654">
        <ele>395.2</ele>
        <time>2022-03-05T15:40:08Z</time>
      </trkpt>
      <trkpt lat="46.44556" lon="5.45671">
        <ele>395.2</ele>
        <time>2022-03-05T15:40:17Z</time>
      </trkpt>
      <trkpt lat="46.4461" lon="5.45688">
        <ele>394</ele>
        <time>2022-03-05T15:40:25Z</time>
      </trkpt>
      <trkpt lat="46.44616" lon="5.4569">
        <ele>393.8</ele>
        <time>2022-03-05T15:40:26Z</time>
      </trkpt>
      <trkpt lat="46.44675" lon="5.45711">
        <ele>393.4</ele>
        <time>2022-03-05T15:40:35Z</time>
      </trkpt>
      <trkpt lat="46.44682" lon="5.45713">
        <ele>393.4</ele>
        <time>2022-03-05T15:40:36Z</time>
      </trkpt>
      <trkpt lat="46.44701" lon="5.4572">
        <ele>393.4</ele>
        <time>2022-03-05T15:40:39Z</time>
      </trkpt>
      <trkpt lat="46.44755" lon="5.45746">
        <ele>394</ele>
        <time>2022-03-05T15:40:48Z</time>
      </trkpt>
      <trkpt lat="46.44761" lon="5.45749">
        <ele>394.2</ele>
        <time>2022-03-05T15:40:49Z</time>
      </trkpt>
      <trkpt lat="46.44814" lon="5.45779">
        <ele>395.4</ele>
        <time>2022-03-05T15:40:58Z</time>
      </trkpt>
      <trkpt lat="46.4482" lon="5.45783">
        <ele>395.4</ele>
        <time>2022-03-05T15:40:59Z</time>
      </trkpt>
      <trkpt lat="46.4487" lon="5.45812">
        <ele>395.8</ele>
        <time>2022-03-05T15:41:07Z</time>
      </trkpt>
      <trkpt lat="46.44889" lon="5.45822">
        <ele>395.8</ele>
        <time>2022-03-05T15:41:10Z</time>
      </trkpt>
      <trkpt lat="46.44939" lon="5.45852">
        <ele>395.2</ele>
        <time>2022-03-05T15:41:18Z</time>
      </trkpt>
      <trkpt lat="46.44952" lon="5.4586">
        <ele>395.2</ele>
        <time>2022-03-05T15:41:20Z</time>
      </trkpt>
      <trkpt lat="46.44989" lon="5.45882">
        <ele>394.2</ele>
        <time>2022-03-05T15:41:25Z</time>
      </trkpt>
      <trkpt lat="46.45017" lon="5.45899">
        <ele>393.4</ele>
        <time>2022-03-05T15:41:29Z</time>
      </trkpt>
      <trkpt lat="46.45033" lon="5.45909">
        <ele>393.2</ele>
        <time>2022-03-05T15:41:31Z</time>
      </trkpt>
      <trkpt lat="46.45061" lon="5.45926">
        <ele>392</ele>
        <time>2022-03-05T15:41:35Z</time>
      </trkpt>
      <trkpt lat="46.4509" lon="5.4594">
        <ele>391.4</ele>
        <time>2022-03-05T15:41:39Z</time>
      </trkpt>
      <trkpt lat="46.45134" lon="5.45967">
        <ele>391.4</ele>
        <time>2022-03-05T15:41:46Z</time>
      </trkpt>
      <trkpt lat="46.45161" lon="5.4599">
        <ele>392</ele>
        <time>2022-03-05T15:41:51Z</time>
      </trkpt>
      <trkpt lat="46.45175" lon="5.46001">
        <ele>393</ele>
        <time>2022-03-05T15:41:54Z</time>
      </trkpt>
      <trkpt lat="46.45189" lon="5.46013">
        <ele>393.6</ele>
        <time>2022-03-05T15:41:57Z</time>
      </trkpt>
      <trkpt lat="46.45197" lon="5.46021">
        <ele>394.2</ele>
        <time>2022-03-05T15:41:59Z</time>
      </trkpt>
      <trkpt lat="46.45212" lon="5.46033">
        <ele>394.6</ele>
        <time>2022-03-05T15:42:02Z</time>
      </trkpt>
      <trkpt lat="46.4522" lon="5.46039">
        <ele>395.2</ele>
        <time>2022-03-05T15:42:04Z</time>
      </trkpt>
      <trkpt lat="46.45229" lon="5.46045">
        <ele>396</ele>
        <time>2022-03-05T15:42:06Z</time>
      </trkpt>
      <trkpt lat="46.45237" lon="5.46047">
        <ele>396.6</ele>
        <time>2022-03-05T15:42:08Z</time>
      </trkpt>
      <trkpt lat="46.4524" lon="5.46044">
        <ele>397</ele>
        <time>2022-03-05T15:42:09Z</time>
      </trkpt>
      <trkpt lat="46.45246" lon="5.46032">
        <ele>397.8</ele>
        <time>2022-03-05T15:42:11Z</time>
      </trkpt>
      <trkpt lat="46.45266" lon="5.45986">
        <ele>398</ele>
        <time>2022-03-05T15:42:17Z</time>
      </trkpt>
      <trkpt lat="46.45275" lon="5.45956">
        <ele>396.6</ele>
        <time>2022-03-05T15:42:20Z</time>
      </trkpt>
      <trkpt lat="46.45279" lon="5.45935">
        <ele>396.2</ele>
        <time>2022-03-05T15:42:22Z</time>
      </trkpt>
      <trkpt lat="46.45284" lon="5.45911">
        <ele>395.4</ele>
        <time>2022-03-05T15:42:24Z</time>
      </trkpt>
      <trkpt lat="46.4529" lon="5.45887">
        <ele>394.4</ele>
        <time>2022-03-05T15:42:26Z</time>
      </trkpt>
      <trkpt lat="46.45298" lon="5.45865">
        <ele>393.4</ele>
        <time>2022-03-05T15:42:28Z</time>
      </trkpt>
      <trkpt lat="46.45301" lon="5.45853">
        <ele>392.8</ele>
        <time>2022-03-05T15:42:29Z</time>
      </trkpt>
      <trkpt lat="46.45311" lon="5.45823">
        <ele>391.4</ele>
        <time>2022-03-05T15:42:32Z</time>
      </trkpt>
      <trkpt lat="46.45319" lon="5.45788">
        <ele>390.4</ele>
        <time>2022-03-05T15:42:35Z</time>
      </trkpt>
      <trkpt lat="46.4532" lon="5.45779">
        <ele>390.4</ele>
        <time>2022-03-05T15:42:36Z</time>
      </trkpt>
      <trkpt lat="46.45332" lon="5.45695">
        <ele>390</ele>
        <time>2022-03-05T15:42:44Z</time>
      </trkpt>
      <trkpt lat="46.45334" lon="5.45684">
        <ele>390</ele>
        <time>2022-03-05T15:42:45Z</time>
      </trkpt>
      <trkpt lat="46.45343" lon="5.45635">
        <ele>390</ele>
        <time>2022-03-05T15:42:50Z</time>
      </trkpt>
      <trkpt lat="46.4535" lon="5.45617">
        <ele>389.8</ele>
        <time>2022-03-05T15:42:52Z</time>
      </trkpt>
      <trkpt lat="46.4536" lon="5.45605">
        <ele>390</ele>
        <time>2022-03-05T15:42:54Z</time>
      </trkpt>
      <trkpt lat="46.45366" lon="5.456">
        <ele>390</ele>
        <time>2022-03-05T15:42:55Z</time>
      </trkpt>
      <trkpt lat="46.45373" lon="5.45598">
        <ele>389.8</ele>
        <time>2022-03-05T15:42:56Z</time>
      </trkpt>
      <trkpt lat="46.45385" lon="5.45594">
        <ele>389.8</ele>
        <time>2022-03-05T15:42:58Z</time>
      </trkpt>
      <trkpt lat="46.45392" lon="5.45594">
        <ele>389.8</ele>
        <time>2022-03-05T15:42:59Z</time>
      </trkpt>
      <trkpt lat="46.45398" lon="5.45595">
        <ele>389.8</ele>
        <time>2022-03-05T15:43:00Z</time>
      </trkpt>
      <trkpt lat="46.4541" lon="5.45599">
        <ele>389.8</ele>
        <time>2022-03-05T15:43:02Z</time>
      </trkpt>
      <trkpt lat="46.45415" lon="5.45603">
        <ele>389.8</ele>
        <time>2022-03-05T15:43:03Z</time>
      </trkpt>
      <trkpt lat="46.45444" lon="5.45626">
        <ele>390.4</ele>
        <time>2022-03-05T15:43:09Z</time>
      </trkpt>
      <trkpt lat="46.45478" lon="5.45653">
        <ele>391.4</ele>
        <time>2022-03-05T15:43:16Z</time>
      </trkpt>
      <trkpt lat="46.45493" lon="5.45663">
        <ele>392</ele>
        <time>2022-03-05T15:43:19Z</time>
      </trkpt>
      <trkpt lat="46.45506" lon="5.4567">
        <ele>392.6</ele>
        <time>2022-03-05T15:43:22Z</time>
      </trkpt>
      <trkpt lat="46.45529" lon="5.45681">
        <ele>393.6</ele>
        <time>2022-03-05T15:43:27Z</time>
      </trkpt>
      <trkpt lat="46.45538" lon="5.45686">
        <ele>393.8</ele>
        <time>2022-03-05T15:43:29Z</time>
      </trkpt>
      <trkpt lat="46.45549" lon="5.45692">
        <ele>394.6</ele>
        <time>2022-03-05T15:43:32Z</time>
      </trkpt>
      <trkpt lat="46.45566" lon="5.457">
        <ele>395.6</ele>
        <time>2022-03-05T15:43:36Z</time>
      </trkpt>
      <trkpt lat="46.45571" lon="5.45701">
        <ele>396</ele>
        <time>2022-03-05T15:43:37Z</time>
      </trkpt>
      <trkpt lat="46.45582" lon="5.45705">
        <ele>397.2</ele>
        <time>2022-03-05T15:43:40Z</time>
      </trkpt>
      <trkpt lat="46.45604" lon="5.45704">
        <ele>398.2</ele>
        <time>2022-03-05T15:43:45Z</time>
      </trkpt>
      <trkpt lat="46.4561" lon="5.45703">
        <ele>398.4</ele>
        <time>2022-03-05T15:43:46Z</time>
      </trkpt>
      <trkpt lat="46.45637" lon="5.45691">
        <ele>399.6</ele>
        <time>2022-03-05T15:43:52Z</time>
      </trkpt>
      <trkpt lat="46.4565" lon="5.45684">
        <ele>400.6</ele>
        <time>2022-03-05T15:43:55Z</time>
      </trkpt>
      <trkpt lat="46.45676" lon="5.45668">
        <ele>401.6</ele>
        <time>2022-03-05T15:44:01Z</time>
      </trkpt>
      <trkpt lat="46.4568" lon="5.45666">
        <ele>401.8</ele>
        <time>2022-03-05T15:44:02Z</time>
      </trkpt>
      <trkpt lat="46.45707" lon="5.45649">
        <ele>402.8</ele>
        <time>2022-03-05T15:44:08Z</time>
      </trkpt>
      <trkpt lat="46.45731" lon="5.45636">
        <ele>403.6</ele>
        <time>2022-03-05T15:44:13Z</time>
      </trkpt>
      <trkpt lat="46.45757" lon="5.45621">
        <ele>404</ele>
        <time>2022-03-05T15:44:18Z</time>
      </trkpt>
      <trkpt lat="46.45783" lon="5.45607">
        <ele>404.2</ele>
        <time>2022-03-05T15:44:23Z</time>
      </trkpt>
      <trkpt lat="46.45833" lon="5.45579">
        <ele>404</ele>
        <time>2022-03-05T15:44:32Z</time>
      </trkpt>
      <trkpt lat="46.4584" lon="5.45575">
        <ele>404</ele>
        <time>2022-03-05T15:44:33Z</time>
      </trkpt>
      <trkpt lat="46.45879" lon="5.45553">
        <ele>402.8</ele>
        <time>2022-03-05T15:44:39Z</time>
      </trkpt>
      <trkpt lat="46.45903" lon="5.4554">
        <ele>401.6</ele>
        <time>2022-03-05T15:44:42Z</time>
      </trkpt>
      <trkpt lat="46.45923" lon="5.45527">
        <ele>400.2</ele>
        <time>2022-03-05T15:44:45Z</time>
      </trkpt>
      <trkpt lat="46.4594" lon="5.45518">
        <ele>399.4</ele>
        <time>2022-03-05T15:44:47Z</time>
      </trkpt>
      <trkpt lat="46.45961" lon="5.45506">
        <ele>399</ele>
        <time>2022-03-05T15:44:50Z</time>
      </trkpt>
      <trkpt lat="46.46011" lon="5.45477">
        <ele>397.6</ele>
        <time>2022-03-05T15:44:57Z</time>
      </trkpt>
      <trkpt lat="46.46068" lon="5.45443">
        <ele>396.8</ele>
        <time>2022-03-05T15:45:05Z</time>
      </trkpt>
      <trkpt lat="46.4608" lon="5.45435">
        <ele>396.6</ele>
        <time>2022-03-05T15:45:07Z</time>
      </trkpt>
      <trkpt lat="46.46095" lon="5.45426">
        <ele>396.2</ele>
        <time>2022-03-05T15:45:09Z</time>
      </trkpt>
      <trkpt lat="46.4613" lon="5.45404">
        <ele>395.6</ele>
        <time>2022-03-05T15:45:14Z</time>
      </trkpt>
      <trkpt lat="46.4617" lon="5.45376">
        <ele>394.8</ele>
        <time>2022-03-05T15:45:20Z</time>
      </trkpt>
      <trkpt lat="46.46213" lon="5.45344">
        <ele>394.4</ele>
        <time>2022-03-05T15:45:27Z</time>
      </trkpt>
      <trkpt lat="46.46238" lon="5.45327">
        <ele>394.4</ele>
        <time>2022-03-05T15:45:31Z</time>
      </trkpt>
      <trkpt lat="46.4629" lon="5.45286">
        <ele>394.8</ele>
        <time>2022-03-05T15:45:40Z</time>
      </trkpt>
      <trkpt lat="46.46297" lon="5.45281">
        <ele>394.8</ele>
        <time>2022-03-05T15:45:41Z</time>
      </trkpt>
      <trkpt lat="46.46349" lon="5.45239">
        <ele>393.8</ele>
        <time>2022-03-05T15:45:50Z</time>
      </trkpt>
      <trkpt lat="46.4636" lon="5.45232">
        <ele>393.4</ele>
        <time>2022-03-05T15:45:52Z</time>
      </trkpt>
      <trkpt lat="46.46402" lon="5.45207">
        <ele>393.2</ele>
        <time>2022-03-05T15:45:59Z</time>
      </trkpt>
      <trkpt lat="46.46412" lon="5.45195">
        <ele>393.2</ele>
        <time>2022-03-05T15:46:01Z</time>
      </trkpt>
      <trkpt lat="46.4642" lon="5.45182">
        <ele>393.6</ele>
        <time>2022-03-05T15:46:03Z</time>
      </trkpt>
      <trkpt lat="46.46431" lon="5.4516">
        <ele>393.8</ele>
        <time>2022-03-05T15:46:06Z</time>
      </trkpt>
      <trkpt lat="46.46433" lon="5.45153">
        <ele>394</ele>
        <time>2022-03-05T15:46:07Z</time>
      </trkpt>
      <trkpt lat="46.46433" lon="5.45146">
        <ele>394.4</ele>
        <time>2022-03-05T15:46:08Z</time>
      </trkpt>
      <trkpt lat="46.46434" lon="5.4513">
        <ele>394.6</ele>
        <time>2022-03-05T15:46:10Z</time>
      </trkpt>
      <trkpt lat="46.46434" lon="5.45122">
        <ele>394.8</ele>
        <time>2022-03-05T15:46:11Z</time>
      </trkpt>
      <trkpt lat="46.46433" lon="5.45114">
        <ele>395.2</ele>
        <time>2022-03-05T15:46:12Z</time>
      </trkpt>
      <trkpt lat="46.4643" lon="5.45089">
        <ele>395.6</ele>
        <time>2022-03-05T15:46:15Z</time>
      </trkpt>
      <trkpt lat="46.46421" lon="5.45048">
        <ele>396.4</ele>
        <time>2022-03-05T15:46:20Z</time>
      </trkpt>
      <trkpt lat="46.46417" lon="5.45033">
        <ele>396.6</ele>
        <time>2022-03-05T15:46:22Z</time>
      </trkpt>
      <trkpt lat="46.46408" lon="5.45006">
        <ele>396.6</ele>
        <time>2022-03-05T15:46:25Z</time>
      </trkpt>
      <trkpt lat="46.46394" lon="5.44941">
        <ele>396.6</ele>
        <time>2022-03-05T15:46:32Z</time>
      </trkpt>
      <trkpt lat="46.46392" lon="5.44933">
        <ele>396.6</ele>
        <time>2022-03-05T15:46:33Z</time>
      </trkpt>
      <trkpt lat="46.46386" lon="5.44919">
        <ele>396.4</ele>
        <time>2022-03-05T15:46:35Z</time>
      </trkpt>
      <trkpt lat="46.46382" lon="5.44912">
        <ele>396.8</ele>
        <time>2022-03-05T15:46:36Z</time>
      </trkpt>
      <trkpt lat="46.46366" lon="5.44883">
        <ele>396.8</ele>
        <time>2022-03-05T15:46:40Z</time>
      </trkpt>
      <trkpt lat="46.46361" lon="5.44868">
        <ele>397.2</ele>
        <time>2022-03-05T15:46:42Z</time>
      </trkpt>
      <trkpt lat="46.46354" lon="5.44821">
        <ele>397.6</ele>
        <time>2022-03-05T15:46:47Z</time>
      </trkpt>
      <trkpt lat="46.46354" lon="5.44814">
        <ele>397.6</ele>
        <time>2022-03-05T15:46:48Z</time>
      </trkpt>
      <trkpt lat="46.46353" lon="5.44777">
        <ele>398</ele>
        <time>2022-03-05T15:46:53Z</time>
      </trkpt>
      <trkpt lat="46.46353" lon="5.44762">
        <ele>398.6</ele>
        <time>2022-03-05T15:46:56Z</time>
      </trkpt>
      <trkpt lat="46.46353" lon="5.44751">
        <ele>399</ele>
        <time>2022-03-05T15:46:58Z</time>
      </trkpt>
      <trkpt lat="46.46353" lon="5.44743">
        <ele>400.2</ele>
        <time>2022-03-05T15:47:00Z</time>
      </trkpt>
      <trkpt lat="46.46353" lon="5.44733">
        <ele>401.2</ele>
        <time>2022-03-05T15:47:03Z</time>
      </trkpt>
      <trkpt lat="46.46354" lon="5.44729">
        <ele>401.6</ele>
        <time>2022-03-05T15:47:04Z</time>
      </trkpt>
      <trkpt lat="46.46354" lon="5.44725">
        <ele>402.2</ele>
        <time>2022-03-05T15:47:05Z</time>
      </trkpt>
      <trkpt lat="46.46353" lon="5.44722">
        <ele>402.2</ele>
        <time>2022-03-05T15:47:06Z</time>
      </trkpt>
      <trkpt lat="46.4635" lon="5.44716">
        <ele>403</ele>
        <time>2022-03-05T15:47:08Z</time>
      </trkpt>
      <trkpt lat="46.46347" lon="5.44714">
        <ele>403.2</ele>
        <time>2022-03-05T15:47:09Z</time>
      </trkpt>
      <trkpt lat="46.46339" lon="5.44709">
        <ele>403.6</ele>
        <time>2022-03-05T15:47:11Z</time>
      </trkpt>
      <trkpt lat="46.46336" lon="5.44707">
        <ele>403.8</ele>
        <time>2022-03-05T15:47:12Z</time>
      </trkpt>
      <trkpt lat="46.46312" lon="5.44695">
        <ele>404.8</ele>
        <time>2022-03-05T15:47:18Z</time>
      </trkpt>
      <trkpt lat="46.46309" lon="5.44694">
        <ele>404.8</ele>
        <time>2022-03-05T15:47:19Z</time>
      </trkpt>
      <trkpt lat="46.4628" lon="5.44679">
        <ele>406</ele>
        <time>2022-03-05T15:47:27Z</time>
      </trkpt>
      <trkpt lat="46.46271" lon="5.44674">
        <ele>406.4</ele>
        <time>2022-03-05T15:47:30Z</time>
      </trkpt>
      <trkpt lat="46.46263" lon="5.4467">
        <ele>406.8</ele>
        <time>2022-03-05T15:47:32Z</time>
      </trkpt>
      <trkpt lat="46.46243" lon="5.44659">
        <ele>408</ele>
        <time>2022-03-05T15:47:38Z</time>
      </trkpt>
      <trkpt lat="46.4624" lon="5.44657">
        <ele>408.4</ele>
        <time>2022-03-05T15:47:39Z</time>
      </trkpt>
      <trkpt lat="46.46227" lon="5.44648">
        <ele>409.2</ele>
        <time>2022-03-05T15:47:43Z</time>
      </trkpt>
      <trkpt lat="46.46222" lon="5.44641">
        <ele>409.6</ele>
        <time>2022-03-05T15:47:45Z</time>
      </trkpt>
      <trkpt lat="46.46214" lon="5.44629">
        <ele>410.2</ele>
        <time>2022-03-05T15:47:48Z</time>
      </trkpt>
      <trkpt lat="46.46206" lon="5.44613">
        <ele>411</ele>
        <time>2022-03-05T15:47:52Z</time>
      </trkpt>
      <trkpt lat="46.46202" lon="5.44601">
        <ele>411.4</ele>
        <time>2022-03-05T15:47:55Z</time>
      </trkpt>
      <trkpt lat="46.46197" lon="5.44585">
        <ele>412.2</ele>
        <time>2022-03-05T15:47:59Z</time>
      </trkpt>
      <trkpt lat="46.46193" lon="5.44553">
        <ele>413.6</ele>
        <time>2022-03-05T15:48:05Z</time>
      </trkpt>
      <trkpt lat="46.46193" lon="5.44549">
        <ele>413.8</ele>
        <time>2022-03-05T15:48:06Z</time>
      </trkpt>
      <trkpt lat="46.46194" lon="5.44534">
        <ele>414.6</ele>
        <time>2022-03-05T15:48:09Z</time>
      </trkpt>
      <trkpt lat="46.46192" lon="5.44505">
        <ele>415.4</ele>
        <time>2022-03-05T15:48:14Z</time>
      </trkpt>
      <trkpt lat="46.46192" lon="5.44496">
        <ele>415.6</ele>
        <time>2022-03-05T15:48:16Z</time>
      </trkpt>
      <trkpt lat="46.46191" lon="5.44476">
        <ele>416.8</ele>
        <time>2022-03-05T15:48:20Z</time>
      </trkpt>
      <trkpt lat="46.46191" lon="5.44446">
        <ele>417.8</ele>
        <time>2022-03-05T15:48:26Z</time>
      </trkpt>
      <trkpt lat="46.4619" lon="5.44436">
        <ele>418</ele>
        <time>2022-03-05T15:48:28Z</time>
      </trkpt>
      <trkpt lat="46.46191" lon="5.44415">
        <ele>418.8</ele>
        <time>2022-03-05T15:48:32Z</time>
      </trkpt>
      <trkpt lat="46.46191" lon="5.44389">
        <ele>419.6</ele>
        <time>2022-03-05T15:48:37Z</time>
      </trkpt>
      <trkpt lat="46.46191" lon="5.44385">
        <ele>420</ele>
        <time>2022-03-05T15:48:38Z</time>
      </trkpt>
      <trkpt lat="46.46193" lon="5.4436">
        <ele>421</ele>
        <time>2022-03-05T15:48:43Z</time>
      </trkpt>
      <trkpt lat="46.46193" lon="5.4435">
        <ele>421.2</ele>
        <time>2022-03-05T15:48:45Z</time>
      </trkpt>
      <trkpt lat="46.46195" lon="5.44327">
        <ele>422.2</ele>
        <time>2022-03-05T15:48:50Z</time>
      </trkpt>
      <trkpt lat="46.46196" lon="5.44323">
        <ele>422.4</ele>
        <time>2022-03-05T15:48:51Z</time>
      </trkpt>
      <trkpt lat="46.46197" lon="5.44299">
        <ele>423.4</ele>
        <time>2022-03-05T15:48:56Z</time>
      </trkpt>
      <trkpt lat="46.46196" lon="5.44293">
        <ele>423.4</ele>
        <time>2022-03-05T15:48:57Z</time>
      </trkpt>
      <trkpt lat="46.46192" lon="5.44268">
        <ele>424.4</ele>
        <time>2022-03-05T15:49:02Z</time>
      </trkpt>
      <trkpt lat="46.4619" lon="5.44259">
        <ele>424.8</ele>
        <time>2022-03-05T15:49:04Z</time>
      </trkpt>
      <trkpt lat="46.46186" lon="5.44246">
        <ele>425.4</ele>
        <time>2022-03-05T15:49:07Z</time>
      </trkpt>
      <trkpt lat="46.4618" lon="5.44227">
        <ele>426.2</ele>
        <time>2022-03-05T15:49:11Z</time>
      </trkpt>
      <trkpt lat="46.46178" lon="5.44221">
        <ele>426.4</ele>
        <time>2022-03-05T15:49:12Z</time>
      </trkpt>
      <trkpt lat="46.4617" lon="5.44198">
        <ele>427.6</ele>
        <time>2022-03-05T15:49:17Z</time>
      </trkpt>
      <trkpt lat="46.46163" lon="5.44177">
        <ele>428.8</ele>
        <time>2022-03-05T15:49:23Z</time>
      </trkpt>
      <trkpt lat="46.4616" lon="5.44167">
        <ele>428.8</ele>
        <time>2022-03-05T15:49:25Z</time>
      </trkpt>
      <trkpt lat="46.46151" lon="5.44141">
        <ele>430</ele>
        <time>2022-03-05T15:49:31Z</time>
      </trkpt>
      <trkpt lat="46.46146" lon="5.4413">
        <ele>430.4</ele>
        <time>2022-03-05T15:49:34Z</time>
      </trkpt>
      <trkpt lat="46.46143" lon="5.44117">
        <ele>431</ele>
        <time>2022-03-05T15:49:37Z</time>
      </trkpt>
      <trkpt lat="46.46138" lon="5.4409">
        <ele>432.4</ele>
        <time>2022-03-05T15:49:43Z</time>
      </trkpt>
      <trkpt lat="46.46134" lon="5.4407">
        <ele>433.4</ele>
        <time>2022-03-05T15:49:47Z</time>
      </trkpt>
      <trkpt lat="46.46129" lon="5.44044">
        <ele>434.4</ele>
        <time>2022-03-05T15:49:52Z</time>
      </trkpt>
      <trkpt lat="46.46128" lon="5.44039">
        <ele>434.4</ele>
        <time>2022-03-05T15:49:53Z</time>
      </trkpt>
      <trkpt lat="46.46127" lon="5.44002">
        <ele>435.4</ele>
        <time>2022-03-05T15:50:00Z</time>
      </trkpt>
      <trkpt lat="46.46131" lon="5.43973">
        <ele>436.6</ele>
        <time>2022-03-05T15:50:06Z</time>
      </trkpt>
      <trkpt lat="46.46133" lon="5.43965">
        <ele>436.8</ele>
        <time>2022-03-05T15:50:08Z</time>
      </trkpt>
      <trkpt lat="46.46136" lon="5.43951">
        <ele>437.6</ele>
        <time>2022-03-05T15:50:11Z</time>
      </trkpt>
      <trkpt lat="46.46144" lon="5.43923">
        <ele>438.8</ele>
        <time>2022-03-05T15:50:17Z</time>
      </trkpt>
      <trkpt lat="46.46151" lon="5.43901">
        <ele>439.8</ele>
        <time>2022-03-05T15:50:22Z</time>
      </trkpt>
      <trkpt lat="46.46154" lon="5.43889">
        <ele>440.4</ele>
        <time>2022-03-05T15:50:25Z</time>
      </trkpt>
      <trkpt lat="46.46157" lon="5.43878">
        <ele>441</ele>
        <time>2022-03-05T15:50:27Z</time>
      </trkpt>
      <trkpt lat="46.46163" lon="5.43857">
        <ele>442</ele>
        <time>2022-03-05T15:50:32Z</time>
      </trkpt>
      <trkpt lat="46.46164" lon="5.43853">
        <ele>442.2</ele>
        <time>2022-03-05T15:50:33Z</time>
      </trkpt>
      <trkpt lat="46.46171" lon="5.43831">
        <ele>442.8</ele>
        <time>2022-03-05T15:50:38Z</time>
      </trkpt>
      <trkpt lat="46.46175" lon="5.43818">
        <ele>443.4</ele>
        <time>2022-03-05T15:50:41Z</time>
      </trkpt>
      <trkpt lat="46.46179" lon="5.43801">
        <ele>443.8</ele>
        <time>2022-03-05T15:50:45Z</time>
      </trkpt>
      <trkpt lat="46.46184" lon="5.43783">
        <ele>444.6</ele>
        <time>2022-03-05T15:50:49Z</time>
      </trkpt>
      <trkpt lat="46.46185" lon="5.43774">
        <ele>445.2</ele>
        <time>2022-03-05T15:50:51Z</time>
      </trkpt>
      <trkpt lat="46.46189" lon="5.4375">
        <ele>446</ele>
        <time>2022-03-05T15:50:56Z</time>
      </trkpt>
      <trkpt lat="46.46189" lon="5.43745">
        <ele>446</ele>
        <time>2022-03-05T15:50:57Z</time>
      </trkpt>
      <trkpt lat="46.4619" lon="5.43716">
        <ele>447.2</ele>
        <time>2022-03-05T15:51:03Z</time>
      </trkpt>
      <trkpt lat="46.4619" lon="5.43711">
        <ele>447.4</ele>
        <time>2022-03-05T15:51:04Z</time>
      </trkpt>
      <trkpt lat="46.46185" lon="5.43677">
        <ele>448.2</ele>
        <time>2022-03-05T15:51:11Z</time>
      </trkpt>
      <trkpt lat="46.46183" lon="5.43667">
        <ele>448.6</ele>
        <time>2022-03-05T15:51:13Z</time>
      </trkpt>
      <trkpt lat="46.46176" lon="5.43644">
        <ele>449.6</ele>
        <time>2022-03-05T15:51:18Z</time>
      </trkpt>
      <trkpt lat="46.46174" lon="5.4364">
        <ele>449.6</ele>
        <time>2022-03-05T15:51:19Z</time>
      </trkpt>
      <trkpt lat="46.46153" lon="5.43604">
        <ele>450.4</ele>
        <time>2022-03-05T15:51:27Z</time>
      </trkpt>
      <trkpt lat="46.4615" lon="5.436">
        <ele>450.6</ele>
        <time>2022-03-05T15:51:28Z</time>
      </trkpt>
      <trkpt lat="46.46126" lon="5.4358">
        <ele>450.2</ele>
        <time>2022-03-05T15:51:34Z</time>
      </trkpt>
      <trkpt lat="46.46095" lon="5.43568">
        <ele>449.8</ele>
        <time>2022-03-05T15:51:40Z</time>
      </trkpt>
      <trkpt lat="46.46084" lon="5.43566">
        <ele>449.4</ele>
        <time>2022-03-05T15:51:42Z</time>
      </trkpt>
      <trkpt lat="46.46064" lon="5.43566">
        <ele>448.8</ele>
        <time>2022-03-05T15:51:45Z</time>
      </trkpt>
      <trkpt lat="46.46043" lon="5.43564">
        <ele>448.4</ele>
        <time>2022-03-05T15:51:48Z</time>
      </trkpt>
      <trkpt lat="46.46013" lon="5.43556">
        <ele>447.4</ele>
        <time>2022-03-05T15:51:52Z</time>
      </trkpt>
      <trkpt lat="46.46006" lon="5.43553">
        <ele>446.8</ele>
        <time>2022-03-05T15:51:53Z</time>
      </trkpt>
      <trkpt lat="46.45983" lon="5.4354">
        <ele>445.4</ele>
        <time>2022-03-05T15:51:56Z</time>
      </trkpt>
      <trkpt lat="46.45975" lon="5.43535">
        <ele>445.2</ele>
        <time>2022-03-05T15:51:57Z</time>
      </trkpt>
      <trkpt lat="46.45952" lon="5.43518">
        <ele>444.4</ele>
        <time>2022-03-05T15:52:00Z</time>
      </trkpt>
      <trkpt lat="46.45927" lon="5.43499">
        <ele>443.8</ele>
        <time>2022-03-05T15:52:03Z</time>
      </trkpt>
      <trkpt lat="46.45911" lon="5.43486">
        <ele>442.8</ele>
        <time>2022-03-05T15:52:05Z</time>
      </trkpt>
      <trkpt lat="46.45894" lon="5.43473">
        <ele>441.6</ele>
        <time>2022-03-05T15:52:07Z</time>
      </trkpt>
      <trkpt lat="46.45869" lon="5.43453">
        <ele>440.4</ele>
        <time>2022-03-05T15:52:10Z</time>
      </trkpt>
      <trkpt lat="46.45851" lon="5.4344">
        <ele>438.6</ele>
        <time>2022-03-05T15:52:12Z</time>
      </trkpt>
      <trkpt lat="46.45825" lon="5.43421">
        <ele>437.6</ele>
        <time>2022-03-05T15:52:15Z</time>
      </trkpt>
      <trkpt lat="46.45791" lon="5.43394">
        <ele>436.6</ele>
        <time>2022-03-05T15:52:19Z</time>
      </trkpt>
      <trkpt lat="46.45782" lon="5.43387">
        <ele>436.4</ele>
        <time>2022-03-05T15:52:20Z</time>
      </trkpt>
      <trkpt lat="46.45756" lon="5.43363">
        <ele>435.2</ele>
        <time>2022-03-05T15:52:23Z</time>
      </trkpt>
      <trkpt lat="46.45733" lon="5.43335">
        <ele>434.8</ele>
        <time>2022-03-05T15:52:26Z</time>
      </trkpt>
      <trkpt lat="46.45725" lon="5.43325">
        <ele>434.2</ele>
        <time>2022-03-05T15:52:27Z</time>
      </trkpt>
      <trkpt lat="46.45706" lon="5.43291">
        <ele>432.6</ele>
        <time>2022-03-05T15:52:30Z</time>
      </trkpt>
      <trkpt lat="46.457" lon="5.43279">
        <ele>432.2</ele>
        <time>2022-03-05T15:52:31Z</time>
      </trkpt>
      <trkpt lat="46.45695" lon="5.43266">
        <ele>431.6</ele>
        <time>2022-03-05T15:52:32Z</time>
      </trkpt>
      <trkpt lat="46.45674" lon="5.4322">
        <ele>430.4</ele>
        <time>2022-03-05T15:52:36Z</time>
      </trkpt>
      <trkpt lat="46.45659" lon="5.43186">
        <ele>429.6</ele>
        <time>2022-03-05T15:52:39Z</time>
      </trkpt>
      <trkpt lat="46.45648" lon="5.43163">
        <ele>429.2</ele>
        <time>2022-03-05T15:52:41Z</time>
      </trkpt>
      <trkpt lat="46.45624" lon="5.43107">
        <ele>428.2</ele>
        <time>2022-03-05T15:52:46Z</time>
      </trkpt>
      <trkpt lat="46.45614" lon="5.43086">
        <ele>428</ele>
        <time>2022-03-05T15:52:48Z</time>
      </trkpt>
      <trkpt lat="46.45581" lon="5.43016">
        <ele>428.2</ele>
        <time>2022-03-05T15:52:55Z</time>
      </trkpt>
      <trkpt lat="46.45576" lon="5.43008">
        <ele>428.2</ele>
        <time>2022-03-05T15:52:56Z</time>
      </trkpt>
      <trkpt lat="46.45546" lon="5.42964">
        <ele>429.2</ele>
        <time>2022-03-05T15:53:02Z</time>
      </trkpt>
      <trkpt lat="46.45519" lon="5.4293">
        <ele>430.8</ele>
        <time>2022-03-05T15:53:08Z</time>
      </trkpt>
      <trkpt lat="46.4551" lon="5.42918">
        <ele>431.6</ele>
        <time>2022-03-05T15:53:10Z</time>
      </trkpt>
      <trkpt lat="46.45503" lon="5.42907">
        <ele>431.8</ele>
        <time>2022-03-05T15:53:12Z</time>
      </trkpt>
      <trkpt lat="46.45495" lon="5.42894">
        <ele>432.2</ele>
        <time>2022-03-05T15:53:14Z</time>
      </trkpt>
      <trkpt lat="46.45486" lon="5.42883">
        <ele>432.4</ele>
        <time>2022-03-05T15:53:16Z</time>
      </trkpt>
      <trkpt lat="46.45473" lon="5.42868">
        <ele>433</ele>
        <time>2022-03-05T15:53:19Z</time>
      </trkpt>
      <trkpt lat="46.45456" lon="5.4285">
        <ele>433.6</ele>
        <time>2022-03-05T15:53:23Z</time>
      </trkpt>
      <trkpt lat="46.45447" lon="5.42841">
        <ele>434</ele>
        <time>2022-03-05T15:53:25Z</time>
      </trkpt>
      <trkpt lat="46.45415" lon="5.42811">
        <ele>434.8</ele>
        <time>2022-03-05T15:53:32Z</time>
      </trkpt>
      <trkpt lat="46.45402" lon="5.42798">
        <ele>435</ele>
        <time>2022-03-05T15:53:35Z</time>
      </trkpt>
      <trkpt lat="46.45382" lon="5.42774">
        <ele>436.2</ele>
        <time>2022-03-05T15:53:40Z</time>
      </trkpt>
      <trkpt lat="46.45378" lon="5.4277">
        <ele>436.2</ele>
        <time>2022-03-05T15:53:41Z</time>
      </trkpt>
      <trkpt lat="46.45358" lon="5.4274">
        <ele>437.2</ele>
        <time>2022-03-05T15:53:47Z</time>
      </trkpt>
      <trkpt lat="46.45352" lon="5.42729">
        <ele>437.4</ele>
        <time>2022-03-05T15:53:49Z</time>
      </trkpt>
      <trkpt lat="46.45342" lon="5.42712">
        <ele>438.2</ele>
        <time>2022-03-05T15:53:52Z</time>
      </trkpt>
      <trkpt lat="46.45321" lon="5.42673">
        <ele>439.4</ele>
        <time>2022-03-05T15:53:59Z</time>
      </trkpt>
      <trkpt lat="46.45296" lon="5.4263">
        <ele>440.6</ele>
        <time>2022-03-05T15:54:07Z</time>
      </trkpt>
      <trkpt lat="46.4529" lon="5.42618">
        <ele>440.8</ele>
        <time>2022-03-05T15:54:09Z</time>
      </trkpt>
      <trkpt lat="46.45281" lon="5.42602">
        <ele>441.6</ele>
        <time>2022-03-05T15:54:12Z</time>
      </trkpt>
      <trkpt lat="46.45266" lon="5.42575">
        <ele>442.6</ele>
        <time>2022-03-05T15:54:17Z</time>
      </trkpt>
      <trkpt lat="46.45257" lon="5.42558">
        <ele>443</ele>
        <time>2022-03-05T15:54:20Z</time>
      </trkpt>
      <trkpt lat="46.45251" lon="5.42547">
        <ele>443.6</ele>
        <time>2022-03-05T15:54:22Z</time>
      </trkpt>
      <trkpt lat="46.45228" lon="5.42505">
        <ele>445</ele>
        <time>2022-03-05T15:54:30Z</time>
      </trkpt>
      <trkpt lat="46.45219" lon="5.42488">
        <ele>445.6</ele>
        <time>2022-03-05T15:54:33Z</time>
      </trkpt>
      <trkpt lat="46.4521" lon="5.42471">
        <ele>446</ele>
        <time>2022-03-05T15:54:36Z</time>
      </trkpt>
      <trkpt lat="46.45185" lon="5.42427">
        <ele>447</ele>
        <time>2022-03-05T15:54:44Z</time>
      </trkpt>
      <trkpt lat="46.45166" lon="5.42395">
        <ele>448.2</ele>
        <time>2022-03-05T15:54:50Z</time>
      </trkpt>
      <trkpt lat="46.45157" lon="5.42379">
        <ele>448.8</ele>
        <time>2022-03-05T15:54:53Z</time>
      </trkpt>
      <trkpt lat="46.45154" lon="5.42374">
        <ele>449</ele>
        <time>2022-03-05T15:54:54Z</time>
      </trkpt>
      <trkpt lat="46.45143" lon="5.4236">
        <ele>449.4</ele>
        <time>2022-03-05T15:54:57Z</time>
      </trkpt>
      <trkpt lat="46.45135" lon="5.42351">
        <ele>449.6</ele>
        <time>2022-03-05T15:54:59Z</time>
      </trkpt>
      <trkpt lat="46.45124" lon="5.42336">
        <ele>450</ele>
        <time>2022-03-05T15:55:02Z</time>
      </trkpt>
      <trkpt lat="46.45117" lon="5.42326">
        <ele>450.4</ele>
        <time>2022-03-05T15:55:04Z</time>
      </trkpt>
      <trkpt lat="46.45114" lon="5.42321">
        <ele>450.6</ele>
        <time>2022-03-05T15:55:05Z</time>
      </trkpt>
      <trkpt lat="46.45098" lon="5.42303">
        <ele>451.8</ele>
        <time>2022-03-05T15:55:09Z</time>
      </trkpt>
      <trkpt lat="46.45092" lon="5.42292">
        <ele>452.2</ele>
        <time>2022-03-05T15:55:11Z</time>
      </trkpt>
      <trkpt lat="46.4509" lon="5.42286">
        <ele>452.4</ele>
        <time>2022-03-05T15:55:12Z</time>
      </trkpt>
      <trkpt lat="46.45088" lon="5.4228">
        <ele>452.6</ele>
        <time>2022-03-05T15:55:13Z</time>
      </trkpt>
      <trkpt lat="46.45087" lon="5.42273">
        <ele>452.8</ele>
        <time>2022-03-05T15:55:14Z</time>
      </trkpt>
      <trkpt lat="46.45084" lon="5.42252">
        <ele>453.2</ele>
        <time>2022-03-05T15:55:17Z</time>
      </trkpt>
      <trkpt lat="46.45081" lon="5.42224">
        <ele>454</ele>
        <time>2022-03-05T15:55:21Z</time>
      </trkpt>
      <trkpt lat="46.45079" lon="5.42203">
        <ele>454.6</ele>
        <time>2022-03-05T15:55:24Z</time>
      </trkpt>
      <trkpt lat="46.45074" lon="5.42183">
        <ele>455.4</ele>
        <time>2022-03-05T15:55:27Z</time>
      </trkpt>
      <trkpt lat="46.45066" lon="5.42155">
        <ele>456.4</ele>
        <time>2022-03-05T15:55:31Z</time>
      </trkpt>
      <trkpt lat="46.45064" lon="5.42148">
        <ele>456.6</ele>
        <time>2022-03-05T15:55:32Z</time>
      </trkpt>
      <trkpt lat="46.45044" lon="5.42099">
        <ele>457.2</ele>
        <time>2022-03-05T15:55:39Z</time>
      </trkpt>
      <trkpt lat="46.45019" lon="5.42053">
        <ele>457.6</ele>
        <time>2022-03-05T15:55:46Z</time>
      </trkpt>
      <trkpt lat="46.44983" lon="5.41993">
        <ele>458.2</ele>
        <time>2022-03-05T15:55:56Z</time>
      </trkpt>
      <trkpt lat="46.44975" lon="5.41981">
        <ele>458.6</ele>
        <time>2022-03-05T15:55:58Z</time>
      </trkpt>
      <trkpt lat="46.44969" lon="5.41971">
        <ele>459.2</ele>
        <time>2022-03-05T15:56:00Z</time>
      </trkpt>
      <trkpt lat="46.4496" lon="5.41954">
        <ele>459.6</ele>
        <time>2022-03-05T15:56:03Z</time>
      </trkpt>
      <trkpt lat="46.44958" lon="5.41948">
        <ele>460</ele>
        <time>2022-03-05T15:56:04Z</time>
      </trkpt>
      <trkpt lat="46.44956" lon="5.41942">
        <ele>460.2</ele>
        <time>2022-03-05T15:56:05Z</time>
      </trkpt>
      <trkpt lat="46.44955" lon="5.41928">
        <ele>460.6</ele>
        <time>2022-03-05T15:56:07Z</time>
      </trkpt>
      <trkpt lat="46.44955" lon="5.41921">
        <ele>460.6</ele>
        <time>2022-03-05T15:56:08Z</time>
      </trkpt>
      <trkpt lat="46.4496" lon="5.41888">
        <ele>461.2</ele>
        <time>2022-03-05T15:56:12Z</time>
      </trkpt>
      <trkpt lat="46.44964" lon="5.41873">
        <ele>461.6</ele>
        <time>2022-03-05T15:56:14Z</time>
      </trkpt>
      <trkpt lat="46.44972" lon="5.41852">
        <ele>462.2</ele>
        <time>2022-03-05T15:56:17Z</time>
      </trkpt>
      <trkpt lat="46.44985" lon="5.41829">
        <ele>463.2</ele>
        <time>2022-03-05T15:56:21Z</time>
      </trkpt>
      <trkpt lat="46.44989" lon="5.41824">
        <ele>463.4</ele>
        <time>2022-03-05T15:56:22Z</time>
      </trkpt>
      <trkpt lat="46.44999" lon="5.41816">
        <ele>463.8</ele>
        <time>2022-03-05T15:56:24Z</time>
      </trkpt>
      <trkpt lat="46.45004" lon="5.41812">
        <ele>464</ele>
        <time>2022-03-05T15:56:25Z</time>
      </trkpt>
      <trkpt lat="46.45015" lon="5.41807">
        <ele>464</ele>
        <time>2022-03-05T15:56:27Z</time>
      </trkpt>
      <trkpt lat="46.45026" lon="5.41806">
        <ele>464</ele>
        <time>2022-03-05T15:56:29Z</time>
      </trkpt>
      <trkpt lat="46.45031" lon="5.41806">
        <ele>464.2</ele>
        <time>2022-03-05T15:56:30Z</time>
      </trkpt>
      <trkpt lat="46.45036" lon="5.41807">
        <ele>464.2</ele>
        <time>2022-03-05T15:56:31Z</time>
      </trkpt>
      <trkpt lat="46.45057" lon="5.41813">
        <ele>464.2</ele>
        <time>2022-03-05T15:56:35Z</time>
      </trkpt>
      <trkpt lat="46.45089" lon="5.41814">
        <ele>464</ele>
        <time>2022-03-05T15:56:40Z</time>
      </trkpt>
      <trkpt lat="46.4513" lon="5.41804">
        <ele>463.2</ele>
        <time>2022-03-05T15:56:46Z</time>
      </trkpt>
      <trkpt lat="46.4516" lon="5.41783">
        <ele>463</ele>
        <time>2022-03-05T15:56:51Z</time>
      </trkpt>
      <trkpt lat="46.45171" lon="5.41773">
        <ele>462.8</ele>
        <time>2022-03-05T15:56:53Z</time>
      </trkpt>
      <trkpt lat="46.45185" lon="5.41755">
        <ele>463</ele>
        <time>2022-03-05T15:56:56Z</time>
      </trkpt>
      <trkpt lat="46.45206" lon="5.4171">
        <ele>463.4</ele>
        <time>2022-03-05T15:57:02Z</time>
      </trkpt>
      <trkpt lat="46.45225" lon="5.41658">
        <ele>463.8</ele>
        <time>2022-03-05T15:57:09Z</time>
      </trkpt>
      <trkpt lat="46.45226" lon="5.41652">
        <ele>464.2</ele>
        <time>2022-03-05T15:57:10Z</time>
      </trkpt>
      <trkpt lat="46.45231" lon="5.41621">
        <ele>464.6</ele>
        <time>2022-03-05T15:57:14Z</time>
      </trkpt>
      <trkpt lat="46.45233" lon="5.41609">
        <ele>465</ele>
        <time>2022-03-05T15:57:16Z</time>
      </trkpt>
      <trkpt lat="46.45234" lon="5.41603">
        <ele>465.4</ele>
        <time>2022-03-05T15:57:17Z</time>
      </trkpt>
      <trkpt lat="46.45236" lon="5.41596">
        <ele>465.8</ele>
        <time>2022-03-05T15:57:18Z</time>
      </trkpt>
      <trkpt lat="46.45244" lon="5.41567">
        <ele>466.4</ele>
        <time>2022-03-05T15:57:22Z</time>
      </trkpt>
      <trkpt lat="46.45252" lon="5.41553">
        <ele>466.4</ele>
        <time>2022-03-05T15:57:24Z</time>
      </trkpt>
      <trkpt lat="46.45256" lon="5.41549">
        <ele>466.4</ele>
        <time>2022-03-05T15:57:25Z</time>
      </trkpt>
      <trkpt lat="46.4527" lon="5.41535">
        <ele>466.8</ele>
        <time>2022-03-05T15:57:28Z</time>
      </trkpt>
      <trkpt lat="46.45275" lon="5.41532">
        <ele>467</ele>
        <time>2022-03-05T15:57:29Z</time>
      </trkpt>
      <trkpt lat="46.45285" lon="5.41528">
        <ele>467.2</ele>
        <time>2022-03-05T15:57:31Z</time>
      </trkpt>
      <trkpt lat="46.45302" lon="5.41528">
        <ele>467.8</ele>
        <time>2022-03-05T15:57:34Z</time>
      </trkpt>
      <trkpt lat="46.45311" lon="5.4153">
        <ele>468</ele>
        <time>2022-03-05T15:57:36Z</time>
      </trkpt>
      <trkpt lat="46.45335" lon="5.41535">
        <ele>468.6</ele>
        <time>2022-03-05T15:57:41Z</time>
      </trkpt>
      <trkpt lat="46.45346" lon="5.41537">
        <ele>469.2</ele>
        <time>2022-03-05T15:57:43Z</time>
      </trkpt>
      <trkpt lat="46.45376" lon="5.41537">
        <ele>470</ele>
        <time>2022-03-05T15:57:49Z</time>
      </trkpt>
      <trkpt lat="46.45392" lon="5.41534">
        <ele>470.2</ele>
        <time>2022-03-05T15:57:52Z</time>
      </trkpt>
      <trkpt lat="46.45411" lon="5.41528">
        <ele>471</ele>
        <time>2022-03-05T15:57:56Z</time>
      </trkpt>
      <trkpt lat="46.45416" lon="5.41526">
        <ele>471.2</ele>
        <time>2022-03-05T15:57:57Z</time>
      </trkpt>
      <trkpt lat="46.45444" lon="5.41514">
        <ele>472.6</ele>
        <time>2022-03-05T15:58:03Z</time>
      </trkpt>
      <trkpt lat="46.45459" lon="5.41509">
        <ele>473.4</ele>
        <time>2022-03-05T15:58:06Z</time>
      </trkpt>
      <trkpt lat="46.45462" lon="5.41507">
        <ele>473.6</ele>
        <time>2022-03-05T15:58:07Z</time>
      </trkpt>
      <trkpt lat="46.45488" lon="5.41496">
        <ele>475</ele>
        <time>2022-03-05T15:58:12Z</time>
      </trkpt>
      <trkpt lat="46.45513" lon="5.41485">
        <ele>475.6</ele>
        <time>2022-03-05T15:58:17Z</time>
      </trkpt>
      <trkpt lat="46.45553" lon="5.41463">
        <ele>476</ele>
        <time>2022-03-05T15:58:25Z</time>
      </trkpt>
      <trkpt lat="46.45558" lon="5.4146">
        <ele>476</ele>
        <time>2022-03-05T15:58:26Z</time>
      </trkpt>
      <trkpt lat="46.45587" lon="5.41434">
        <ele>476.4</ele>
        <time>2022-03-05T15:58:32Z</time>
      </trkpt>
      <trkpt lat="46.45591" lon="5.41428">
        <ele>476.2</ele>
        <time>2022-03-05T15:58:33Z</time>
      </trkpt>
      <trkpt lat="46.45615" lon="5.41385">
        <ele>476.2</ele>
        <time>2022-03-05T15:58:40Z</time>
      </trkpt>
      <trkpt lat="46.45649" lon="5.41321">
        <ele>476.4</ele>
        <time>2022-03-05T15:58:50Z</time>
      </trkpt>
      <trkpt lat="46.45681" lon="5.41278">
        <ele>476.6</ele>
        <time>2022-03-05T15:58:57Z</time>
      </trkpt>
      <trkpt lat="46.45722" lon="5.4123">
        <ele>476.4</ele>
        <time>2022-03-05T15:59:05Z</time>
      </trkpt>
      <trkpt lat="46.45747" lon="5.41201">
        <ele>476.6</ele>
        <time>2022-03-05T15:59:10Z</time>
      </trkpt>
      <trkpt lat="46.45754" lon="5.41188">
        <ele>476.6</ele>
        <time>2022-03-05T15:59:12Z</time>
      </trkpt>
      <trkpt lat="46.45769" lon="5.41146">
        <ele>476.8</ele>
        <time>2022-03-05T15:59:17Z</time>
      </trkpt>
      <trkpt lat="46.45774" lon="5.41122">
        <ele>477</ele>
        <time>2022-03-05T15:59:20Z</time>
      </trkpt>
      <trkpt lat="46.45786" lon="5.41071">
        <ele>477.2</ele>
        <time>2022-03-05T15:59:26Z</time>
      </trkpt>
      <trkpt lat="46.45805" lon="5.41006">
        <ele>478.2</ele>
        <time>2022-03-05T15:59:34Z</time>
      </trkpt>
      <trkpt lat="46.45807" lon="5.40999">
        <ele>478.2</ele>
        <time>2022-03-05T15:59:35Z</time>
      </trkpt>
      <trkpt lat="46.45818" lon="5.40956">
        <ele>479.4</ele>
        <time>2022-03-05T15:59:41Z</time>
      </trkpt>
      <trkpt lat="46.45822" lon="5.40941">
        <ele>479.8</ele>
        <time>2022-03-05T15:59:43Z</time>
      </trkpt>
      <trkpt lat="46.45833" lon="5.4088">
        <ele>480.4</ele>
        <time>2022-03-05T15:59:51Z</time>
      </trkpt>
      <trkpt lat="46.45837" lon="5.40855">
        <ele>480.6</ele>
        <time>2022-03-05T15:59:54Z</time>
      </trkpt>
      <trkpt lat="46.45845" lon="5.4078">
        <ele>480.2</ele>
        <time>2022-03-05T16:00:03Z</time>
      </trkpt>
      <trkpt lat="46.45852" lon="5.40713">
        <ele>480.4</ele>
        <time>2022-03-05T16:00:11Z</time>
      </trkpt>
      <trkpt lat="46.45854" lon="5.40705">
        <ele>480.8</ele>
        <time>2022-03-05T16:00:12Z</time>
      </trkpt>
      <trkpt lat="46.45861" lon="5.40685">
        <ele>481.6</ele>
        <time>2022-03-05T16:00:15Z</time>
      </trkpt>
      <trkpt lat="46.45863" lon="5.4068">
        <ele>481.6</ele>
        <time>2022-03-05T16:00:16Z</time>
      </trkpt>
      <trkpt lat="46.4587" lon="5.40663">
        <ele>482.6</ele>
        <time>2022-03-05T16:00:19Z</time>
      </trkpt>
      <trkpt lat="46.45875" lon="5.40648">
        <ele>483.6</ele>
        <time>2022-03-05T16:00:22Z</time>
      </trkpt>
      <trkpt lat="46.45877" lon="5.40644">
        <ele>484</ele>
        <time>2022-03-05T16:00:23Z</time>
      </trkpt>
      <trkpt lat="46.45883" lon="5.4063">
        <ele>485.2</ele>
        <time>2022-03-05T16:00:26Z</time>
      </trkpt>
      <trkpt lat="46.45891" lon="5.40614">
        <ele>486.2</ele>
        <time>2022-03-05T16:00:30Z</time>
      </trkpt>
      <trkpt lat="46.45899" lon="5.40596">
        <ele>487.6</ele>
        <time>2022-03-05T16:00:34Z</time>
      </trkpt>
      <trkpt lat="46.45903" lon="5.40588">
        <ele>487.8</ele>
        <time>2022-03-05T16:00:36Z</time>
      </trkpt>
      <trkpt lat="46.45909" lon="5.40573">
        <ele>488.8</ele>
        <time>2022-03-05T16:00:39Z</time>
      </trkpt>
      <trkpt lat="46.45915" lon="5.4056">
        <ele>489.8</ele>
        <time>2022-03-05T16:00:42Z</time>
      </trkpt>
      <trkpt lat="46.45921" lon="5.40547">
        <ele>490.4</ele>
        <time>2022-03-05T16:00:45Z</time>
      </trkpt>
      <trkpt lat="46.45926" lon="5.4054">
        <ele>490.8</ele>
        <time>2022-03-05T16:00:47Z</time>
      </trkpt>
      <trkpt lat="46.45936" lon="5.40527">
        <ele>492</ele>
        <time>2022-03-05T16:00:51Z</time>
      </trkpt>
      <trkpt lat="46.45941" lon="5.4052">
        <ele>492.4</ele>
        <time>2022-03-05T16:00:53Z</time>
      </trkpt>
      <trkpt lat="46.45946" lon="5.40513">
        <ele>493</ele>
        <time>2022-03-05T16:00:55Z</time>
      </trkpt>
      <trkpt lat="46.45956" lon="5.40501">
        <ele>494.2</ele>
        <time>2022-03-05T16:00:59Z</time>
      </trkpt>
      <trkpt lat="46.45959" lon="5.40499">
        <ele>494.4</ele>
        <time>2022-03-05T16:01:00Z</time>
      </trkpt>
      <trkpt lat="46.4597" lon="5.40484">
        <ele>495.4</ele>
        <time>2022-03-05T16:01:04Z</time>
      </trkpt>
      <trkpt lat="46.45979" lon="5.40469">
        <ele>496.4</ele>
        <time>2022-03-05T16:01:08Z</time>
      </trkpt>
      <trkpt lat="46.4599" lon="5.40448">
        <ele>497.6</ele>
        <time>2022-03-05T16:01:13Z</time>
      </trkpt>
      <trkpt lat="46.45998" lon="5.40431">
        <ele>498.8</ele>
        <time>2022-03-05T16:01:17Z</time>
      </trkpt>
      <trkpt lat="46.46003" lon="5.40422">
        <ele>499.2</ele>
        <time>2022-03-05T16:01:19Z</time>
      </trkpt>
      <trkpt lat="46.46005" lon="5.40413">
        <ele>499.8</ele>
        <time>2022-03-05T16:01:21Z</time>
      </trkpt>
      <trkpt lat="46.46013" lon="5.40393">
        <ele>501</ele>
        <time>2022-03-05T16:01:26Z</time>
      </trkpt>
      <trkpt lat="46.46018" lon="5.4038">
        <ele>501.8</ele>
        <time>2022-03-05T16:01:29Z</time>
      </trkpt>
      <trkpt lat="46.4602" lon="5.40376">
        <ele>501.8</ele>
        <time>2022-03-05T16:01:30Z</time>
      </trkpt>
      <trkpt lat="46.46027" lon="5.40361">
        <ele>502.8</ele>
        <time>2022-03-05T16:01:34Z</time>
      </trkpt>
      <trkpt lat="46.4603" lon="5.40353">
        <ele>503.2</ele>
        <time>2022-03-05T16:01:36Z</time>
      </trkpt>
      <trkpt lat="46.46035" lon="5.40347">
        <ele>503.8</ele>
        <time>2022-03-05T16:01:38Z</time>
      </trkpt>
      <trkpt lat="46.46049" lon="5.40333">
        <ele>504.8</ele>
        <time>2022-03-05T16:01:43Z</time>
      </trkpt>
      <trkpt lat="46.46052" lon="5.40331">
        <ele>505</ele>
        <time>2022-03-05T16:01:44Z</time>
      </trkpt>
      <trkpt lat="46.46063" lon="5.40324">
        <ele>506.2</ele>
        <time>2022-03-05T16:01:48Z</time>
      </trkpt>
      <trkpt lat="46.46073" lon="5.40319">
        <ele>506.8</ele>
        <time>2022-03-05T16:01:51Z</time>
      </trkpt>
      <trkpt lat="46.46079" lon="5.40316">
        <ele>507.4</ele>
        <time>2022-03-05T16:01:53Z</time>
      </trkpt>
      <trkpt lat="46.46085" lon="5.40313">
        <ele>507.8</ele>
        <time>2022-03-05T16:01:55Z</time>
      </trkpt>
      <trkpt lat="46.46092" lon="5.4031">
        <ele>508.6</ele>
        <time>2022-03-05T16:01:57Z</time>
      </trkpt>
      <trkpt lat="46.46107" lon="5.40302">
        <ele>509.8</ele>
        <time>2022-03-05T16:02:02Z</time>
      </trkpt>
      <trkpt lat="46.46115" lon="5.40294">
        <ele>510.8</ele>
        <time>2022-03-05T16:02:05Z</time>
      </trkpt>
      <trkpt lat="46.46134" lon="5.40273">
        <ele>511.6</ele>
        <time>2022-03-05T16:02:11Z</time>
      </trkpt>
      <trkpt lat="46.46136" lon="5.40269">
        <ele>511.8</ele>
        <time>2022-03-05T16:02:12Z</time>
      </trkpt>
      <trkpt lat="46.46148" lon="5.40247">
        <ele>512.4</ele>
        <time>2022-03-05T16:02:17Z</time>
      </trkpt>
      <trkpt lat="46.46163" lon="5.40222">
        <ele>513</ele>
        <time>2022-03-05T16:02:23Z</time>
      </trkpt>
      <trkpt lat="46.46171" lon="5.40205">
        <ele>514</ele>
        <time>2022-03-05T16:02:27Z</time>
      </trkpt>
      <trkpt lat="46.46174" lon="5.40201">
        <ele>514.4</ele>
        <time>2022-03-05T16:02:28Z</time>
      </trkpt>
      <trkpt lat="46.46183" lon="5.40184">
        <ele>515.4</ele>
        <time>2022-03-05T16:02:32Z</time>
      </trkpt>
      <trkpt lat="46.46189" lon="5.40171">
        <ele>515.6</ele>
        <time>2022-03-05T16:02:35Z</time>
      </trkpt>
      <trkpt lat="46.4621" lon="5.4014">
        <ele>516</ele>
        <time>2022-03-05T16:02:42Z</time>
      </trkpt>
      <trkpt lat="46.46233" lon="5.40112">
        <ele>516</ele>
        <time>2022-03-05T16:02:49Z</time>
      </trkpt>
      <trkpt lat="46.46237" lon="5.40108">
        <ele>516.2</ele>
        <time>2022-03-05T16:02:50Z</time>
      </trkpt>
      <trkpt lat="46.46244" lon="5.40101">
        <ele>516.4</ele>
        <time>2022-03-05T16:02:52Z</time>
      </trkpt>
      <trkpt lat="46.46257" lon="5.40094">
        <ele>516.6</ele>
        <time>2022-03-05T16:02:55Z</time>
      </trkpt>
      <trkpt lat="46.46269" lon="5.40092">
        <ele>517</ele>
        <time>2022-03-05T16:02:58Z</time>
      </trkpt>
      <trkpt lat="46.46282" lon="5.40092">
        <ele>517.4</ele>
        <time>2022-03-05T16:03:01Z</time>
      </trkpt>
      <trkpt lat="46.46285" lon="5.40093">
        <ele>517.6</ele>
        <time>2022-03-05T16:03:02Z</time>
      </trkpt>
      <trkpt lat="46.463" lon="5.40096">
        <ele>518.6</ele>
        <time>2022-03-05T16:03:06Z</time>
      </trkpt>
      <trkpt lat="46.46311" lon="5.40098">
        <ele>519.6</ele>
        <time>2022-03-05T16:03:09Z</time>
      </trkpt>
      <trkpt lat="46.46315" lon="5.40098">
        <ele>519.8</ele>
        <time>2022-03-05T16:03:10Z</time>
      </trkpt>
      <trkpt lat="46.46332" lon="5.40097">
        <ele>520.8</ele>
        <time>2022-03-05T16:03:14Z</time>
      </trkpt>
      <trkpt lat="46.46341" lon="5.40096">
        <ele>521.4</ele>
        <time>2022-03-05T16:03:16Z</time>
      </trkpt>
      <trkpt lat="46.46349" lon="5.40094">
        <ele>521.8</ele>
        <time>2022-03-05T16:03:18Z</time>
      </trkpt>
      <trkpt lat="46.46366" lon="5.40092">
        <ele>523</ele>
        <time>2022-03-05T16:03:22Z</time>
      </trkpt>
      <trkpt lat="46.46386" lon="5.40088">
        <ele>524.4</ele>
        <time>2022-03-05T16:03:27Z</time>
      </trkpt>
      <trkpt lat="46.4639" lon="5.40087">
        <ele>524.4</ele>
        <time>2022-03-05T16:03:28Z</time>
      </trkpt>
      <trkpt lat="46.46407" lon="5.40084">
        <ele>525.4</ele>
        <time>2022-03-05T16:03:32Z</time>
      </trkpt>
      <trkpt lat="46.46439" lon="5.40077">
        <ele>526.2</ele>
        <time>2022-03-05T16:03:40Z</time>
      </trkpt>
      <trkpt lat="46.46444" lon="5.40076">
        <ele>526.4</ele>
        <time>2022-03-05T16:03:41Z</time>
      </trkpt>
      <trkpt lat="46.46485" lon="5.40072">
        <ele>527.6</ele>
        <time>2022-03-05T16:03:51Z</time>
      </trkpt>
      <trkpt lat="46.4649" lon="5.40072">
        <ele>527.8</ele>
        <time>2022-03-05T16:03:52Z</time>
      </trkpt>
      <trkpt lat="46.46513" lon="5.40078">
        <ele>528.6</ele>
        <time>2022-03-05T16:03:57Z</time>
      </trkpt>
      <trkpt lat="46.46525" lon="5.40084">
        <ele>528.8</ele>
        <time>2022-03-05T16:04:00Z</time>
      </trkpt>
      <trkpt lat="46.46569" lon="5.40107">
        <ele>530</ele>
        <time>2022-03-05T16:04:11Z</time>
      </trkpt>
      <trkpt lat="46.46597" lon="5.40121">
        <ele>531</ele>
        <time>2022-03-05T16:04:18Z</time>
      </trkpt>
      <trkpt lat="46.46601" lon="5.40123">
        <ele>531.2</ele>
        <time>2022-03-05T16:04:19Z</time>
      </trkpt>
      <trkpt lat="46.4662" lon="5.40132">
        <ele>532.2</ele>
        <time>2022-03-05T16:04:24Z</time>
      </trkpt>
      <trkpt lat="46.46636" lon="5.40142">
        <ele>532.8</ele>
        <time>2022-03-05T16:04:28Z</time>
      </trkpt>
      <trkpt lat="46.46648" lon="5.40147">
        <ele>533.4</ele>
        <time>2022-03-05T16:04:31Z</time>
      </trkpt>
      <trkpt lat="46.46667" lon="5.40155">
        <ele>534.4</ele>
        <time>2022-03-05T16:04:36Z</time>
      </trkpt>
      <trkpt lat="46.4668" lon="5.40163">
        <ele>535.6</ele>
        <time>2022-03-05T16:04:40Z</time>
      </trkpt>
      <trkpt lat="46.46684" lon="5.40165">
        <ele>535.6</ele>
        <time>2022-03-05T16:04:41Z</time>
      </trkpt>
      <trkpt lat="46.4669" lon="5.40168">
        <ele>536.6</ele>
        <time>2022-03-05T16:04:43Z</time>
      </trkpt>
      <trkpt lat="46.46706" lon="5.40177">
        <ele>537.8</ele>
        <time>2022-03-05T16:04:48Z</time>
      </trkpt>
      <trkpt lat="46.46717" lon="5.40182">
        <ele>538.8</ele>
        <time>2022-03-05T16:04:52Z</time>
      </trkpt>
      <trkpt lat="46.46727" lon="5.40187">
        <ele>539.8</ele>
        <time>2022-03-05T16:04:57Z</time>
      </trkpt>
      <trkpt lat="46.46728" lon="5.40189">
        <ele>540.2</ele>
        <time>2022-03-05T16:04:59Z</time>
      </trkpt>
      <trkpt lat="46.46728" lon="5.40189">
        <ele>540.6</ele>
        <time>2022-03-05T16:05:01Z</time>
      </trkpt>
      <trkpt lat="46.46737" lon="5.40189">
        <ele>541.2</ele>
        <time>2022-03-05T16:08:05Z</time>
      </trkpt>
      <trkpt lat="46.46756" lon="5.40201">
        <ele>541.4</ele>
        <time>2022-03-05T16:08:12Z</time>
      </trkpt>
      <trkpt lat="46.46768" lon="5.40209">
        <ele>541.6</ele>
        <time>2022-03-05T16:08:16Z</time>
      </trkpt>
      <trkpt lat="46.46778" lon="5.40215">
        <ele>542.6</ele>
        <time>2022-03-05T16:08:19Z</time>
      </trkpt>
      <trkpt lat="46.468" lon="5.40224">
        <ele>543.6</ele>
        <time>2022-03-05T16:08:25Z</time>
      </trkpt>
      <trkpt lat="46.46803" lon="5.40226">
        <ele>543.8</ele>
        <time>2022-03-05T16:08:26Z</time>
      </trkpt>
      <trkpt lat="46.46818" lon="5.40233">
        <ele>545</ele>
        <time>2022-03-05T16:08:30Z</time>
      </trkpt>
      <trkpt lat="46.46829" lon="5.40239">
        <ele>546.2</ele>
        <time>2022-03-05T16:08:34Z</time>
      </trkpt>
      <trkpt lat="46.46849" lon="5.40248">
        <ele>547</ele>
        <time>2022-03-05T16:08:41Z</time>
      </trkpt>
      <trkpt lat="46.46852" lon="5.4025">
        <ele>547.2</ele>
        <time>2022-03-05T16:08:42Z</time>
      </trkpt>
      <trkpt lat="46.46868" lon="5.40256">
        <ele>548.6</ele>
        <time>2022-03-05T16:08:48Z</time>
      </trkpt>
      <trkpt lat="46.46874" lon="5.40259">
        <ele>549</ele>
        <time>2022-03-05T16:08:50Z</time>
      </trkpt>
      <trkpt lat="46.4689" lon="5.40268">
        <ele>549.6</ele>
        <time>2022-03-05T16:08:56Z</time>
      </trkpt>
      <trkpt lat="46.46892" lon="5.40269">
        <ele>549.6</ele>
        <time>2022-03-05T16:08:57Z</time>
      </trkpt>
      <trkpt lat="46.46907" lon="5.40278">
        <ele>550.2</ele>
        <time>2022-03-05T16:09:03Z</time>
      </trkpt>
      <trkpt lat="46.46917" lon="5.40283">
        <ele>550.6</ele>
        <time>2022-03-05T16:09:06Z</time>
      </trkpt>
      <trkpt lat="46.46926" lon="5.40288">
        <ele>550.8</ele>
        <time>2022-03-05T16:09:08Z</time>
      </trkpt>
      <trkpt lat="46.46954" lon="5.40302">
        <ele>551.6</ele>
        <time>2022-03-05T16:09:15Z</time>
      </trkpt>
      <trkpt lat="46.46958" lon="5.40304">
        <ele>551.8</ele>
        <time>2022-03-05T16:09:16Z</time>
      </trkpt>
      <trkpt lat="46.46966" lon="5.40308">
        <ele>552</ele>
        <time>2022-03-05T16:09:18Z</time>
      </trkpt>
      <trkpt lat="46.46972" lon="5.40311">
        <ele>552.8</ele>
        <time>2022-03-05T16:09:20Z</time>
      </trkpt>
      <trkpt lat="46.46977" lon="5.40313">
        <ele>553</ele>
        <time>2022-03-05T16:09:21Z</time>
      </trkpt>
      <trkpt lat="46.46996" lon="5.40319">
        <ele>554</ele>
        <time>2022-03-05T16:09:26Z</time>
      </trkpt>
      <trkpt lat="46.47008" lon="5.40321">
        <ele>554.4</ele>
        <time>2022-03-05T16:09:29Z</time>
      </trkpt>
      <trkpt lat="46.47024" lon="5.40321">
        <ele>554.6</ele>
        <time>2022-03-05T16:09:34Z</time>
      </trkpt>
      <trkpt lat="46.47043" lon="5.40321">
        <ele>554.8</ele>
        <time>2022-03-05T16:09:38Z</time>
      </trkpt>
      <trkpt lat="46.47062" lon="5.40323">
        <ele>554</ele>
        <time>2022-03-05T16:09:41Z</time>
      </trkpt>
      <trkpt lat="46.47073" lon="5.40324">
        <ele>553.4</ele>
        <time>2022-03-05T16:09:43Z</time>
      </trkpt>
      <trkpt lat="46.47097" lon="5.40326">
        <ele>552.8</ele>
        <time>2022-03-05T16:09:46Z</time>
      </trkpt>
      <trkpt lat="46.47111" lon="5.40328">
        <ele>551.8</ele>
        <time>2022-03-05T16:09:48Z</time>
      </trkpt>
      <trkpt lat="46.47121" lon="5.40329">
        <ele>551.4</ele>
        <time>2022-03-05T16:09:49Z</time>
      </trkpt>
      <trkpt lat="46.47145" lon="5.40335">
        <ele>549.8</ele>
        <time>2022-03-05T16:09:52Z</time>
      </trkpt>
      <trkpt lat="46.47153" lon="5.40337">
        <ele>549.6</ele>
        <time>2022-03-05T16:09:53Z</time>
      </trkpt>
      <trkpt lat="46.4717" lon="5.40344">
        <ele>548.4</ele>
        <time>2022-03-05T16:09:55Z</time>
      </trkpt>
      <trkpt lat="46.47178" lon="5.40349">
        <ele>547.6</ele>
        <time>2022-03-05T16:09:56Z</time>
      </trkpt>
      <trkpt lat="46.47186" lon="5.40355">
        <ele>546.8</ele>
        <time>2022-03-05T16:09:57Z</time>
      </trkpt>
      <trkpt lat="46.47194" lon="5.40363">
        <ele>546.4</ele>
        <time>2022-03-05T16:09:58Z</time>
      </trkpt>
      <trkpt lat="46.47201" lon="5.40373">
        <ele>546</ele>
        <time>2022-03-05T16:09:59Z</time>
      </trkpt>
      <trkpt lat="46.47208" lon="5.40383">
        <ele>545.6</ele>
        <time>2022-03-05T16:10:00Z</time>
      </trkpt>
      <trkpt lat="46.47223" lon="5.40403">
        <ele>544.2</ele>
        <time>2022-03-05T16:10:02Z</time>
      </trkpt>
      <trkpt lat="46.4724" lon="5.40417">
        <ele>543.4</ele>
        <time>2022-03-05T16:10:04Z</time>
      </trkpt>
      <trkpt lat="46.47259" lon="5.40426">
        <ele>542.4</ele>
        <time>2022-03-05T16:10:06Z</time>
      </trkpt>
      <trkpt lat="46.4728" lon="5.40433">
        <ele>541.2</ele>
        <time>2022-03-05T16:10:08Z</time>
      </trkpt>
      <trkpt lat="46.47302" lon="5.40438">
        <ele>540</ele>
        <time>2022-03-05T16:10:10Z</time>
      </trkpt>
      <trkpt lat="46.47314" lon="5.40441">
        <ele>539.4</ele>
        <time>2022-03-05T16:10:11Z</time>
      </trkpt>
      <trkpt lat="46.47323" lon="5.40443">
        <ele>538.4</ele>
        <time>2022-03-05T16:10:12Z</time>
      </trkpt>
      <trkpt lat="46.47346" lon="5.40446">
        <ele>537.2</ele>
        <time>2022-03-05T16:10:14Z</time>
      </trkpt>
      <trkpt lat="46.47366" lon="5.40448">
        <ele>536.4</ele>
        <time>2022-03-05T16:10:16Z</time>
      </trkpt>
      <trkpt lat="46.47377" lon="5.40448">
        <ele>536</ele>
        <time>2022-03-05T16:10:17Z</time>
      </trkpt>
      <trkpt lat="46.4741" lon="5.40444">
        <ele>534.2</ele>
        <time>2022-03-05T16:10:20Z</time>
      </trkpt>
      <trkpt lat="46.47421" lon="5.40444">
        <ele>533.6</ele>
        <time>2022-03-05T16:10:21Z</time>
      </trkpt>
      <trkpt lat="46.47432" lon="5.40444">
        <ele>533</ele>
        <time>2022-03-05T16:10:22Z</time>
      </trkpt>
      <trkpt lat="46.47454" lon="5.40446">
        <ele>531.8</ele>
        <time>2022-03-05T16:10:24Z</time>
      </trkpt>
      <trkpt lat="46.47472" lon="5.40451">
        <ele>531.4</ele>
        <time>2022-03-05T16:10:26Z</time>
      </trkpt>
      <trkpt lat="46.4748" lon="5.40456">
        <ele>530.8</ele>
        <time>2022-03-05T16:10:27Z</time>
      </trkpt>
      <trkpt lat="46.47496" lon="5.40469">
        <ele>529.6</ele>
        <time>2022-03-05T16:10:29Z</time>
      </trkpt>
      <trkpt lat="46.47507" lon="5.4048">
        <ele>528.2</ele>
        <time>2022-03-05T16:10:31Z</time>
      </trkpt>
      <trkpt lat="46.47514" lon="5.4048">
        <ele>527.8</ele>
        <time>2022-03-05T16:10:32Z</time>
      </trkpt>
      <trkpt lat="46.47524" lon="5.40476">
        <ele>527.4</ele>
        <time>2022-03-05T16:10:33Z</time>
      </trkpt>
      <trkpt lat="46.47536" lon="5.40464">
        <ele>527.2</ele>
        <time>2022-03-05T16:10:35Z</time>
      </trkpt>
      <trkpt lat="46.47538" lon="5.40456">
        <ele>526.2</ele>
        <time>2022-03-05T16:10:36Z</time>
      </trkpt>
      <trkpt lat="46.47539" lon="5.40443">
        <ele>525.2</ele>
        <time>2022-03-05T16:10:37Z</time>
      </trkpt>
      <trkpt lat="46.47537" lon="5.40429">
        <ele>524.2</ele>
        <time>2022-03-05T16:10:38Z</time>
      </trkpt>
      <trkpt lat="46.47534" lon="5.40415">
        <ele>523.8</ele>
        <time>2022-03-05T16:10:39Z</time>
      </trkpt>
      <trkpt lat="46.47522" lon="5.40376">
        <ele>522.6</ele>
        <time>2022-03-05T16:10:42Z</time>
      </trkpt>
      <trkpt lat="46.4752" lon="5.40361">
        <ele>522.2</ele>
        <time>2022-03-05T16:10:43Z</time>
      </trkpt>
      <trkpt lat="46.47521" lon="5.40347">
        <ele>521.6</ele>
        <time>2022-03-05T16:10:44Z</time>
      </trkpt>
      <trkpt lat="46.47524" lon="5.4033">
        <ele>520.6</ele>
        <time>2022-03-05T16:10:45Z</time>
      </trkpt>
      <trkpt lat="46.4753" lon="5.40318">
        <ele>519.8</ele>
        <time>2022-03-05T16:10:46Z</time>
      </trkpt>
      <trkpt lat="46.47536" lon="5.40306">
        <ele>518.6</ele>
        <time>2022-03-05T16:10:47Z</time>
      </trkpt>
      <trkpt lat="46.47543" lon="5.40296">
        <ele>518.2</ele>
        <time>2022-03-05T16:10:48Z</time>
      </trkpt>
      <trkpt lat="46.47558" lon="5.4028">
        <ele>517.4</ele>
        <time>2022-03-05T16:10:50Z</time>
      </trkpt>
      <trkpt lat="46.47566" lon="5.40273">
        <ele>516.6</ele>
        <time>2022-03-05T16:10:51Z</time>
      </trkpt>
      <trkpt lat="46.47576" lon="5.40268">
        <ele>516.2</ele>
        <time>2022-03-05T16:10:52Z</time>
      </trkpt>
      <trkpt lat="46.47585" lon="5.40264">
        <ele>515.8</ele>
        <time>2022-03-05T16:10:53Z</time>
      </trkpt>
      <trkpt lat="46.47606" lon="5.40259">
        <ele>515</ele>
        <time>2022-03-05T16:10:55Z</time>
      </trkpt>
      <trkpt lat="46.47616" lon="5.40256">
        <ele>514.2</ele>
        <time>2022-03-05T16:10:56Z</time>
      </trkpt>
      <trkpt lat="46.47626" lon="5.40254">
        <ele>513.8</ele>
        <time>2022-03-05T16:10:57Z</time>
      </trkpt>
      <trkpt lat="46.47636" lon="5.40252">
        <ele>512.8</ele>
        <time>2022-03-05T16:10:58Z</time>
      </trkpt>
      <trkpt lat="46.47664" lon="5.40249">
        <ele>511.4</ele>
        <time>2022-03-05T16:11:01Z</time>
      </trkpt>
      <trkpt lat="46.47683" lon="5.40246">
        <ele>509.8</ele>
        <time>2022-03-05T16:11:03Z</time>
      </trkpt>
      <trkpt lat="46.477" lon="5.40235">
        <ele>509.2</ele>
        <time>2022-03-05T16:11:05Z</time>
      </trkpt>
      <trkpt lat="46.47712" lon="5.40215">
        <ele>508.6</ele>
        <time>2022-03-05T16:11:07Z</time>
      </trkpt>
      <trkpt lat="46.47715" lon="5.40202">
        <ele>508.4</ele>
        <time>2022-03-05T16:11:08Z</time>
      </trkpt>
      <trkpt lat="46.47723" lon="5.40176">
        <ele>507.8</ele>
        <time>2022-03-05T16:11:10Z</time>
      </trkpt>
      <trkpt lat="46.4773" lon="5.40166">
        <ele>507.6</ele>
        <time>2022-03-05T16:11:11Z</time>
      </trkpt>
      <trkpt lat="46.47737" lon="5.40156">
        <ele>506.8</ele>
        <time>2022-03-05T16:11:12Z</time>
      </trkpt>
      <trkpt lat="46.47747" lon="5.40144">
        <ele>506.4</ele>
        <time>2022-03-05T16:11:13Z</time>
      </trkpt>
      <trkpt lat="46.47753" lon="5.40135">
        <ele>506</ele>
        <time>2022-03-05T16:11:14Z</time>
      </trkpt>
      <trkpt lat="46.47759" lon="5.40125">
        <ele>505.6</ele>
        <time>2022-03-05T16:11:15Z</time>
      </trkpt>
      <trkpt lat="46.47764" lon="5.40112">
        <ele>505</ele>
        <time>2022-03-05T16:11:16Z</time>
      </trkpt>
      <trkpt lat="46.47767" lon="5.40095">
        <ele>504.2</ele>
        <time>2022-03-05T16:11:17Z</time>
      </trkpt>
      <trkpt lat="46.47768" lon="5.4008">
        <ele>503.8</ele>
        <time>2022-03-05T16:11:18Z</time>
      </trkpt>
      <trkpt lat="46.47766" lon="5.40052">
        <ele>502.6</ele>
        <time>2022-03-05T16:11:20Z</time>
      </trkpt>
      <trkpt lat="46.47767" lon="5.40024">
        <ele>501.6</ele>
        <time>2022-03-05T16:11:22Z</time>
      </trkpt>
      <trkpt lat="46.47771" lon="5.4001">
        <ele>501</ele>
        <time>2022-03-05T16:11:23Z</time>
      </trkpt>
      <trkpt lat="46.47775" lon="5.40001">
        <ele>500.8</ele>
        <time>2022-03-05T16:11:24Z</time>
      </trkpt>
      <trkpt lat="46.47783" lon="5.39992">
        <ele>500.6</ele>
        <time>2022-03-05T16:11:25Z</time>
      </trkpt>
      <trkpt lat="46.47791" lon="5.39986">
        <ele>499.8</ele>
        <time>2022-03-05T16:11:26Z</time>
      </trkpt>
      <trkpt lat="46.4781" lon="5.39976">
        <ele>498.8</ele>
        <time>2022-03-05T16:11:28Z</time>
      </trkpt>
      <trkpt lat="46.47829" lon="5.39967">
        <ele>497</ele>
        <time>2022-03-05T16:11:30Z</time>
      </trkpt>
      <trkpt lat="46.47848" lon="5.39957">
        <ele>495.4</ele>
        <time>2022-03-05T16:11:32Z</time>
      </trkpt>
      <trkpt lat="46.47858" lon="5.39951">
        <ele>494.2</ele>
        <time>2022-03-05T16:11:33Z</time>
      </trkpt>
      <trkpt lat="46.47877" lon="5.39941">
        <ele>492.8</ele>
        <time>2022-03-05T16:11:35Z</time>
      </trkpt>
      <trkpt lat="46.47896" lon="5.3993">
        <ele>491.6</ele>
        <time>2022-03-05T16:11:37Z</time>
      </trkpt>
      <trkpt lat="46.47916" lon="5.39919">
        <ele>490.4</ele>
        <time>2022-03-05T16:11:39Z</time>
      </trkpt>
      <trkpt lat="46.47935" lon="5.39908">
        <ele>489.2</ele>
        <time>2022-03-05T16:11:41Z</time>
      </trkpt>
      <trkpt lat="46.47964" lon="5.39894">
        <ele>488.2</ele>
        <time>2022-03-05T16:11:44Z</time>
      </trkpt>
      <trkpt lat="46.47973" lon="5.39889">
        <ele>487.8</ele>
        <time>2022-03-05T16:11:45Z</time>
      </trkpt>
      <trkpt lat="46.47983" lon="5.39885">
        <ele>487</ele>
        <time>2022-03-05T16:11:46Z</time>
      </trkpt>
      <trkpt lat="46.48009" lon="5.39876">
        <ele>486</ele>
        <time>2022-03-05T16:11:49Z</time>
      </trkpt>
      <trkpt lat="46.48018" lon="5.39876">
        <ele>485.8</ele>
        <time>2022-03-05T16:11:50Z</time>
      </trkpt>
      <trkpt lat="46.48026" lon="5.39879">
        <ele>485.6</ele>
        <time>2022-03-05T16:11:51Z</time>
      </trkpt>
      <trkpt lat="46.48042" lon="5.39888">
        <ele>485.4</ele>
        <time>2022-03-05T16:11:53Z</time>
      </trkpt>
      <trkpt lat="46.48057" lon="5.39897">
        <ele>485.4</ele>
        <time>2022-03-05T16:11:55Z</time>
      </trkpt>
      <trkpt lat="46.48072" lon="5.39902">
        <ele>485.6</ele>
        <time>2022-03-05T16:11:57Z</time>
      </trkpt>
      <trkpt lat="46.4811" lon="5.39901">
        <ele>486.4</ele>
        <time>2022-03-05T16:12:02Z</time>
      </trkpt>
      <trkpt lat="46.48156" lon="5.39884">
        <ele>487</ele>
        <time>2022-03-05T16:12:08Z</time>
      </trkpt>
      <trkpt lat="46.48184" lon="5.39866">
        <ele>486.6</ele>
        <time>2022-03-05T16:12:12Z</time>
      </trkpt>
      <trkpt lat="46.48189" lon="5.39859">
        <ele>486.6</ele>
        <time>2022-03-05T16:12:13Z</time>
      </trkpt>
      <trkpt lat="46.48193" lon="5.39851">
        <ele>486.4</ele>
        <time>2022-03-05T16:12:14Z</time>
      </trkpt>
      <trkpt lat="46.48196" lon="5.39831">
        <ele>486.2</ele>
        <time>2022-03-05T16:12:16Z</time>
      </trkpt>
      <trkpt lat="46.48189" lon="5.39786">
        <ele>486.2</ele>
        <time>2022-03-05T16:12:20Z</time>
      </trkpt>
      <trkpt lat="46.48176" lon="5.39701">
        <ele>485.4</ele>
        <time>2022-03-05T16:12:28Z</time>
      </trkpt>
      <trkpt lat="46.48176" lon="5.39689">
        <ele>485.2</ele>
        <time>2022-03-05T16:12:29Z</time>
      </trkpt>
      <trkpt lat="46.48179" lon="5.39651">
        <ele>484.6</ele>
        <time>2022-03-05T16:12:32Z</time>
      </trkpt>
      <trkpt lat="46.48182" lon="5.39639">
        <ele>484.6</ele>
        <time>2022-03-05T16:12:33Z</time>
      </trkpt>
      <trkpt lat="46.48186" lon="5.39626">
        <ele>484.2</ele>
        <time>2022-03-05T16:12:34Z</time>
      </trkpt>
      <trkpt lat="46.48197" lon="5.39602">
        <ele>482.8</ele>
        <time>2022-03-05T16:12:36Z</time>
      </trkpt>
      <trkpt lat="46.48202" lon="5.39589">
        <ele>482.4</ele>
        <time>2022-03-05T16:12:37Z</time>
      </trkpt>
      <trkpt lat="46.48207" lon="5.39575">
        <ele>482</ele>
        <time>2022-03-05T16:12:38Z</time>
      </trkpt>
      <trkpt lat="46.48211" lon="5.39561">
        <ele>480.2</ele>
        <time>2022-03-05T16:12:39Z</time>
      </trkpt>
      <trkpt lat="46.48217" lon="5.39532">
        <ele>478</ele>
        <time>2022-03-05T16:12:41Z</time>
      </trkpt>
      <trkpt lat="46.48224" lon="5.39506">
        <ele>476.4</ele>
        <time>2022-03-05T16:12:43Z</time>
      </trkpt>
      <trkpt lat="46.48229" lon="5.39494">
        <ele>475.6</ele>
        <time>2022-03-05T16:12:44Z</time>
      </trkpt>
      <trkpt lat="46.48235" lon="5.39483">
        <ele>474.8</ele>
        <time>2022-03-05T16:12:45Z</time>
      </trkpt>
      <trkpt lat="46.4825" lon="5.39468">
        <ele>474</ele>
        <time>2022-03-05T16:12:47Z</time>
      </trkpt>
      <trkpt lat="46.48258" lon="5.39465">
        <ele>472.8</ele>
        <time>2022-03-05T16:12:48Z</time>
      </trkpt>
      <trkpt lat="46.48266" lon="5.39464">
        <ele>472.6</ele>
        <time>2022-03-05T16:12:49Z</time>
      </trkpt>
      <trkpt lat="46.48275" lon="5.39464">
        <ele>471</ele>
        <time>2022-03-05T16:12:50Z</time>
      </trkpt>
      <trkpt lat="46.48284" lon="5.39461">
        <ele>469.8</ele>
        <time>2022-03-05T16:12:51Z</time>
      </trkpt>
      <trkpt lat="46.48291" lon="5.39456">
        <ele>468.4</ele>
        <time>2022-03-05T16:12:52Z</time>
      </trkpt>
      <trkpt lat="46.48298" lon="5.3945">
        <ele>467.8</ele>
        <time>2022-03-05T16:12:53Z</time>
      </trkpt>
      <trkpt lat="46.48303" lon="5.39441">
        <ele>466.8</ele>
        <time>2022-03-05T16:12:54Z</time>
      </trkpt>
      <trkpt lat="46.48308" lon="5.39429">
        <ele>466.4</ele>
        <time>2022-03-05T16:12:55Z</time>
      </trkpt>
      <trkpt lat="46.48312" lon="5.39415">
        <ele>465.8</ele>
        <time>2022-03-05T16:12:56Z</time>
      </trkpt>
      <trkpt lat="46.48317" lon="5.394">
        <ele>464.6</ele>
        <time>2022-03-05T16:12:57Z</time>
      </trkpt>
      <trkpt lat="46.48329" lon="5.39372">
        <ele>463.6</ele>
        <time>2022-03-05T16:12:59Z</time>
      </trkpt>
      <trkpt lat="46.48336" lon="5.39361">
        <ele>463.2</ele>
        <time>2022-03-05T16:13:00Z</time>
      </trkpt>
      <trkpt lat="46.48344" lon="5.39351">
        <ele>462</ele>
        <time>2022-03-05T16:13:01Z</time>
      </trkpt>
      <trkpt lat="46.48359" lon="5.39335">
        <ele>460</ele>
        <time>2022-03-05T16:13:03Z</time>
      </trkpt>
      <trkpt lat="46.48368" lon="5.3933">
        <ele>458.8</ele>
        <time>2022-03-05T16:13:04Z</time>
      </trkpt>
      <trkpt lat="46.48378" lon="5.39327">
        <ele>458.2</ele>
        <time>2022-03-05T16:13:05Z</time>
      </trkpt>
      <trkpt lat="46.48387" lon="5.39326">
        <ele>457.4</ele>
        <time>2022-03-05T16:13:06Z</time>
      </trkpt>
      <trkpt lat="46.48397" lon="5.39327">
        <ele>456.8</ele>
        <time>2022-03-05T16:13:07Z</time>
      </trkpt>
      <trkpt lat="46.48408" lon="5.39329">
        <ele>455.4</ele>
        <time>2022-03-05T16:13:08Z</time>
      </trkpt>
      <trkpt lat="46.48419" lon="5.3933">
        <ele>454.6</ele>
        <time>2022-03-05T16:13:09Z</time>
      </trkpt>
      <trkpt lat="46.4843" lon="5.39329">
        <ele>453.2</ele>
        <time>2022-03-05T16:13:10Z</time>
      </trkpt>
      <trkpt lat="46.48441" lon="5.39326">
        <ele>452.8</ele>
        <time>2022-03-05T16:13:11Z</time>
      </trkpt>
      <trkpt lat="46.48453" lon="5.39322">
        <ele>451.6</ele>
        <time>2022-03-05T16:13:12Z</time>
      </trkpt>
      <trkpt lat="46.48465" lon="5.39318">
        <ele>450</ele>
        <time>2022-03-05T16:13:13Z</time>
      </trkpt>
      <trkpt lat="46.48487" lon="5.39312">
        <ele>448</ele>
        <time>2022-03-05T16:13:15Z</time>
      </trkpt>
      <trkpt lat="46.4851" lon="5.39305">
        <ele>446.6</ele>
        <time>2022-03-05T16:13:17Z</time>
      </trkpt>
      <trkpt lat="46.48532" lon="5.39297">
        <ele>444.2</ele>
        <time>2022-03-05T16:13:19Z</time>
      </trkpt>
      <trkpt lat="46.48544" lon="5.39293">
        <ele>443</ele>
        <time>2022-03-05T16:13:20Z</time>
      </trkpt>
      <trkpt lat="46.48566" lon="5.39288">
        <ele>441.4</ele>
        <time>2022-03-05T16:13:22Z</time>
      </trkpt>
      <trkpt lat="46.48579" lon="5.39284">
        <ele>441</ele>
        <time>2022-03-05T16:13:23Z</time>
      </trkpt>
      <trkpt lat="46.48591" lon="5.39281">
        <ele>440.2</ele>
        <time>2022-03-05T16:13:24Z</time>
      </trkpt>
      <trkpt lat="46.48616" lon="5.39274">
        <ele>438.4</ele>
        <time>2022-03-05T16:13:26Z</time>
      </trkpt>
      <trkpt lat="46.4864" lon="5.39271">
        <ele>436.8</ele>
        <time>2022-03-05T16:13:28Z</time>
      </trkpt>
      <trkpt lat="46.48652" lon="5.39271">
        <ele>435.6</ele>
        <time>2022-03-05T16:13:29Z</time>
      </trkpt>
      <trkpt lat="46.48674" lon="5.39275">
        <ele>434.2</ele>
        <time>2022-03-05T16:13:31Z</time>
      </trkpt>
      <trkpt lat="46.48684" lon="5.39279">
        <ele>433.2</ele>
        <time>2022-03-05T16:13:32Z</time>
      </trkpt>
      <trkpt lat="46.48692" lon="5.39285">
        <ele>431.6</ele>
        <time>2022-03-05T16:13:33Z</time>
      </trkpt>
      <trkpt lat="46.48709" lon="5.39296">
        <ele>430</ele>
        <time>2022-03-05T16:13:35Z</time>
      </trkpt>
      <trkpt lat="46.48716" lon="5.393">
        <ele>429.6</ele>
        <time>2022-03-05T16:13:36Z</time>
      </trkpt>
      <trkpt lat="46.48723" lon="5.39301">
        <ele>428.4</ele>
        <time>2022-03-05T16:13:37Z</time>
      </trkpt>
      <trkpt lat="46.48729" lon="5.39298">
        <ele>427.6</ele>
        <time>2022-03-05T16:13:38Z</time>
      </trkpt>
      <trkpt lat="46.48734" lon="5.39292">
        <ele>427.4</ele>
        <time>2022-03-05T16:13:39Z</time>
      </trkpt>
      <trkpt lat="46.48737" lon="5.39285">
        <ele>426.8</ele>
        <time>2022-03-05T16:13:40Z</time>
      </trkpt>
      <trkpt lat="46.48738" lon="5.39278">
        <ele>426.4</ele>
        <time>2022-03-05T16:13:41Z</time>
      </trkpt>
      <trkpt lat="46.48736" lon="5.39269">
        <ele>426</ele>
        <time>2022-03-05T16:13:42Z</time>
      </trkpt>
      <trkpt lat="46.48721" lon="5.39249">
        <ele>424.4</ele>
        <time>2022-03-05T16:13:44Z</time>
      </trkpt>
      <trkpt lat="46.48703" lon="5.39226">
        <ele>421.8</ele>
        <time>2022-03-05T16:13:46Z</time>
      </trkpt>
      <trkpt lat="46.48684" lon="5.39202">
        <ele>420.4</ele>
        <time>2022-03-05T16:13:48Z</time>
      </trkpt>
      <trkpt lat="46.48666" lon="5.39176">
        <ele>419</ele>
        <time>2022-03-05T16:13:50Z</time>
      </trkpt>
      <trkpt lat="46.48655" lon="5.39162">
        <ele>417.4</ele>
        <time>2022-03-05T16:13:51Z</time>
      </trkpt>
      <trkpt lat="46.48645" lon="5.39149">
        <ele>417</ele>
        <time>2022-03-05T16:13:52Z</time>
      </trkpt>
      <trkpt lat="46.48633" lon="5.39137">
        <ele>416</ele>
        <time>2022-03-05T16:13:53Z</time>
      </trkpt>
      <trkpt lat="46.48609" lon="5.39118">
        <ele>414.8</ele>
        <time>2022-03-05T16:13:55Z</time>
      </trkpt>
      <trkpt lat="46.48596" lon="5.39109">
        <ele>413.4</ele>
        <time>2022-03-05T16:13:56Z</time>
      </trkpt>
      <trkpt lat="46.48572" lon="5.3909">
        <ele>410.6</ele>
        <time>2022-03-05T16:13:58Z</time>
      </trkpt>
      <trkpt lat="46.4856" lon="5.39082">
        <ele>409.4</ele>
        <time>2022-03-05T16:13:59Z</time>
      </trkpt>
      <trkpt lat="46.48546" lon="5.39074">
        <ele>407.8</ele>
        <time>2022-03-05T16:14:00Z</time>
      </trkpt>
      <trkpt lat="46.48521" lon="5.39057">
        <ele>405.4</ele>
        <time>2022-03-05T16:14:02Z</time>
      </trkpt>
      <trkpt lat="46.4851" lon="5.39045">
        <ele>404</ele>
        <time>2022-03-05T16:14:03Z</time>
      </trkpt>
      <trkpt lat="46.48502" lon="5.39029">
        <ele>403.2</ele>
        <time>2022-03-05T16:14:04Z</time>
      </trkpt>
      <trkpt lat="46.48496" lon="5.3901">
        <ele>402.2</ele>
        <time>2022-03-05T16:14:05Z</time>
      </trkpt>
      <trkpt lat="46.48486" lon="5.38973">
        <ele>399</ele>
        <time>2022-03-05T16:14:07Z</time>
      </trkpt>
      <trkpt lat="46.48479" lon="5.38956">
        <ele>398</ele>
        <time>2022-03-05T16:14:08Z</time>
      </trkpt>
      <trkpt lat="46.48472" lon="5.38941">
        <ele>396.2</ele>
        <time>2022-03-05T16:14:09Z</time>
      </trkpt>
      <trkpt lat="46.48465" lon="5.38928">
        <ele>394.4</ele>
        <time>2022-03-05T16:14:10Z</time>
      </trkpt>
      <trkpt lat="46.48459" lon="5.38916">
        <ele>393.6</ele>
        <time>2022-03-05T16:14:11Z</time>
      </trkpt>
      <trkpt lat="46.48453" lon="5.38903">
        <ele>392.4</ele>
        <time>2022-03-05T16:14:12Z</time>
      </trkpt>
      <trkpt lat="46.48451" lon="5.38889">
        <ele>392</ele>
        <time>2022-03-05T16:14:13Z</time>
      </trkpt>
      <trkpt lat="46.48451" lon="5.38876">
        <ele>391.4</ele>
        <time>2022-03-05T16:14:14Z</time>
      </trkpt>
      <trkpt lat="46.48455" lon="5.38863">
        <ele>391.2</ele>
        <time>2022-03-05T16:14:15Z</time>
      </trkpt>
      <trkpt lat="46.48461" lon="5.38853">
        <ele>390.6</ele>
        <time>2022-03-05T16:14:16Z</time>
      </trkpt>
      <trkpt lat="46.48469" lon="5.38845">
        <ele>390.2</ele>
        <time>2022-03-05T16:14:17Z</time>
      </trkpt>
      <trkpt lat="46.48477" lon="5.38838">
        <ele>389.2</ele>
        <time>2022-03-05T16:14:18Z</time>
      </trkpt>
      <trkpt lat="46.48495" lon="5.38826">
        <ele>388</ele>
        <time>2022-03-05T16:14:20Z</time>
      </trkpt>
      <trkpt lat="46.48504" lon="5.38821">
        <ele>387.2</ele>
        <time>2022-03-05T16:14:21Z</time>
      </trkpt>
      <trkpt lat="46.48524" lon="5.38808">
        <ele>386</ele>
        <time>2022-03-05T16:14:23Z</time>
      </trkpt>
      <trkpt lat="46.48553" lon="5.38789">
        <ele>384.6</ele>
        <time>2022-03-05T16:14:26Z</time>
      </trkpt>
      <trkpt lat="46.48562" lon="5.38783">
        <ele>383.6</ele>
        <time>2022-03-05T16:14:27Z</time>
      </trkpt>
      <trkpt lat="46.48571" lon="5.38777">
        <ele>382.4</ele>
        <time>2022-03-05T16:14:28Z</time>
      </trkpt>
      <trkpt lat="46.48578" lon="5.38773">
        <ele>382</ele>
        <time>2022-03-05T16:14:29Z</time>
      </trkpt>
      <trkpt lat="46.48585" lon="5.38773">
        <ele>381.4</ele>
        <time>2022-03-05T16:14:30Z</time>
      </trkpt>
      <trkpt lat="46.48592" lon="5.38775">
        <ele>381</ele>
        <time>2022-03-05T16:14:31Z</time>
      </trkpt>
      <trkpt lat="46.486" lon="5.38776">
        <ele>380</ele>
        <time>2022-03-05T16:14:32Z</time>
      </trkpt>
      <trkpt lat="46.48607" lon="5.38774">
        <ele>379.4</ele>
        <time>2022-03-05T16:14:33Z</time>
      </trkpt>
      <trkpt lat="46.48614" lon="5.38769">
        <ele>378.2</ele>
        <time>2022-03-05T16:14:34Z</time>
      </trkpt>
      <trkpt lat="46.4862" lon="5.38761">
        <ele>377.6</ele>
        <time>2022-03-05T16:14:35Z</time>
      </trkpt>
      <trkpt lat="46.48625" lon="5.38752">
        <ele>377.4</ele>
        <time>2022-03-05T16:14:36Z</time>
      </trkpt>
      <trkpt lat="46.4863" lon="5.38741">
        <ele>377</ele>
        <time>2022-03-05T16:14:37Z</time>
      </trkpt>
      <trkpt lat="46.48634" lon="5.38728">
        <ele>377</ele>
        <time>2022-03-05T16:14:38Z</time>
      </trkpt>
      <trkpt lat="46.48637" lon="5.38715">
        <ele>376.4</ele>
        <time>2022-03-05T16:14:39Z</time>
      </trkpt>
      <trkpt lat="46.48639" lon="5.38702">
        <ele>375.4</ele>
        <time>2022-03-05T16:14:40Z</time>
      </trkpt>
      <trkpt lat="46.48641" lon="5.38687">
        <ele>374</ele>
        <time>2022-03-05T16:14:41Z</time>
      </trkpt>
      <trkpt lat="46.48641" lon="5.38673">
        <ele>373.4</ele>
        <time>2022-03-05T16:14:42Z</time>
      </trkpt>
      <trkpt lat="46.48639" lon="5.38658">
        <ele>372.6</ele>
        <time>2022-03-05T16:14:43Z</time>
      </trkpt>
      <trkpt lat="46.48636" lon="5.38644">
        <ele>371.4</ele>
        <time>2022-03-05T16:14:44Z</time>
      </trkpt>
      <trkpt lat="46.48633" lon="5.38629">
        <ele>371.2</ele>
        <time>2022-03-05T16:14:45Z</time>
      </trkpt>
      <trkpt lat="46.48629" lon="5.38614">
        <ele>370.4</ele>
        <time>2022-03-05T16:14:46Z</time>
      </trkpt>
      <trkpt lat="46.48621" lon="5.38584">
        <ele>369</ele>
        <time>2022-03-05T16:14:48Z</time>
      </trkpt>
      <trkpt lat="46.48613" lon="5.38555">
        <ele>367.4</ele>
        <time>2022-03-05T16:14:50Z</time>
      </trkpt>
      <trkpt lat="46.48609" lon="5.38539">
        <ele>367</ele>
        <time>2022-03-05T16:14:51Z</time>
      </trkpt>
      <trkpt lat="46.48605" lon="5.38524">
        <ele>366</ele>
        <time>2022-03-05T16:14:52Z</time>
      </trkpt>
    </trkseg>
  </trk>
</gpx>